<?xml version='1.0' encoding='UTF-8'?><gpx version="1.1" creator="JPX - https://github.com/jenetics/jpx" xmlns="http://www.topografix.com/GPX/1/1"><trk><trkseg><trkpt lat="43.47404034374864" lon="12.264216514951306"><ele>338.0</ele><time>2026-04-26T09:22:01.999Z</time></trkpt><trkpt lat="43.474079692835744" lon="12.264109655041757"><ele>338.0</ele><time>2026-04-26T09:22:04Z</time></trkpt><trkpt lat="43.47406585669602" lon="12.263978309012968"><ele>338.0</ele><time>2026-04-26T09:22:06Z</time></trkpt><trkpt lat="43.47416842067474" lon="12.263885064365757"><ele>338.0</ele><time>2026-04-26T09:22:08Z</time></trkpt><trkpt lat="43.4742342718161" lon="12.263822342238202"><ele>338.0</ele><time>2026-04-26T09:22:09Z</time></trkpt><trkpt lat="43.47429682013235" lon="12.263756085847069"><ele>337.6666666666667</ele><time>2026-04-26T09:22:10Z</time></trkpt><trkpt lat="43.47438287745661" lon="12.263718419261576"><ele>337.33333333333337</ele><time>2026-04-26T09:22:11Z</time></trkpt><trkpt lat="43.47445044705761" lon="12.263648980591542"><ele>337.0</ele><time>2026-04-26T09:22:12Z</time></trkpt><trkpt lat="43.474498460311146" lon="12.26357315380477"><ele>336.6666666666667</ele><time>2026-04-26T09:22:13Z</time></trkpt><trkpt lat="43.47455799859783" lon="12.263514293451806"><ele>336.3333333333333</ele><time>2026-04-26T09:22:14Z</time></trkpt><trkpt lat="43.474615942779366" lon="12.263455393441484"><ele>336.0</ele><time>2026-04-26T09:22:15Z</time></trkpt><trkpt lat="43.474671453696644" lon="12.26339842915042"><ele>335.6</ele><time>2026-04-26T09:22:16Z</time></trkpt><trkpt lat="43.47476346559624" lon="12.26333041906529"><ele>335.20000000000005</ele><time>2026-04-26T09:22:18Z</time></trkpt><trkpt lat="43.47481585079431" lon="12.26328148723803"><ele>334.79999999999995</ele><time>2026-04-26T09:22:27Z</time></trkpt><trkpt lat="43.474793573832315" lon="12.263115870320112"><ele>334.4</ele><time>2026-04-26T09:22:28Z</time></trkpt><trkpt lat="43.474762027456684" lon="12.263001174176775"><ele>334.0</ele><time>2026-04-26T09:22:29Z</time></trkpt><trkpt lat="43.47469951102689" lon="12.262893062911727"><ele>334.0</ele><time>2026-04-26T09:22:30Z</time></trkpt><trkpt lat="43.47461804685456" lon="12.262785836518619"><ele>334.0</ele><time>2026-04-26T09:22:31Z</time></trkpt><trkpt lat="43.47453573483024" lon="12.26268730595073"><ele>334.0</ele><time>2026-04-26T09:22:32Z</time></trkpt><trkpt lat="43.474455314400004" lon="12.262581792764514"><ele>334.0</ele><time>2026-04-26T09:22:33Z</time></trkpt><trkpt lat="43.47436544718872" lon="12.262464270866479"><ele>333.75</ele><time>2026-04-26T09:22:34Z</time></trkpt><trkpt lat="43.474270167358625" lon="12.262339711071029"><ele>333.5</ele><time>2026-04-26T09:22:35Z</time></trkpt><trkpt lat="43.47417409616782" lon="12.262211075430619"><ele>333.25</ele><time>2026-04-26T09:22:36Z</time></trkpt><trkpt lat="43.47407987159267" lon="12.262073386725934"><ele>333.0</ele><time>2026-04-26T09:22:37Z</time></trkpt><trkpt lat="43.47398549925574" lon="12.26194266153069"><ele>332.0</ele><time>2026-04-26T09:22:38Z</time></trkpt><trkpt lat="43.47388524173997" lon="12.261807727730595"><ele>331.0</ele><time>2026-04-26T09:22:39Z</time></trkpt><trkpt lat="43.47378536563055" lon="12.261672037018696"><ele>330.0</ele><time>2026-04-26T09:22:40Z</time></trkpt><trkpt lat="43.47368490510621" lon="12.261537711988579"><ele>329.0</ele><time>2026-04-26T09:22:41Z</time></trkpt><trkpt lat="43.47358637660858" lon="12.261397352713711"><ele>327.5</ele><time>2026-04-26T09:22:42Z</time></trkpt><trkpt lat="43.473490093953615" lon="12.261262509052525"><ele>326.0</ele><time>2026-04-26T09:22:43Z</time></trkpt><trkpt lat="43.47339080613673" lon="12.261124095537173"><ele>324.5</ele><time>2026-04-26T09:22:44Z</time></trkpt><trkpt lat="43.47328800151682" lon="12.260988581598586"><ele>323.0</ele><time>2026-04-26T09:22:45Z</time></trkpt><trkpt lat="43.47318969646112" lon="12.260856103863873"><ele>323.0</ele><time>2026-04-26T09:22:46Z</time></trkpt><trkpt lat="43.47309217234118" lon="12.260726011428583"><ele>323.0</ele><time>2026-04-26T09:22:47Z</time></trkpt><trkpt lat="43.47299653784206" lon="12.260601227288078"><ele>323.0</ele><time>2026-04-26T09:22:48Z</time></trkpt><trkpt lat="43.47290118115356" lon="12.260475908465716"><ele>323.0</ele><time>2026-04-26T09:22:49Z</time></trkpt><trkpt lat="43.47280862390095" lon="12.260355174664198"><ele>322.25</ele><time>2026-04-26T09:22:50Z</time></trkpt><trkpt lat="43.47271633964522" lon="12.26023917186833"><ele>321.5</ele><time>2026-04-26T09:22:51Z</time></trkpt><trkpt lat="43.47263272762412" lon="12.260122624146707"><ele>320.75</ele><time>2026-04-26T09:22:52Z</time></trkpt><trkpt lat="43.4725516039293" lon="12.260012593247762"><ele>320.0</ele><time>2026-04-26T09:22:53Z</time></trkpt><trkpt lat="43.472473163131575" lon="12.259902919289635"><ele>320.0</ele><time>2026-04-26T09:22:54Z</time></trkpt><trkpt lat="43.47239243714066" lon="12.25980517307834"><ele>320.0</ele><time>2026-04-26T09:22:55Z</time></trkpt><trkpt lat="43.4723314240322" lon="12.259699972602577"><ele>320.0</ele><time>2026-04-26T09:22:56Z</time></trkpt><trkpt lat="43.47226823282369" lon="12.259612203877733"><ele>320.0</ele><time>2026-04-26T09:22:57Z</time></trkpt><trkpt lat="43.47221598814249" lon="12.259537438261981"><ele>320.0</ele><time>2026-04-26T09:22:58Z</time></trkpt><trkpt lat="43.47216943253305" lon="12.259470454770506"><ele>320.0</ele><time>2026-04-26T09:22:59Z</time></trkpt><trkpt lat="43.47212419178744" lon="12.25940445144474"><ele>319.0</ele><time>2026-04-26T09:23:00Z</time></trkpt><trkpt lat="43.47204180602438" lon="12.259282816269483"><ele>318.0</ele><time>2026-04-26T09:23:02Z</time></trkpt><trkpt lat="43.471973988738526" lon="12.25917527217737"><ele>317.0</ele><time>2026-04-26T09:23:04Z</time></trkpt><trkpt lat="43.47193218157869" lon="12.259104161810626"><ele>316.0</ele><time>2026-04-26T09:23:07Z</time></trkpt><trkpt lat="43.471871960765554" lon="12.258991871821419"><ele>315.0</ele><time>2026-04-26T09:23:09Z</time></trkpt><trkpt lat="43.47180586134036" lon="12.258848197148712"><ele>314.5</ele><time>2026-04-26T09:23:11Z</time></trkpt><trkpt lat="43.4717675402609" lon="12.258749105881419"><ele>314.0</ele><time>2026-04-26T09:23:12Z</time></trkpt><trkpt lat="43.47173118632134" lon="12.258647915348943"><ele>313.5</ele><time>2026-04-26T09:23:13Z</time></trkpt><trkpt lat="43.47170100752044" lon="12.258550629014701"><ele>313.0</ele><time>2026-04-26T09:23:14Z</time></trkpt><trkpt lat="43.47166600027821" lon="12.258436544867704"><ele>312.5</ele><time>2026-04-26T09:23:14.999Z</time></trkpt><trkpt lat="43.471637318837956" lon="12.258324456741452"><ele>312.0</ele><time>2026-04-26T09:23:15.999Z</time></trkpt><trkpt lat="43.47161074100913" lon="12.258208540885674"><ele>311.4</ele><time>2026-04-26T09:23:16.999Z</time></trkpt><trkpt lat="43.47158061888831" lon="12.2580748365208"><ele>310.79999999999995</ele><time>2026-04-26T09:23:17.999Z</time></trkpt><trkpt lat="43.471548064357314" lon="12.257959404745677"><ele>310.2</ele><time>2026-04-26T09:23:18.999Z</time></trkpt><trkpt lat="43.47150767761635" lon="12.257827677376838"><ele>309.59999999999997</ele><time>2026-04-26T09:23:19.999Z</time></trkpt><trkpt lat="43.47146819847373" lon="12.257699144981274"><ele>309.0</ele><time>2026-04-26T09:23:20.999Z</time></trkpt><trkpt lat="43.47142509446443" lon="12.25757278485653"><ele>309.0</ele><time>2026-04-26T09:23:21.999Z</time></trkpt><trkpt lat="43.47080415207492" lon="12.257637706164495"><ele>309.0</ele><time>2026-04-26T09:23:22.999Z</time></trkpt><trkpt lat="43.470723194842066" lon="12.257533742887706"><ele>309.0</ele><time>2026-04-26T09:23:23.999Z</time></trkpt><trkpt lat="43.47064839486634" lon="12.257445236438857"><ele>309.0</ele><time>2026-04-26T09:23:24.999Z</time></trkpt><trkpt lat="43.47057886290016" lon="12.257353054343717"><ele>309.0</ele><time>2026-04-26T09:23:25.999Z</time></trkpt><trkpt lat="43.470516986591115" lon="12.257258076818829"><ele>309.0</ele><time>2026-04-26T09:23:26.999Z</time></trkpt><trkpt lat="43.47044522917374" lon="12.257157135075436"><ele>308.59999999999997</ele><time>2026-04-26T09:23:27.999Z</time></trkpt><trkpt lat="43.4703673494994" lon="12.257070679530964"><ele>308.2</ele><time>2026-04-26T09:23:28.999Z</time></trkpt><trkpt lat="43.47028709520151" lon="12.25697420953961"><ele>307.79999999999995</ele><time>2026-04-26T09:23:29.999Z</time></trkpt><trkpt lat="43.470213911157195" lon="12.256867629251769"><ele>307.4</ele><time>2026-04-26T09:23:30.999Z</time></trkpt><trkpt lat="43.47015103358186" lon="12.256774056899232"><ele>307.0</ele><time>2026-04-26T09:23:31.999Z</time></trkpt><trkpt lat="43.47010231556384" lon="12.256693722993973"><ele>307.0</ele><time>2026-04-26T09:23:32.999Z</time></trkpt><trkpt lat="43.47007200941425" lon="12.256608545931659"><ele>307.0</ele><time>2026-04-26T09:23:33.999Z</time></trkpt><trkpt lat="43.470059929378536" lon="12.256519536759154"><ele>307.0</ele><time>2026-04-26T09:23:34.999Z</time></trkpt><trkpt lat="43.47004675531197" lon="12.25642670429415"><ele>307.0</ele><time>2026-04-26T09:23:35.999Z</time></trkpt><trkpt lat="43.4700175919159" lon="12.256349359306553"><ele>307.0</ele><time>2026-04-26T09:23:36.999Z</time></trkpt><trkpt lat="43.46989268779215" lon="12.256340902339469"><ele>307.0</ele><time>2026-04-26T09:23:38.999Z</time></trkpt><trkpt lat="43.46983957581574" lon="12.256400303140438"><ele>306.99999999999994</ele><time>2026-04-26T09:23:39.999Z</time></trkpt><trkpt lat="43.46979111598675" lon="12.256467084165681"><ele>307.0</ele><time>2026-04-26T09:23:40.999Z</time></trkpt><trkpt lat="43.46974278350874" lon="12.256532146096868"><ele>307.0</ele><time>2026-04-26T09:23:41.999Z</time></trkpt><trkpt lat="43.46968235120629" lon="12.256585854660043"><ele>307.0</ele><time>2026-04-26T09:23:42.999Z</time></trkpt><trkpt lat="43.46961337831609" lon="12.256608000180815"><ele>307.0</ele><time>2026-04-26T09:23:43.999Z</time></trkpt><trkpt lat="43.46953885380962" lon="12.256628509822098"><ele>306.99999999999994</ele><time>2026-04-26T09:23:44.999Z</time></trkpt><trkpt lat="43.46947270923378" lon="12.256664964045612"><ele>307.0</ele><time>2026-04-26T09:23:45.999Z</time></trkpt><trkpt lat="43.46936300061229" lon="12.256737942644142"><ele>306.8333333333333</ele><time>2026-04-26T09:23:47.999Z</time></trkpt><trkpt lat="43.46924969610976" lon="12.256801975914753"><ele>306.66666666666663</ele><time>2026-04-26T09:23:49.999Z</time></trkpt><trkpt lat="43.46919408123171" lon="12.256860835700609"><ele>306.5</ele><time>2026-04-26T09:23:50.999Z</time></trkpt><trkpt lat="43.469133354472284" lon="12.256933193977082"><ele>306.3333333333333</ele><time>2026-04-26T09:23:51.999Z</time></trkpt><trkpt lat="43.46905680127572" lon="12.256969606652131"><ele>306.1666666666667</ele><time>2026-04-26T09:23:52.999Z</time></trkpt><trkpt lat="43.468995318998935" lon="12.257033822046797"><ele>306.0</ele><time>2026-04-26T09:23:53.999Z</time></trkpt><trkpt lat="43.468919927278144" lon="12.257084976925782"><ele>306.0</ele><time>2026-04-26T09:23:54.999Z</time></trkpt><trkpt lat="43.46885747531166" lon="12.257135863956599"><ele>306.0</ele><time>2026-04-26T09:23:55.999Z</time></trkpt><trkpt lat="43.46878586077078" lon="12.25719304405365"><ele>306.0</ele><time>2026-04-26T09:23:56.999Z</time></trkpt><trkpt lat="43.468705066764684" lon="12.257256694990138"><ele>306.0</ele><time>2026-04-26T09:23:57.999Z</time></trkpt><trkpt lat="43.4686184742381" lon="12.25732303597219"><ele>306.0</ele><time>2026-04-26T09:23:58.999Z</time></trkpt><trkpt lat="43.46853907194581" lon="12.25737970784789"><ele>306.0</ele><time>2026-04-26T09:23:59.999Z</time></trkpt><trkpt lat="43.46844972669105" lon="12.257443399518408"><ele>306.3333333333333</ele><time>2026-04-26T09:24:00.997Z</time></trkpt><trkpt lat="43.468361903487214" lon="12.257510075715132"><ele>306.6666666666667</ele><time>2026-04-26T09:24:01.997Z</time></trkpt><trkpt lat="43.46828212025664" lon="12.257571125586393"><ele>307.0</ele><time>2026-04-26T09:24:02.997Z</time></trkpt><trkpt lat="43.46820398242522" lon="12.257625908846146"><ele>307.33333333333337</ele><time>2026-04-26T09:24:03.997Z</time></trkpt><trkpt lat="43.4681317221827" lon="12.257672529323035"><ele>307.6666666666667</ele><time>2026-04-26T09:24:04.997Z</time></trkpt><trkpt lat="43.468064513866345" lon="12.25772455580018"><ele>308.0</ele><time>2026-04-26T09:24:05.998Z</time></trkpt><trkpt lat="43.467993023674296" lon="12.257789543352875"><ele>308.0</ele><time>2026-04-26T09:24:06.998Z</time></trkpt><trkpt lat="43.46791529536324" lon="12.257854860888319"><ele>308.0</ele><time>2026-04-26T09:24:07.998Z</time></trkpt><trkpt lat="43.46782241972073" lon="12.25789896293252"><ele>308.0</ele><time>2026-04-26T09:24:08.998Z</time></trkpt><trkpt lat="43.46771872532528" lon="12.257953842499841"><ele>308.0</ele><time>2026-04-26T09:24:09.998Z</time></trkpt><trkpt lat="43.46761292545169" lon="12.258018917560864"><ele>308.0</ele><time>2026-04-26T09:24:10.998Z</time></trkpt><trkpt lat="43.46749650892213" lon="12.258070907122361"><ele>308.2</ele><time>2026-04-26T09:24:11.998Z</time></trkpt><trkpt lat="43.46738601415265" lon="12.25812247422911"><ele>308.4</ele><time>2026-04-26T09:24:12.998Z</time></trkpt><trkpt lat="43.467277846776256" lon="12.258164566317202"><ele>308.59999999999997</ele><time>2026-04-26T09:24:13.998Z</time></trkpt><trkpt lat="43.467173354290445" lon="12.25818741869281"><ele>308.8</ele><time>2026-04-26T09:24:14.998Z</time></trkpt><trkpt lat="43.4670795340135" lon="12.2582021764611"><ele>309.0</ele><time>2026-04-26T09:24:15.998Z</time></trkpt><trkpt lat="43.46699973278948" lon="12.258223543971912"><ele>309.0</ele><time>2026-04-26T09:24:16.998Z</time></trkpt><trkpt lat="43.46692551933769" lon="12.258270046197397"><ele>309.0</ele><time>2026-04-26T09:24:17.998Z</time></trkpt><trkpt lat="43.46688588612192" lon="12.258351513740807"><ele>309.0</ele><time>2026-04-26T09:24:18.998Z</time></trkpt><trkpt lat="43.46685965727409" lon="12.258445319156255"><ele>309.0</ele><time>2026-04-26T09:24:19.998Z</time></trkpt><trkpt lat="43.46691289423752" lon="12.258558055788516"><ele>309.0</ele><time>2026-04-26T09:24:20.998Z</time></trkpt><trkpt lat="43.46696299943348" lon="12.258629428508709"><ele>309.0</ele><time>2026-04-26T09:24:21.998Z</time></trkpt><trkpt lat="43.467024055695774" lon="12.258719171776663"><ele>309.0</ele><time>2026-04-26T09:24:22.998Z</time></trkpt><trkpt lat="43.467065703308506" lon="12.258818933160297"><ele>309.0</ele><time>2026-04-26T09:24:23.998Z</time></trkpt><trkpt lat="43.467105869933334" lon="12.25892727115723"><ele>309.0</ele><time>2026-04-26T09:24:24.998Z</time></trkpt><trkpt lat="43.46713421450302" lon="12.259040269238547"><ele>309.0</ele><time>2026-04-26T09:24:25.998Z</time></trkpt><trkpt lat="43.467127720160256" lon="12.259151903907226"><ele>309.0</ele><time>2026-04-26T09:24:26.998Z</time></trkpt><trkpt lat="43.467092426146614" lon="12.25925962932118"><ele>309.0</ele><time>2026-04-26T09:24:27.998Z</time></trkpt><trkpt lat="43.4670397927627" lon="12.259377270987722"><ele>309.25</ele><time>2026-04-26T09:24:28.998Z</time></trkpt><trkpt lat="43.466987774298666" lon="12.259506033154125"><ele>309.5</ele><time>2026-04-26T09:24:29.999Z</time></trkpt><trkpt lat="43.466936510176716" lon="12.25963982115358"><ele>309.75</ele><time>2026-04-26T09:24:30.999Z</time></trkpt><trkpt lat="43.46689101043642" lon="12.259786966462856"><ele>310.0</ele><time>2026-04-26T09:24:31.999Z</time></trkpt><trkpt lat="43.466834791579764" lon="12.259938888764669"><ele>310.5</ele><time>2026-04-26T09:24:32.999Z</time></trkpt><trkpt lat="43.466781937123095" lon="12.26009601774965"><ele>311.0</ele><time>2026-04-26T09:24:33.999Z</time></trkpt><trkpt lat="43.46672841237316" lon="12.260253945766259"><ele>311.5</ele><time>2026-04-26T09:24:34.999Z</time></trkpt><trkpt lat="43.466677826669645" lon="12.260405464051848"><ele>312.0</ele><time>2026-04-26T09:24:35.999Z</time></trkpt><trkpt lat="43.46663377336066" lon="12.260541649337785"><ele>312.8</ele><time>2026-04-26T09:24:36.999Z</time></trkpt><trkpt lat="43.46657768852976" lon="12.26065502809703"><ele>313.6</ele><time>2026-04-26T09:24:37.999Z</time></trkpt><trkpt lat="43.466552370488884" lon="12.260765666779305"><ele>314.40000000000003</ele><time>2026-04-26T09:24:38.999Z</time></trkpt><trkpt lat="43.46655021009925" lon="12.260859392387422"><ele>315.2</ele><time>2026-04-26T09:24:39.999Z</time></trkpt><trkpt lat="43.466540267010544" lon="12.261019479684977"><ele>316.0</ele><time>2026-04-26T09:24:41.999Z</time></trkpt><trkpt lat="43.46661435607945" lon="12.2611004172392"><ele>316.0</ele><time>2026-04-26T09:24:42.999Z</time></trkpt><trkpt lat="43.46664894970546" lon="12.261267816790923"><ele>316.0</ele><time>2026-04-26T09:24:44.999Z</time></trkpt><trkpt lat="43.46667925420961" lon="12.26142323867419"><ele>316.0</ele><time>2026-04-26T09:24:46.999Z</time></trkpt><trkpt lat="43.466701523940394" lon="12.261572806443326"><ele>316.0</ele><time>2026-04-26T09:24:48.999Z</time></trkpt><trkpt lat="43.46672332094061" lon="12.261716536067572"><ele>317.0</ele><time>2026-04-26T09:24:50.999Z</time></trkpt><trkpt lat="43.466753830012976" lon="12.261879433260338"><ele>318.0</ele><time>2026-04-26T09:24:52.999Z</time></trkpt><trkpt lat="43.46676596572378" lon="12.261974236190936"><ele>319.0</ele><time>2026-04-26T09:24:53.999Z</time></trkpt><trkpt lat="43.46679665232464" lon="12.262057533778965"><ele>320.0</ele><time>2026-04-26T09:24:54.999Z</time></trkpt><trkpt lat="43.46683415304658" lon="12.262138371671359"><ele>321.0</ele><time>2026-04-26T09:24:55.999Z</time></trkpt><trkpt lat="43.46686825912345" lon="12.262215339803852"><ele>322.0</ele><time>2026-04-26T09:24:56.999Z</time></trkpt><trkpt lat="43.46691339854123" lon="12.262350251571196"><ele>324.0</ele><time>2026-04-26T09:24:58.999Z</time></trkpt><trkpt lat="43.46682539238276" lon="12.262430516474627"><ele>326.0</ele><time>2026-04-26T09:25:00.999Z</time></trkpt><trkpt lat="43.46673160102433" lon="12.26252102252381"><ele>328.0</ele><time>2026-04-26T09:25:02.999Z</time></trkpt><trkpt lat="43.466676476076636" lon="12.26259455491504"><ele>330.0</ele><time>2026-04-26T09:25:03.999Z</time></trkpt><trkpt lat="43.46663267649252" lon="12.262675860249656"><ele>332.0</ele><time>2026-04-26T09:25:04.999Z</time></trkpt><trkpt lat="43.46657807993333" lon="12.262759419170944"><ele>332.0</ele><time>2026-04-26T09:25:05.999Z</time></trkpt><trkpt lat="43.466536395287214" lon="12.262859841460111"><ele>332.0</ele><time>2026-04-26T09:25:06.999Z</time></trkpt><trkpt lat="43.466496466441676" lon="12.262958803453479"><ele>332.0</ele><time>2026-04-26T09:25:07.999Z</time></trkpt><trkpt lat="43.466458812879715" lon="12.263059956903952"><ele>332.0</ele><time>2026-04-26T09:25:08.999Z</time></trkpt><trkpt lat="43.46642259551914" lon="12.263162428774892"><ele>332.0</ele><time>2026-04-26T09:25:09.999Z</time></trkpt><trkpt lat="43.466390036851855" lon="12.263260153079498"><ele>332.0</ele><time>2026-04-26T09:25:10.999Z</time></trkpt><trkpt lat="43.46636994781867" lon="12.26336727063372"><ele>331.33333333333337</ele><time>2026-04-26T09:25:11.999Z</time></trkpt><trkpt lat="43.46634984236823" lon="12.263477049336734"><ele>330.6666666666667</ele><time>2026-04-26T09:25:12.999Z</time></trkpt><trkpt lat="43.466311145634506" lon="12.263580056830097"><ele>330.0</ele><time>2026-04-26T09:25:13.999Z</time></trkpt><trkpt lat="43.46629981728414" lon="12.263681809702366"><ele>329.3333333333333</ele><time>2026-04-26T09:25:14.999Z</time></trkpt><trkpt lat="43.466291786170245" lon="12.263776572558436"><ele>328.66666666666663</ele><time>2026-04-26T09:25:15.999Z</time></trkpt><trkpt lat="43.466271915899085" lon="12.26387601769736"><ele>328.0</ele><time>2026-04-26T09:25:16.999Z</time></trkpt><trkpt lat="43.46626431729104" lon="12.263971597845645"><ele>328.0</ele><time>2026-04-26T09:25:17.999Z</time></trkpt><trkpt lat="43.466257087638596" lon="12.264076301430922"><ele>328.0</ele><time>2026-04-26T09:25:18.999Z</time></trkpt><trkpt lat="43.46624177583662" lon="12.264185551580852"><ele>328.0</ele><time>2026-04-26T09:25:19.999Z</time></trkpt><trkpt lat="43.46622722832196" lon="12.264301309050307"><ele>328.0</ele><time>2026-04-26T09:25:20.999Z</time></trkpt><trkpt lat="43.46621751694005" lon="12.264425106231695"><ele>328.0</ele><time>2026-04-26T09:25:21.999Z</time></trkpt><trkpt lat="43.46622411259681" lon="12.264548509498669"><ele>328.0</ele><time>2026-04-26T09:25:22.999Z</time></trkpt><trkpt lat="43.46624339090546" lon="12.264670912423435"><ele>327.59999999999997</ele><time>2026-04-26T09:25:23.999Z</time></trkpt><trkpt lat="43.466272212002984" lon="12.264791800078388"><ele>327.2</ele><time>2026-04-26T09:25:24.999Z</time></trkpt><trkpt lat="43.46630922294845" lon="12.26490957512354"><ele>326.8</ele><time>2026-04-26T09:25:25.999Z</time></trkpt><trkpt lat="43.466358441985726" lon="12.265015546778693"><ele>326.4</ele><time>2026-04-26T09:25:26.999Z</time></trkpt><trkpt lat="43.466412416258514" lon="12.265122745426101"><ele>326.0</ele><time>2026-04-26T09:25:27.999Z</time></trkpt><trkpt lat="43.466468012469214" lon="12.265220276529353"><ele>328.8</ele><time>2026-04-26T09:25:28.999Z</time></trkpt><trkpt lat="43.466528163809784" lon="12.265330132607538"><ele>331.6</ele><time>2026-04-26T09:25:29.999Z</time></trkpt><trkpt lat="43.466589353929514" lon="12.265434269786352"><ele>334.4</ele><time>2026-04-26T09:25:30.999Z</time></trkpt><trkpt lat="43.466639780268146" lon="12.265529262348018"><ele>337.2</ele><time>2026-04-26T09:25:31.999Z</time></trkpt><trkpt lat="43.46668960058485" lon="12.265654822917046"><ele>340.0</ele><time>2026-04-26T09:25:32.999Z</time></trkpt><trkpt lat="43.46673178498204" lon="12.265786035074754"><ele>340.0</ele><time>2026-04-26T09:25:33.999Z</time></trkpt><trkpt lat="43.46677439791317" lon="12.265910600289423"><ele>340.0</ele><time>2026-04-26T09:25:34.999Z</time></trkpt><trkpt lat="43.46682197078985" lon="12.26602823422418"><ele>340.0</ele><time>2026-04-26T09:25:35.999Z</time></trkpt><trkpt lat="43.466862692036656" lon="12.266138229329965"><ele>340.0</ele><time>2026-04-26T09:25:36.999Z</time></trkpt><trkpt lat="43.46686733789783" lon="12.266274189556462"><ele>340.0</ele><time>2026-04-26T09:25:37.999Z</time></trkpt><trkpt lat="43.46687422919797" lon="12.266400212332202"><ele>340.0</ele><time>2026-04-26T09:25:38.999Z</time></trkpt><trkpt lat="43.466892134260924" lon="12.266523625603458"><ele>340.0</ele><time>2026-04-26T09:25:39.999Z</time></trkpt><trkpt lat="43.46689123323778" lon="12.266651976242501"><ele>340.0</ele><time>2026-04-26T09:25:40.999Z</time></trkpt><trkpt lat="43.466915277167615" lon="12.266781146880618"><ele>340.0</ele><time>2026-04-26T09:25:41.999Z</time></trkpt><trkpt lat="43.46693222792377" lon="12.266925085187362"><ele>340.0</ele><time>2026-04-26T09:25:42.999Z</time></trkpt><trkpt lat="43.466982959383394" lon="12.2670596551958"><ele>340.0</ele><time>2026-04-26T09:25:43.999Z</time></trkpt><trkpt lat="43.46701860592772" lon="12.267202862284037"><ele>340.0</ele><time>2026-04-26T09:25:44.999Z</time></trkpt><trkpt lat="43.46705335387437" lon="12.267339504518059"><ele>340.0</ele><time>2026-04-26T09:25:45.999Z</time></trkpt><trkpt lat="43.46708816522221" lon="12.267470380889781"><ele>340.0</ele><time>2026-04-26T09:25:46.999Z</time></trkpt><trkpt lat="43.467117770938366" lon="12.267600651157961"><ele>340.0</ele><time>2026-04-26T09:25:47.999Z</time></trkpt><trkpt lat="43.467159763022494" lon="12.2677309546727"><ele>344.2</ele><time>2026-04-26T09:25:48.999Z</time></trkpt><trkpt lat="43.467194231966154" lon="12.267864150762794"><ele>348.4</ele><time>2026-04-26T09:25:49.999Z</time></trkpt><trkpt lat="43.46723444658908" lon="12.267991928778764"><ele>352.6</ele><time>2026-04-26T09:25:50.999Z</time></trkpt><trkpt lat="43.467253008129816" lon="12.268132810823726"><ele>356.8</ele><time>2026-04-26T09:25:51.999Z</time></trkpt><trkpt lat="43.46724329828156" lon="12.268261748211117"><ele>361.0</ele><time>2026-04-26T09:25:52.999Z</time></trkpt><trkpt lat="43.46724729763651" lon="12.268402677778107"><ele>361.0</ele><time>2026-04-26T09:25:53.999Z</time></trkpt><trkpt lat="43.467251205899544" lon="12.268540397417924"><ele>361.0</ele><time>2026-04-26T09:25:54.999Z</time></trkpt><trkpt lat="43.467257968815645" lon="12.268675812322474"><ele>361.0</ele><time>2026-04-26T09:25:55.999Z</time></trkpt><trkpt lat="43.46728813543545" lon="12.26880602607488"><ele>361.0</ele><time>2026-04-26T09:25:56.999Z</time></trkpt><trkpt lat="43.46732239851198" lon="12.268937158956186"><ele>361.0</ele><time>2026-04-26T09:25:57.999Z</time></trkpt><trkpt lat="43.46737307832718" lon="12.269077101505799"><ele>360.6</ele><time>2026-04-26T09:25:58.999Z</time></trkpt><trkpt lat="43.46740744337763" lon="12.269217591788966"><ele>360.20000000000005</ele><time>2026-04-26T09:25:59.999Z</time></trkpt><trkpt lat="43.46742922154596" lon="12.26937271951574"><ele>359.79999999999995</ele><time>2026-04-26T09:26:00.999Z</time></trkpt><trkpt lat="43.467434133855186" lon="12.269502842484023"><ele>359.4</ele><time>2026-04-26T09:26:01.999Z</time></trkpt><trkpt lat="43.46742316803808" lon="12.269622445633532"><ele>359.0</ele><time>2026-04-26T09:26:02.999Z</time></trkpt><trkpt lat="43.467391839796406" lon="12.269706998224262"><ele>359.2</ele><time>2026-04-26T09:26:03.999Z</time></trkpt><trkpt lat="43.467371696693" lon="12.26986039921215"><ele>359.4</ele><time>2026-04-26T09:26:05.999Z</time></trkpt><trkpt lat="43.46738317227122" lon="12.269969352708653"><ele>359.6</ele><time>2026-04-26T09:26:06.996Z</time></trkpt><trkpt lat="43.46747149738088" lon="12.270068578893527"><ele>359.8</ele><time>2026-04-26T09:26:07.996Z</time></trkpt><trkpt lat="43.467503346284516" lon="12.270188241491368"><ele>360.0</ele><time>2026-04-26T09:26:08.996Z</time></trkpt><trkpt lat="43.467554249368185" lon="12.270299349057114"><ele>360.0</ele><time>2026-04-26T09:26:09.996Z</time></trkpt><trkpt lat="43.46761044411453" lon="12.270410575169365"><ele>360.0</ele><time>2026-04-26T09:26:10.996Z</time></trkpt><trkpt lat="43.46768867198121" lon="12.27052106885327"><ele>360.0</ele><time>2026-04-26T09:26:11.997Z</time></trkpt><trkpt lat="43.4677442007441" lon="12.270645250299193"><ele>360.0</ele><time>2026-04-26T09:26:12.997Z</time></trkpt><trkpt lat="43.46780153239611" lon="12.270770661516284"><ele>360.0</ele><time>2026-04-26T09:26:13.997Z</time></trkpt><trkpt lat="43.46785700104268" lon="12.270899557618568"><ele>359.6</ele><time>2026-04-26T09:26:14.997Z</time></trkpt><trkpt lat="43.46793091469695" lon="12.270996665114774"><ele>359.2</ele><time>2026-04-26T09:26:15.997Z</time></trkpt><trkpt lat="43.468005117867854" lon="12.271102274614345"><ele>358.79999999999995</ele><time>2026-04-26T09:26:16.997Z</time></trkpt><trkpt lat="43.46809351820791" lon="12.271201112968583"><ele>358.4</ele><time>2026-04-26T09:26:17.997Z</time></trkpt><trkpt lat="43.468178857987354" lon="12.271284132336103"><ele>358.0</ele><time>2026-04-26T09:26:18.997Z</time></trkpt><trkpt lat="43.468269701783484" lon="12.271344514521763"><ele>362.79999999999995</ele><time>2026-04-26T09:26:19.997Z</time></trkpt><trkpt lat="43.468366732729244" lon="12.271377650125936"><ele>367.6</ele><time>2026-04-26T09:26:20.997Z</time></trkpt><trkpt lat="43.46847689447254" lon="12.2713905374997"><ele>372.4</ele><time>2026-04-26T09:26:21.997Z</time></trkpt><trkpt lat="43.468584125219714" lon="12.271397310407659"><ele>377.20000000000005</ele><time>2026-04-26T09:26:22.997Z</time></trkpt><trkpt lat="43.46868744600349" lon="12.271398123571883"><ele>382.0</ele><time>2026-04-26T09:26:23.998Z</time></trkpt><trkpt lat="43.468789586522945" lon="12.27140967132108"><ele>384.20000000000005</ele><time>2026-04-26T09:26:24.998Z</time></trkpt><trkpt lat="43.46887881788195" lon="12.271363623931277"><ele>386.4</ele><time>2026-04-26T09:26:25.998Z</time></trkpt><trkpt lat="43.468963928330716" lon="12.271304226104183"><ele>388.6</ele><time>2026-04-26T09:26:26.998Z</time></trkpt><trkpt lat="43.469053998513054" lon="12.27122672845014"><ele>390.79999999999995</ele><time>2026-04-26T09:26:27.998Z</time></trkpt><trkpt lat="43.46916143671548" lon="12.271166074923562"><ele>393.0</ele><time>2026-04-26T09:26:28.998Z</time></trkpt><trkpt lat="43.469250605962536" lon="12.27107390778276"><ele>393.0</ele><time>2026-04-26T09:26:29.998Z</time></trkpt><trkpt lat="43.4693529995415" lon="12.271005636730006"><ele>393.0</ele><time>2026-04-26T09:26:30.998Z</time></trkpt><trkpt lat="43.46944702863628" lon="12.270934695891413"><ele>393.0</ele><time>2026-04-26T09:26:31.998Z</time></trkpt><trkpt lat="43.46954307172174" lon="12.270873949592236"><ele>393.0</ele><time>2026-04-26T09:26:32.998Z</time></trkpt><trkpt lat="43.46964021385694" lon="12.270817193721646"><ele>393.0</ele><time>2026-04-26T09:26:33.998Z</time></trkpt><trkpt lat="43.46973930607134" lon="12.270763314044743"><ele>393.0</ele><time>2026-04-26T09:26:34.998Z</time></trkpt><trkpt lat="43.46984350072308" lon="12.270704728555039"><ele>393.0</ele><time>2026-04-26T09:26:35.998Z</time></trkpt><trkpt lat="43.46993777754457" lon="12.270631302765516"><ele>393.0</ele><time>2026-04-26T09:26:36.998Z</time></trkpt><trkpt lat="43.47002989687565" lon="12.270565691178488"><ele>393.0</ele><time>2026-04-26T09:26:37.998Z</time></trkpt><trkpt lat="43.470135090172406" lon="12.270521500731865"><ele>393.0</ele><time>2026-04-26T09:26:38.998Z</time></trkpt><trkpt lat="43.470230193500015" lon="12.27049766235452"><ele>395.4</ele><time>2026-04-26T09:26:39.998Z</time></trkpt><trkpt lat="43.47033703411318" lon="12.270495145272355"><ele>397.79999999999995</ele><time>2026-04-26T09:26:40.998Z</time></trkpt><trkpt lat="43.47044618195814" lon="12.270525668712493"><ele>400.2</ele><time>2026-04-26T09:26:41.999Z</time></trkpt><trkpt lat="43.470553772090575" lon="12.270567921109183"><ele>402.6</ele><time>2026-04-26T09:26:42.999Z</time></trkpt><trkpt lat="43.47065869619314" lon="12.270616117581115"><ele>405.0</ele><time>2026-04-26T09:26:43.999Z</time></trkpt><trkpt lat="43.47075735919299" lon="12.270661312884918"><ele>405.0</ele><time>2026-04-26T09:26:44.999Z</time></trkpt><trkpt lat="43.47084724427348" lon="12.270739245177609"><ele>405.0</ele><time>2026-04-26T09:26:45.999Z</time></trkpt><trkpt lat="43.47091457336233" lon="12.270846791253392"><ele>405.0</ele><time>2026-04-26T09:26:46.999Z</time></trkpt><trkpt lat="43.47096438016388" lon="12.270981374041808"><ele>405.0</ele><time>2026-04-26T09:26:47.999Z</time></trkpt><trkpt lat="43.47100115143808" lon="12.271092765525115"><ele>405.0</ele><time>2026-04-26T09:26:48.999Z</time></trkpt><trkpt lat="43.47103866681779" lon="12.271213637423001"><ele>405.0</ele><time>2026-04-26T09:26:49.999Z</time></trkpt><trkpt lat="43.47110819071481" lon="12.271311080745333"><ele>405.0</ele><time>2026-04-26T09:26:50.999Z</time></trkpt><trkpt lat="43.47118401531137" lon="12.271405278212766"><ele>405.0</ele><time>2026-04-26T09:26:51.999Z</time></trkpt><trkpt lat="43.471269226653305" lon="12.271506007815086"><ele>405.0</ele><time>2026-04-26T09:26:52.999Z</time></trkpt><trkpt lat="43.47136139767162" lon="12.271606980479776"><ele>405.0</ele><time>2026-04-26T09:26:53.999Z</time></trkpt><trkpt lat="43.47145138301539" lon="12.271712438351013"><ele>408.4</ele><time>2026-04-26T09:26:54.999Z</time></trkpt><trkpt lat="43.47153969596009" lon="12.271817504572391"><ele>411.8</ele><time>2026-04-26T09:26:55.999Z</time></trkpt><trkpt lat="43.471620810507915" lon="12.271925240299614"><ele>415.20000000000005</ele><time>2026-04-26T09:26:56.999Z</time></trkpt><trkpt lat="43.47167221371438" lon="12.272060726752287"><ele>418.6</ele><time>2026-04-26T09:26:57.999Z</time></trkpt><trkpt lat="43.471730819757504" lon="12.272152619444437"><ele>422.0</ele><time>2026-04-26T09:26:58.999Z</time></trkpt><trkpt lat="43.47179152196176" lon="12.2722203007463"><ele>422.0</ele><time>2026-04-26T09:26:59.999Z</time></trkpt><trkpt lat="43.47186508527393" lon="12.27226173343234"><ele>422.0</ele><time>2026-04-26T09:27:00.999Z</time></trkpt><trkpt lat="43.47195615451999" lon="12.272297596581472"><ele>422.0</ele><time>2026-04-26T09:27:01.999Z</time></trkpt><trkpt lat="43.47205286516745" lon="12.27232113786475"><ele>422.0</ele><time>2026-04-26T09:27:02.999Z</time></trkpt><trkpt lat="43.472153185701416" lon="12.272343221887706"><ele>422.0</ele><time>2026-04-26T09:27:03.999Z</time></trkpt><trkpt lat="43.4722621557956" lon="12.272380046833796"><ele>422.20000000000005</ele><time>2026-04-26T09:27:04.999Z</time></trkpt><trkpt lat="43.47237007810953" lon="12.272417420512348"><ele>422.4</ele><time>2026-04-26T09:27:05.999Z</time></trkpt><trkpt lat="43.4724801761522" lon="12.272442851088325"><ele>422.6</ele><time>2026-04-26T09:27:06.999Z</time></trkpt><trkpt lat="43.47258241359372" lon="12.272480610631037"><ele>422.79999999999995</ele><time>2026-04-26T09:27:07.999Z</time></trkpt><trkpt lat="43.47269526947276" lon="12.272512941834261"><ele>423.0</ele><time>2026-04-26T09:27:08.999Z</time></trkpt><trkpt lat="43.4727763770716" lon="12.27261244953794"><ele>423.0</ele><time>2026-04-26T09:27:09.999Z</time></trkpt><trkpt lat="43.47286531019201" lon="12.272683445972234"><ele>423.0</ele><time>2026-04-26T09:27:10.999Z</time></trkpt><trkpt lat="43.47294539564934" lon="12.27277724489142"><ele>423.0</ele><time>2026-04-26T09:27:11.999Z</time></trkpt><trkpt lat="43.47302332080284" lon="12.272865280065641"><ele>423.0</ele><time>2026-04-26T09:27:12.999Z</time></trkpt><trkpt lat="43.47309898705326" lon="12.272934283687293"><ele>423.0</ele><time>2026-04-26T09:27:13.999Z</time></trkpt><trkpt lat="43.47316285290242" lon="12.272996045920271"><ele>423.4</ele><time>2026-04-26T09:27:14.999Z</time></trkpt><trkpt lat="43.4732558716384" lon="12.273097603405825"><ele>423.79999999999995</ele><time>2026-04-26T09:27:16.999Z</time></trkpt><trkpt lat="43.473339342885545" lon="12.273188842702718"><ele>424.2</ele><time>2026-04-26T09:27:18.999Z</time></trkpt><trkpt lat="43.47343325775066" lon="12.273250982253904"><ele>424.6</ele><time>2026-04-26T09:27:20.999Z</time></trkpt><trkpt lat="43.47347057251145" lon="12.273338487433906"><ele>425.0</ele><time>2026-04-26T09:27:22.999Z</time></trkpt><trkpt lat="43.473537962443785" lon="12.273385945074144"><ele>425.49999999999994</ele><time>2026-04-26T09:27:25.999Z</time></trkpt><trkpt lat="43.4736013878045" lon="12.27341455239866"><ele>426.0</ele><time>2026-04-26T09:28:11Z</time></trkpt><trkpt lat="43.47368825407232" lon="12.273509245448947"><ele>426.5</ele><time>2026-04-26T09:28:12.999Z</time></trkpt><trkpt lat="43.47374159610955" lon="12.27356798305521"><ele>427.0</ele><time>2026-04-26T09:28:13.999Z</time></trkpt><trkpt lat="43.47378591844141" lon="12.27366890180977"><ele>427.49999999999994</ele><time>2026-04-26T09:28:14.999Z</time></trkpt><trkpt lat="43.47384307289436" lon="12.273725719934236"><ele>428.0</ele><time>2026-04-26T09:28:15.999Z</time></trkpt><trkpt lat="43.47392208951719" lon="12.273784098235065"><ele>426.99999999999994</ele><time>2026-04-26T09:28:16.999Z</time></trkpt><trkpt lat="43.473980918585816" lon="12.273862754766578"><ele>426.0</ele><time>2026-04-26T09:28:17.999Z</time></trkpt><trkpt lat="43.474035927447396" lon="12.273917439983103"><ele>425.0</ele><time>2026-04-26T09:28:18.999Z</time></trkpt><trkpt lat="43.4741053547998" lon="12.273961279626539"><ele>424.0</ele><time>2026-04-26T09:28:19.999Z</time></trkpt><trkpt lat="43.47415723350489" lon="12.2740226960306"><ele>422.99999999999994</ele><time>2026-04-26T09:28:20.999Z</time></trkpt><trkpt lat="43.47420567533744" lon="12.274110256661325"><ele>422.0</ele><time>2026-04-26T09:28:21.999Z</time></trkpt><trkpt lat="43.474307580429326" lon="12.274208500039634"><ele>424.6</ele><time>2026-04-26T09:28:23.999Z</time></trkpt><trkpt lat="43.47436787533605" lon="12.274254261850176"><ele>427.20000000000005</ele><time>2026-04-26T09:28:24.999Z</time></trkpt><trkpt lat="43.47443197303672" lon="12.274305675323118"><ele>429.8</ele><time>2026-04-26T09:28:25.999Z</time></trkpt><trkpt lat="43.47452220873966" lon="12.27438959875981"><ele>432.4</ele><time>2026-04-26T09:28:27.999Z</time></trkpt><trkpt lat="43.47459751250427" lon="12.274354872421378"><ele>435.0</ele><time>2026-04-26T09:28:29.999Z</time></trkpt><trkpt lat="43.47458835269276" lon="12.274601119950523"><ele>435.0</ele><time>2026-04-26T09:28:30.999Z</time></trkpt><trkpt lat="43.47466721830896" lon="12.274656096539822"><ele>435.0</ele><time>2026-04-26T09:28:32.999Z</time></trkpt><trkpt lat="43.47472622796315" lon="12.274695933700329"><ele>435.0</ele><time>2026-04-26T09:28:33.999Z</time></trkpt><trkpt lat="43.47480394292714" lon="12.274742172866716"><ele>435.0</ele><time>2026-04-26T09:28:34.999Z</time></trkpt><trkpt lat="43.474914286931636" lon="12.274771839577951"><ele>435.0</ele><time>2026-04-26T09:28:37Z</time></trkpt><trkpt lat="43.475013840720386" lon="12.274844347950383"><ele>435.0</ele><time>2026-04-26T09:28:39Z</time></trkpt><trkpt lat="43.4750469747074" lon="12.274919833997092"><ele>435.0</ele><time>2026-04-26T09:28:40Z</time></trkpt><trkpt lat="43.47512800870129" lon="12.274990115347999"><ele>435.0</ele><time>2026-04-26T09:28:42Z</time></trkpt><trkpt lat="43.47518737666535" lon="12.275038793725228"><ele>435.0</ele><time>2026-04-26T09:28:44Z</time></trkpt><trkpt lat="43.47528449172811" lon="12.275114429622214"><ele>435.0</ele><time>2026-04-26T09:28:46Z</time></trkpt><trkpt lat="43.47537160136203" lon="12.275155221131032"><ele>435.0</ele><time>2026-04-26T09:28:48Z</time></trkpt><trkpt lat="43.475465495441554" lon="12.275236935144825"><ele>433.1666666666667</ele><time>2026-04-26T09:28:51Z</time></trkpt><trkpt lat="43.47553195009976" lon="12.275260533168199"><ele>431.33333333333337</ele><time>2026-04-26T09:28:55Z</time></trkpt><trkpt lat="43.47559609777281" lon="12.27531641883819"><ele>429.5</ele><time>2026-04-26T09:28:58Z</time></trkpt><trkpt lat="43.47567620338797" lon="12.275373687153017"><ele>427.6666666666667</ele><time>2026-04-26T09:29:00Z</time></trkpt><trkpt lat="43.47573988347022" lon="12.2754404184854"><ele>425.83333333333337</ele><time>2026-04-26T09:29:01Z</time></trkpt><trkpt lat="43.47579831545138" lon="12.275486999055941"><ele>424.0</ele><time>2026-04-26T09:29:02Z</time></trkpt><trkpt lat="43.47592412322449" lon="12.275599346214664"><ele>424.8571428571429</ele><time>2026-04-26T09:29:04Z</time></trkpt><trkpt lat="43.4759779144314" lon="12.275645808088084"><ele>425.71428571428567</ele><time>2026-04-26T09:29:05Z</time></trkpt><trkpt lat="43.476036514224944" lon="12.275707792103118"><ele>426.57142857142856</ele><time>2026-04-26T09:29:06Z</time></trkpt><trkpt lat="43.476084902483755" lon="12.275765875379465"><ele>427.42857142857144</ele><time>2026-04-26T09:29:07Z</time></trkpt><trkpt lat="43.47614276252496" lon="12.275804013745685"><ele>428.28571428571433</ele><time>2026-04-26T09:29:08Z</time></trkpt><trkpt lat="43.47621303872736" lon="12.275868372854267"><ele>429.1428571428571</ele><time>2026-04-26T09:29:10Z</time></trkpt><trkpt lat="43.476271352209466" lon="12.275903490006456"><ele>430.0</ele><time>2026-04-26T09:29:11Z</time></trkpt><trkpt lat="43.47633662455945" lon="12.275931767708943"><ele>430.00000000000006</ele><time>2026-04-26T09:29:13Z</time></trkpt><trkpt lat="43.47640585881714" lon="12.275994249518845"><ele>430.0</ele><time>2026-04-26T09:29:15Z</time></trkpt><trkpt lat="43.47646955985791" lon="12.2760338230989"><ele>430.0</ele><time>2026-04-26T09:29:16Z</time></trkpt><trkpt lat="43.47652537588038" lon="12.27610125569707"><ele>430.0</ele><time>2026-04-26T09:29:17Z</time></trkpt><trkpt lat="43.476574298292114" lon="12.276176497214253"><ele>430.00000000000006</ele><time>2026-04-26T09:29:18Z</time></trkpt><trkpt lat="43.47665748635851" lon="12.276233037481665"><ele>430.0</ele><time>2026-04-26T09:29:20Z</time></trkpt><trkpt lat="43.47673171251131" lon="12.276244784329146"><ele>430.0</ele><time>2026-04-26T09:29:22Z</time></trkpt><trkpt lat="43.47680398093202" lon="12.276270937680428"><ele>430.0</ele><time>2026-04-26T09:29:24Z</time></trkpt><trkpt lat="43.47690685292182" lon="12.276336957750045"><ele>430.0</ele><time>2026-04-26T09:29:26Z</time></trkpt><trkpt lat="43.47699237603044" lon="12.276380785324404"><ele>430.0</ele><time>2026-04-26T09:29:27Z</time></trkpt><trkpt lat="43.47705246079844" lon="12.276429072024941"><ele>430.0</ele><time>2026-04-26T09:29:28.001Z</time></trkpt><trkpt lat="43.47713911194237" lon="12.276570337160575"><ele>430.1666666666667</ele><time>2026-04-26T09:29:30.001Z</time></trkpt><trkpt lat="43.47718551724913" lon="12.276639300182214"><ele>430.33333333333337</ele><time>2026-04-26T09:29:31.001Z</time></trkpt><trkpt lat="43.47723397238281" lon="12.276702665528115"><ele>430.5</ele><time>2026-04-26T09:29:32.001Z</time></trkpt><trkpt lat="43.4772939176846" lon="12.276748552463065"><ele>430.66666666666663</ele><time>2026-04-26T09:29:33.001Z</time></trkpt><trkpt lat="43.47736454175465" lon="12.27680001005063"><ele>430.8333333333333</ele><time>2026-04-26T09:29:34.001Z</time></trkpt><trkpt lat="43.47742278783397" lon="12.276843090175968"><ele>431.0</ele><time>2026-04-26T09:29:35.001Z</time></trkpt><trkpt lat="43.47754192681585" lon="12.276939013461336"><ele>431.0</ele><time>2026-04-26T09:29:37.001Z</time></trkpt><trkpt lat="43.477605841001136" lon="12.276983935241221"><ele>431.0</ele><time>2026-04-26T09:29:38.001Z</time></trkpt><trkpt lat="43.477675612148666" lon="12.277031704475386"><ele>431.0</ele><time>2026-04-26T09:29:39.001Z</time></trkpt><trkpt lat="43.47773250062289" lon="12.277094202190185"><ele>431.0</ele><time>2026-04-26T09:29:40.001Z</time></trkpt><trkpt lat="43.47777930899661" lon="12.277154239435479"><ele>431.0</ele><time>2026-04-26T09:29:41.001Z</time></trkpt><trkpt lat="43.47784845620647" lon="12.27723903879475"><ele>431.0</ele><time>2026-04-26T09:29:43.001Z</time></trkpt><trkpt lat="43.47788353765837" lon="12.27732312685128"><ele>431.0</ele><time>2026-04-26T09:29:45.001Z</time></trkpt><trkpt lat="43.47796751729922" lon="12.27740126854622"><ele>432.6</ele><time>2026-04-26T09:29:47.001Z</time></trkpt><trkpt lat="43.47801922265154" lon="12.277565813880493"><ele>434.20000000000005</ele><time>2026-04-26T09:29:49.001Z</time></trkpt><trkpt lat="43.478096289771734" lon="12.2776773582674"><ele>435.79999999999995</ele><time>2026-04-26T09:29:51.001Z</time></trkpt><trkpt lat="43.478141915515074" lon="12.277798987050568"><ele>437.4</ele><time>2026-04-26T09:29:53.001Z</time></trkpt><trkpt lat="43.47818385294736" lon="12.277886186575095"><ele>439.0</ele><time>2026-04-26T09:29:55.001Z</time></trkpt><trkpt lat="43.47820089609768" lon="12.27799319276283"><ele>440.79999999999995</ele><time>2026-04-26T09:29:57.001Z</time></trkpt><trkpt lat="43.478237520621676" lon="12.278131946190491"><ele>442.59999999999997</ele><time>2026-04-26T09:29:59.001Z</time></trkpt><trkpt lat="43.47829560905066" lon="12.278231414014591"><ele>444.4</ele><time>2026-04-26T09:30:01.001Z</time></trkpt><trkpt lat="43.47837897788813" lon="12.27826399607171"><ele>446.2</ele><time>2026-04-26T09:30:03.001Z</time></trkpt><trkpt lat="43.47842682812634" lon="12.278373689737172"><ele>448.0</ele><time>2026-04-26T09:30:05.001Z</time></trkpt><trkpt lat="43.478489613372744" lon="12.278517943485737"><ele>448.0</ele><time>2026-04-26T09:30:07.001Z</time></trkpt><trkpt lat="43.478533081320606" lon="12.27864970988114"><ele>447.99999999999994</ele><time>2026-04-26T09:30:09.001Z</time></trkpt><trkpt lat="43.478608619548005" lon="12.278720858721165"><ele>447.99999999999994</ele><time>2026-04-26T09:30:11.001Z</time></trkpt><trkpt lat="43.47868664194496" lon="12.278809387331524"><ele>448.0</ele><time>2026-04-26T09:30:13.001Z</time></trkpt><trkpt lat="43.47874968873851" lon="12.278878473732776"><ele>448.0</ele><time>2026-04-26T09:30:15.001Z</time></trkpt><trkpt lat="43.47880517165233" lon="12.278943253764758"><ele>450.0</ele><time>2026-04-26T09:30:17.001Z</time></trkpt><trkpt lat="43.47887653730646" lon="12.2789600281236"><ele>451.99999999999994</ele><time>2026-04-26T09:30:21Z</time></trkpt><trkpt lat="43.47898200448981" lon="12.27898871991408"><ele>453.99999999999994</ele><time>2026-04-26T09:30:31Z</time></trkpt><trkpt lat="43.479088276742296" lon="12.279010736761052"><ele>456.0</ele><time>2026-04-26T09:30:33Z</time></trkpt><trkpt lat="43.47918943562879" lon="12.279103180876728"><ele>458.0</ele><time>2026-04-26T09:30:35Z</time></trkpt><trkpt lat="43.47922741410073" lon="12.279182296911737"><ele>458.0</ele><time>2026-04-26T09:30:36Z</time></trkpt><trkpt lat="43.479317808920165" lon="12.279301347447044"><ele>458.0</ele><time>2026-04-26T09:30:38Z</time></trkpt><trkpt lat="43.479377577630956" lon="12.279375734712739"><ele>458.0</ele><time>2026-04-26T09:30:40Z</time></trkpt><trkpt lat="43.47940759861398" lon="12.27953240889229"><ele>458.0</ele><time>2026-04-26T09:30:42Z</time></trkpt><trkpt lat="43.479502445728045" lon="12.27966208974995"><ele>458.0</ele><time>2026-04-26T09:30:44Z</time></trkpt><trkpt lat="43.47955619926171" lon="12.279717965788874"><ele>457.99999999999994</ele><time>2026-04-26T09:30:45Z</time></trkpt><trkpt lat="43.47961119863069" lon="12.27985373176116"><ele>457.99999999999994</ele><time>2026-04-26T09:30:47Z</time></trkpt><trkpt lat="43.479699952953126" lon="12.279917495149235"><ele>458.0</ele><time>2026-04-26T09:30:49Z</time></trkpt><trkpt lat="43.47981748552666" lon="12.27992914021139"><ele>458.0</ele><time>2026-04-26T09:30:51Z</time></trkpt><trkpt lat="43.47991008992034" lon="12.280006260782951"><ele>459.79999999999995</ele><time>2026-04-26T09:30:53Z</time></trkpt><trkpt lat="43.47997109140012" lon="12.280054138793261"><ele>461.59999999999997</ele><time>2026-04-26T09:30:54Z</time></trkpt><trkpt lat="43.48005405167232" lon="12.280133714782574"><ele>463.40000000000003</ele><time>2026-04-26T09:30:56Z</time></trkpt><trkpt lat="43.48015068731025" lon="12.280174755593949"><ele>465.20000000000005</ele><time>2026-04-26T09:30:59Z</time></trkpt><trkpt lat="43.48028634581845" lon="12.28019150279181"><ele>467.0</ele><time>2026-04-26T09:31:01Z</time></trkpt><trkpt lat="43.480351580178976" lon="12.280188827192742"><ele>465.49999999999994</ele><time>2026-04-26T09:31:02Z</time></trkpt><trkpt lat="43.48044593799211" lon="12.280209749545465"><ele>464.0</ele><time>2026-04-26T09:31:04Z</time></trkpt><trkpt lat="43.48050329082361" lon="12.280273957752884"><ele>462.5</ele><time>2026-04-26T09:31:05Z</time></trkpt><trkpt lat="43.4805667615567" lon="12.280315819114138"><ele>461.0</ele><time>2026-04-26T09:31:06Z</time></trkpt><trkpt lat="43.48063285714272" lon="12.280350269159628"><ele>459.49999999999994</ele><time>2026-04-26T09:31:07Z</time></trkpt><trkpt lat="43.48075134612823" lon="12.280433920903683"><ele>458.0</ele><time>2026-04-26T09:31:09Z</time></trkpt><trkpt lat="43.48082874096388" lon="12.280452405704448"><ele>458.0</ele><time>2026-04-26T09:31:10Z</time></trkpt><trkpt lat="43.48093374151878" lon="12.280466178333603"><ele>457.99999999999994</ele><time>2026-04-26T09:31:12.001Z</time></trkpt><trkpt lat="43.48100772666429" lon="12.280500247456871"><ele>457.99999999999994</ele><time>2026-04-26T09:31:14.001Z</time></trkpt><trkpt lat="43.48107402899201" lon="12.28051307232026"><ele>458.0</ele><time>2026-04-26T09:31:16.001Z</time></trkpt><trkpt lat="43.481151166939966" lon="12.28056565155267"><ele>458.0</ele><time>2026-04-26T09:31:18.001Z</time></trkpt><trkpt lat="43.48126098726535" lon="12.28061585749327"><ele>459.49999999999994</ele><time>2026-04-26T09:31:20.001Z</time></trkpt><trkpt lat="43.48131936950359" lon="12.28065422871537"><ele>461.0</ele><time>2026-04-26T09:31:21.001Z</time></trkpt><trkpt lat="43.48142226877861" lon="12.28071101592854"><ele>462.5</ele><time>2026-04-26T09:31:23.001Z</time></trkpt><trkpt lat="43.481487505635904" lon="12.280711170827514"><ele>464.0</ele><time>2026-04-26T09:31:24.001Z</time></trkpt><trkpt lat="43.481565045408864" lon="12.280706163845135"><ele>465.49999999999994</ele><time>2026-04-26T09:31:25.001Z</time></trkpt><trkpt lat="43.48163542965582" lon="12.280705786862915"><ele>467.0</ele><time>2026-04-26T09:31:26.001Z</time></trkpt><trkpt lat="43.481754143578875" lon="12.280751427573879"><ele>466.99999999999994</ele><time>2026-04-26T09:31:28.001Z</time></trkpt><trkpt lat="43.4818147845747" lon="12.280805839708384"><ele>467.0</ele><time>2026-04-26T09:31:29.001Z</time></trkpt><trkpt lat="43.4818881793101" lon="12.280846865195201"><ele>467.0</ele><time>2026-04-26T09:31:30.001Z</time></trkpt><trkpt lat="43.48197419628387" lon="12.280880716916915"><ele>467.0</ele><time>2026-04-26T09:31:31.001Z</time></trkpt><trkpt lat="43.48205541779948" lon="12.280917751625894"><ele>466.99999999999994</ele><time>2026-04-26T09:31:32.001Z</time></trkpt><trkpt lat="43.48214188750666" lon="12.280947076634623"><ele>467.0</ele><time>2026-04-26T09:31:33.001Z</time></trkpt><trkpt lat="43.48221977021268" lon="12.280989702279317"><ele>469.0</ele><time>2026-04-26T09:31:34.001Z</time></trkpt><trkpt lat="43.482324608017414" lon="12.28098972284742"><ele>471.0</ele><time>2026-04-26T09:31:36.001Z</time></trkpt><trkpt lat="43.48244799908483" lon="12.280948609386092"><ele>473.0</ele><time>2026-04-26T09:31:38.001Z</time></trkpt><trkpt lat="43.48255830940307" lon="12.280916186832076"><ele>475.0</ele><time>2026-04-26T09:31:40.001Z</time></trkpt><trkpt lat="43.4826449949484" lon="12.280807194316555"><ele>475.00000000000006</ele><time>2026-04-26T09:31:42.001Z</time></trkpt><trkpt lat="43.48276853754956" lon="12.280796441487682"><ele>475.0</ele><time>2026-04-26T09:31:44.001Z</time></trkpt><trkpt lat="43.48284702483405" lon="12.280837876748164"><ele>475.0</ele><time>2026-04-26T09:31:45.001Z</time></trkpt><trkpt lat="43.48291768168267" lon="12.280883939891522"><ele>475.0</ele><time>2026-04-26T09:31:46.001Z</time></trkpt><trkpt lat="43.48300402756601" lon="12.280895402220905"><ele>475.00000000000006</ele><time>2026-04-26T09:31:47.001Z</time></trkpt><trkpt lat="43.4830717564099" lon="12.280884495851316"><ele>475.0</ele><time>2026-04-26T09:31:48.001Z</time></trkpt><trkpt lat="43.483162712627575" lon="12.280884955407503"><ele>475.0</ele><time>2026-04-26T09:31:50.001Z</time></trkpt><trkpt lat="43.48328966887741" lon="12.280867745808493"><ele>475.0</ele><time>2026-04-26T09:31:52.001Z</time></trkpt><trkpt lat="43.483352663061524" lon="12.280879675137431"><ele>475.0</ele><time>2026-04-26T09:31:53.001Z</time></trkpt><trkpt lat="43.48341061533855" lon="12.280916987033326"><ele>475.0</ele><time>2026-04-26T09:31:54.001Z</time></trkpt><trkpt lat="43.4835083228709" lon="12.280999636870707"><ele>475.0</ele><time>2026-04-26T09:31:56.001Z</time></trkpt><trkpt lat="43.48357910337063" lon="12.28107100255281"><ele>475.00000000000006</ele><time>2026-04-26T09:31:57.001Z</time></trkpt><trkpt lat="43.48365429213473" lon="12.281134529246737"><ele>475.0</ele><time>2026-04-26T09:31:58.001Z</time></trkpt><trkpt lat="43.48373794664347" lon="12.281180846256996"><ele>475.0</ele><time>2026-04-26T09:31:59.001Z</time></trkpt><trkpt lat="43.48379675399871" lon="12.2812163657141"><ele>475.0</ele><time>2026-04-26T09:32:00.001Z</time></trkpt><trkpt lat="43.48386044659512" lon="12.28125215875511"><ele>475.00000000000006</ele><time>2026-04-26T09:32:01.001Z</time></trkpt><trkpt lat="43.48396804983163" lon="12.281285091021005"><ele>475.0</ele><time>2026-04-26T09:32:02.001Z</time></trkpt><trkpt lat="43.48408254630394" lon="12.281322667283149"><ele>474.8</ele><time>2026-04-26T09:32:03.001Z</time></trkpt><trkpt lat="43.48419872698299" lon="12.281378649435975"><ele>474.6</ele><time>2026-04-26T09:32:04.001Z</time></trkpt><trkpt lat="43.484310822255914" lon="12.28144519072064"><ele>474.4</ele><time>2026-04-26T09:32:05.001Z</time></trkpt><trkpt lat="43.484410880578885" lon="12.281502339662714"><ele>474.2</ele><time>2026-04-26T09:32:06.001Z</time></trkpt><trkpt lat="43.48448873984709" lon="12.281540506951467"><ele>474.0</ele><time>2026-04-26T09:32:07.001Z</time></trkpt><trkpt lat="43.48457534714119" lon="12.281571445396512"><ele>476.8333333333333</ele><time>2026-04-26T09:32:08.001Z</time></trkpt><trkpt lat="43.484636289459274" lon="12.281613307505674"><ele>479.66666666666663</ele><time>2026-04-26T09:32:09.001Z</time></trkpt><trkpt lat="43.48468307322736" lon="12.2816717881154"><ele>482.5</ele><time>2026-04-26T09:32:10.001Z</time></trkpt><trkpt lat="43.484727918387684" lon="12.281762747071372"><ele>485.3333333333333</ele><time>2026-04-26T09:32:12.001Z</time></trkpt><trkpt lat="43.48468706741446" lon="12.281851143209968"><ele>488.16666666666663</ele><time>2026-04-26T09:32:14.001Z</time></trkpt><trkpt lat="43.484730433097354" lon="12.281997322031224"><ele>491.0</ele><time>2026-04-26T09:32:16.002Z</time></trkpt><trkpt lat="43.484774188808196" lon="12.282080617393644"><ele>490.99999999999994</ele><time>2026-04-26T09:32:17.002Z</time></trkpt><trkpt lat="43.48482163398323" lon="12.282156292074326"><ele>491.0</ele><time>2026-04-26T09:32:18.002Z</time></trkpt><trkpt lat="43.484872848346726" lon="12.282215055447589"><ele>491.0</ele><time>2026-04-26T09:32:19.002Z</time></trkpt><trkpt lat="43.48494165569098" lon="12.282265824501518"><ele>491.0</ele><time>2026-04-26T09:32:20.002Z</time></trkpt><trkpt lat="43.48499542436076" lon="12.282313899210656"><ele>490.99999999999994</ele><time>2026-04-26T09:32:21.002Z</time></trkpt><trkpt lat="43.48504637846884" lon="12.282428842949782"><ele>491.0</ele><time>2026-04-26T09:32:23.002Z</time></trkpt><trkpt lat="43.484970997219975" lon="12.282529410688836"><ele>489.4</ele><time>2026-04-26T09:32:25Z</time></trkpt><trkpt lat="43.484856299302294" lon="12.282534393614913"><ele>487.8</ele><time>2026-04-26T09:32:27Z</time></trkpt><trkpt lat="43.48472427382111" lon="12.28247787655446"><ele>486.19999999999993</ele><time>2026-04-26T09:32:29Z</time></trkpt><trkpt lat="43.48464604349269" lon="12.282457312069448"><ele>484.59999999999997</ele><time>2026-04-26T09:32:30Z</time></trkpt><trkpt lat="43.48457393084711" lon="12.282443448780386"><ele>483.0</ele><time>2026-04-26T09:32:31Z</time></trkpt><trkpt lat="43.48450474125663" lon="12.282455962534431"><ele>482.0</ele><time>2026-04-26T09:32:32Z</time></trkpt><trkpt lat="43.484446206517276" lon="12.282503339932306"><ele>481.0</ele><time>2026-04-26T09:32:33Z</time></trkpt><trkpt lat="43.48439385534712" lon="12.28255223209212"><ele>480.0</ele><time>2026-04-26T09:32:34Z</time></trkpt><trkpt lat="43.484315341835796" lon="12.282685174386385"><ele>479.0</ele><time>2026-04-26T09:32:36Z</time></trkpt><trkpt lat="43.48427313446033" lon="12.28276562591094"><ele>478.0</ele><time>2026-04-26T09:32:37Z</time></trkpt><trkpt lat="43.48422900261867" lon="12.282856909430002"><ele>477.0</ele><time>2026-04-26T09:32:38Z</time></trkpt><trkpt lat="43.4841763193687" lon="12.282999656865396"><ele>474.8333333333333</ele><time>2026-04-26T09:32:40Z</time></trkpt><trkpt lat="43.484167461580434" lon="12.283099846684154"><ele>472.66666666666663</ele><time>2026-04-26T09:32:41Z</time></trkpt><trkpt lat="43.48417081204991" lon="12.28320790565601"><ele>470.5</ele><time>2026-04-26T09:32:42Z</time></trkpt><trkpt lat="43.48416561426593" lon="12.28331297022536"><ele>468.3333333333333</ele><time>2026-04-26T09:32:43Z</time></trkpt><trkpt lat="43.48414240130172" lon="12.28341198923263"><ele>466.16666666666663</ele><time>2026-04-26T09:32:44Z</time></trkpt><trkpt lat="43.48409310320721" lon="12.283563423247369"><ele>464.0</ele><time>2026-04-26T09:32:46Z</time></trkpt><trkpt lat="43.4840517995331" lon="12.283703766845692"><ele>463.99999999999994</ele><time>2026-04-26T09:32:48Z</time></trkpt><trkpt lat="43.48399442096834" lon="12.283855267471871"><ele>464.0</ele><time>2026-04-26T09:32:50Z</time></trkpt><trkpt lat="43.48396802339134" lon="12.28394405116721"><ele>464.0</ele><time>2026-04-26T09:32:51Z</time></trkpt><trkpt lat="43.48394066952132" lon="12.284050879249307"><ele>464.0</ele><time>2026-04-26T09:32:52Z</time></trkpt><trkpt lat="43.48391832830727" lon="12.284134302179138"><ele>463.99999999999994</ele><time>2026-04-26T09:32:53Z</time></trkpt><trkpt lat="43.48389148441156" lon="12.284226472365066"><ele>464.0</ele><time>2026-04-26T09:32:54Z</time></trkpt><trkpt lat="43.48385262648318" lon="12.284297984214838"><ele>461.66666666666663</ele><time>2026-04-26T09:32:55Z</time></trkpt><trkpt lat="43.48375261640756" lon="12.28438346889691"><ele>459.3333333333333</ele><time>2026-04-26T09:32:57Z</time></trkpt><trkpt lat="43.48364473169192" lon="12.284381863442416"><ele>457.0</ele><time>2026-04-26T09:32:59Z</time></trkpt><trkpt lat="43.48358116085159" lon="12.28436249521908"><ele>454.66666666666663</ele><time>2026-04-26T09:33:00Z</time></trkpt><trkpt lat="43.48350483012288" lon="12.284348891535325"><ele>452.3333333333333</ele><time>2026-04-26T09:33:01Z</time></trkpt><trkpt lat="43.48343454924291" lon="12.284362854228693"><ele>450.0</ele><time>2026-04-26T09:33:02Z</time></trkpt><trkpt lat="43.48334781913088" lon="12.284367300915221"><ele>450.0</ele><time>2026-04-26T09:33:03Z</time></trkpt><trkpt lat="43.483261987147024" lon="12.284374676370925"><ele>450.0</ele><time>2026-04-26T09:33:04Z</time></trkpt><trkpt lat="43.48317872949475" lon="12.284380315965306"><ele>450.0</ele><time>2026-04-26T09:33:05Z</time></trkpt><trkpt lat="43.483085085045516" lon="12.284374220098465"><ele>450.0</ele><time>2026-04-26T09:33:06Z</time></trkpt><trkpt lat="43.48298511748987" lon="12.284364275982487"><ele>450.0</ele><time>2026-04-26T09:33:07Z</time></trkpt><trkpt lat="43.48288762303983" lon="12.284366438751576"><ele>449.1666666666667</ele><time>2026-04-26T09:33:08Z</time></trkpt><trkpt lat="43.482810678958174" lon="12.284377539356909"><ele>448.33333333333337</ele><time>2026-04-26T09:33:09Z</time></trkpt><trkpt lat="43.482741093039294" lon="12.284394846670248"><ele>447.5</ele><time>2026-04-26T09:33:10Z</time></trkpt><trkpt lat="43.48267795583818" lon="12.284417527868214"><ele>446.6666666666667</ele><time>2026-04-26T09:33:11Z</time></trkpt><trkpt lat="43.482605090017024" lon="12.284365443912346"><ele>445.83333333333337</ele><time>2026-04-26T09:33:13Z</time></trkpt><trkpt lat="43.482575115481026" lon="12.28422487555694"><ele>445.0</ele><time>2026-04-26T09:33:15Z</time></trkpt><trkpt lat="43.48255101046392" lon="12.284140773387914"><ele>445.00000000000006</ele><time>2026-04-26T09:33:16Z</time></trkpt><trkpt lat="43.48251707072178" lon="12.2840607395889"><ele>445.0</ele><time>2026-04-26T09:33:17Z</time></trkpt><trkpt lat="43.48246629341488" lon="12.284000191832751"><ele>445.0</ele><time>2026-04-26T09:33:18Z</time></trkpt><trkpt lat="43.48241650313934" lon="12.283946893031374"><ele>445.0</ele><time>2026-04-26T09:33:19Z</time></trkpt><trkpt lat="43.48231176811366" lon="12.283852364312475"><ele>445.00000000000006</ele><time>2026-04-26T09:33:21.001Z</time></trkpt><trkpt lat="43.48224876996798" lon="12.28381026226006"><ele>445.0</ele><time>2026-04-26T09:33:22.001Z</time></trkpt><trkpt lat="43.48218319779025" lon="12.283759763114015"><ele>443.6666666666667</ele><time>2026-04-26T09:33:23.001Z</time></trkpt><trkpt lat="43.48212457729151" lon="12.283713332882012"><ele>442.33333333333337</ele><time>2026-04-26T09:33:24.001Z</time></trkpt><trkpt lat="43.482015983003265" lon="12.283610710895951"><ele>441.0</ele><time>2026-04-26T09:33:26.001Z</time></trkpt><trkpt lat="43.481961662620975" lon="12.283562000498748"><ele>439.66666666666663</ele><time>2026-04-26T09:33:27.001Z</time></trkpt><trkpt lat="43.48190302374815" lon="12.283518410710931"><ele>438.3333333333333</ele><time>2026-04-26T09:33:28.001Z</time></trkpt><trkpt lat="43.48184031053065" lon="12.283468630264753"><ele>437.0</ele><time>2026-04-26T09:33:29.001Z</time></trkpt><trkpt lat="43.48178844116225" lon="12.283415604131187"><ele>435.6</ele><time>2026-04-26T09:33:30.001Z</time></trkpt><trkpt lat="43.48173288170623" lon="12.283356968513493"><ele>434.20000000000005</ele><time>2026-04-26T09:33:31.001Z</time></trkpt><trkpt lat="43.48167124408828" lon="12.283247496610835"><ele>432.8</ele><time>2026-04-26T09:33:33.001Z</time></trkpt><trkpt lat="43.481608103473555" lon="12.283131559404383"><ele>431.4</ele><time>2026-04-26T09:33:35.001Z</time></trkpt><trkpt lat="43.48152434337448" lon="12.28305745062352"><ele>430.0</ele><time>2026-04-26T09:33:37.001Z</time></trkpt><trkpt lat="43.481450411294404" lon="12.283001577388696"><ele>429.6</ele><time>2026-04-26T09:33:39.001Z</time></trkpt><trkpt lat="43.48136507618255" lon="12.282953707502724"><ele>429.2</ele><time>2026-04-26T09:33:41.001Z</time></trkpt><trkpt lat="43.481304977844204" lon="12.282914777747973"><ele>428.79999999999995</ele><time>2026-04-26T09:33:42.001Z</time></trkpt><trkpt lat="43.48116918910686" lon="12.28288712755652"><ele>428.4</ele><time>2026-04-26T09:33:44.001Z</time></trkpt><trkpt lat="43.48108390456226" lon="12.282851800997634"><ele>428.0</ele><time>2026-04-26T09:33:45.001Z</time></trkpt><trkpt lat="43.48100548365402" lon="12.282824841712745"><ele>426.16666666666663</ele><time>2026-04-26T09:33:46.001Z</time></trkpt><trkpt lat="43.4809099438882" lon="12.28280495363939"><ele>424.3333333333333</ele><time>2026-04-26T09:33:47.001Z</time></trkpt><trkpt lat="43.48081743311186" lon="12.282798490583973"><ele>422.5</ele><time>2026-04-26T09:33:48.001Z</time></trkpt><trkpt lat="43.48073655877916" lon="12.282824659553174"><ele>420.66666666666663</ele><time>2026-04-26T09:33:49.001Z</time></trkpt><trkpt lat="43.48064849177191" lon="12.2828104357607"><ele>418.8333333333333</ele><time>2026-04-26T09:33:50.001Z</time></trkpt><trkpt lat="43.48056901915703" lon="12.282805401430766"><ele>417.0</ele><time>2026-04-26T09:33:51.001Z</time></trkpt><trkpt lat="43.48049895802535" lon="12.282788440541644"><ele>415.5714285714286</ele><time>2026-04-26T09:33:52.001Z</time></trkpt><trkpt lat="43.48040934461884" lon="12.282792617913593"><ele>414.1428571428571</ele><time>2026-04-26T09:33:53.001Z</time></trkpt><trkpt lat="43.480333124315436" lon="12.282772309058515"><ele>412.7142857142857</ele><time>2026-04-26T09:33:54.001Z</time></trkpt><trkpt lat="43.48026160081867" lon="12.282755572606558"><ele>411.28571428571433</ele><time>2026-04-26T09:33:55.001Z</time></trkpt><trkpt lat="43.48019737241968" lon="12.282741269350845"><ele>409.8571428571429</ele><time>2026-04-26T09:33:56.001Z</time></trkpt><trkpt lat="43.48013130343443" lon="12.282764422197504"><ele>408.42857142857144</ele><time>2026-04-26T09:33:57.001Z</time></trkpt><trkpt lat="43.48005680463917" lon="12.282779271625149"><ele>407.0</ele><time>2026-04-26T09:33:58.001Z</time></trkpt><trkpt lat="43.47997972902826" lon="12.282812066260899"><ele>406.99999999999994</ele><time>2026-04-26T09:33:59.001Z</time></trkpt><trkpt lat="43.479878426984534" lon="12.282854910955296"><ele>407.0</ele><time>2026-04-26T09:34:00.001Z</time></trkpt><trkpt lat="43.479821527842894" lon="12.282902740871585"><ele>407.0</ele><time>2026-04-26T09:34:01.001Z</time></trkpt><trkpt lat="43.47975265505932" lon="12.28296798576756"><ele>407.0</ele><time>2026-04-26T09:34:02.001Z</time></trkpt><trkpt lat="43.4796960177174" lon="12.283032720048775"><ele>406.99999999999994</ele><time>2026-04-26T09:34:03.001Z</time></trkpt><trkpt lat="43.47962913323322" lon="12.283102008762684"><ele>407.0</ele><time>2026-04-26T09:34:04.001Z</time></trkpt><trkpt lat="43.47955980194602" lon="12.283142795075419"><ele>405.7142857142857</ele><time>2026-04-26T09:34:05.001Z</time></trkpt><trkpt lat="43.479497211076435" lon="12.283179985308896"><ele>404.42857142857144</ele><time>2026-04-26T09:34:06.001Z</time></trkpt><trkpt lat="43.47943132460663" lon="12.283219909902598"><ele>403.1428571428571</ele><time>2026-04-26T09:34:07.001Z</time></trkpt><trkpt lat="43.47936284597706" lon="12.283251552450302"><ele>401.8571428571429</ele><time>2026-04-26T09:34:08.001Z</time></trkpt><trkpt lat="43.47929368627706" lon="12.283271182743453"><ele>400.57142857142856</ele><time>2026-04-26T09:34:09.001Z</time></trkpt><trkpt lat="43.4792187549884" lon="12.283286002987783"><ele>399.2857142857143</ele><time>2026-04-26T09:34:10.001Z</time></trkpt><trkpt lat="43.47914161061303" lon="12.283302302738159"><ele>398.0</ele><time>2026-04-26T09:34:11.001Z</time></trkpt><trkpt lat="43.47907720660532" lon="12.28332910863286"><ele>397.99999999999994</ele><time>2026-04-26T09:34:12.001Z</time></trkpt><trkpt lat="43.47900566373203" lon="12.283347173043431"><ele>398.0</ele><time>2026-04-26T09:34:13.001Z</time></trkpt><trkpt lat="43.47893295702064" lon="12.283350638354172"><ele>398.0</ele><time>2026-04-26T09:34:14.001Z</time></trkpt><trkpt lat="43.47883808984994" lon="12.283348066404722"><ele>398.0</ele><time>2026-04-26T09:34:16.001Z</time></trkpt><trkpt lat="43.47877302663121" lon="12.283351343298456"><ele>397.99999999999994</ele><time>2026-04-26T09:34:17.001Z</time></trkpt><trkpt lat="43.47870049256936" lon="12.283375000185348"><ele>398.0</ele><time>2026-04-26T09:34:18.001Z</time></trkpt><trkpt lat="43.478612892380944" lon="12.283382245392207"><ele>396.3333333333333</ele><time>2026-04-26T09:34:19.001Z</time></trkpt><trkpt lat="43.47852720135555" lon="12.283403274193232"><ele>394.66666666666663</ele><time>2026-04-26T09:34:20.001Z</time></trkpt><trkpt lat="43.47844600232581" lon="12.283423331485556"><ele>393.0</ele><time>2026-04-26T09:34:21.001Z</time></trkpt><trkpt lat="43.47837433243043" lon="12.283448692138295"><ele>391.33333333333337</ele><time>2026-04-26T09:34:22.002Z</time></trkpt><trkpt lat="43.478308713707214" lon="12.283473055752783"><ele>389.6666666666667</ele><time>2026-04-26T09:34:23.002Z</time></trkpt><trkpt lat="43.47823201646533" lon="12.28350425489329"><ele>388.0</ele><time>2026-04-26T09:34:24.002Z</time></trkpt><trkpt lat="43.478156488978364" lon="12.283549761068823"><ele>388.0</ele><time>2026-04-26T09:34:25.002Z</time></trkpt><trkpt lat="43.47802815203166" lon="12.283640974032883"><ele>388.0</ele><time>2026-04-26T09:34:27.002Z</time></trkpt><trkpt lat="43.47797173911472" lon="12.283690484734189"><ele>388.0</ele><time>2026-04-26T09:34:28.002Z</time></trkpt><trkpt lat="43.47789725833157" lon="12.283827075983517"><ele>388.0</ele><time>2026-04-26T09:34:30.002Z</time></trkpt><trkpt lat="43.47788219795103" lon="12.283913872028098"><ele>388.0</ele><time>2026-04-26T09:34:30.999Z</time></trkpt><trkpt lat="43.477868916260476" lon="12.284007163734355"><ele>385.6666666666667</ele><time>2026-04-26T09:34:31.999Z</time></trkpt><trkpt lat="43.47786372657612" lon="12.284106368632015"><ele>383.33333333333337</ele><time>2026-04-26T09:34:32.999Z</time></trkpt><trkpt lat="43.47779606762661" lon="12.284252917541382"><ele>381.0</ele><time>2026-04-26T09:34:34.999Z</time></trkpt><trkpt lat="43.4777365202637" lon="12.284298334241827"><ele>378.6666666666667</ele><time>2026-04-26T09:34:35.999Z</time></trkpt><trkpt lat="43.47766309210118" lon="12.284358318529861"><ele>376.33333333333337</ele><time>2026-04-26T09:34:36.999Z</time></trkpt><trkpt lat="43.47760398045572" lon="12.284390833375449"><ele>374.0</ele><time>2026-04-26T09:34:37.999Z</time></trkpt><trkpt lat="43.47749761413489" lon="12.284381414042164"><ele>374.0</ele><time>2026-04-26T09:34:39.999Z</time></trkpt><trkpt lat="43.477455397860076" lon="12.284270362504273"><ele>374.0</ele><time>2026-04-26T09:34:42Z</time></trkpt><trkpt lat="43.47745139096362" lon="12.284181434990568"><ele>374.0</ele><time>2026-04-26T09:34:43Z</time></trkpt><trkpt lat="43.47745752422512" lon="12.284075858280442"><ele>374.0</ele><time>2026-04-26T09:34:44Z</time></trkpt><trkpt lat="43.47747781262974" lon="12.283942966650747"><ele>374.0</ele><time>2026-04-26T09:34:45Z</time></trkpt><trkpt lat="43.477484930340246" lon="12.28380967645013"><ele>374.0</ele><time>2026-04-26T09:34:46Z</time></trkpt><trkpt lat="43.477487177838086" lon="12.283647779507122"><ele>373.0</ele><time>2026-04-26T09:34:47Z</time></trkpt><trkpt lat="43.47748922426815" lon="12.283472185767627"><ele>372.0</ele><time>2026-04-26T09:34:48Z</time></trkpt><trkpt lat="43.47749507645769" lon="12.283310415180704"><ele>371.0</ele><time>2026-04-26T09:34:49Z</time></trkpt><trkpt lat="43.4775010188354" lon="12.28315917441485"><ele>370.0</ele><time>2026-04-26T09:34:50Z</time></trkpt><trkpt lat="43.47748357012106" lon="12.283024166697812"><ele>372.5</ele><time>2026-04-26T09:34:51Z</time></trkpt><trkpt lat="43.47742515534011" lon="12.282899720696793"><ele>375.0</ele><time>2026-04-26T09:34:52Z</time></trkpt><trkpt lat="43.47733919805884" lon="12.282779435617138"><ele>377.5</ele><time>2026-04-26T09:34:53Z</time></trkpt><trkpt lat="43.477248721392684" lon="12.282660119938527"><ele>380.0</ele><time>2026-04-26T09:34:54Z</time></trkpt><trkpt lat="43.47716852241567" lon="12.282544658647513"><ele>381.4</ele><time>2026-04-26T09:34:55Z</time></trkpt><trkpt lat="43.4770900610934" lon="12.282439138206112"><ele>382.8</ele><time>2026-04-26T09:34:56Z</time></trkpt><trkpt lat="43.47701143336149" lon="12.282363135046436"><ele>384.20000000000005</ele><time>2026-04-26T09:34:57Z</time></trkpt><trkpt lat="43.47692907419111" lon="12.282303542097171"><ele>385.6</ele><time>2026-04-26T09:34:58Z</time></trkpt><trkpt lat="43.476837101879624" lon="12.282257515330718"><ele>387.0</ele><time>2026-04-26T09:34:59Z</time></trkpt><trkpt lat="43.47673853666181" lon="12.28223191787359"><ele>387.0</ele><time>2026-04-26T09:35:00Z</time></trkpt><trkpt lat="43.47665085522648" lon="12.282170324689153"><ele>387.0</ele><time>2026-04-26T09:35:01Z</time></trkpt><trkpt lat="43.476543281204165" lon="12.282156544967032"><ele>387.0</ele><time>2026-04-26T09:35:02Z</time></trkpt><trkpt lat="43.47642942192148" lon="12.282169165244264"><ele>387.0</ele><time>2026-04-26T09:35:03Z</time></trkpt><trkpt lat="43.476315459147756" lon="12.282173468890111"><ele>387.0</ele><time>2026-04-26T09:35:04Z</time></trkpt><trkpt lat="43.476204139712586" lon="12.282165918259285"><ele>383.6</ele><time>2026-04-26T09:35:05Z</time></trkpt><trkpt lat="43.476084373770064" lon="12.282163635951965"><ele>380.20000000000005</ele><time>2026-04-26T09:35:06Z</time></trkpt><trkpt lat="43.4759770742431" lon="12.282140219704216"><ele>376.8</ele><time>2026-04-26T09:35:07Z</time></trkpt><trkpt lat="43.47588529919449" lon="12.282101530795668"><ele>373.4</ele><time>2026-04-26T09:35:08Z</time></trkpt><trkpt lat="43.47581513027426" lon="12.282046181002011"><ele>370.0</ele><time>2026-04-26T09:35:09Z</time></trkpt><trkpt lat="43.47576529240581" lon="12.28196716671861"><ele>370.0</ele><time>2026-04-26T09:35:10Z</time></trkpt><trkpt lat="43.47572974289358" lon="12.28185479590399"><ele>370.0</ele><time>2026-04-26T09:35:11Z</time></trkpt><trkpt lat="43.47573549583135" lon="12.281728590836252"><ele>370.0</ele><time>2026-04-26T09:35:12Z</time></trkpt><trkpt lat="43.475743435771584" lon="12.28159718641301"><ele>370.0</ele><time>2026-04-26T09:35:13Z</time></trkpt><trkpt lat="43.475765897401786" lon="12.28144429790312"><ele>370.0</ele><time>2026-04-26T09:35:14Z</time></trkpt><trkpt lat="43.4757965407579" lon="12.281281370696359"><ele>369.75</ele><time>2026-04-26T09:35:15Z</time></trkpt><trkpt lat="43.47583706327485" lon="12.28111174623062"><ele>369.5</ele><time>2026-04-26T09:35:16Z</time></trkpt><trkpt lat="43.475868522317775" lon="12.28095022441878"><ele>369.25</ele><time>2026-04-26T09:35:17Z</time></trkpt><trkpt lat="43.47589349004391" lon="12.280805826791003"><ele>369.0</ele><time>2026-04-26T09:35:18Z</time></trkpt><trkpt lat="43.47590607625573" lon="12.280679000835798"><ele>370.6</ele><time>2026-04-26T09:35:19Z</time></trkpt><trkpt lat="43.47589898923805" lon="12.280552054076793"><ele>372.2</ele><time>2026-04-26T09:35:20Z</time></trkpt><trkpt lat="43.475874633750465" lon="12.280430893309282"><ele>373.8</ele><time>2026-04-26T09:35:21Z</time></trkpt><trkpt lat="43.47582155436542" lon="12.280303562423232"><ele>375.40000000000003</ele><time>2026-04-26T09:35:22Z</time></trkpt><trkpt lat="43.475758733979916" lon="12.280189226048599"><ele>377.0</ele><time>2026-04-26T09:35:23Z</time></trkpt><trkpt lat="43.475691863496344" lon="12.280067996474019"><ele>377.0</ele><time>2026-04-26T09:35:24Z</time></trkpt><trkpt lat="43.47559581742695" lon="12.279970307983257"><ele>377.0</ele><time>2026-04-26T09:35:25Z</time></trkpt><trkpt lat="43.47552550701389" lon="12.279876604329907"><ele>377.0</ele><time>2026-04-26T09:35:26Z</time></trkpt><trkpt lat="43.475437158543826" lon="12.279795538807626"><ele>377.0</ele><time>2026-04-26T09:35:27Z</time></trkpt><trkpt lat="43.475334194879636" lon="12.279718033354591"><ele>377.0</ele><time>2026-04-26T09:35:28.001Z</time></trkpt><trkpt lat="43.475231297080605" lon="12.27967293752566"><ele>375.0</ele><time>2026-04-26T09:35:29.001Z</time></trkpt><trkpt lat="43.475141682790465" lon="12.279636509671855"><ele>373.0</ele><time>2026-04-26T09:35:30.001Z</time></trkpt><trkpt lat="43.47504816225947" lon="12.279582624083787"><ele>371.0</ele><time>2026-04-26T09:35:31.001Z</time></trkpt><trkpt lat="43.47497841709217" lon="12.279546027851756"><ele>369.0</ele><time>2026-04-26T09:35:32.001Z</time></trkpt><trkpt lat="43.47489495512103" lon="12.279456279405498"><ele>367.0</ele><time>2026-04-26T09:35:34.001Z</time></trkpt><trkpt lat="43.47491554797347" lon="12.279331312452369"><ele>367.0</ele><time>2026-04-26T09:35:35.001Z</time></trkpt><trkpt lat="43.47488956856844" lon="12.279196385243035"><ele>367.0</ele><time>2026-04-26T09:35:36.001Z</time></trkpt><trkpt lat="43.47489049718168" lon="12.279052412352017"><ele>367.0</ele><time>2026-04-26T09:35:37.001Z</time></trkpt><trkpt lat="43.474887184439496" lon="12.278899563922552"><ele>367.0</ele><time>2026-04-26T09:35:38.001Z</time></trkpt><trkpt lat="43.474924840759066" lon="12.27875062666906"><ele>367.0</ele><time>2026-04-26T09:35:39.001Z</time></trkpt><trkpt lat="43.47495133307847" lon="12.27859206110328"><ele>366.40000000000003</ele><time>2026-04-26T09:35:40.001Z</time></trkpt><trkpt lat="43.474994049033434" lon="12.278449206434074"><ele>365.8</ele><time>2026-04-26T09:35:41.001Z</time></trkpt><trkpt lat="43.47504026283537" lon="12.278321973062999"><ele>365.2</ele><time>2026-04-26T09:35:42.001Z</time></trkpt><trkpt lat="43.475108442819035" lon="12.278232073207073"><ele>364.6</ele><time>2026-04-26T09:35:43.001Z</time></trkpt><trkpt lat="43.4751510080434" lon="12.278131057696369"><ele>364.0</ele><time>2026-04-26T09:35:44.001Z</time></trkpt><trkpt lat="43.47518012490561" lon="12.278031893985219"><ele>366.0</ele><time>2026-04-26T09:35:45.001Z</time></trkpt><trkpt lat="43.475158502198965" lon="12.27792514681987"><ele>368.0</ele><time>2026-04-26T09:35:46.001Z</time></trkpt><trkpt lat="43.475128552694024" lon="12.277802184655501"><ele>370.0</ele><time>2026-04-26T09:35:47.001Z</time></trkpt><trkpt lat="43.47503132441412" lon="12.277719139194879"><ele>372.0</ele><time>2026-04-26T09:35:48.001Z</time></trkpt><trkpt lat="43.47493886113972" lon="12.277629091666421"><ele>374.0</ele><time>2026-04-26T09:35:49.001Z</time></trkpt><trkpt lat="43.47483791009252" lon="12.277588985506418"><ele>374.0</ele><time>2026-04-26T09:35:50.001Z</time></trkpt><trkpt lat="43.47472740095496" lon="12.277539030011054"><ele>374.0</ele><time>2026-04-26T09:35:51.001Z</time></trkpt><trkpt lat="43.47463992148282" lon="12.27749105025295"><ele>374.0</ele><time>2026-04-26T09:35:52.001Z</time></trkpt><trkpt lat="43.47456940197627" lon="12.277398701229817"><ele>374.0</ele><time>2026-04-26T09:35:53.001Z</time></trkpt><trkpt lat="43.47449434631074" lon="12.277295572576616"><ele>374.0</ele><time>2026-04-26T09:35:54.001Z</time></trkpt><trkpt lat="43.474407230431744" lon="12.277179650703209"><ele>375.0</ele><time>2026-04-26T09:35:55.001Z</time></trkpt><trkpt lat="43.47430347069639" lon="12.277099919308473"><ele>376.0</ele><time>2026-04-26T09:35:56.001Z</time></trkpt><trkpt lat="43.47421247440251" lon="12.277025734565173"><ele>377.0</ele><time>2026-04-26T09:35:57.001Z</time></trkpt><trkpt lat="43.47410664465161" lon="12.276984990452226"><ele>378.0</ele><time>2026-04-26T09:35:58.001Z</time></trkpt><trkpt lat="43.47400038259184" lon="12.276930567672071"><ele>379.0</ele><time>2026-04-26T09:35:59.001Z</time></trkpt><trkpt lat="43.473896963781996" lon="12.276933870789453"><ele>379.0</ele><time>2026-04-26T09:36:00.001Z</time></trkpt><trkpt lat="43.47379276266332" lon="12.276941252347285"><ele>379.0</ele><time>2026-04-26T09:36:01.001Z</time></trkpt><trkpt lat="43.47367598139596" lon="12.276943389843165"><ele>379.0</ele><time>2026-04-26T09:36:02.001Z</time></trkpt><trkpt lat="43.47355252184865" lon="12.276978654101432"><ele>379.0</ele><time>2026-04-26T09:36:03.001Z</time></trkpt><trkpt lat="43.47342793364752" lon="12.277034878334893"><ele>377.4</ele><time>2026-04-26T09:36:04.001Z</time></trkpt><trkpt lat="43.47330916150808" lon="12.277049559457286"><ele>375.79999999999995</ele><time>2026-04-26T09:36:05.001Z</time></trkpt><trkpt lat="43.473192158983665" lon="12.27706724646668"><ele>374.20000000000005</ele><time>2026-04-26T09:36:06.001Z</time></trkpt><trkpt lat="43.473087006188" lon="12.277080077657644"><ele>372.6</ele><time>2026-04-26T09:36:07.001Z</time></trkpt><trkpt lat="43.47298990284634" lon="12.277090336385173"><ele>371.0</ele><time>2026-04-26T09:36:08.001Z</time></trkpt><trkpt lat="43.472890049655334" lon="12.277092239368356"><ele>368.0</ele><time>2026-04-26T09:36:09.001Z</time></trkpt><trkpt lat="43.472787673960546" lon="12.277067896288287"><ele>365.0</ele><time>2026-04-26T09:36:10.001Z</time></trkpt><trkpt lat="43.47269819539594" lon="12.27702862550953"><ele>362.0</ele><time>2026-04-26T09:36:11.001Z</time></trkpt><trkpt lat="43.47260853156297" lon="12.276947390905601"><ele>359.0</ele><time>2026-04-26T09:36:12.001Z</time></trkpt><trkpt lat="43.47250658902323" lon="12.27686936280241"><ele>356.0</ele><time>2026-04-26T09:36:13.001Z</time></trkpt><trkpt lat="43.472408964519616" lon="12.276780508323787"><ele>356.0</ele><time>2026-04-26T09:36:14.001Z</time></trkpt><trkpt lat="43.472308831541" lon="12.276675473637146"><ele>356.0</ele><time>2026-04-26T09:36:15.001Z</time></trkpt><trkpt lat="43.472207038081436" lon="12.276607761458298"><ele>356.0</ele><time>2026-04-26T09:36:16.001Z</time></trkpt><trkpt lat="43.47210200029401" lon="12.276526101100842"><ele>356.0</ele><time>2026-04-26T09:36:17.001Z</time></trkpt><trkpt lat="43.47200625296227" lon="12.276443176823884"><ele>356.25</ele><time>2026-04-26T09:36:18.001Z</time></trkpt><trkpt lat="43.471893908524535" lon="12.27639600730809"><ele>356.5</ele><time>2026-04-26T09:36:19.001Z</time></trkpt><trkpt lat="43.471788853523734" lon="12.276357861275205"><ele>356.75</ele><time>2026-04-26T09:36:20.001Z</time></trkpt><trkpt lat="43.471662574759286" lon="12.276330930806317"><ele>357.0</ele><time>2026-04-26T09:36:21.001Z</time></trkpt><trkpt lat="43.471539028717515" lon="12.27631264871883"><ele>357.0</ele><time>2026-04-26T09:36:22.001Z</time></trkpt><trkpt lat="43.471426715229946" lon="12.276321526424177"><ele>357.0</ele><time>2026-04-26T09:36:23.002Z</time></trkpt><trkpt lat="43.4713325213807" lon="12.276271219636739"><ele>357.0</ele><time>2026-04-26T09:36:24.002Z</time></trkpt><trkpt lat="43.471254650320084" lon="12.276200294012128"><ele>357.0</ele><time>2026-04-26T09:36:25.002Z</time></trkpt><trkpt lat="43.47116845008044" lon="12.276142031656628"><ele>357.0</ele><time>2026-04-26T09:36:26.002Z</time></trkpt><trkpt lat="43.471081354790826" lon="12.276090529731327"><ele>352.5</ele><time>2026-04-26T09:36:27.002Z</time></trkpt><trkpt lat="43.47098557107631" lon="12.276051569670845"><ele>348.0</ele><time>2026-04-26T09:36:28.002Z</time></trkpt><trkpt lat="43.47087682864738" lon="12.276063634550237"><ele>343.5</ele><time>2026-04-26T09:36:29.002Z</time></trkpt><trkpt lat="43.470753654968426" lon="12.27603433336104"><ele>339.0</ele><time>2026-04-26T09:36:30.002Z</time></trkpt><trkpt lat="43.47063837770482" lon="12.276049662169992"><ele>339.0</ele><time>2026-04-26T09:36:31.002Z</time></trkpt><trkpt lat="43.470539820261685" lon="12.276017715269573"><ele>339.0</ele><time>2026-04-26T09:36:32.002Z</time></trkpt><trkpt lat="43.470470027783335" lon="12.276022504495064"><ele>339.0</ele><time>2026-04-26T09:36:33.002Z</time></trkpt><trkpt lat="43.47039564913992" lon="12.276174147850043"><ele>339.0</ele><time>2026-04-26T09:36:35.002Z</time></trkpt><trkpt lat="43.47040518017187" lon="12.276297801884137"><ele>339.0</ele><time>2026-04-26T09:36:36.002Z</time></trkpt><trkpt lat="43.47043193753282" lon="12.276412946069607"><ele>339.6666666666667</ele><time>2026-04-26T09:36:37Z</time></trkpt><trkpt lat="43.47043270995215" lon="12.276517576283192"><ele>340.3333333333333</ele><time>2026-04-26T09:36:38Z</time></trkpt><trkpt lat="43.470403589080895" lon="12.276612486628338"><ele>341.0</ele><time>2026-04-26T09:36:39Z</time></trkpt><trkpt lat="43.47034768540445" lon="12.276682927493265"><ele>341.66666666666663</ele><time>2026-04-26T09:36:40Z</time></trkpt><trkpt lat="43.47027116693899" lon="12.276696903805162"><ele>342.3333333333333</ele><time>2026-04-26T09:36:41Z</time></trkpt><trkpt lat="43.47018952306099" lon="12.276686887263933"><ele>343.0</ele><time>2026-04-26T09:36:42Z</time></trkpt><trkpt lat="43.470111266825086" lon="12.276811419754772"><ele>343.0</ele><time>2026-04-26T09:36:43Z</time></trkpt><trkpt lat="43.47001082969749" lon="12.276831456334197"><ele>343.0</ele><time>2026-04-26T09:36:44Z</time></trkpt><trkpt lat="43.4699262067221" lon="12.276883794024885"><ele>343.0</ele><time>2026-04-26T09:36:45Z</time></trkpt><trkpt lat="43.46985337955266" lon="12.27697035560827"><ele>343.0</ele><time>2026-04-26T09:36:46Z</time></trkpt><trkpt lat="43.4697787939673" lon="12.277039058523636"><ele>343.0</ele><time>2026-04-26T09:36:47Z</time></trkpt><trkpt lat="43.46971660334256" lon="12.277115926658645"><ele>343.0</ele><time>2026-04-26T09:36:48Z</time></trkpt><trkpt lat="43.46966963736836" lon="12.27720690862731"><ele>343.0</ele><time>2026-04-26T09:36:49Z</time></trkpt><trkpt lat="43.46963126282165" lon="12.277306733916987"><ele>343.0</ele><time>2026-04-26T09:36:50Z</time></trkpt><trkpt lat="43.469571186901725" lon="12.277389225169438"><ele>343.0</ele><time>2026-04-26T09:36:51Z</time></trkpt><trkpt lat="43.469509603622164" lon="12.27745427060439"><ele>343.0</ele><time>2026-04-26T09:36:52Z</time></trkpt><trkpt lat="43.469445609560516" lon="12.277481955920878"><ele>343.0</ele><time>2026-04-26T09:36:53Z</time></trkpt><trkpt lat="43.46936917304676" lon="12.277494399860426"><ele>345.2</ele><time>2026-04-26T09:36:54Z</time></trkpt><trkpt lat="43.46928722696131" lon="12.277504256544518"><ele>347.4</ele><time>2026-04-26T09:36:55Z</time></trkpt><trkpt lat="43.46919883796313" lon="12.27749730116631"><ele>349.59999999999997</ele><time>2026-04-26T09:36:56Z</time></trkpt><trkpt lat="43.46910820232946" lon="12.277480439577927"><ele>351.79999999999995</ele><time>2026-04-26T09:36:57Z</time></trkpt><trkpt lat="43.46901371032419" lon="12.277451923532073"><ele>354.0</ele><time>2026-04-26T09:36:58Z</time></trkpt><trkpt lat="43.46884592887023" lon="12.277412012072999"><ele>354.0</ele><time>2026-04-26T09:37:00Z</time></trkpt><trkpt lat="43.46877325676784" lon="12.277399775237317"><ele>354.0</ele><time>2026-04-26T09:37:01Z</time></trkpt><trkpt lat="43.468684944230155" lon="12.277468999297607"><ele>354.0</ele><time>2026-04-26T09:37:03Z</time></trkpt><trkpt lat="43.468698049731586" lon="12.277627713146744"><ele>354.0</ele><time>2026-04-26T09:37:05Z</time></trkpt><trkpt lat="43.46874193114044" lon="12.277706998130522"><ele>354.0</ele><time>2026-04-26T09:37:06Z</time></trkpt><trkpt lat="43.46879479455563" lon="12.277784601355425"><ele>354.0</ele><time>2026-04-26T09:37:07Z</time></trkpt><trkpt lat="43.46881714146393" lon="12.277893324282172"><ele>354.0</ele><time>2026-04-26T09:37:08Z</time></trkpt><trkpt lat="43.46883688898093" lon="12.278010212644078"><ele>354.0</ele><time>2026-04-26T09:37:09Z</time></trkpt><trkpt lat="43.46887583407935" lon="12.278113209271478"><ele>354.0</ele><time>2026-04-26T09:37:10Z</time></trkpt><trkpt lat="43.46888654738885" lon="12.278234509373029"><ele>354.0</ele><time>2026-04-26T09:37:11Z</time></trkpt><trkpt lat="43.46892708046587" lon="12.278322273415155"><ele>354.0</ele><time>2026-04-26T09:37:12Z</time></trkpt><trkpt lat="43.468999704193095" lon="12.278374226572417"><ele>354.0</ele><time>2026-04-26T09:37:13Z</time></trkpt><trkpt lat="43.46907451363062" lon="12.27841058454631"><ele>357.6</ele><time>2026-04-26T09:37:14Z</time></trkpt><trkpt lat="43.46913949302425" lon="12.27845968290165"><ele>361.2</ele><time>2026-04-26T09:37:15Z</time></trkpt><trkpt lat="43.469143183911804" lon="12.278622796480379"><ele>364.8</ele><time>2026-04-26T09:37:17Z</time></trkpt><trkpt lat="43.46912931436395" lon="12.278708471148779"><ele>368.40000000000003</ele><time>2026-04-26T09:37:18Z</time></trkpt><trkpt lat="43.46916024854882" lon="12.278799931063283"><ele>372.0</ele><time>2026-04-26T09:37:19Z</time></trkpt><trkpt lat="43.46921046568816" lon="12.27896640344421"><ele>373.8333333333333</ele><time>2026-04-26T09:37:21.001Z</time></trkpt><trkpt lat="43.46926295192832" lon="12.279053305983208"><ele>375.6666666666667</ele><time>2026-04-26T09:37:22.001Z</time></trkpt><trkpt lat="43.4693174237938" lon="12.279117466387394"><ele>377.5</ele><time>2026-04-26T09:37:23.001Z</time></trkpt><trkpt lat="43.46938052985168" lon="12.279186411973424"><ele>379.33333333333337</ele><time>2026-04-26T09:37:24.001Z</time></trkpt><trkpt lat="43.469431173429236" lon="12.279271440160096"><ele>381.1666666666667</ele><time>2026-04-26T09:37:25.001Z</time></trkpt><trkpt lat="43.46947617449441" lon="12.279363350465422"><ele>383.0</ele><time>2026-04-26T09:37:26.001Z</time></trkpt><trkpt lat="43.4694989342461" lon="12.279467537862333"><ele>383.0</ele><time>2026-04-26T09:37:27.001Z</time></trkpt><trkpt lat="43.46952301158053" lon="12.279582808935034"><ele>383.0</ele><time>2026-04-26T09:37:28.001Z</time></trkpt><trkpt lat="43.46954524318514" lon="12.279671059091859"><ele>383.0</ele><time>2026-04-26T09:37:29.001Z</time></trkpt><trkpt lat="43.46957476467555" lon="12.279789942043031"><ele>383.0</ele><time>2026-04-26T09:37:31.001Z</time></trkpt><trkpt lat="43.46974651386907" lon="12.279789887327146"><ele>383.0</ele><time>2026-04-26T09:37:33.001Z</time></trkpt><trkpt lat="43.46986959838635" lon="12.279808184387852"><ele>387.0</ele><time>2026-04-26T09:37:35.001Z</time></trkpt><trkpt lat="43.46998999647805" lon="12.27982769344377"><ele>391.0</ele><time>2026-04-26T09:37:37.001Z</time></trkpt><trkpt lat="43.47004616568797" lon="12.279873253992594"><ele>395.0</ele><time>2026-04-26T09:37:38.001Z</time></trkpt><trkpt lat="43.47012374349509" lon="12.280015382889355"><ele>399.0</ele><time>2026-04-26T09:37:40.001Z</time></trkpt><trkpt lat="43.47018028362475" lon="12.280080523202352"><ele>403.0</ele><time>2026-04-26T09:37:41.001Z</time></trkpt><trkpt lat="43.47024859912257" lon="12.280134805927677"><ele>403.00000000000006</ele><time>2026-04-26T09:37:42.001Z</time></trkpt><trkpt lat="43.47031245205801" lon="12.280165269147279"><ele>403.0</ele><time>2026-04-26T09:37:43.001Z</time></trkpt><trkpt lat="43.4703643951648" lon="12.280214504031182"><ele>403.0</ele><time>2026-04-26T09:37:44.001Z</time></trkpt><trkpt lat="43.47045325428007" lon="12.2803433695041"><ele>403.0</ele><time>2026-04-26T09:37:46.001Z</time></trkpt><trkpt lat="43.47050693768237" lon="12.280411864414752"><ele>403.00000000000006</ele><time>2026-04-26T09:37:47.001Z</time></trkpt><trkpt lat="43.47053854723262" lon="12.280503492109482"><ele>403.0</ele><time>2026-04-26T09:37:48.001Z</time></trkpt><trkpt lat="43.47061470731161" lon="12.280631647431711"><ele>406.4</ele><time>2026-04-26T09:37:50.001Z</time></trkpt><trkpt lat="43.47067164685534" lon="12.280700276393214"><ele>409.79999999999995</ele><time>2026-04-26T09:37:51.001Z</time></trkpt><trkpt lat="43.47072885577834" lon="12.280756039755037"><ele>413.2</ele><time>2026-04-26T09:37:52.001Z</time></trkpt><trkpt lat="43.47083407155456" lon="12.280813572889086"><ele>416.6</ele><time>2026-04-26T09:37:54.001Z</time></trkpt><trkpt lat="43.47094451016348" lon="12.280906186685106"><ele>420.0</ele><time>2026-04-26T09:37:56.001Z</time></trkpt><trkpt lat="43.47102302097396" lon="12.280945899613405"><ele>420.0</ele><time>2026-04-26T09:37:57.001Z</time></trkpt><trkpt lat="43.471108169155066" lon="12.280966469168991"><ele>420.0</ele><time>2026-04-26T09:37:58.001Z</time></trkpt><trkpt lat="43.471189439377966" lon="12.28097201051513"><ele>420.0</ele><time>2026-04-26T09:37:59.001Z</time></trkpt><trkpt lat="43.471259337403616" lon="12.280977971903008"><ele>420.0</ele><time>2026-04-26T09:38:00.001Z</time></trkpt><trkpt lat="43.471361010680994" lon="12.280985340444412"><ele>420.0</ele><time>2026-04-26T09:38:02.001Z</time></trkpt><trkpt lat="43.47144661382348" lon="12.280872136722964"><ele>421.4</ele><time>2026-04-26T09:38:04.001Z</time></trkpt><trkpt lat="43.471519038951236" lon="12.28075252746248"><ele>422.8</ele><time>2026-04-26T09:38:06.001Z</time></trkpt><trkpt lat="43.47162461082456" lon="12.280710506531454"><ele>424.20000000000005</ele><time>2026-04-26T09:38:08.001Z</time></trkpt><trkpt lat="43.47171969414911" lon="12.28083325350746"><ele>425.6</ele><time>2026-04-26T09:38:10.001Z</time></trkpt><trkpt lat="43.47176518890325" lon="12.280918218060515"><ele>427.0</ele><time>2026-04-26T09:38:11.001Z</time></trkpt><trkpt lat="43.47180782009339" lon="12.280999137943295"><ele>427.0</ele><time>2026-04-26T09:38:12.002Z</time></trkpt><trkpt lat="43.4718344445998" lon="12.281093324535261"><ele>427.00000000000006</ele><time>2026-04-26T09:38:13.002Z</time></trkpt><trkpt lat="43.47181826422085" lon="12.281243016989627"><ele>427.00000000000006</ele><time>2026-04-26T09:38:15.002Z</time></trkpt><trkpt lat="43.47174351401522" lon="12.28137724495272"><ele>427.0</ele><time>2026-04-26T09:38:17.002Z</time></trkpt><trkpt lat="43.47173604424464" lon="12.281472309015118"><ele>427.0</ele><time>2026-04-26T09:38:18.002Z</time></trkpt><trkpt lat="43.47175175981266" lon="12.281574909045109"><ele>428.50000000000006</ele><time>2026-04-26T09:38:19.002Z</time></trkpt><trkpt lat="43.471784032878" lon="12.281672808787532"><ele>430.0</ele><time>2026-04-26T09:38:20.002Z</time></trkpt><trkpt lat="43.47181116412834" lon="12.281778445904116"><ele>431.5</ele><time>2026-04-26T09:38:21.002Z</time></trkpt><trkpt lat="43.4718512878144" lon="12.281848405725166"><ele>433.0</ele><time>2026-04-26T09:38:22.002Z</time></trkpt><trkpt lat="43.47190916773695" lon="12.281946103484747"><ele>434.50000000000006</ele><time>2026-04-26T09:38:23.002Z</time></trkpt><trkpt lat="43.47195575385123" lon="12.282038646422347"><ele>436.0</ele><time>2026-04-26T09:38:24.002Z</time></trkpt><trkpt lat="43.47198824751814" lon="12.282132204540773"><ele>436.00000000000006</ele><time>2026-04-26T09:38:25.002Z</time></trkpt><trkpt lat="43.47200221667876" lon="12.282251661791019"><ele>436.0</ele><time>2026-04-26T09:38:26.002Z</time></trkpt><trkpt lat="43.47201326924566" lon="12.282380723909885"><ele>436.0</ele><time>2026-04-26T09:38:27.002Z</time></trkpt><trkpt lat="43.4720258265001" lon="12.282491716432862"><ele>436.0</ele><time>2026-04-26T09:38:28.002Z</time></trkpt><trkpt lat="43.47199773287819" lon="12.28257964337759"><ele>436.00000000000006</ele><time>2026-04-26T09:38:29.002Z</time></trkpt><trkpt lat="43.471921961934335" lon="12.28267728902393"><ele>436.0</ele><time>2026-04-26T09:38:31.002Z</time></trkpt><trkpt lat="43.47184632060157" lon="12.282695700563059"><ele>438.00000000000006</ele><time>2026-04-26T09:38:32.002Z</time></trkpt><trkpt lat="43.47176922193066" lon="12.28271201797173"><ele>440.0</ele><time>2026-04-26T09:38:33.002Z</time></trkpt><trkpt lat="43.471706802810296" lon="12.282738803447344"><ele>442.0</ele><time>2026-04-26T09:38:34.002Z</time></trkpt><trkpt lat="43.47165378465763" lon="12.282795579962823"><ele>444.0</ele><time>2026-04-26T09:38:35.002Z</time></trkpt><trkpt lat="43.471623896960544" lon="12.282876407590308"><ele>446.00000000000006</ele><time>2026-04-26T09:38:36.002Z</time></trkpt><trkpt lat="43.47160725562625" lon="12.28299511014807"><ele>448.0</ele><time>2026-04-26T09:38:37.002Z</time></trkpt><trkpt lat="43.47159612754067" lon="12.283112705247989"><ele>449.83333333333337</ele><time>2026-04-26T09:38:38.002Z</time></trkpt><trkpt lat="43.47157585055679" lon="12.28320384297489"><ele>451.6666666666667</ele><time>2026-04-26T09:38:39.002Z</time></trkpt><trkpt lat="43.4715418662351" lon="12.283281077539963"><ele>453.5</ele><time>2026-04-26T09:38:40.002Z</time></trkpt><trkpt lat="43.47148050469449" lon="12.283344152347494"><ele>455.33333333333337</ele><time>2026-04-26T09:38:41.002Z</time></trkpt><trkpt lat="43.471411893007975" lon="12.283399507665068"><ele>457.1666666666667</ele><time>2026-04-26T09:38:42.002Z</time></trkpt><trkpt lat="43.47135789095987" lon="12.283472302949004"><ele>459.0</ele><time>2026-04-26T09:38:43Z</time></trkpt><trkpt lat="43.471298346539086" lon="12.283557578865585"><ele>458.6666666666667</ele><time>2026-04-26T09:38:44Z</time></trkpt><trkpt lat="43.47124572070598" lon="12.283627963551428"><ele>458.33333333333337</ele><time>2026-04-26T09:38:45Z</time></trkpt><trkpt lat="43.471201978724245" lon="12.28372315292697"><ele>458.0</ele><time>2026-04-26T09:38:46Z</time></trkpt><trkpt lat="43.4711690553275" lon="12.283817582810817"><ele>457.6666666666667</ele><time>2026-04-26T09:38:47Z</time></trkpt><trkpt lat="43.47115093379295" lon="12.283928367850537"><ele>457.33333333333337</ele><time>2026-04-26T09:38:48Z</time></trkpt><trkpt lat="43.47115401391789" lon="12.284032611135977"><ele>457.0</ele><time>2026-04-26T09:38:49Z</time></trkpt><trkpt lat="43.471168004900875" lon="12.284143057891209"><ele>458.50000000000006</ele><time>2026-04-26T09:38:50Z</time></trkpt><trkpt lat="43.47118063873135" lon="12.284240334990463"><ele>460.0</ele><time>2026-04-26T09:38:51Z</time></trkpt><trkpt lat="43.471207543824896" lon="12.284324790402465"><ele>461.5</ele><time>2026-04-26T09:38:52Z</time></trkpt><trkpt lat="43.47124777317826" lon="12.28440350972858"><ele>463.0</ele><time>2026-04-26T09:38:53Z</time></trkpt><trkpt lat="43.47126808422114" lon="12.28451041206324"><ele>464.50000000000006</ele><time>2026-04-26T09:38:54Z</time></trkpt><trkpt lat="43.47132892102757" lon="12.284602765052307"><ele>466.0</ele><time>2026-04-26T09:38:55Z</time></trkpt><trkpt lat="43.471370127423484" lon="12.284719879304792"><ele>469.5</ele><time>2026-04-26T09:38:56Z</time></trkpt><trkpt lat="43.47141169965861" lon="12.28485494456673"><ele>473.0</ele><time>2026-04-26T09:38:57Z</time></trkpt><trkpt lat="43.47146409581997" lon="12.285013827748456"><ele>476.5</ele><time>2026-04-26T09:38:58Z</time></trkpt><trkpt lat="43.47151145751417" lon="12.285181562748992"><ele>480.0</ele><time>2026-04-26T09:38:59Z</time></trkpt><trkpt lat="43.47156180993358" lon="12.285336280745703"><ele>480.0</ele><time>2026-04-26T09:39:00Z</time></trkpt><trkpt lat="43.47160518532744" lon="12.285495073604121"><ele>480.0</ele><time>2026-04-26T09:39:01Z</time></trkpt><trkpt lat="43.47165060566107" lon="12.28565172654192"><ele>480.0</ele><time>2026-04-26T09:39:02Z</time></trkpt><trkpt lat="43.47168588735279" lon="12.285784103165565"><ele>480.0</ele><time>2026-04-26T09:39:03Z</time></trkpt><trkpt lat="43.47171336290729" lon="12.285908601842078"><ele>480.0</ele><time>2026-04-26T09:39:04Z</time></trkpt><trkpt lat="43.471751249148056" lon="12.286024237265362"><ele>482.0</ele><time>2026-04-26T09:39:05Z</time></trkpt><trkpt lat="43.4717534031851" lon="12.28611738747159"><ele>484.0</ele><time>2026-04-26T09:39:06Z</time></trkpt><trkpt lat="43.4717452119941" lon="12.286204162227346"><ele>486.0</ele><time>2026-04-26T09:39:07Z</time></trkpt><trkpt lat="43.471771827826025" lon="12.286318268525141"><ele>488.0</ele><time>2026-04-26T09:39:09Z</time></trkpt><trkpt lat="43.47182387626159" lon="12.286392559130023"><ele>490.0</ele><time>2026-04-26T09:39:10Z</time></trkpt><trkpt lat="43.47195037101838" lon="12.28643762757533"><ele>492.0</ele><time>2026-04-26T09:39:12Z</time></trkpt><trkpt lat="43.4720337595563" lon="12.286439482399109"><ele>493.3333333333333</ele><time>2026-04-26T09:39:13Z</time></trkpt><trkpt lat="43.472108351392855" lon="12.286445268215179"><ele>494.66666666666663</ele><time>2026-04-26T09:39:14Z</time></trkpt><trkpt lat="43.472179257537746" lon="12.28647880255769"><ele>496.0</ele><time>2026-04-26T09:39:15Z</time></trkpt><trkpt lat="43.472257580565824" lon="12.286527141677995"><ele>497.3333333333333</ele><time>2026-04-26T09:39:16.001Z</time></trkpt><trkpt lat="43.47232925962249" lon="12.286586866893867"><ele>498.66666666666663</ele><time>2026-04-26T09:39:17.001Z</time></trkpt><trkpt lat="43.47238706263018" lon="12.286663482270905"><ele>500.0</ele><time>2026-04-26T09:39:18.001Z</time></trkpt><trkpt lat="43.47244814737899" lon="12.28677126669883"><ele>500.0</ele><time>2026-04-26T09:39:19.001Z</time></trkpt><trkpt lat="43.47250440553072" lon="12.286883439874766"><ele>500.0</ele><time>2026-04-26T09:39:20.001Z</time></trkpt><trkpt lat="43.47256008637005" lon="12.287024689426996"><ele>500.0</ele><time>2026-04-26T09:39:21.001Z</time></trkpt><trkpt lat="43.47261291509747" lon="12.287149069199405"><ele>500.0</ele><time>2026-04-26T09:39:22.001Z</time></trkpt><trkpt lat="43.472669371758535" lon="12.287265902395264"><ele>500.0</ele><time>2026-04-26T09:39:23.001Z</time></trkpt><trkpt lat="43.47272964695855" lon="12.28737771682489"><ele>503.0</ele><time>2026-04-26T09:39:24.001Z</time></trkpt><trkpt lat="43.47277822036281" lon="12.287471976278825"><ele>506.0</ele><time>2026-04-26T09:39:25.001Z</time></trkpt><trkpt lat="43.47281350421131" lon="12.28760809830599"><ele>509.0</ele><time>2026-04-26T09:39:27.001Z</time></trkpt><trkpt lat="43.472851677964634" lon="12.287748475433775"><ele>512.0</ele><time>2026-04-26T09:39:29.001Z</time></trkpt><trkpt lat="43.472881743680546" lon="12.287884651173131"><ele>515.0</ele><time>2026-04-26T09:39:31.001Z</time></trkpt><trkpt lat="43.472896169784846" lon="12.287972922265842"><ele>515.0</ele><time>2026-04-26T09:39:32.001Z</time></trkpt><trkpt lat="43.47289971085951" lon="12.288068588449358"><ele>515.0</ele><time>2026-04-26T09:39:33.001Z</time></trkpt><trkpt lat="43.472871433729146" lon="12.288211186463958"><ele>515.0</ele><time>2026-04-26T09:39:35.001Z</time></trkpt><trkpt lat="43.47284543025668" lon="12.288292831844098"><ele>515.0</ele><time>2026-04-26T09:39:36.001Z</time></trkpt><trkpt lat="43.472819286530196" lon="12.288386921833547"><ele>515.0</ele><time>2026-04-26T09:39:37.001Z</time></trkpt><trkpt lat="43.472782588099996" lon="12.28848572650454"><ele>515.0</ele><time>2026-04-26T09:39:38.001Z</time></trkpt><trkpt lat="43.472740806815445" lon="12.288576471474256"><ele>517.4</ele><time>2026-04-26T09:39:39.001Z</time></trkpt><trkpt lat="43.47269776978778" lon="12.288661812370476"><ele>519.8</ele><time>2026-04-26T09:39:40.001Z</time></trkpt><trkpt lat="43.472649186695485" lon="12.288723288211985"><ele>522.2</ele><time>2026-04-26T09:39:41.001Z</time></trkpt><trkpt lat="43.47257998695223" lon="12.288832295460244"><ele>524.6</ele><time>2026-04-26T09:39:43.001Z</time></trkpt><trkpt lat="43.472497045046644" lon="12.288963289378795"><ele>527.0</ele><time>2026-04-26T09:39:45.001Z</time></trkpt><trkpt lat="43.47241271069947" lon="12.289052579287937"><ele>527.6</ele><time>2026-04-26T09:39:47.001Z</time></trkpt><trkpt lat="43.47235641554621" lon="12.289181055623425"><ele>528.2</ele><time>2026-04-26T09:39:49.001Z</time></trkpt><trkpt lat="43.4723319726224" lon="12.289350287577403"><ele>528.8</ele><time>2026-04-26T09:39:51.001Z</time></trkpt><trkpt lat="43.472319672239124" lon="12.289455365500217"><ele>529.4</ele><time>2026-04-26T09:39:52.001Z</time></trkpt><trkpt lat="43.47232041160512" lon="12.28960999394275"><ele>530.0</ele><time>2026-04-26T09:39:54.001Z</time></trkpt><trkpt lat="43.472362066647726" lon="12.289745527768149"><ele>531.5</ele><time>2026-04-26T09:39:56.001Z</time></trkpt><trkpt lat="43.47242066780341" lon="12.28979581645645"><ele>533.0</ele><time>2026-04-26T09:39:57.001Z</time></trkpt><trkpt lat="43.47249791173687" lon="12.289834424975915"><ele>534.5</ele><time>2026-04-26T09:39:58.001Z</time></trkpt><trkpt lat="43.472553983814144" lon="12.28988550981709"><ele>536.0</ele><time>2026-04-26T09:39:59.001Z</time></trkpt><trkpt lat="43.47259360478861" lon="12.289955320207808"><ele>537.5</ele><time>2026-04-26T09:40:00.001Z</time></trkpt><trkpt lat="43.472596593561434" lon="12.290112886291299"><ele>539.0</ele><time>2026-04-26T09:40:02.001Z</time></trkpt><trkpt lat="43.47259957093564" lon="12.290212460733198"><ele>539.0</ele><time>2026-04-26T09:40:03.001Z</time></trkpt><trkpt lat="43.47262049927512" lon="12.290325923481987"><ele>539.0</ele><time>2026-04-26T09:40:04.001Z</time></trkpt><trkpt lat="43.47265393861035" lon="12.290402260528243"><ele>539.0</ele><time>2026-04-26T09:40:05.001Z</time></trkpt><trkpt lat="43.472693349229196" lon="12.290557868838764"><ele>539.0</ele><time>2026-04-26T09:40:07.001Z</time></trkpt><trkpt lat="43.47273465382857" lon="12.29064158960936"><ele>539.0</ele><time>2026-04-26T09:40:08.001Z</time></trkpt><trkpt lat="43.47278231781314" lon="12.290728268101832"><ele>539.0</ele><time>2026-04-26T09:40:09.001Z</time></trkpt><trkpt lat="43.472821544122084" lon="12.290826530232543"><ele>540.8333333333333</ele><time>2026-04-26T09:40:10.001Z</time></trkpt><trkpt lat="43.47286368856405" lon="12.290995923011502"><ele>542.6666666666666</ele><time>2026-04-26T09:40:12.001Z</time></trkpt><trkpt lat="43.47288576738345" lon="12.29110277560455"><ele>544.5</ele><time>2026-04-26T09:40:13.001Z</time></trkpt><trkpt lat="43.47290849322309" lon="12.291200100573771"><ele>546.3333333333334</ele><time>2026-04-26T09:40:14.001Z</time></trkpt><trkpt lat="43.47292074390304" lon="12.291294012139277"><ele>548.1666666666667</ele><time>2026-04-26T09:40:15.002Z</time></trkpt><trkpt lat="43.47292650641396" lon="12.291387305589053"><ele>550.0</ele><time>2026-04-26T09:40:16.002Z</time></trkpt><trkpt lat="43.472913911992016" lon="12.291487672125228"><ele>551.3333333333334</ele><time>2026-04-26T09:40:17.002Z</time></trkpt><trkpt lat="43.4728859687686" lon="12.291583020642397"><ele>552.6666666666667</ele><time>2026-04-26T09:40:18.002Z</time></trkpt><trkpt lat="43.47285924199401" lon="12.29167462216576"><ele>554.0</ele><time>2026-04-26T09:40:19.002Z</time></trkpt><trkpt lat="43.47284399508945" lon="12.291773588067787"><ele>555.3333333333334</ele><time>2026-04-26T09:40:20.002Z</time></trkpt><trkpt lat="43.47283704064194" lon="12.291891259942782"><ele>556.6666666666666</ele><time>2026-04-26T09:40:21.002Z</time></trkpt><trkpt lat="43.47284865011736" lon="12.292027662173155"><ele>558.0</ele><time>2026-04-26T09:40:22.002Z</time></trkpt><trkpt lat="43.47284589507341" lon="12.292125337551767"><ele>557.4</ele><time>2026-04-26T09:40:23.002Z</time></trkpt><trkpt lat="43.47288604035036" lon="12.292320838941576"><ele>556.8</ele><time>2026-04-26T09:40:25.002Z</time></trkpt><trkpt lat="43.47286561136314" lon="12.29252659642845"><ele>556.2</ele><time>2026-04-26T09:40:27.002Z</time></trkpt><trkpt lat="43.472835187199536" lon="12.292618010446644"><ele>555.6</ele><time>2026-04-26T09:40:28.002Z</time></trkpt><trkpt lat="43.472820785127404" lon="12.29272089389688"><ele>555.0</ele><time>2026-04-26T09:40:29.002Z</time></trkpt><trkpt lat="43.47283380543179" lon="12.292838155736735"><ele>555.0</ele><time>2026-04-26T09:40:30.002Z</time></trkpt><trkpt lat="43.472862961326506" lon="12.292946007808974"><ele>555.0</ele><time>2026-04-26T09:40:31.002Z</time></trkpt><trkpt lat="43.472909421306824" lon="12.29304171516601"><ele>555.0</ele><time>2026-04-26T09:40:32.002Z</time></trkpt><trkpt lat="43.47295054348279" lon="12.293136010813223"><ele>555.0</ele><time>2026-04-26T09:40:33.002Z</time></trkpt><trkpt lat="43.47299673521967" lon="12.29323512871652"><ele>555.0</ele><time>2026-04-26T09:40:34.002Z</time></trkpt><trkpt lat="43.473037820547795" lon="12.293333734240916"><ele>555.0</ele><time>2026-04-26T09:40:35.002Z</time></trkpt><trkpt lat="43.47309470638648" lon="12.293487242023188"><ele>554.0</ele><time>2026-04-26T09:40:37.002Z</time></trkpt><trkpt lat="43.47315905225562" lon="12.293563982721885"><ele>553.0</ele><time>2026-04-26T09:40:38.002Z</time></trkpt><trkpt lat="43.47324043827234" lon="12.293639711318527"><ele>552.0</ele><time>2026-04-26T09:40:39.002Z</time></trkpt><trkpt lat="43.47332204143076" lon="12.293731004429821"><ele>551.0</ele><time>2026-04-26T09:40:40.002Z</time></trkpt><trkpt lat="43.47340724213672" lon="12.293824667670359"><ele>550.0</ele><time>2026-04-26T09:40:41.002Z</time></trkpt><trkpt lat="43.47349006284702" lon="12.293919635733541"><ele>549.6666666666667</ele><time>2026-04-26T09:40:42.002Z</time></trkpt><trkpt lat="43.47357086443638" lon="12.2940101299367"><ele>549.3333333333334</ele><time>2026-04-26T09:40:43.002Z</time></trkpt><trkpt lat="43.47364007544664" lon="12.294095354173347"><ele>549.0</ele><time>2026-04-26T09:40:44.002Z</time></trkpt><trkpt lat="43.473708766852624" lon="12.294161423773636"><ele>548.6666666666666</ele><time>2026-04-26T09:40:45.002Z</time></trkpt><trkpt lat="43.47377899777828" lon="12.294227240602389"><ele>548.3333333333333</ele><time>2026-04-26T09:40:46.002Z</time></trkpt><trkpt lat="43.47384985594451" lon="12.294286920546641"><ele>548.0</ele><time>2026-04-26T09:40:47.002Z</time></trkpt><trkpt lat="43.47391045185567" lon="12.29435549879498"><ele>547.8</ele><time>2026-04-26T09:40:48.002Z</time></trkpt><trkpt lat="43.47396930325159" lon="12.294421871319956"><ele>547.5999999999999</ele><time>2026-04-26T09:40:49.001Z</time></trkpt><trkpt lat="43.47404589117558" lon="12.294546101064325"><ele>547.4000000000001</ele><time>2026-04-26T09:40:51.001Z</time></trkpt><trkpt lat="43.474091292425456" lon="12.294670297030413"><ele>547.2</ele><time>2026-04-26T09:40:53.001Z</time></trkpt><trkpt lat="43.47415982776003" lon="12.294725355690804"><ele>547.0</ele><time>2026-04-26T09:40:55.001Z</time></trkpt><trkpt lat="43.47421011554217" lon="12.294831301880334"><ele>546.6666666666667</ele><time>2026-04-26T09:40:57.001Z</time></trkpt><trkpt lat="43.474288314224964" lon="12.294906392221854"><ele>546.3333333333334</ele><time>2026-04-26T09:40:59.001Z</time></trkpt><trkpt lat="43.4743597277375" lon="12.294970546806155"><ele>546.0</ele><time>2026-04-26T09:41:00.001Z</time></trkpt><trkpt lat="43.47442930950757" lon="12.295043122230945"><ele>545.6666666666666</ele><time>2026-04-26T09:41:01.001Z</time></trkpt><trkpt lat="43.47449268256454" lon="12.295101180234001"><ele>545.3333333333333</ele><time>2026-04-26T09:41:02.001Z</time></trkpt><trkpt lat="43.47455216551225" lon="12.295162902116049"><ele>545.0</ele><time>2026-04-26T09:41:03.001Z</time></trkpt><trkpt lat="43.474621405366385" lon="12.295228961829642"><ele>545.1666666666666</ele><time>2026-04-26T09:41:04.001Z</time></trkpt><trkpt lat="43.47470306403746" lon="12.295293947505408"><ele>545.3333333333333</ele><time>2026-04-26T09:41:05.001Z</time></trkpt><trkpt lat="43.47478467341" lon="12.295367589975234"><ele>545.5</ele><time>2026-04-26T09:41:06.001Z</time></trkpt><trkpt lat="43.4748523444166" lon="12.295418227486522"><ele>545.6666666666666</ele><time>2026-04-26T09:41:07.001Z</time></trkpt><trkpt lat="43.4749242520873" lon="12.295482200553385"><ele>545.8333333333334</ele><time>2026-04-26T09:41:08.001Z</time></trkpt><trkpt lat="43.47499728034902" lon="12.295541588156441"><ele>546.0</ele><time>2026-04-26T09:41:09.001Z</time></trkpt><trkpt lat="43.47507903016295" lon="12.295603655548987"><ele>546.0</ele><time>2026-04-26T09:41:10.001Z</time></trkpt><trkpt lat="43.47515951024749" lon="12.295678133233297"><ele>546.0</ele><time>2026-04-26T09:41:11.001Z</time></trkpt><trkpt lat="43.47523876139708" lon="12.295752596395612"><ele>546.0</ele><time>2026-04-26T09:41:12.001Z</time></trkpt><trkpt lat="43.47530847417803" lon="12.295820791200681"><ele>546.0</ele><time>2026-04-26T09:41:13.001Z</time></trkpt><trkpt lat="43.47537146499332" lon="12.295873753689353"><ele>546.0</ele><time>2026-04-26T09:41:14.001Z</time></trkpt><trkpt lat="43.47542302306939" lon="12.295924160185658"><ele>546.0</ele><time>2026-04-26T09:41:15.001Z</time></trkpt><trkpt lat="43.47548180360975" lon="12.295985452492374"><ele>547.6</ele><time>2026-04-26T09:41:16.001Z</time></trkpt><trkpt lat="43.47557333355251" lon="12.29602209874798"><ele>549.2</ele><time>2026-04-26T09:41:17.001Z</time></trkpt><trkpt lat="43.47566252493351" lon="12.296091445922164"><ele>550.8</ele><time>2026-04-26T09:41:18.001Z</time></trkpt><trkpt lat="43.47575348982538" lon="12.296171270579007"><ele>552.4</ele><time>2026-04-26T09:41:19.001Z</time></trkpt><trkpt lat="43.475846862711116" lon="12.296237112228598"><ele>554.0</ele><time>2026-04-26T09:41:20.001Z</time></trkpt><trkpt lat="43.47592487982492" lon="12.29629297255335"><ele>554.0</ele><time>2026-04-26T09:41:21.001Z</time></trkpt><trkpt lat="43.475987899670095" lon="12.29635021412972"><ele>554.0</ele><time>2026-04-26T09:41:22.001Z</time></trkpt><trkpt lat="43.47605811225602" lon="12.296420185795998"><ele>554.0</ele><time>2026-04-26T09:41:23.001Z</time></trkpt><trkpt lat="43.476147958498785" lon="12.296480112052137"><ele>554.0</ele><time>2026-04-26T09:41:24.001Z</time></trkpt><trkpt lat="43.476231952371656" lon="12.296521704084311"><ele>554.0</ele><time>2026-04-26T09:41:25.001Z</time></trkpt><trkpt lat="43.47629599306789" lon="12.296558384263992"><ele>554.0</ele><time>2026-04-26T09:41:26.001Z</time></trkpt><trkpt lat="43.47636048228624" lon="12.296605411554523"><ele>554.2857142857142</ele><time>2026-04-26T09:41:27.001Z</time></trkpt><trkpt lat="43.47642037117215" lon="12.296658066346456"><ele>554.5714285714286</ele><time>2026-04-26T09:41:28.001Z</time></trkpt><trkpt lat="43.476477431157484" lon="12.296700505563052"><ele>554.8571428571429</ele><time>2026-04-26T09:41:29.001Z</time></trkpt><trkpt lat="43.476534530664125" lon="12.296741301318535"><ele>555.1428571428571</ele><time>2026-04-26T09:41:30.001Z</time></trkpt><trkpt lat="43.47659562233847" lon="12.29678237388432"><ele>555.4285714285714</ele><time>2026-04-26T09:41:31.001Z</time></trkpt><trkpt lat="43.47666798214178" lon="12.29682448099588"><ele>555.7142857142857</ele><time>2026-04-26T09:41:32.001Z</time></trkpt><trkpt lat="43.476738174298895" lon="12.296888399158272"><ele>556.0</ele><time>2026-04-26T09:41:33.001Z</time></trkpt><trkpt lat="43.47679505129531" lon="12.296931200163218"><ele>556.0</ele><time>2026-04-26T09:41:34.001Z</time></trkpt><trkpt lat="43.476884656590904" lon="12.296967994494713"><ele>556.0</ele><time>2026-04-26T09:41:36.001Z</time></trkpt><trkpt lat="43.4769486898013" lon="12.296981810960997"><ele>556.0</ele><time>2026-04-26T09:41:39.001Z</time></trkpt><trkpt lat="43.47700619787327" lon="12.297061210688694"><ele>556.0</ele><time>2026-04-26T09:41:42.001Z</time></trkpt><trkpt lat="43.477086629479416" lon="12.297153796859783"><ele>556.0</ele><time>2026-04-26T09:41:44.001Z</time></trkpt><trkpt lat="43.477174749646984" lon="12.297215504629563"><ele>556.0</ele><time>2026-04-26T09:41:46.001Z</time></trkpt><trkpt lat="43.47725761986297" lon="12.29728623080848"><ele>555.6</ele><time>2026-04-26T09:41:48.001Z</time></trkpt><trkpt lat="43.47734927349661" lon="12.297356021739008"><ele>555.2</ele><time>2026-04-26T09:41:50.001Z</time></trkpt><trkpt lat="43.47744440058345" lon="12.297411719020683"><ele>554.8</ele><time>2026-04-26T09:41:52.001Z</time></trkpt><trkpt lat="43.477546411143464" lon="12.297457290793734"><ele>554.4</ele><time>2026-04-26T09:41:54.001Z</time></trkpt><trkpt lat="43.47763064955179" lon="12.297560723320649"><ele>554.0</ele><time>2026-04-26T09:41:56.001Z</time></trkpt><trkpt lat="43.47771596582466" lon="12.297692259972708"><ele>554.0</ele><time>2026-04-26T09:41:58.001Z</time></trkpt><trkpt lat="43.47777343922508" lon="12.297735090071843"><ele>554.0</ele><time>2026-04-26T09:41:59.001Z</time></trkpt><trkpt lat="43.477840441836044" lon="12.297751713415886"><ele>554.0</ele><time>2026-04-26T09:42:00.001Z</time></trkpt><trkpt lat="43.477903353138615" lon="12.29776880375886"><ele>554.0</ele><time>2026-04-26T09:42:01.001Z</time></trkpt><trkpt lat="43.4779607514048" lon="12.297809765341706"><ele>554.0</ele><time>2026-04-26T09:42:02.001Z</time></trkpt><trkpt lat="43.47802201958779" lon="12.297869119937547"><ele>554.0</ele><time>2026-04-26T09:42:03.001Z</time></trkpt><trkpt lat="43.47807681805373" lon="12.297913861279728"><ele>554.0</ele><time>2026-04-26T09:42:04.001Z</time></trkpt><trkpt lat="43.47814618178207" lon="12.297965333466333"><ele>553.3333333333333</ele><time>2026-04-26T09:42:05.001Z</time></trkpt><trkpt lat="43.47821618198" lon="12.298019445796312"><ele>552.6666666666666</ele><time>2026-04-26T09:42:06.001Z</time></trkpt><trkpt lat="43.47827563539381" lon="12.298068748626982"><ele>552.0</ele><time>2026-04-26T09:42:07.001Z</time></trkpt><trkpt lat="43.478334325936785" lon="12.298134885927244"><ele>551.3333333333334</ele><time>2026-04-26T09:42:08.001Z</time></trkpt><trkpt lat="43.47839095612751" lon="12.298211187749239"><ele>550.6666666666667</ele><time>2026-04-26T09:42:09.001Z</time></trkpt><trkpt lat="43.47844953017606" lon="12.298305604035924"><ele>550.0</ele><time>2026-04-26T09:42:10.001Z</time></trkpt><trkpt lat="43.47851533634742" lon="12.298398731309685"><ele>549.6</ele><time>2026-04-26T09:42:11.001Z</time></trkpt><trkpt lat="43.47858931328907" lon="12.298499061017049"><ele>549.2</ele><time>2026-04-26T09:42:12.001Z</time></trkpt><trkpt lat="43.478655605536936" lon="12.298600389317352"><ele>548.8</ele><time>2026-04-26T09:42:13.001Z</time></trkpt><trkpt lat="43.47873026537433" lon="12.298686068187264"><ele>548.4</ele><time>2026-04-26T09:42:14.001Z</time></trkpt><trkpt lat="43.478800429637644" lon="12.298758839168492"><ele>548.0</ele><time>2026-04-26T09:42:15.002Z</time></trkpt><trkpt lat="43.478860324579045" lon="12.29883055537074"><ele>547.8333333333333</ele><time>2026-04-26T09:42:16.002Z</time></trkpt><trkpt lat="43.47890722952464" lon="12.298901068876159"><ele>547.6666666666666</ele><time>2026-04-26T09:42:17.002Z</time></trkpt><trkpt lat="43.478979921170115" lon="12.29903484969084"><ele>547.5</ele><time>2026-04-26T09:42:19.002Z</time></trkpt><trkpt lat="43.47902018960729" lon="12.29910433204555"><ele>547.3333333333334</ele><time>2026-04-26T09:42:20.002Z</time></trkpt><trkpt lat="43.479065457241774" lon="12.29919082623643"><ele>547.1666666666667</ele><time>2026-04-26T09:42:21.002Z</time></trkpt><trkpt lat="43.47911834403623" lon="12.299297118479137"><ele>547.0</ele><time>2026-04-26T09:42:22.002Z</time></trkpt><trkpt lat="43.47920219405938" lon="12.299377022957696"><ele>547.6</ele><time>2026-04-26T09:42:23.002Z</time></trkpt><trkpt lat="43.47929097318122" lon="12.299444918902429"><ele>548.2</ele><time>2026-04-26T09:42:24.002Z</time></trkpt><trkpt lat="43.479381637847226" lon="12.299489436478074"><ele>548.8</ele><time>2026-04-26T09:42:25.002Z</time></trkpt><trkpt lat="43.47948179585683" lon="12.299546573300088"><ele>549.4</ele><time>2026-04-26T09:42:26.002Z</time></trkpt><trkpt lat="43.479569178065795" lon="12.299600907724408"><ele>550.0</ele><time>2026-04-26T09:42:27.002Z</time></trkpt><trkpt lat="43.47965661180926" lon="12.299656941410987"><ele>550.4</ele><time>2026-04-26T09:42:28.002Z</time></trkpt><trkpt lat="43.47974922002961" lon="12.299719894874704"><ele>550.8</ele><time>2026-04-26T09:42:29.002Z</time></trkpt><trkpt lat="43.47984262542463" lon="12.299795084723682"><ele>551.2</ele><time>2026-04-26T09:42:30.002Z</time></trkpt><trkpt lat="43.4799247667838" lon="12.299861014652288"><ele>551.6</ele><time>2026-04-26T09:42:31.002Z</time></trkpt><trkpt lat="43.48000053367159" lon="12.299917010443334"><ele>552.0</ele><time>2026-04-26T09:42:32.002Z</time></trkpt><trkpt lat="43.48006856871405" lon="12.299948371341936"><ele>552.2</ele><time>2026-04-26T09:42:33.002Z</time></trkpt><trkpt lat="43.48013788690415" lon="12.299977158961369"><ele>552.4000000000001</ele><time>2026-04-26T09:42:34.002Z</time></trkpt><trkpt lat="43.48022370915722" lon="12.300020195521686"><ele>552.5999999999999</ele><time>2026-04-26T09:42:35.002Z</time></trkpt><trkpt lat="43.480310198301225" lon="12.3000662653223"><ele>552.8</ele><time>2026-04-26T09:42:36.002Z</time></trkpt><trkpt lat="43.4804005998011" lon="12.300123432431525"><ele>553.0</ele><time>2026-04-26T09:42:37.002Z</time></trkpt><trkpt lat="43.48049566500147" lon="12.30018960159631"><ele>551.0</ele><time>2026-04-26T09:42:38.002Z</time></trkpt><trkpt lat="43.480574432715386" lon="12.300246576267941"><ele>549.0</ele><time>2026-04-26T09:42:39.002Z</time></trkpt><trkpt lat="43.480663051998185" lon="12.300303623460838"><ele>547.0</ele><time>2026-04-26T09:42:40.002Z</time></trkpt><trkpt lat="43.48074394711244" lon="12.300366371943918"><ele>545.0</ele><time>2026-04-26T09:42:41.002Z</time></trkpt><trkpt lat="43.48081898747715" lon="12.300416026159086"><ele>543.0</ele><time>2026-04-26T09:42:42.002Z</time></trkpt><trkpt lat="43.480881298730424" lon="12.300446536335032"><ele>541.0</ele><time>2026-04-26T09:42:43.002Z</time></trkpt><trkpt lat="43.48095386001227" lon="12.300480027901857"><ele>541.0</ele><time>2026-04-26T09:42:44.002Z</time></trkpt><trkpt lat="43.48101313240386" lon="12.300531629053381"><ele>541.0</ele><time>2026-04-26T09:42:45.002Z</time></trkpt><trkpt lat="43.48107826593167" lon="12.300600920808487"><ele>541.0</ele><time>2026-04-26T09:42:46.002Z</time></trkpt><trkpt lat="43.481148874228744" lon="12.30067057000575"><ele>541.0</ele><time>2026-04-26T09:42:47.002Z</time></trkpt><trkpt lat="43.48121735637176" lon="12.300716021527474"><ele>541.0</ele><time>2026-04-26T09:42:48.002Z</time></trkpt><trkpt lat="43.48128355372207" lon="12.300747331921311"><ele>541.0</ele><time>2026-04-26T09:42:49.002Z</time></trkpt><trkpt lat="43.48136120096538" lon="12.30078949412376"><ele>540.1666666666667</ele><time>2026-04-26T09:42:50.002Z</time></trkpt><trkpt lat="43.481408524233466" lon="12.300862741270743"><ele>539.3333333333334</ele><time>2026-04-26T09:42:51.002Z</time></trkpt><trkpt lat="43.48145756831867" lon="12.30096009998734"><ele>538.5</ele><time>2026-04-26T09:42:52.002Z</time></trkpt><trkpt lat="43.4815082816293" lon="12.301053590703942"><ele>537.6666666666666</ele><time>2026-04-26T09:42:53.002Z</time></trkpt><trkpt lat="43.48156359525994" lon="12.301112699825747"><ele>536.8333333333333</ele><time>2026-04-26T09:42:54.002Z</time></trkpt><trkpt lat="43.48162009727729" lon="12.301190945900958"><ele>536.0</ele><time>2026-04-26T09:42:55.002Z</time></trkpt><trkpt lat="43.48168221395197" lon="12.301258135236708"><ele>536.0</ele><time>2026-04-26T09:42:56.002Z</time></trkpt><trkpt lat="43.48176948953082" lon="12.3013244275956"><ele>536.0</ele><time>2026-04-26T09:42:57.002Z</time></trkpt><trkpt lat="43.481850634702376" lon="12.30138568841835"><ele>536.0</ele><time>2026-04-26T09:42:58.002Z</time></trkpt><trkpt lat="43.48193351526572" lon="12.301443968628112"><ele>536.0</ele><time>2026-04-26T09:42:59.002Z</time></trkpt><trkpt lat="43.48202080502539" lon="12.301503252035003"><ele>536.0</ele><time>2026-04-26T09:43:00.002Z</time></trkpt><trkpt lat="43.48210749118046" lon="12.301552479749253"><ele>536.3333333333333</ele><time>2026-04-26T09:43:01.002Z</time></trkpt><trkpt lat="43.48219349923398" lon="12.30160299067482"><ele>536.6666666666666</ele><time>2026-04-26T09:43:02.002Z</time></trkpt><trkpt lat="43.4822678728491" lon="12.301641267271608"><ele>537.0</ele><time>2026-04-26T09:43:03.002Z</time></trkpt><trkpt lat="43.48234476070226" lon="12.301665402609553"><ele>537.3333333333334</ele><time>2026-04-26T09:43:04.002Z</time></trkpt><trkpt lat="43.48241746030363" lon="12.301695805254129"><ele>537.6666666666667</ele><time>2026-04-26T09:43:05.002Z</time></trkpt><trkpt lat="43.48248397035483" lon="12.301733993277095"><ele>538.0</ele><time>2026-04-26T09:43:06.002Z</time></trkpt><trkpt lat="43.48256308858092" lon="12.301812077237638"><ele>538.0</ele><time>2026-04-26T09:43:07.002Z</time></trkpt><trkpt lat="43.48265930778119" lon="12.301877460193124"><ele>538.0</ele><time>2026-04-26T09:43:08.002Z</time></trkpt><trkpt lat="43.482764754480534" lon="12.301938853018346"><ele>538.0</ele><time>2026-04-26T09:43:09.002Z</time></trkpt><trkpt lat="43.48287557015377" lon="12.301982277872472"><ele>538.0</ele><time>2026-04-26T09:43:10.002Z</time></trkpt><trkpt lat="43.48297691944379" lon="12.30204758290102"><ele>538.0</ele><time>2026-04-26T09:43:11.002Z</time></trkpt><trkpt lat="43.4830696671511" lon="12.302093293682216"><ele>538.1999999999999</ele><time>2026-04-26T09:43:12.002Z</time></trkpt><trkpt lat="43.48314423251116" lon="12.30212783668777"><ele>538.4</ele><time>2026-04-26T09:43:13.002Z</time></trkpt><trkpt lat="43.483210837912544" lon="12.302149944149862"><ele>538.5999999999999</ele><time>2026-04-26T09:43:14.002Z</time></trkpt><trkpt lat="43.48331771223019" lon="12.302219251021109"><ele>538.8</ele><time>2026-04-26T09:43:16.002Z</time></trkpt><trkpt lat="43.48341429036212" lon="12.302284246900276"><ele>539.0</ele><time>2026-04-26T09:43:18.001Z</time></trkpt><trkpt lat="43.483503964332456" lon="12.302342557321113"><ele>539.0</ele><time>2026-04-26T09:43:20.001Z</time></trkpt><trkpt lat="43.48358023075727" lon="12.302418299733347"><ele>539.0</ele><time>2026-04-26T09:43:22.001Z</time></trkpt><trkpt lat="43.48366183421067" lon="12.30251926534057"><ele>539.0</ele><time>2026-04-26T09:43:24.001Z</time></trkpt><trkpt lat="43.48371246803556" lon="12.302578603205145"><ele>539.0</ele><time>2026-04-26T09:43:25.001Z</time></trkpt><trkpt lat="43.483789290677045" lon="12.302664703248396"><ele>539.0</ele><time>2026-04-26T09:43:26.001Z</time></trkpt><trkpt lat="43.48386438575002" lon="12.302801891770113"><ele>539.5</ele><time>2026-04-26T09:43:27.001Z</time></trkpt><trkpt lat="43.48391232266401" lon="12.302930085209178"><ele>540.0</ele><time>2026-04-26T09:43:28.001Z</time></trkpt><trkpt lat="43.48395909062158" lon="12.303064443194833"><ele>540.5</ele><time>2026-04-26T09:43:29.001Z</time></trkpt><trkpt lat="43.48401045063873" lon="12.303229330846053"><ele>541.0</ele><time>2026-04-26T09:43:30.001Z</time></trkpt><trkpt lat="43.4840540802259" lon="12.303404170652517"><ele>541.8</ele><time>2026-04-26T09:43:31.001Z</time></trkpt><trkpt lat="43.48402318262271" lon="12.303575744310546"><ele>542.6</ele><time>2026-04-26T09:43:32.001Z</time></trkpt><trkpt lat="43.48404262063029" lon="12.303703429146678"><ele>543.4</ele><time>2026-04-26T09:43:33.001Z</time></trkpt><trkpt lat="43.48404370759339" lon="12.30383939094119"><ele>544.2</ele><time>2026-04-26T09:43:34.001Z</time></trkpt><trkpt lat="43.484019741023516" lon="12.30394512846923"><ele>545.0</ele><time>2026-04-26T09:43:35.001Z</time></trkpt><trkpt lat="43.48400111114757" lon="12.304048006633554"><ele>545.4</ele><time>2026-04-26T09:43:36.001Z</time></trkpt><trkpt lat="43.484040822683575" lon="12.304220886654782"><ele>545.8</ele><time>2026-04-26T09:43:38.001Z</time></trkpt><trkpt lat="43.48409517384387" lon="12.304313374333185"><ele>546.2</ele><time>2026-04-26T09:43:39.001Z</time></trkpt><trkpt lat="43.48414262239355" lon="12.304435713994078"><ele>546.6</ele><time>2026-04-26T09:43:40.001Z</time></trkpt><trkpt lat="43.48419310134693" lon="12.304558473243347"><ele>547.0</ele><time>2026-04-26T09:43:41.001Z</time></trkpt><trkpt lat="43.48424352144102" lon="12.304701853144707"><ele>547.1666666666667</ele><time>2026-04-26T09:43:42.001Z</time></trkpt><trkpt lat="43.484285652890094" lon="12.304836285757508"><ele>547.3333333333334</ele><time>2026-04-26T09:43:43.001Z</time></trkpt><trkpt lat="43.48437846150839" lon="12.304907034088785"><ele>547.5</ele><time>2026-04-26T09:43:44.001Z</time></trkpt><trkpt lat="43.48440713914197" lon="12.30499644751174"><ele>547.6666666666666</ele><time>2026-04-26T09:43:45.001Z</time></trkpt><trkpt lat="43.484438033712074" lon="12.305073564109257"><ele>547.8333333333333</ele><time>2026-04-26T09:43:46.001Z</time></trkpt><trkpt lat="43.48448537842525" lon="12.30516726543934"><ele>548.0</ele><time>2026-04-26T09:43:48.001Z</time></trkpt><trkpt lat="43.484512544266295" lon="12.305287976546314"><ele>548.0</ele><time>2026-04-26T09:43:51.001Z</time></trkpt><trkpt lat="43.484540959605944" lon="12.305417304296755"><ele>548.0</ele><time>2026-04-26T09:43:53.001Z</time></trkpt><trkpt lat="43.48466909963596" lon="12.305613310079368"><ele>548.0</ele><time>2026-04-26T09:43:59.001Z</time></trkpt><trkpt lat="43.48473241125695" lon="12.30568432782331"><ele>548.0</ele><time>2026-04-26T09:44:00.001Z</time></trkpt><trkpt lat="43.484802099565165" lon="12.305757382319353"><ele>548.6</ele><time>2026-04-26T09:44:01.001Z</time></trkpt><trkpt lat="43.484874163708035" lon="12.30583531696307"><ele>549.1999999999999</ele><time>2026-04-26T09:44:02.002Z</time></trkpt><trkpt lat="43.484937376045764" lon="12.305894688939363"><ele>549.8</ele><time>2026-04-26T09:44:03.002Z</time></trkpt><trkpt lat="43.485008406487125" lon="12.305922599517972"><ele>550.4</ele><time>2026-04-26T09:44:04.002Z</time></trkpt><trkpt lat="43.48510901776582" lon="12.306004847340462"><ele>551.0</ele><time>2026-04-26T09:44:06.002Z</time></trkpt><trkpt lat="43.48524221969627" lon="12.30579342923219"><ele>551.0</ele><time>2026-04-26T09:44:07.002Z</time></trkpt><trkpt lat="43.48524415111479" lon="12.305888298028167"><ele>551.0</ele><time>2026-04-26T09:44:09.002Z</time></trkpt><trkpt lat="43.485205698569345" lon="12.305966299500216"><ele>551.0</ele><time>2026-04-26T09:44:11.002Z</time></trkpt><trkpt lat="43.48515652612992" lon="12.306069733623469"><ele>551.0</ele><time>2026-04-26T09:44:13.002Z</time></trkpt><trkpt lat="43.48521990855956" lon="12.306199040717507"><ele>551.0</ele><time>2026-04-26T09:44:15.002Z</time></trkpt><trkpt lat="43.485307998640515" lon="12.306283065120526"><ele>551.0</ele><time>2026-04-26T09:44:16.002Z</time></trkpt><trkpt lat="43.48538618292516" lon="12.306385964602187"><ele>550.4</ele><time>2026-04-26T09:44:17.002Z</time></trkpt><trkpt lat="43.485474660497545" lon="12.306502759991687"><ele>549.8</ele><time>2026-04-26T09:44:18.002Z</time></trkpt><trkpt lat="43.48556039166791" lon="12.30661101378396"><ele>549.1999999999999</ele><time>2026-04-26T09:44:19.002Z</time></trkpt><trkpt lat="43.485627343921024" lon="12.30670421545257"><ele>548.6</ele><time>2026-04-26T09:44:20.002Z</time></trkpt><trkpt lat="43.48569508967208" lon="12.306789278909124"><ele>548.0</ele><time>2026-04-26T09:44:21.002Z</time></trkpt><trkpt lat="43.48577453914561" lon="12.306865404531463"><ele>548.0</ele><time>2026-04-26T09:44:22.002Z</time></trkpt><trkpt lat="43.4858609563671" lon="12.306930343598758"><ele>548.0</ele><time>2026-04-26T09:44:23.002Z</time></trkpt><trkpt lat="43.48592463914015" lon="12.30701720035982"><ele>548.0</ele><time>2026-04-26T09:44:24.002Z</time></trkpt><trkpt lat="43.485980605175925" lon="12.307104833210785"><ele>548.0</ele><time>2026-04-26T09:44:25.002Z</time></trkpt><trkpt lat="43.486040711029545" lon="12.307199192801866"><ele>548.0</ele><time>2026-04-26T09:44:26.002Z</time></trkpt><trkpt lat="43.48609762422456" lon="12.307291617431565"><ele>548.0</ele><time>2026-04-26T09:44:27.002Z</time></trkpt><trkpt lat="43.48615220025239" lon="12.30738364977802"><ele>548.0</ele><time>2026-04-26T09:44:28.002Z</time></trkpt><trkpt lat="43.48623681616229" lon="12.307537850915523"><ele>548.0</ele><time>2026-04-26T09:44:29.002Z</time></trkpt><trkpt lat="43.486320960411284" lon="12.307622053431766"><ele>548.0</ele><time>2026-04-26T09:44:30.002Z</time></trkpt><trkpt lat="43.48638673335499" lon="12.307686622764416"><ele>548.0</ele><time>2026-04-26T09:44:31.002Z</time></trkpt><trkpt lat="43.48645869762464" lon="12.307758592051096"><ele>548.0</ele><time>2026-04-26T09:44:32.002Z</time></trkpt><trkpt lat="43.48670406918282" lon="12.307699207427302"><ele>548.0</ele><time>2026-04-26T09:44:34.002Z</time></trkpt><trkpt lat="43.48675361817258" lon="12.307809305426925"><ele>548.0</ele><time>2026-04-26T09:44:35.002Z</time></trkpt><trkpt lat="43.48681637447196" lon="12.30788500280897"><ele>548.0</ele><time>2026-04-26T09:44:36.002Z</time></trkpt><trkpt lat="43.48690339485151" lon="12.307938942583412"><ele>548.0</ele><time>2026-04-26T09:44:37.002Z</time></trkpt><trkpt lat="43.48699429866757" lon="12.307992504828734"><ele>548.0</ele><time>2026-04-26T09:44:38.002Z</time></trkpt><trkpt lat="43.487068758033594" lon="12.30807054026883"><ele>548.0</ele><time>2026-04-26T09:44:39.002Z</time></trkpt><trkpt lat="43.48714013815402" lon="12.308190957206202"><ele>548.0</ele><time>2026-04-26T09:44:40.002Z</time></trkpt><trkpt lat="43.487209427901064" lon="12.308322090019209"><ele>548.0</ele><time>2026-04-26T09:44:41.002Z</time></trkpt><trkpt lat="43.48727910856047" lon="12.308444210733"><ele>548.6</ele><time>2026-04-26T09:44:42.002Z</time></trkpt><trkpt lat="43.48734491231461" lon="12.30854886248468"><ele>549.1999999999999</ele><time>2026-04-26T09:44:43.002Z</time></trkpt><trkpt lat="43.48740930856693" lon="12.308660109933522"><ele>549.8</ele><time>2026-04-26T09:44:44.002Z</time></trkpt><trkpt lat="43.48747271280374" lon="12.308778135000479"><ele>550.4</ele><time>2026-04-26T09:44:45.002Z</time></trkpt><trkpt lat="43.487539524700836" lon="12.30886453043724"><ele>551.0</ele><time>2026-04-26T09:44:46.002Z</time></trkpt><trkpt lat="43.48760599034793" lon="12.308937045903022"><ele>552.3333333333333</ele><time>2026-04-26T09:44:47.002Z</time></trkpt><trkpt lat="43.48767127615769" lon="12.309009208170407"><ele>553.6666666666666</ele><time>2026-04-26T09:44:48.002Z</time></trkpt><trkpt lat="43.487726944078254" lon="12.309083848387722"><ele>555.0</ele><time>2026-04-26T09:44:49.002Z</time></trkpt><trkpt lat="43.48776319316656" lon="12.309174686071653"><ele>556.3333333333334</ele><time>2026-04-26T09:44:50.002Z</time></trkpt><trkpt lat="43.48782175597308" lon="12.30935490336041"><ele>557.6666666666667</ele><time>2026-04-26T09:44:52.002Z</time></trkpt><trkpt lat="43.48784847859462" lon="12.309438135268742"><ele>559.0</ele><time>2026-04-26T09:44:53.002Z</time></trkpt><trkpt lat="43.48788946342468" lon="12.309505418108769"><ele>557.3333333333334</ele><time>2026-04-26T09:44:54.002Z</time></trkpt><trkpt lat="43.487945424786524" lon="12.30955851741005"><ele>555.6666666666667</ele><time>2026-04-26T09:44:55.002Z</time></trkpt><trkpt lat="43.488071513139" lon="12.30959643122033"><ele>554.0</ele><time>2026-04-26T09:44:57.002Z</time></trkpt><trkpt lat="43.48814293557666" lon="12.309628794699572"><ele>552.3333333333334</ele><time>2026-04-26T09:44:58.002Z</time></trkpt><trkpt lat="43.48820882133141" lon="12.309652843681295"><ele>550.6666666666666</ele><time>2026-04-26T09:44:59.002Z</time></trkpt><trkpt lat="43.48828579218343" lon="12.30968915873541"><ele>549.0</ele><time>2026-04-26T09:45:00.002Z</time></trkpt><trkpt lat="43.488366338747305" lon="12.309735459817656"><ele>549.6666666666666</ele><time>2026-04-26T09:45:01.002Z</time></trkpt><trkpt lat="43.48844229436236" lon="12.309765688867946"><ele>550.3333333333334</ele><time>2026-04-26T09:45:02.002Z</time></trkpt><trkpt lat="43.48852827193337" lon="12.309807587429676"><ele>551.0</ele><time>2026-04-26T09:45:03.002Z</time></trkpt><trkpt lat="43.48860475118281" lon="12.309844624193092"><ele>551.6666666666667</ele><time>2026-04-26T09:45:04.002Z</time></trkpt><trkpt lat="43.48867004012445" lon="12.30987192354373"><ele>552.3333333333334</ele><time>2026-04-26T09:45:05.002Z</time></trkpt><trkpt lat="43.48879546679404" lon="12.309893258715332"><ele>553.0</ele><time>2026-04-26T09:45:07.002Z</time></trkpt><trkpt lat="43.48892295361425" lon="12.30990210937941"><ele>553.0</ele><time>2026-04-26T09:45:09.002Z</time></trkpt><trkpt lat="43.48898890136839" lon="12.309910694210837"><ele>553.0</ele><time>2026-04-26T09:45:10.002Z</time></trkpt><trkpt lat="43.489053919370356" lon="12.30992446053749"><ele>553.0</ele><time>2026-04-26T09:45:11.002Z</time></trkpt><trkpt lat="43.489158935331396" lon="12.309932390753179"><ele>553.0</ele><time>2026-04-26T09:45:13.002Z</time></trkpt><trkpt lat="43.48925804842636" lon="12.309881611657824"><ele>553.0</ele><time>2026-04-26T09:45:15.002Z</time></trkpt><trkpt lat="43.48938027781451" lon="12.309768041006135"><ele>552.0</ele><time>2026-04-26T09:45:17.002Z</time></trkpt><trkpt lat="43.489463682006836" lon="12.30971399042161"><ele>551.0</ele><time>2026-04-26T09:45:18.001Z</time></trkpt><trkpt lat="43.48954777868837" lon="12.309667193418589"><ele>550.0</ele><time>2026-04-26T09:45:19.001Z</time></trkpt><trkpt lat="43.4896167484099" lon="12.30962461797365"><ele>549.0</ele><time>2026-04-26T09:45:20.001Z</time></trkpt><trkpt lat="43.4896775794155" lon="12.309567736321295"><ele>548.0</ele><time>2026-04-26T09:45:21.001Z</time></trkpt><trkpt lat="43.48973654376776" lon="12.309501490059892"><ele>547.0</ele><time>2026-04-26T09:45:22.001Z</time></trkpt><trkpt lat="43.489786700459206" lon="12.309435085772062"><ele>547.0</ele><time>2026-04-26T09:45:23.001Z</time></trkpt><trkpt lat="43.48984825841719" lon="12.309366580041223"><ele>547.0</ele><time>2026-04-26T09:45:24.001Z</time></trkpt><trkpt lat="43.48991395929698" lon="12.309303773042723"><ele>547.0</ele><time>2026-04-26T09:45:25.001Z</time></trkpt><trkpt lat="43.48997810758359" lon="12.309273986898642"><ele>547.0</ele><time>2026-04-26T09:45:26.001Z</time></trkpt><trkpt lat="43.49006793293932" lon="12.30925470691812"><ele>547.0</ele><time>2026-04-26T09:45:27.001Z</time></trkpt><trkpt lat="43.4901646884014" lon="12.309253831816097"><ele>547.0</ele><time>2026-04-26T09:45:28.001Z</time></trkpt><trkpt lat="43.49026931093301" lon="12.309245773242354"><ele>547.0</ele><time>2026-04-26T09:45:29.001Z</time></trkpt><trkpt lat="43.49038144497142" lon="12.309240225856612"><ele>547.0</ele><time>2026-04-26T09:45:30.001Z</time></trkpt><trkpt lat="43.490479896917556" lon="12.309239528445648"><ele>547.0</ele><time>2026-04-26T09:45:31.001Z</time></trkpt><trkpt lat="43.49058134427235" lon="12.309239316851228"><ele>547.0</ele><time>2026-04-26T09:45:32.001Z</time></trkpt><trkpt lat="43.490694902797095" lon="12.309237425250465"><ele>547.0</ele><time>2026-04-26T09:45:33.001Z</time></trkpt><trkpt lat="43.49080651492239" lon="12.309253136400446"><ele>548.5</ele><time>2026-04-26T09:45:34.001Z</time></trkpt><trkpt lat="43.490913534679095" lon="12.30930138241711"><ele>550.0</ele><time>2026-04-26T09:45:35.001Z</time></trkpt><trkpt lat="43.49101082558383" lon="12.309373557487287"><ele>551.5</ele><time>2026-04-26T09:45:36.001Z</time></trkpt><trkpt lat="43.491106633299225" lon="12.309457750530532"><ele>553.0</ele><time>2026-04-26T09:45:37.001Z</time></trkpt><trkpt lat="43.49121523348748" lon="12.309531160266728"><ele>553.25</ele><time>2026-04-26T09:45:38.001Z</time></trkpt><trkpt lat="43.491322887730554" lon="12.30959941457074"><ele>553.5</ele><time>2026-04-26T09:45:39.001Z</time></trkpt><trkpt lat="43.49144161062339" lon="12.309663919599949"><ele>553.75</ele><time>2026-04-26T09:45:40.001Z</time></trkpt><trkpt lat="43.491563722696434" lon="12.309713335296127"><ele>554.0</ele><time>2026-04-26T09:45:41.001Z</time></trkpt><trkpt lat="43.491680687681715" lon="12.309743564268722"><ele>554.25</ele><time>2026-04-26T09:45:42.001Z</time></trkpt><trkpt lat="43.49180156964851" lon="12.309769983066083"><ele>554.5</ele><time>2026-04-26T09:45:43.001Z</time></trkpt><trkpt lat="43.49192377011307" lon="12.309819272480999"><ele>554.75</ele><time>2026-04-26T09:45:44.001Z</time></trkpt><trkpt lat="43.49203461420279" lon="12.309914571728328"><ele>555.0</ele><time>2026-04-26T09:45:45.001Z</time></trkpt><trkpt lat="43.49210944356497" lon="12.310068386331652"><ele>553.75</ele><time>2026-04-26T09:45:46.001Z</time></trkpt><trkpt lat="43.4921764759772" lon="12.310240612410384"><ele>552.5</ele><time>2026-04-26T09:45:47.001Z</time></trkpt><trkpt lat="43.4922545194911" lon="12.310402390335815"><ele>551.25</ele><time>2026-04-26T09:45:48.001Z</time></trkpt><trkpt lat="43.49234423798029" lon="12.310553444658979"><ele>550.0</ele><time>2026-04-26T09:45:49.001Z</time></trkpt><trkpt lat="43.492435232140714" lon="12.310718266402786"><ele>550.0</ele><time>2026-04-26T09:45:50.001Z</time></trkpt><trkpt lat="43.49252063786224" lon="12.310878495006001"><ele>550.0</ele><time>2026-04-26T09:45:51.001Z</time></trkpt><trkpt lat="43.49259893623804" lon="12.311020870843949"><ele>550.0</ele><time>2026-04-26T09:45:52.001Z</time></trkpt><trkpt lat="43.49267586558016" lon="12.31114933704772"><ele>550.0</ele><time>2026-04-26T09:45:53.001Z</time></trkpt><trkpt lat="43.492737933057086" lon="12.311295395209399"><ele>550.0</ele><time>2026-04-26T09:45:54.001Z</time></trkpt><trkpt lat="43.492866376351465" lon="12.311377990208237"><ele>550.0</ele><time>2026-04-26T09:45:55.001Z</time></trkpt><trkpt lat="43.49298015898731" lon="12.311483614117613"><ele>550.0</ele><time>2026-04-26T09:45:56.001Z</time></trkpt><trkpt lat="43.49309334501186" lon="12.311594862751067"><ele>550.0</ele><time>2026-04-26T09:45:57.001Z</time></trkpt><trkpt lat="43.49321056374358" lon="12.311711504670376"><ele>550.25</ele><time>2026-04-26T09:45:58.001Z</time></trkpt><trkpt lat="43.49332082171095" lon="12.311836778458895"><ele>550.5</ele><time>2026-04-26T09:45:59.001Z</time></trkpt><trkpt lat="43.49343506971427" lon="12.311976478251145"><ele>550.75</ele><time>2026-04-26T09:46:00.001Z</time></trkpt><trkpt lat="43.49354316455016" lon="12.312116813836086"><ele>551.0</ele><time>2026-04-26T09:46:01.001Z</time></trkpt><trkpt lat="43.49365108299491" lon="12.312258181438724"><ele>551.0</ele><time>2026-04-26T09:46:02.001Z</time></trkpt><trkpt lat="43.49375518886681" lon="12.31239576828764"><ele>551.0</ele><time>2026-04-26T09:46:03.001Z</time></trkpt><trkpt lat="43.49385904539013" lon="12.312533806431318"><ele>551.0</ele><time>2026-04-26T09:46:04.001Z</time></trkpt><trkpt lat="43.49396806306242" lon="12.312669122504637"><ele>551.0</ele><time>2026-04-26T09:46:05.001Z</time></trkpt><trkpt lat="43.494063733812396" lon="12.312780204311753"><ele>550.75</ele><time>2026-04-26T09:46:06.001Z</time></trkpt><trkpt lat="43.49416567047979" lon="12.312895691079467"><ele>550.5</ele><time>2026-04-26T09:46:07.001Z</time></trkpt><trkpt lat="43.494275640982444" lon="12.313018454148601"><ele>550.25</ele><time>2026-04-26T09:46:08.001Z</time></trkpt><trkpt lat="43.494386943779155" lon="12.313131177066204"><ele>550.0</ele><time>2026-04-26T09:46:09.001Z</time></trkpt><trkpt lat="43.49449982830446" lon="12.31325443019103"><ele>550.5</ele><time>2026-04-26T09:46:10.001Z</time></trkpt><trkpt lat="43.49460714640847" lon="12.313359501024134"><ele>551.0</ele><time>2026-04-26T09:46:11.001Z</time></trkpt><trkpt lat="43.49472534373424" lon="12.313468501597669"><ele>551.5</ele><time>2026-04-26T09:46:12.001Z</time></trkpt><trkpt lat="43.49484221890843" lon="12.313577864473766"><ele>552.0</ele><time>2026-04-26T09:46:13.001Z</time></trkpt><trkpt lat="43.494961729392514" lon="12.31369205280395"><ele>552.0</ele><time>2026-04-26T09:46:14.001Z</time></trkpt><trkpt lat="43.49507837458071" lon="12.313799650060728"><ele>552.0</ele><time>2026-04-26T09:46:15.001Z</time></trkpt><trkpt lat="43.495199324390896" lon="12.313906677934485"><ele>552.0</ele><time>2026-04-26T09:46:16.001Z</time></trkpt><trkpt lat="43.495328224706654" lon="12.314009449498732"><ele>552.0</ele><time>2026-04-26T09:46:17.001Z</time></trkpt><trkpt lat="43.495453720031776" lon="12.314118943700375"><ele>553.25</ele><time>2026-04-26T09:46:18.001Z</time></trkpt><trkpt lat="43.49557860298666" lon="12.31422417407817"><ele>554.5</ele><time>2026-04-26T09:46:19.001Z</time></trkpt><trkpt lat="43.49570394990042" lon="12.314320692577564"><ele>555.75</ele><time>2026-04-26T09:46:20.001Z</time></trkpt><trkpt lat="43.49583863597552" lon="12.31441677627725"><ele>557.0</ele><time>2026-04-26T09:46:21.001Z</time></trkpt><trkpt lat="43.496108285677" lon="12.314578145165985"><ele>557.0</ele><time>2026-04-26T09:46:23.001Z</time></trkpt><trkpt lat="43.496252518315174" lon="12.314642828747798"><ele>557.0</ele><time>2026-04-26T09:46:24.001Z</time></trkpt><trkpt lat="43.49639215736273" lon="12.314685976152896"><ele>557.0</ele><time>2026-04-26T09:46:25.001Z</time></trkpt><trkpt lat="43.496530430605226" lon="12.314736935752936"><ele>557.0</ele><time>2026-04-26T09:46:26.001Z</time></trkpt><trkpt lat="43.49668069608388" lon="12.314811481094157"><ele>556.25</ele><time>2026-04-26T09:46:27.001Z</time></trkpt><trkpt lat="43.49682529530177" lon="12.314886865349298"><ele>555.5</ele><time>2026-04-26T09:46:28.001Z</time></trkpt><trkpt lat="43.49695817856271" lon="12.314957738824802"><ele>554.75</ele><time>2026-04-26T09:46:29.001Z</time></trkpt><trkpt lat="43.49709075084009" lon="12.315043531400402"><ele>554.0</ele><time>2026-04-26T09:46:30.001Z</time></trkpt><trkpt lat="43.49722175966098" lon="12.315140563244155"><ele>556.0</ele><time>2026-04-26T09:46:31.001Z</time></trkpt><trkpt lat="43.49735173400925" lon="12.315253066066491"><ele>558.0</ele><time>2026-04-26T09:46:32.001Z</time></trkpt><trkpt lat="43.49746571024397" lon="12.315371549321597"><ele>560.0</ele><time>2026-04-26T09:46:33.001Z</time></trkpt><trkpt lat="43.49757216218499" lon="12.31547144429965"><ele>562.0</ele><time>2026-04-26T09:46:34.001Z</time></trkpt><trkpt lat="43.49768774392498" lon="12.315542124485475"><ele>562.75</ele><time>2026-04-26T09:46:35.001Z</time></trkpt><trkpt lat="43.497815877849824" lon="12.315582323958964"><ele>563.5</ele><time>2026-04-26T09:46:36.001Z</time></trkpt><trkpt lat="43.49794233890099" lon="12.31556258035464"><ele>564.25</ele><time>2026-04-26T09:46:37.001Z</time></trkpt><trkpt lat="43.49807688569367" lon="12.315531642162544"><ele>565.0</ele><time>2026-04-26T09:46:38.001Z</time></trkpt><trkpt lat="43.4982110933583" lon="12.315512289069177"><ele>565.0</ele><time>2026-04-26T09:46:39.001Z</time></trkpt><trkpt lat="43.49834746992418" lon="12.31551047380419"><ele>565.0</ele><time>2026-04-26T09:46:40.001Z</time></trkpt><trkpt lat="43.498484279306744" lon="12.315531314718926"><ele>565.0</ele><time>2026-04-26T09:46:41.001Z</time></trkpt><trkpt lat="43.498620844847665" lon="12.315567087217099"><ele>565.0</ele><time>2026-04-26T09:46:42.001Z</time></trkpt><trkpt lat="43.49876580246193" lon="12.31560863723458"><ele>568.75</ele><time>2026-04-26T09:46:43.001Z</time></trkpt><trkpt lat="43.49891297495269" lon="12.315651442781556"><ele>572.5</ele><time>2026-04-26T09:46:44.001Z</time></trkpt><trkpt lat="43.49905998258106" lon="12.315694027803566"><ele>576.25</ele><time>2026-04-26T09:46:45.001Z</time></trkpt><trkpt lat="43.49920156191369" lon="12.315741385096404"><ele>580.0</ele><time>2026-04-26T09:46:46.001Z</time></trkpt><trkpt lat="43.49934839479893" lon="12.315793720598611"><ele>580.0</ele><time>2026-04-26T09:46:47.001Z</time></trkpt><trkpt lat="43.49949314144752" lon="12.315839364104654"><ele>580.0</ele><time>2026-04-26T09:46:48.001Z</time></trkpt><trkpt lat="43.499636367935786" lon="12.315884950318333"><ele>580.0</ele><time>2026-04-26T09:46:49.001Z</time></trkpt><trkpt lat="43.4997738434834" lon="12.315923958786975"><ele>580.0</ele><time>2026-04-26T09:46:50.001Z</time></trkpt><trkpt lat="43.499914854450275" lon="12.315957501345899"><ele>579.25</ele><time>2026-04-26T09:46:51.001Z</time></trkpt><trkpt lat="43.500049466894616" lon="12.315987967067834"><ele>578.5</ele><time>2026-04-26T09:46:52.001Z</time></trkpt><trkpt lat="43.50018104203606" lon="12.316010406891738"><ele>577.75</ele><time>2026-04-26T09:46:53.001Z</time></trkpt><trkpt lat="43.50029875045276" lon="12.316021719350438"><ele>577.0</ele><time>2026-04-26T09:46:54.001Z</time></trkpt><trkpt lat="43.500432014483096" lon="12.316048028704456"><ele>574.75</ele><time>2026-04-26T09:46:55.001Z</time></trkpt><trkpt lat="43.50054933667922" lon="12.316125307963425"><ele>572.5</ele><time>2026-04-26T09:46:56.001Z</time></trkpt><trkpt lat="43.5006470923714" lon="12.316224659576068"><ele>570.25</ele><time>2026-04-26T09:46:57.001Z</time></trkpt><trkpt lat="43.500738164321945" lon="12.316346475518845"><ele>568.0</ele><time>2026-04-26T09:46:58.001Z</time></trkpt><trkpt lat="43.500832275236796" lon="12.31647156250252"><ele>574.0</ele><time>2026-04-26T09:46:59.001Z</time></trkpt><trkpt lat="43.50091405663716" lon="12.316606989800281"><ele>580.0</ele><time>2026-04-26T09:47:00.001Z</time></trkpt><trkpt lat="43.500994874652164" lon="12.316749683342104"><ele>586.0</ele><time>2026-04-26T09:47:01.001Z</time></trkpt><trkpt lat="43.50106756748613" lon="12.316897575571494"><ele>592.0</ele><time>2026-04-26T09:47:02.001Z</time></trkpt><trkpt lat="43.50114110789346" lon="12.317049437948736"><ele>592.0</ele><time>2026-04-26T09:47:03.001Z</time></trkpt><trkpt lat="43.50123926523501" lon="12.31717776942957"><ele>592.0</ele><time>2026-04-26T09:47:04.001Z</time></trkpt><trkpt lat="43.501359472602125" lon="12.317288268999178"><ele>592.0</ele><time>2026-04-26T09:47:05.001Z</time></trkpt><trkpt lat="43.50148773051544" lon="12.317409043038648"><ele>592.0</ele><time>2026-04-26T09:47:06.001Z</time></trkpt><trkpt lat="43.501594577500136" lon="12.317562475283312"><ele>591.5</ele><time>2026-04-26T09:47:07.001Z</time></trkpt><trkpt lat="43.50170412564574" lon="12.317710657715413"><ele>591.0</ele><time>2026-04-26T09:47:08.001Z</time></trkpt><trkpt lat="43.501821782459416" lon="12.317851228274876"><ele>590.5</ele><time>2026-04-26T09:47:09.001Z</time></trkpt><trkpt lat="43.501917587320456" lon="12.317988096449977"><ele>590.0</ele><time>2026-04-26T09:47:10.001Z</time></trkpt><trkpt lat="43.5019996627977" lon="12.31811132441256"><ele>593.4</ele><time>2026-04-26T09:47:11.001Z</time></trkpt><trkpt lat="43.502059195475994" lon="12.318231731993395"><ele>596.8</ele><time>2026-04-26T09:47:12.001Z</time></trkpt><trkpt lat="43.50204918616952" lon="12.318370729100213"><ele>600.2</ele><time>2026-04-26T09:47:13.001Z</time></trkpt><trkpt lat="43.50198789415395" lon="12.318487237513"><ele>603.6</ele><time>2026-04-26T09:47:14.001Z</time></trkpt><trkpt lat="43.50193997003174" lon="12.318641000713434"><ele>607.0</ele><time>2026-04-26T09:47:15.001Z</time></trkpt><trkpt lat="43.501884300325955" lon="12.31879913623303"><ele>608.0</ele><time>2026-04-26T09:47:16.001Z</time></trkpt><trkpt lat="43.501848346165154" lon="12.318973326819334"><ele>609.0</ele><time>2026-04-26T09:47:17.001Z</time></trkpt><trkpt lat="43.50183290423173" lon="12.31913903997611"><ele>610.0</ele><time>2026-04-26T09:47:18.001Z</time></trkpt><trkpt lat="43.501835953666145" lon="12.31930298821038"><ele>611.0</ele><time>2026-04-26T09:47:19.001Z</time></trkpt><trkpt lat="43.50185727181719" lon="12.319444440226384"><ele>611.0</ele><time>2026-04-26T09:47:20.001Z</time></trkpt><trkpt lat="43.501901305475705" lon="12.319547035983579"><ele>611.0</ele><time>2026-04-26T09:47:21.001Z</time></trkpt><trkpt lat="43.501980977064584" lon="12.319605590886653"><ele>611.0</ele><time>2026-04-26T09:47:22.001Z</time></trkpt><trkpt lat="43.5020759191145" lon="12.319607362728744"><ele>611.0</ele><time>2026-04-26T09:47:23.001Z</time></trkpt><trkpt lat="43.502184087668944" lon="12.319594202325472"><ele>611.0</ele><time>2026-04-26T09:47:24.001Z</time></trkpt><trkpt lat="43.50228105764802" lon="12.319625625511966"><ele>610.2</ele><time>2026-04-26T09:47:25.001Z</time></trkpt><trkpt lat="43.50238022676776" lon="12.319625597755604"><ele>609.4000000000001</ele><time>2026-04-26T09:47:26.001Z</time></trkpt><trkpt lat="43.50247024849304" lon="12.319697531072784"><ele>608.6</ele><time>2026-04-26T09:47:27.001Z</time></trkpt><trkpt lat="43.50254037364532" lon="12.319819579286314"><ele>607.8000000000001</ele><time>2026-04-26T09:47:28.001Z</time></trkpt><trkpt lat="43.502577433808575" lon="12.319981383287296"><ele>607.0</ele><time>2026-04-26T09:47:29.001Z</time></trkpt><trkpt lat="43.502614429593145" lon="12.320139090605128"><ele>607.0</ele><time>2026-04-26T09:47:30.001Z</time></trkpt><trkpt lat="43.50267770686788" lon="12.320270315529623"><ele>607.0</ele><time>2026-04-26T09:47:31.001Z</time></trkpt><trkpt lat="43.50278005502632" lon="12.320360906475495"><ele>607.0</ele><time>2026-04-26T09:47:32.001Z</time></trkpt><trkpt lat="43.502885841960726" lon="12.32041516436495"><ele>607.0</ele><time>2026-04-26T09:47:33.001Z</time></trkpt><trkpt lat="43.50298720534217" lon="12.32044891868719"><ele>607.0</ele><time>2026-04-26T09:47:34.001Z</time></trkpt><trkpt lat="43.503062505344005" lon="12.320500322812753"><ele>607.0</ele><time>2026-04-26T09:47:35.001Z</time></trkpt><trkpt lat="43.5031268156038" lon="12.320528223785237"><ele>607.0</ele><time>2026-04-26T09:47:37.001Z</time></trkpt><trkpt lat="43.50304431635218" lon="12.320523046329052"><ele>607.0</ele><time>2026-04-26T09:48:21.001Z</time></trkpt><trkpt lat="43.502928495820655" lon="12.320556762676429"><ele>607.0</ele><time>2026-04-26T09:48:23.001Z</time></trkpt><trkpt lat="43.50280218677255" lon="12.320517213460002"><ele>607.0</ele><time>2026-04-26T09:48:25.001Z</time></trkpt><trkpt lat="43.502736876422254" lon="12.320465782365847"><ele>607.0</ele><time>2026-04-26T09:48:26.001Z</time></trkpt><trkpt lat="43.50274266198205" lon="12.320253779106112"><ele>607.0</ele><time>2026-04-26T09:48:27.001Z</time></trkpt><trkpt lat="43.502642260285334" lon="12.320133604168792"><ele>607.0</ele><time>2026-04-26T09:48:29.001Z</time></trkpt><trkpt lat="43.50255252070517" lon="12.320010593527007"><ele>599.0</ele><time>2026-04-26T09:48:31.001Z</time></trkpt><trkpt lat="43.50230986933084" lon="12.319583593243054"><ele>591.0</ele><time>2026-04-26T09:48:33.001Z</time></trkpt><trkpt lat="43.502239405308266" lon="12.319573959180829"><ele>591.0</ele><time>2026-04-26T09:48:34.001Z</time></trkpt><trkpt lat="43.50214590235843" lon="12.319566451919972"><ele>591.0</ele><time>2026-04-26T09:48:35.001Z</time></trkpt><trkpt lat="43.50207378305129" lon="12.319556600874026"><ele>591.0</ele><time>2026-04-26T09:48:36.001Z</time></trkpt><trkpt lat="43.50200409641052" lon="12.319544264901857"><ele>591.0</ele><time>2026-04-26T09:48:37.001Z</time></trkpt><trkpt lat="43.501736581609926" lon="12.320061627147444"><ele>594.3333333333334</ele><time>2026-04-26T09:48:40.001Z</time></trkpt><trkpt lat="43.50165025815183" lon="12.320004942713657"><ele>597.6666666666666</ele><time>2026-04-26T09:48:41.001Z</time></trkpt><trkpt lat="43.5015815752515" lon="12.31995331926821"><ele>601.0</ele><time>2026-04-26T09:48:42.001Z</time></trkpt><trkpt lat="43.501514028621905" lon="12.319883064146639"><ele>604.3333333333333</ele><time>2026-04-26T09:48:43.001Z</time></trkpt><trkpt lat="43.50146292434383" lon="12.319819728690446"><ele>607.6666666666666</ele><time>2026-04-26T09:48:44.001Z</time></trkpt><trkpt lat="43.501406037550865" lon="12.31975826253648"><ele>611.0</ele><time>2026-04-26T09:48:45.001Z</time></trkpt><trkpt lat="43.501363065188066" lon="12.319676831418134"><ele>611.0</ele><time>2026-04-26T09:48:47.001Z</time></trkpt><trkpt lat="43.50136712966453" lon="12.319569179918982"><ele>611.0</ele><time>2026-04-26T09:48:51.001Z</time></trkpt><trkpt lat="43.501388940285395" lon="12.319404741521852"><ele>611.0</ele><time>2026-04-26T09:48:53.001Z</time></trkpt><trkpt lat="43.501401429029734" lon="12.319308521425985"><ele>611.0</ele><time>2026-04-26T09:48:54.001Z</time></trkpt><trkpt lat="43.501396124073395" lon="12.319191863722178"><ele>611.0</ele><time>2026-04-26T09:48:55.001Z</time></trkpt><trkpt lat="43.50139609082143" lon="12.319074206036523"><ele>611.0</ele><time>2026-04-26T09:48:56.001Z</time></trkpt><trkpt lat="43.50142325441991" lon="12.318918167880843"><ele>610.2</ele><time>2026-04-26T09:48:58.001Z</time></trkpt><trkpt lat="43.50135433661699" lon="12.318772067248446"><ele>609.4000000000001</ele><time>2026-04-26T09:49:00.001Z</time></trkpt><trkpt lat="43.50127557509973" lon="12.318637142687125"><ele>608.6</ele><time>2026-04-26T09:49:02.001Z</time></trkpt><trkpt lat="43.50122132930569" lon="12.318541763628629"><ele>607.8000000000001</ele><time>2026-04-26T09:49:03.001Z</time></trkpt><trkpt lat="43.50118458838599" lon="12.318464641702455"><ele>607.0</ele><time>2026-04-26T09:49:04.001Z</time></trkpt><trkpt lat="43.50115723915853" lon="12.318375282944674"><ele>608.4</ele><time>2026-04-26T09:49:05.001Z</time></trkpt><trkpt lat="43.50111799009647" lon="12.318270286586314"><ele>609.8000000000001</ele><time>2026-04-26T09:49:06.001Z</time></trkpt><trkpt lat="43.501074407832455" lon="12.318194430138425"><ele>611.2</ele><time>2026-04-26T09:49:07.001Z</time></trkpt><trkpt lat="43.50103058905294" lon="12.318128798074486"><ele>612.6</ele><time>2026-04-26T09:49:08.001Z</time></trkpt><trkpt lat="43.50094872176512" lon="12.318027995718758"><ele>614.0</ele><time>2026-04-26T09:49:10.001Z</time></trkpt><trkpt lat="43.50082126135832" lon="12.318049167699485"><ele>616.5</ele><time>2026-04-26T09:49:12.001Z</time></trkpt><trkpt lat="43.500751411050466" lon="12.31811108621529"><ele>619.0</ele><time>2026-04-26T09:49:13.001Z</time></trkpt><trkpt lat="43.50067943477105" lon="12.318170110025978"><ele>621.5</ele><time>2026-04-26T09:49:14.001Z</time></trkpt><trkpt lat="43.50061692257152" lon="12.31823704639398"><ele>624.0</ele><time>2026-04-26T09:49:15.001Z</time></trkpt><trkpt lat="43.50056037714208" lon="12.318315212569216"><ele>626.5</ele><time>2026-04-26T09:49:16.001Z</time></trkpt><trkpt lat="43.5005109106754" lon="12.318391384412273"><ele>629.0</ele><time>2026-04-26T09:49:17.001Z</time></trkpt><trkpt lat="43.500451427427286" lon="12.318487202932722"><ele>628.3333333333333</ele><time>2026-04-26T09:49:18.001Z</time></trkpt><trkpt lat="43.50040512850668" lon="12.318590961453141"><ele>627.6666666666666</ele><time>2026-04-26T09:49:19.001Z</time></trkpt><trkpt lat="43.50036945076647" lon="12.318676632454991"><ele>627.0</ele><time>2026-04-26T09:49:20.001Z</time></trkpt><trkpt lat="43.50033357310143" lon="12.318768593142737"><ele>626.3333333333334</ele><time>2026-04-26T09:49:21.001Z</time></trkpt><trkpt lat="43.50028096589891" lon="12.318848118364208"><ele>625.6666666666667</ele><time>2026-04-26T09:49:22.001Z</time></trkpt><trkpt lat="43.50021218282773" lon="12.318908054718763"><ele>625.0</ele><time>2026-04-26T09:49:23.001Z</time></trkpt><trkpt lat="43.500133922073786" lon="12.31897219223372"><ele>627.6</ele><time>2026-04-26T09:49:24.001Z</time></trkpt><trkpt lat="43.50004778664293" lon="12.319054506510092"><ele>630.2</ele><time>2026-04-26T09:49:25.001Z</time></trkpt><trkpt lat="43.4999641816979" lon="12.319151115160443"><ele>632.8</ele><time>2026-04-26T09:49:26Z</time></trkpt><trkpt lat="43.49990518656765" lon="12.31925215547186"><ele>635.4</ele><time>2026-04-26T09:49:27Z</time></trkpt><trkpt lat="43.49984995981712" lon="12.319373653904421"><ele>638.0</ele><time>2026-04-26T09:49:28Z</time></trkpt><trkpt lat="43.499795759270434" lon="12.31950345420831"><ele>638.0</ele><time>2026-04-26T09:49:29Z</time></trkpt><trkpt lat="43.49973262662999" lon="12.31960309114696"><ele>638.0</ele><time>2026-04-26T09:49:30Z</time></trkpt><trkpt lat="43.4996564443614" lon="12.319692975471991"><ele>638.0</ele><time>2026-04-26T09:49:31Z</time></trkpt><trkpt lat="43.499573751794536" lon="12.319770009169549"><ele>638.0</ele><time>2026-04-26T09:49:32Z</time></trkpt><trkpt lat="43.49949488062498" lon="12.319813006935117"><ele>638.0</ele><time>2026-04-26T09:49:33Z</time></trkpt><trkpt lat="43.49940385269895" lon="12.319835927965471"><ele>637.8333333333333</ele><time>2026-04-26T09:49:34Z</time></trkpt><trkpt lat="43.499306034409884" lon="12.319851903321485"><ele>637.6666666666666</ele><time>2026-04-26T09:49:35Z</time></trkpt><trkpt lat="43.49922063937828" lon="12.31986303513567"><ele>637.5</ele><time>2026-04-26T09:49:36Z</time></trkpt><trkpt lat="43.49913470846428" lon="12.319871678452143"><ele>637.3333333333334</ele><time>2026-04-26T09:49:37Z</time></trkpt><trkpt lat="43.49905613542799" lon="12.319867686626349"><ele>637.1666666666667</ele><time>2026-04-26T09:49:38Z</time></trkpt><trkpt lat="43.498972397630084" lon="12.319842687304037"><ele>637.0</ele><time>2026-04-26T09:49:39Z</time></trkpt><trkpt lat="43.49889612847519" lon="12.319803222829087"><ele>637.0</ele><time>2026-04-26T09:49:40Z</time></trkpt><trkpt lat="43.498818058179886" lon="12.319754703233937"><ele>637.0</ele><time>2026-04-26T09:49:41Z</time></trkpt><trkpt lat="43.498750115624645" lon="12.319706838905741"><ele>637.0</ele><time>2026-04-26T09:49:42Z</time></trkpt><trkpt lat="43.49868755781056" lon="12.319667884644806"><ele>637.0</ele><time>2026-04-26T09:49:43Z</time></trkpt><trkpt lat="43.49862300399817" lon="12.319632267943346"><ele>637.0</ele><time>2026-04-26T09:49:44Z</time></trkpt><trkpt lat="43.49855935247369" lon="12.319628450435246"><ele>637.0</ele><time>2026-04-26T09:49:45Z</time></trkpt><trkpt lat="43.498421041989296" lon="12.31968494893813"><ele>634.6666666666667</ele><time>2026-04-26T09:49:47Z</time></trkpt><trkpt lat="43.49834027907256" lon="12.319692680077187"><ele>632.3333333333334</ele><time>2026-04-26T09:49:48Z</time></trkpt><trkpt lat="43.49827097594405" lon="12.319701509345528"><ele>630.0</ele><time>2026-04-26T09:49:49Z</time></trkpt><trkpt lat="43.49820481505373" lon="12.319712319428563"><ele>627.6666666666666</ele><time>2026-04-26T09:49:50Z</time></trkpt><trkpt lat="43.49810169095227" lon="12.319687437339955"><ele>625.3333333333333</ele><time>2026-04-26T09:49:52Z</time></trkpt><trkpt lat="43.49800326193539" lon="12.319654069978364"><ele>623.0</ele><time>2026-04-26T09:49:54Z</time></trkpt><trkpt lat="43.49791910740101" lon="12.319666803355263"><ele>623.4</ele><time>2026-04-26T09:49:56Z</time></trkpt><trkpt lat="43.49789971686599" lon="12.319786723908313"><ele>623.8</ele><time>2026-04-26T09:49:58Z</time></trkpt><trkpt lat="43.49793322312497" lon="12.319952726342832"><ele>624.2</ele><time>2026-04-26T09:50:00Z</time></trkpt><trkpt lat="43.49795121475341" lon="12.320048043400721"><ele>624.6</ele><time>2026-04-26T09:50:01Z</time></trkpt><trkpt lat="43.49796673565463" lon="12.320145597423334"><ele>625.0</ele><time>2026-04-26T09:50:02Z</time></trkpt><trkpt lat="43.49795237182011" lon="12.320336743600512"><ele>625.0</ele><time>2026-04-26T09:50:04Z</time></trkpt><trkpt lat="43.497948780557984" lon="12.320429997144457"><ele>625.0</ele><time>2026-04-26T09:50:05Z</time></trkpt><trkpt lat="43.49793779323681" lon="12.320533822633827"><ele>625.0</ele><time>2026-04-26T09:50:06Z</time></trkpt><trkpt lat="43.49793219352788" lon="12.320658453225532"><ele>625.0</ele><time>2026-04-26T09:50:07Z</time></trkpt><trkpt lat="43.49793846030121" lon="12.320759299434256"><ele>625.0</ele><time>2026-04-26T09:50:08Z</time></trkpt><trkpt lat="43.49795514070671" lon="12.320870822980845"><ele>625.0</ele><time>2026-04-26T09:50:09Z</time></trkpt><trkpt lat="43.49798031507223" lon="12.320953585742197"><ele>622.0</ele><time>2026-04-26T09:50:10Z</time></trkpt><trkpt lat="43.497994856726805" lon="12.321044474612487"><ele>619.0</ele><time>2026-04-26T09:50:11Z</time></trkpt><trkpt lat="43.49799838742209" lon="12.321131708509672"><ele>616.0</ele><time>2026-04-26T09:50:12Z</time></trkpt><trkpt lat="43.49798060645902" lon="12.321286363926669"><ele>613.0</ele><time>2026-04-26T09:50:14Z</time></trkpt><trkpt lat="43.497883532912304" lon="12.321413785118812"><ele>610.0</ele><time>2026-04-26T09:50:16Z</time></trkpt><trkpt lat="43.497830543488746" lon="12.321518146104818"><ele>605.2</ele><time>2026-04-26T09:50:17Z</time></trkpt><trkpt lat="43.49778148278048" lon="12.321631862641151"><ele>600.4</ele><time>2026-04-26T09:50:18Z</time></trkpt><trkpt lat="43.497751064492384" lon="12.321750639655205"><ele>595.6</ele><time>2026-04-26T09:50:19Z</time></trkpt><trkpt lat="43.49773894786131" lon="12.32187804989651"><ele>590.8</ele><time>2026-04-26T09:50:20Z</time></trkpt><trkpt lat="43.4977291797358" lon="12.322029913468125"><ele>586.0</ele><time>2026-04-26T09:50:21Z</time></trkpt><trkpt lat="43.49771013648715" lon="12.322181051105828"><ele>587.0</ele><time>2026-04-26T09:50:22Z</time></trkpt><trkpt lat="43.497684276520545" lon="12.32232252266564"><ele>588.0</ele><time>2026-04-26T09:50:23Z</time></trkpt><trkpt lat="43.49767145301041" lon="12.32245706741477"><ele>589.0</ele><time>2026-04-26T09:50:24Z</time></trkpt><trkpt lat="43.497662599856234" lon="12.322581243752081"><ele>590.0</ele><time>2026-04-26T09:50:25Z</time></trkpt><trkpt lat="43.49762594223326" lon="12.3226973894577"><ele>591.0</ele><time>2026-04-26T09:50:26Z</time></trkpt><trkpt lat="43.497571068725236" lon="12.322776453520696"><ele>591.0</ele><time>2026-04-26T09:50:27Z</time></trkpt><trkpt lat="43.49750028591985" lon="12.32289239311405"><ele>591.0</ele><time>2026-04-26T09:50:28Z</time></trkpt><trkpt lat="43.49742779612702" lon="12.323011633005427"><ele>591.0</ele><time>2026-04-26T09:50:29Z</time></trkpt><trkpt lat="43.497362385920304" lon="12.323099875235256"><ele>591.0</ele><time>2026-04-26T09:50:30Z</time></trkpt><trkpt lat="43.49728847218947" lon="12.323172126661156"><ele>591.0</ele><time>2026-04-26T09:50:31Z</time></trkpt><trkpt lat="43.49719647852946" lon="12.323227844342593"><ele>591.0</ele><time>2026-04-26T09:50:32Z</time></trkpt><trkpt lat="43.497104277598545" lon="12.323257681210134"><ele>591.0</ele><time>2026-04-26T09:50:33Z</time></trkpt><trkpt lat="43.49700965706207" lon="12.323305519363416"><ele>591.0</ele><time>2026-04-26T09:50:34Z</time></trkpt><trkpt lat="43.496923618150134" lon="12.323370469419938"><ele>591.0</ele><time>2026-04-26T09:50:35Z</time></trkpt><trkpt lat="43.49683325605118" lon="12.32343849787587"><ele>591.0</ele><time>2026-04-26T09:50:36Z</time></trkpt><trkpt lat="43.49674962379269" lon="12.323516952339695"><ele>591.0</ele><time>2026-04-26T09:50:37Z</time></trkpt><trkpt lat="43.4966808364002" lon="12.323586422096042"><ele>591.0</ele><time>2026-04-26T09:50:38Z</time></trkpt><trkpt lat="43.49660752371553" lon="12.32364741729589"><ele>591.0</ele><time>2026-04-26T09:50:39Z</time></trkpt><trkpt lat="43.4965375180354" lon="12.323674303952192"><ele>591.0</ele><time>2026-04-26T09:50:40Z</time></trkpt><trkpt lat="43.496456187037815" lon="12.323715247110897"><ele>591.0</ele><time>2026-04-26T09:50:41Z</time></trkpt><trkpt lat="43.49639436544204" lon="12.323783328326233"><ele>591.0</ele><time>2026-04-26T09:50:42Z</time></trkpt><trkpt lat="43.49634878269843" lon="12.323871270849178"><ele>591.6</ele><time>2026-04-26T09:50:43Z</time></trkpt><trkpt lat="43.496340637410704" lon="12.324007768684035"><ele>592.2</ele><time>2026-04-26T09:50:45Z</time></trkpt><trkpt lat="43.49641945552838" lon="12.32409314941896"><ele>592.8</ele><time>2026-04-26T09:50:47Z</time></trkpt><trkpt lat="43.49643691427755" lon="12.324192126714347"><ele>593.4</ele><time>2026-04-26T09:50:49Z</time></trkpt><trkpt lat="43.49634859416235" lon="12.324288808260157"><ele>594.0</ele><time>2026-04-26T09:50:51Z</time></trkpt><trkpt lat="43.49628659473387" lon="12.324343748376682"><ele>595.5</ele><time>2026-04-26T09:50:52Z</time></trkpt><trkpt lat="43.496224819738934" lon="12.324392391957236"><ele>597.0</ele><time>2026-04-26T09:50:53Z</time></trkpt><trkpt lat="43.496153043298214" lon="12.32444719465056"><ele>598.5</ele><time>2026-04-26T09:50:54Z</time></trkpt><trkpt lat="43.49608521436938" lon="12.324520938474791"><ele>600.0</ele><time>2026-04-26T09:50:55Z</time></trkpt><trkpt lat="43.49600671350785" lon="12.324598826242047"><ele>601.5</ele><time>2026-04-26T09:50:56Z</time></trkpt><trkpt lat="43.495934805589044" lon="12.324658292762587"><ele>603.0</ele><time>2026-04-26T09:50:57Z</time></trkpt><trkpt lat="43.49586061482731" lon="12.324695560983699"><ele>603.6666666666666</ele><time>2026-04-26T09:50:58Z</time></trkpt><trkpt lat="43.495764957981734" lon="12.324743652581931"><ele>604.3333333333334</ele><time>2026-04-26T09:50:59Z</time></trkpt><trkpt lat="43.49569705159564" lon="12.324805258633463"><ele>605.0</ele><time>2026-04-26T09:51:00Z</time></trkpt><trkpt lat="43.495626666798294" lon="12.324872005804007"><ele>605.6666666666667</ele><time>2026-04-26T09:51:01Z</time></trkpt><trkpt lat="43.49555197891404" lon="12.324906143497357"><ele>606.3333333333334</ele><time>2026-04-26T09:51:02Z</time></trkpt><trkpt lat="43.49547611119128" lon="12.324928735178041"><ele>607.0</ele><time>2026-04-26T09:51:03Z</time></trkpt><trkpt lat="43.49539295213909" lon="12.324959383758776"><ele>608.6</ele><time>2026-04-26T09:51:04Z</time></trkpt><trkpt lat="43.495302342713785" lon="12.32500904517932"><ele>610.2</ele><time>2026-04-26T09:51:05Z</time></trkpt><trkpt lat="43.49518992003198" lon="12.325106597818566"><ele>611.8</ele><time>2026-04-26T09:51:07Z</time></trkpt><trkpt lat="43.49513512200726" lon="12.32516783146437"><ele>613.4</ele><time>2026-04-26T09:51:08Z</time></trkpt><trkpt lat="43.49506834552023" lon="12.32521428878421"><ele>615.0</ele><time>2026-04-26T09:51:09Z</time></trkpt><trkpt lat="43.49498787260445" lon="12.325247597053824"><ele>615.0</ele><time>2026-04-26T09:51:10Z</time></trkpt><trkpt lat="43.494896703155916" lon="12.325255081842807"><ele>615.0</ele><time>2026-04-26T09:51:11Z</time></trkpt><trkpt lat="43.494793882984744" lon="12.325248372808732"><ele>615.0</ele><time>2026-04-26T09:51:12Z</time></trkpt><trkpt lat="43.49469259751007" lon="12.32523543369574"><ele>615.0</ele><time>2026-04-26T09:51:13Z</time></trkpt><trkpt lat="43.494596884936136" lon="12.325233057395327"><ele>615.0</ele><time>2026-04-26T09:51:14Z</time></trkpt><trkpt lat="43.49450009271847" lon="12.325233154303557"><ele>614.8</ele><time>2026-04-26T09:51:15Z</time></trkpt><trkpt lat="43.49440863537015" lon="12.325221604785275"><ele>614.6</ele><time>2026-04-26T09:51:16Z</time></trkpt><trkpt lat="43.4943189890752" lon="12.325203844466232"><ele>614.4</ele><time>2026-04-26T09:51:17Z</time></trkpt><trkpt lat="43.49422360491297" lon="12.325209697193939"><ele>614.2</ele><time>2026-04-26T09:51:18Z</time></trkpt><trkpt lat="43.494127736849805" lon="12.325211789729506"><ele>614.0</ele><time>2026-04-26T09:51:18.999Z</time></trkpt><trkpt lat="43.49404015953597" lon="12.325222577304904"><ele>614.0</ele><time>2026-04-26T09:51:19.999Z</time></trkpt><trkpt lat="43.49395709765618" lon="12.325270628924711"><ele>614.0</ele><time>2026-04-26T09:51:20.999Z</time></trkpt><trkpt lat="43.49387048695439" lon="12.32534131684778"><ele>614.0</ele><time>2026-04-26T09:51:21.999Z</time></trkpt><trkpt lat="43.49379096945344" lon="12.325421142589885"><ele>614.0</ele><time>2026-04-26T09:51:22.999Z</time></trkpt><trkpt lat="43.49371947021263" lon="12.325477927055163"><ele>614.0</ele><time>2026-04-26T09:51:23.999Z</time></trkpt><trkpt lat="43.49363492947844" lon="12.32551049097369"><ele>613.3333333333333</ele><time>2026-04-26T09:51:24.999Z</time></trkpt><trkpt lat="43.4935616277496" lon="12.325508816580697"><ele>612.6666666666666</ele><time>2026-04-26T09:51:25.999Z</time></trkpt><trkpt lat="43.49349131648624" lon="12.325496571056506"><ele>612.0</ele><time>2026-04-26T09:51:26.999Z</time></trkpt><trkpt lat="43.493425796788614" lon="12.325487982531634"><ele>611.3333333333334</ele><time>2026-04-26T09:51:27.999Z</time></trkpt><trkpt lat="43.49332898861007" lon="12.325434835377784"><ele>610.6666666666667</ele><time>2026-04-26T09:51:29.999Z</time></trkpt><trkpt lat="43.49325608915364" lon="12.325313336059338"><ele>610.0</ele><time>2026-04-26T09:51:31.999Z</time></trkpt><trkpt lat="43.49322019427377" lon="12.325240309374779"><ele>610.0</ele><time>2026-04-26T09:51:32.999Z</time></trkpt><trkpt lat="43.4931780580744" lon="12.325169216113688"><ele>610.0</ele><time>2026-04-26T09:51:33.999Z</time></trkpt><trkpt lat="43.49311126539102" lon="12.325052045103476"><ele>610.0</ele><time>2026-04-26T09:51:35.999Z</time></trkpt><trkpt lat="43.49304039860914" lon="12.324931017740745"><ele>610.0</ele><time>2026-04-26T09:51:37.999Z</time></trkpt><trkpt lat="43.49296554305904" lon="12.324821091441192"><ele>610.0</ele><time>2026-04-26T09:51:39.999Z</time></trkpt><trkpt lat="43.49290482765743" lon="12.324763545409992"><ele>605.6</ele><time>2026-04-26T09:51:40.999Z</time></trkpt><trkpt lat="43.49279892247085" lon="12.324672282790356"><ele>601.2</ele><time>2026-04-26T09:51:42.999Z</time></trkpt><trkpt lat="43.49273999572007" lon="12.324613987557994"><ele>596.8</ele><time>2026-04-26T09:51:43.999Z</time></trkpt><trkpt lat="43.49266372633636" lon="12.324507770981025"><ele>592.4</ele><time>2026-04-26T09:51:45.999Z</time></trkpt><trkpt lat="43.49256511439345" lon="12.324402825467867"><ele>588.0</ele><time>2026-04-26T09:51:48Z</time></trkpt><trkpt lat="43.49244046757839" lon="12.324346688670328"><ele>588.0</ele><time>2026-04-26T09:51:50Z</time></trkpt><trkpt lat="43.49235125004704" lon="12.324274019365127"><ele>588.0</ele><time>2026-04-26T09:51:52Z</time></trkpt><trkpt lat="43.49226371556002" lon="12.32417409134893"><ele>588.0</ele><time>2026-04-26T09:51:54Z</time></trkpt><trkpt lat="43.49220110894457" lon="12.324062251578049"><ele>588.0</ele><time>2026-04-26T09:51:56Z</time></trkpt><trkpt lat="43.49219776351379" lon="12.323915571508703"><ele>588.0</ele><time>2026-04-26T09:51:58Z</time></trkpt><trkpt lat="43.49214436532555" lon="12.323842083313368"><ele>582.4</ele><time>2026-04-26T09:52:00Z</time></trkpt><trkpt lat="43.4920720442955" lon="12.323775047607805"><ele>576.8</ele><time>2026-04-26T09:52:02Z</time></trkpt><trkpt lat="43.492036882813785" lon="12.323652285597127"><ele>571.2</ele><time>2026-04-26T09:52:04Z</time></trkpt><trkpt lat="43.49201038265952" lon="12.323526482863512"><ele>565.6</ele><time>2026-04-26T09:52:06Z</time></trkpt><trkpt lat="43.49199815377525" lon="12.32341483345477"><ele>560.0</ele><time>2026-04-26T09:52:08Z</time></trkpt><trkpt lat="43.49206681111458" lon="12.323284738010896"><ele>558.75</ele><time>2026-04-26T09:52:10Z</time></trkpt><trkpt lat="43.49213394097428" lon="12.323186377036063"><ele>557.5</ele><time>2026-04-26T09:52:11Z</time></trkpt><trkpt lat="43.492220536018394" lon="12.32303023303614"><ele>556.25</ele><time>2026-04-26T09:52:13Z</time></trkpt><trkpt lat="43.49227546462519" lon="12.32298288559642"><ele>555.0</ele><time>2026-04-26T09:52:14Z</time></trkpt><trkpt lat="43.49243332548206" lon="12.322947037592751"><ele>555.0</ele><time>2026-04-26T09:52:16Z</time></trkpt><trkpt lat="43.49252718384651" lon="12.322908150401238"><ele>555.0</ele><time>2026-04-26T09:52:17Z</time></trkpt><trkpt lat="43.49262201436382" lon="12.322871297975073"><ele>555.0</ele><time>2026-04-26T09:52:18Z</time></trkpt><trkpt lat="43.49269270654851" lon="12.32282309272667"><ele>555.0</ele><time>2026-04-26T09:52:19Z</time></trkpt><trkpt lat="43.492754297939676" lon="12.322797128020284"><ele>555.0</ele><time>2026-04-26T09:52:20Z</time></trkpt><trkpt lat="43.492816118898276" lon="12.322763608971846"><ele>555.0</ele><time>2026-04-26T09:52:21Z</time></trkpt><trkpt lat="43.49286474135871" lon="12.322704207513562"><ele>555.0000000000001</ele><time>2026-04-26T09:52:23Z</time></trkpt><trkpt lat="43.49282193389962" lon="12.322639713525337"><ele>555.0</ele><time>2026-04-26T09:52:25Z</time></trkpt><trkpt lat="43.492753887739184" lon="12.322644228915939"><ele>555.0</ele><time>2026-04-26T09:52:26Z</time></trkpt><trkpt lat="43.492677349893356" lon="12.322663224066027"><ele>555.0</ele><time>2026-04-26T09:52:27Z</time></trkpt><trkpt lat="43.49259222105518" lon="12.32268492126158"><ele>555.0</ele><time>2026-04-26T09:52:28Z</time></trkpt><trkpt lat="43.49252672306598" lon="12.32268288314051"><ele>555.0000000000001</ele><time>2026-04-26T09:52:29Z</time></trkpt><trkpt lat="43.49245278820408" lon="12.322666822823573"><ele>555.0</ele><time>2026-04-26T09:52:30Z</time></trkpt><trkpt lat="43.49234304122323" lon="12.322632769033117"><ele>555.0</ele><time>2026-04-26T09:52:32Z</time></trkpt><trkpt lat="43.49227331071706" lon="12.322535162772496"><ele>555.0</ele><time>2026-04-26T09:52:34Z</time></trkpt><trkpt lat="43.49216824776135" lon="12.322516698386757"><ele>555.0</ele><time>2026-04-26T09:52:36Z</time></trkpt><trkpt lat="43.49206698912359" lon="12.322565103873767"><ele>555.0</ele><time>2026-04-26T09:52:38Z</time></trkpt><trkpt lat="43.491952496822734" lon="12.322587670872853"><ele>555.0</ele><time>2026-04-26T09:52:40Z</time></trkpt><trkpt lat="43.49185724474569" lon="12.322570784882286"><ele>553.3333333333334</ele><time>2026-04-26T09:52:42Z</time></trkpt><trkpt lat="43.49177720668044" lon="12.322534863398422"><ele>551.6666666666666</ele><time>2026-04-26T09:52:44Z</time></trkpt><trkpt lat="43.49167056912522" lon="12.322486463807934"><ele>550.0</ele><time>2026-04-26T09:52:46Z</time></trkpt><trkpt lat="43.49159731792786" lon="12.322447151712272"><ele>548.3333333333333</ele><time>2026-04-26T09:52:47Z</time></trkpt><trkpt lat="43.49153756970544" lon="12.32240451861713"><ele>546.6666666666666</ele><time>2026-04-26T09:52:48Z</time></trkpt><trkpt lat="43.491474894995164" lon="12.322391306961258"><ele>545.0</ele><time>2026-04-26T09:52:49Z</time></trkpt><trkpt lat="43.491364803673314" lon="12.322372960948739"><ele>545.0</ele><time>2026-04-26T09:52:51Z</time></trkpt><trkpt lat="43.491263519804704" lon="12.322386014381012"><ele>545.0</ele><time>2026-04-26T09:52:53Z</time></trkpt><trkpt lat="43.49118985960535" lon="12.322451792990067"><ele>545.0</ele><time>2026-04-26T09:52:55Z</time></trkpt><trkpt lat="43.491117755981776" lon="12.322539431240969"><ele>545.0</ele><time>2026-04-26T09:52:57Z</time></trkpt><trkpt lat="43.49107738187227" lon="12.322645410687214"><ele>545.0</ele><time>2026-04-26T09:53:00Z</time></trkpt><trkpt lat="43.491001811301686" lon="12.322656244092641"><ele>545.0</ele><time>2026-04-26T09:53:03Z</time></trkpt><trkpt lat="43.49095342352877" lon="12.32257109455122"><ele>540.1666666666666</ele><time>2026-04-26T09:53:05Z</time></trkpt><trkpt lat="43.490902638783545" lon="12.322499817783502"><ele>535.3333333333333</ele><time>2026-04-26T09:53:07Z</time></trkpt><trkpt lat="43.490865125705476" lon="12.32242645694452"><ele>530.5</ele><time>2026-04-26T09:53:09Z</time></trkpt><trkpt lat="43.490835271687686" lon="12.322337375094001"><ele>525.6666666666666</ele><time>2026-04-26T09:53:12Z</time></trkpt><trkpt lat="43.49076462142188" lon="12.322392432909405"><ele>520.8333333333334</ele><time>2026-04-26T09:53:19Z</time></trkpt><trkpt lat="43.49076448082065" lon="12.3225380915936"><ele>516.0</ele><time>2026-04-26T09:53:21Z</time></trkpt><trkpt lat="43.490788674301236" lon="12.322638582116038"><ele>516.0</ele><time>2026-04-26T09:53:23Z</time></trkpt><trkpt lat="43.4908175007127" lon="12.322773866619425"><ele>516.0</ele><time>2026-04-26T09:53:24.998Z</time></trkpt><trkpt lat="43.49084743758091" lon="12.322896230005151"><ele>516.0</ele><time>2026-04-26T09:53:26.998Z</time></trkpt><trkpt lat="43.49085287247338" lon="12.323014364437253"><ele>516.0</ele><time>2026-04-26T09:53:28.998Z</time></trkpt><trkpt lat="43.49085701606484" lon="12.323147328831304"><ele>516.0</ele><time>2026-04-26T09:53:30.998Z</time></trkpt><trkpt lat="43.490864031627915" lon="12.323248977504793"><ele>517.8</ele><time>2026-04-26T09:53:32.998Z</time></trkpt><trkpt lat="43.49080158457854" lon="12.323310389145728"><ele>519.6</ele><time>2026-04-26T09:53:34.999Z</time></trkpt><trkpt lat="43.490700740555035" lon="12.32326689808511"><ele>521.4</ele><time>2026-04-26T09:53:36.999Z</time></trkpt><trkpt lat="43.49060501255638" lon="12.323301643296277"><ele>523.2</ele><time>2026-04-26T09:53:38.999Z</time></trkpt><trkpt lat="43.49049159720773" lon="12.323320890513088"><ele>525.0</ele><time>2026-04-26T09:53:40.999Z</time></trkpt><trkpt lat="43.490400423702525" lon="12.32340595687916"><ele>520.8</ele><time>2026-04-26T09:53:42.999Z</time></trkpt><trkpt lat="43.49032940400854" lon="12.323475924673971"><ele>516.6</ele><time>2026-04-26T09:53:44.999Z</time></trkpt><trkpt lat="43.490224619788385" lon="12.32348322125522"><ele>512.4</ele><time>2026-04-26T09:53:46.999Z</time></trkpt><trkpt lat="43.49011454090546" lon="12.323451243523085"><ele>508.2</ele><time>2026-04-26T09:53:48.999Z</time></trkpt><trkpt lat="43.490024611412146" lon="12.323403250260672"><ele>504.0</ele><time>2026-04-26T09:53:50.999Z</time></trkpt><trkpt lat="43.489955475727704" lon="12.323353546340268"><ele>504.0</ele><time>2026-04-26T09:53:52.999Z</time></trkpt><trkpt lat="43.48988657801298" lon="12.323338974196817"><ele>504.0</ele><time>2026-04-26T09:53:58.999Z</time></trkpt><trkpt lat="43.489807542926734" lon="12.323319399001347"><ele>504.0</ele><time>2026-04-26T09:54:00.999Z</time></trkpt><trkpt lat="43.489708627960795" lon="12.32329390475021"><ele>504.0</ele><time>2026-04-26T09:54:02.999Z</time></trkpt><trkpt lat="43.48961457767906" lon="12.323294822756338"><ele>504.0</ele><time>2026-04-26T09:54:04.999Z</time></trkpt><trkpt lat="43.48952155669504" lon="12.32327690556519"><ele>504.0</ele><time>2026-04-26T09:54:07.999Z</time></trkpt><trkpt lat="43.48944568309528" lon="12.323315820758195"><ele>500.3333333333333</ele><time>2026-04-26T09:54:10.999Z</time></trkpt><trkpt lat="43.48937073409574" lon="12.323311153372215"><ele>496.66666666666663</ele><time>2026-04-26T09:54:14Z</time></trkpt><trkpt lat="43.48931571692013" lon="12.323380939231138"><ele>493.0</ele><time>2026-04-26T09:54:17Z</time></trkpt><trkpt lat="43.48926065334949" lon="12.323456147669269"><ele>489.3333333333333</ele><time>2026-04-26T09:54:19Z</time></trkpt><trkpt lat="43.489197402539276" lon="12.323402613545626"><ele>485.66666666666663</ele><time>2026-04-26T09:54:21Z</time></trkpt><trkpt lat="43.489130792848755" lon="12.323343162552376"><ele>482.0</ele><time>2026-04-26T09:54:23Z</time></trkpt><trkpt lat="43.48903917040428" lon="12.32322878166654"><ele>482.0</ele><time>2026-04-26T09:54:25Z</time></trkpt><trkpt lat="43.48895184143956" lon="12.323116151769637"><ele>482.00000000000006</ele><time>2026-04-26T09:54:27Z</time></trkpt><trkpt lat="43.48889074860275" lon="12.323081177107149"><ele>482.00000000000006</ele><time>2026-04-26T09:54:28Z</time></trkpt><trkpt lat="43.488789125543974" lon="12.32300132364217"><ele>482.0</ele><time>2026-04-26T09:54:30Z</time></trkpt><trkpt lat="43.48869954123061" lon="12.322970751770306"><ele>482.0</ele><time>2026-04-26T09:54:32Z</time></trkpt><trkpt lat="43.48863128776673" lon="12.323069888497455"><ele>477.8</ele><time>2026-04-26T09:54:34Z</time></trkpt><trkpt lat="43.48865334465789" lon="12.323222149238548"><ele>473.6</ele><time>2026-04-26T09:54:36Z</time></trkpt><trkpt lat="43.488681761763075" lon="12.323306494381246"><ele>469.40000000000003</ele><time>2026-04-26T09:54:37Z</time></trkpt><trkpt lat="43.48870167244687" lon="12.323389465605013"><ele>465.20000000000005</ele><time>2026-04-26T09:54:38Z</time></trkpt><trkpt lat="43.488716273008926" lon="12.323542976537498"><ele>461.0</ele><time>2026-04-26T09:54:40Z</time></trkpt><trkpt lat="43.48870633963738" lon="12.323675111593053"><ele>461.0</ele><time>2026-04-26T09:54:42Z</time></trkpt><trkpt lat="43.48862254210238" lon="12.323646887728582"><ele>461.0</ele><time>2026-04-26T09:54:44Z</time></trkpt><trkpt lat="43.488525499422394" lon="12.323590489251163"><ele>461.0</ele><time>2026-04-26T09:54:46Z</time></trkpt><trkpt lat="43.4884599693713" lon="12.323566018750727"><ele>461.0</ele><time>2026-04-26T09:54:47Z</time></trkpt><trkpt lat="43.48837666679483" lon="12.323541615150077"><ele>461.0</ele><time>2026-04-26T09:54:48Z</time></trkpt><trkpt lat="43.488261112886036" lon="12.32353662048561"><ele>460.99999999999994</ele><time>2026-04-26T09:54:50Z</time></trkpt><trkpt lat="43.488167867898895" lon="12.323509466699665"><ele>461.0</ele><time>2026-04-26T09:54:52Z</time></trkpt><trkpt lat="43.488083645389665" lon="12.323430306450614"><ele>461.0</ele><time>2026-04-26T09:54:54Z</time></trkpt><trkpt lat="43.48803461062529" lon="12.323329904421001"><ele>461.0</ele><time>2026-04-26T09:54:56Z</time></trkpt><trkpt lat="43.48795760773253" lon="12.32328453855698"><ele>460.99999999999994</ele><time>2026-04-26T09:54:58Z</time></trkpt><trkpt lat="43.4878937304733" lon="12.32327927950742"><ele>461.0</ele><time>2026-04-26T09:55:00Z</time></trkpt><trkpt lat="43.48783354324808" lon="12.32333480726704"><ele>460.99999999999994</ele><time>2026-04-26T09:55:03Z</time></trkpt><trkpt lat="43.487799488243915" lon="12.323455306784908"><ele>461.0</ele><time>2026-04-26T09:55:05Z</time></trkpt><trkpt lat="43.4878311839167" lon="12.323566916864571"><ele>461.0</ele><time>2026-04-26T09:55:07Z</time></trkpt><trkpt lat="43.48789253021726" lon="12.323671665278583"><ele>461.0</ele><time>2026-04-26T09:55:09Z</time></trkpt><trkpt lat="43.487944876510404" lon="12.32379085534286"><ele>460.99999999999994</ele><time>2026-04-26T09:55:11Z</time></trkpt><trkpt lat="43.48797182012377" lon="12.323869589843104"><ele>461.0</ele><time>2026-04-26T09:55:12Z</time></trkpt><trkpt lat="43.48799229075355" lon="12.323966122275985"><ele>460.99999999999994</ele><time>2026-04-26T09:55:13Z</time></trkpt><trkpt lat="43.48800537157757" lon="12.32406905669692"><ele>461.0</ele><time>2026-04-26T09:55:14Z</time></trkpt><trkpt lat="43.48801258392646" lon="12.324177005662595"><ele>461.0</ele><time>2026-04-26T09:55:15Z</time></trkpt><trkpt lat="43.48801718331323" lon="12.324285513981694"><ele>461.0</ele><time>2026-04-26T09:55:16Z</time></trkpt><trkpt lat="43.4880098981357" lon="12.324390743329648"><ele>460.99999999999994</ele><time>2026-04-26T09:55:17Z</time></trkpt><trkpt lat="43.48799453184161" lon="12.324491223530414"><ele>461.0</ele><time>2026-04-26T09:55:18Z</time></trkpt><trkpt lat="43.487975196257096" lon="12.324598680713146"><ele>461.0</ele><time>2026-04-26T09:55:19Z</time></trkpt><trkpt lat="43.48793184197522" lon="12.324704439639836"><ele>461.0</ele><time>2026-04-26T09:55:20Z</time></trkpt><trkpt lat="43.487871535441116" lon="12.324813168532147"><ele>461.0</ele><time>2026-04-26T09:55:21Z</time></trkpt><trkpt lat="43.48779927315649" lon="12.32492491591882"><ele>461.0</ele><time>2026-04-26T09:55:22Z</time></trkpt><trkpt lat="43.48773601213754" lon="12.325016772276161"><ele>461.0</ele><time>2026-04-26T09:55:23Z</time></trkpt><trkpt lat="43.48769407145723" lon="12.325086630182408"><ele>459.4</ele><time>2026-04-26T09:55:24Z</time></trkpt><trkpt lat="43.48768596047622" lon="12.325263923537278"><ele>457.8</ele><time>2026-04-26T09:55:26Z</time></trkpt><trkpt lat="43.48769571592931" lon="12.325379311474215"><ele>456.19999999999993</ele><time>2026-04-26T09:55:27Z</time></trkpt><trkpt lat="43.48770266106884" lon="12.325507632285488"><ele>454.59999999999997</ele><time>2026-04-26T09:55:28Z</time></trkpt><trkpt lat="43.48773074640005" lon="12.325613076006036"><ele>453.0</ele><time>2026-04-26T09:55:29Z</time></trkpt><trkpt lat="43.48776606541176" lon="12.325712062102047"><ele>451.6666666666667</ele><time>2026-04-26T09:55:30Z</time></trkpt><trkpt lat="43.487809477000056" lon="12.325812036481807"><ele>450.33333333333337</ele><time>2026-04-26T09:55:30.999Z</time></trkpt><trkpt lat="43.48786894835557" lon="12.325911621939737"><ele>449.0</ele><time>2026-04-26T09:55:31.999Z</time></trkpt><trkpt lat="43.48791957756947" lon="12.325992539559328"><ele>447.6666666666667</ele><time>2026-04-26T09:55:32.999Z</time></trkpt><trkpt lat="43.487961977181186" lon="12.326086883683498"><ele>446.33333333333337</ele><time>2026-04-26T09:55:33.999Z</time></trkpt><trkpt lat="43.488004244504886" lon="12.326195971355535"><ele>445.0</ele><time>2026-04-26T09:55:34.999Z</time></trkpt><trkpt lat="43.48806319574802" lon="12.326318418441202"><ele>447.2</ele><time>2026-04-26T09:55:35.999Z</time></trkpt><trkpt lat="43.48811178885851" lon="12.326445663534187"><ele>449.4</ele><time>2026-04-26T09:55:36.999Z</time></trkpt><trkpt lat="43.488152803781034" lon="12.32655758584537"><ele>451.6</ele><time>2026-04-26T09:55:37.999Z</time></trkpt><trkpt lat="43.488198676499564" lon="12.32666442340954"><ele>453.8</ele><time>2026-04-26T09:55:38.999Z</time></trkpt><trkpt lat="43.48825028651953" lon="12.326748592289997"><ele>456.0</ele><time>2026-04-26T09:55:39.999Z</time></trkpt><trkpt lat="43.48831458467083" lon="12.326846935981926"><ele>456.0</ele><time>2026-04-26T09:55:40.999Z</time></trkpt><trkpt lat="43.48838519120757" lon="12.326946699280805"><ele>456.0</ele><time>2026-04-26T09:55:41.999Z</time></trkpt><trkpt lat="43.48846256682084" lon="12.3270557353734"><ele>456.0</ele><time>2026-04-26T09:55:42.999Z</time></trkpt><trkpt lat="43.4885514549148" lon="12.327159841038409"><ele>456.0</ele><time>2026-04-26T09:55:43.999Z</time></trkpt><trkpt lat="43.488630789002364" lon="12.327255867307816"><ele>456.0</ele><time>2026-04-26T09:55:44.999Z</time></trkpt><trkpt lat="43.48869513976961" lon="12.327358197797452"><ele>457.0</ele><time>2026-04-26T09:55:45.999Z</time></trkpt><trkpt lat="43.48875315654466" lon="12.327482710721316"><ele>458.0</ele><time>2026-04-26T09:55:46.999Z</time></trkpt><trkpt lat="43.48881374311213" lon="12.327605951645078"><ele>459.0</ele><time>2026-04-26T09:55:47.999Z</time></trkpt><trkpt lat="43.488866494790265" lon="12.32773008302337"><ele>460.0</ele><time>2026-04-26T09:55:48.999Z</time></trkpt><trkpt lat="43.48890879185653" lon="12.327853384459928"><ele>461.0</ele><time>2026-04-26T09:55:49.999Z</time></trkpt><trkpt lat="43.4889292325231" lon="12.32798026611566"><ele>460.20000000000005</ele><time>2026-04-26T09:55:50.999Z</time></trkpt><trkpt lat="43.488951362624896" lon="12.328110065400676"><ele>459.40000000000003</ele><time>2026-04-26T09:55:51.999Z</time></trkpt><trkpt lat="43.48898768980603" lon="12.328238103816503"><ele>458.6</ele><time>2026-04-26T09:55:52.999Z</time></trkpt><trkpt lat="43.48902273873403" lon="12.328352093616182"><ele>457.8</ele><time>2026-04-26T09:55:53.999Z</time></trkpt><trkpt lat="43.48906380781675" lon="12.328461297545381"><ele>457.0</ele><time>2026-04-26T09:55:54.999Z</time></trkpt><trkpt lat="43.489124832010106" lon="12.328578067494282"><ele>457.0</ele><time>2026-04-26T09:55:55.999Z</time></trkpt><trkpt lat="43.489194996496046" lon="12.328698311131518"><ele>457.00000000000006</ele><time>2026-04-26T09:55:56.999Z</time></trkpt><trkpt lat="43.48927517677233" lon="12.328811906087713"><ele>457.00000000000006</ele><time>2026-04-26T09:55:57.999Z</time></trkpt><trkpt lat="43.48935198440813" lon="12.32891776409622"><ele>457.0</ele><time>2026-04-26T09:55:58.999Z</time></trkpt><trkpt lat="43.48940925254003" lon="12.329005785518989"><ele>457.0</ele><time>2026-04-26T09:55:59.999Z</time></trkpt><trkpt lat="43.489438627943" lon="12.329097279331352"><ele>456.0</ele><time>2026-04-26T09:56:00.999Z</time></trkpt><trkpt lat="43.48943657294513" lon="12.32922954944343"><ele>455.00000000000006</ele><time>2026-04-26T09:56:01.999Z</time></trkpt><trkpt lat="43.489388353771574" lon="12.32934665024852"><ele>454.00000000000006</ele><time>2026-04-26T09:56:02.999Z</time></trkpt><trkpt lat="43.48933331086518" lon="12.329457572575356"><ele>453.0</ele><time>2026-04-26T09:56:04Z</time></trkpt><trkpt lat="43.48928732030238" lon="12.329585270861143"><ele>452.0</ele><time>2026-04-26T09:56:05Z</time></trkpt><trkpt lat="43.48923516217925" lon="12.32968959193732"><ele>451.99999999999994</ele><time>2026-04-26T09:56:06Z</time></trkpt><trkpt lat="43.489202965715464" lon="12.329793060211625"><ele>452.0</ele><time>2026-04-26T09:56:07Z</time></trkpt><trkpt lat="43.48920133710065" lon="12.329901747965035"><ele>452.0</ele><time>2026-04-26T09:56:08Z</time></trkpt><trkpt lat="43.489229236789036" lon="12.330015309679036"><ele>452.0</ele><time>2026-04-26T09:56:09Z</time></trkpt><trkpt lat="43.48927877082252" lon="12.330125775447112"><ele>451.99999999999994</ele><time>2026-04-26T09:56:10Z</time></trkpt><trkpt lat="43.48934114315008" lon="12.330246666552187"><ele>452.0</ele><time>2026-04-26T09:56:11Z</time></trkpt><trkpt lat="43.48940475759606" lon="12.330374789892891"><ele>452.0</ele><time>2026-04-26T09:56:12Z</time></trkpt><trkpt lat="43.48946278582763" lon="12.330517365540874"><ele>452.0</ele><time>2026-04-26T09:56:13Z</time></trkpt><trkpt lat="43.48950291625976" lon="12.330684605404942"><ele>452.0</ele><time>2026-04-26T09:56:14Z</time></trkpt><trkpt lat="43.48953646712852" lon="12.330841637626326"><ele>452.0</ele><time>2026-04-26T09:56:15Z</time></trkpt><trkpt lat="43.48958088945441" lon="12.330988500342317"><ele>455.6</ele><time>2026-04-26T09:56:16Z</time></trkpt><trkpt lat="43.48963547052172" lon="12.33112626398498"><ele>459.20000000000005</ele><time>2026-04-26T09:56:17Z</time></trkpt><trkpt lat="43.489692422174095" lon="12.331252828613868"><ele>462.8</ele><time>2026-04-26T09:56:18Z</time></trkpt><trkpt lat="43.489741697381504" lon="12.33138064916508"><ele>466.4</ele><time>2026-04-26T09:56:19Z</time></trkpt><trkpt lat="43.489795118881915" lon="12.331515264350307"><ele>470.0</ele><time>2026-04-26T09:56:20Z</time></trkpt><trkpt lat="43.489839870075" lon="12.331669287232383"><ele>470.0</ele><time>2026-04-26T09:56:21Z</time></trkpt><trkpt lat="43.489876512722674" lon="12.331826079230236"><ele>470.0</ele><time>2026-04-26T09:56:22Z</time></trkpt><trkpt lat="43.48993588000418" lon="12.331971003397143"><ele>470.0</ele><time>2026-04-26T09:56:23Z</time></trkpt><trkpt lat="43.48997588035205" lon="12.332104926463149"><ele>470.0</ele><time>2026-04-26T09:56:24Z</time></trkpt><trkpt lat="43.49001739675428" lon="12.332224515539814"><ele>470.0</ele><time>2026-04-26T09:56:25Z</time></trkpt><trkpt lat="43.490070233944216" lon="12.332325893456094"><ele>470.6</ele><time>2026-04-26T09:56:26Z</time></trkpt><trkpt lat="43.49014751646643" lon="12.332415872177679"><ele>471.2</ele><time>2026-04-26T09:56:27Z</time></trkpt><trkpt lat="43.49023967278349" lon="12.332469584996268"><ele>471.79999999999995</ele><time>2026-04-26T09:56:28Z</time></trkpt><trkpt lat="43.49032717515071" lon="12.332505880102346"><ele>472.4</ele><time>2026-04-26T09:56:29Z</time></trkpt><trkpt lat="43.490432931961315" lon="12.33253929662829"><ele>473.0</ele><time>2026-04-26T09:56:30Z</time></trkpt><trkpt lat="43.49055125267826" lon="12.33256902122171"><ele>473.0</ele><time>2026-04-26T09:56:31Z</time></trkpt><trkpt lat="43.490678093470734" lon="12.332594940677236"><ele>473.0</ele><time>2026-04-26T09:56:32Z</time></trkpt><trkpt lat="43.49080178468556" lon="12.332628254778456"><ele>473.0</ele><time>2026-04-26T09:56:33Z</time></trkpt><trkpt lat="43.49092413805599" lon="12.332658184972242"><ele>473.0</ele><time>2026-04-26T09:56:34Z</time></trkpt><trkpt lat="43.49103591970953" lon="12.332728005173877"><ele>473.0</ele><time>2026-04-26T09:56:35Z</time></trkpt><trkpt lat="43.49114520350399" lon="12.332800393655788"><ele>473.0</ele><time>2026-04-26T09:56:36Z</time></trkpt><trkpt lat="43.491239627863635" lon="12.33289350334126"><ele>473.0</ele><time>2026-04-26T09:56:37Z</time></trkpt><trkpt lat="43.49133061631903" lon="12.332993769550905"><ele>473.0</ele><time>2026-04-26T09:56:38Z</time></trkpt><trkpt lat="43.49141947649845" lon="12.333081022092047"><ele>470.75</ele><time>2026-04-26T09:56:39Z</time></trkpt><trkpt lat="43.49150285199356" lon="12.333155916029558"><ele>468.5</ele><time>2026-04-26T09:56:40Z</time></trkpt><trkpt lat="43.49160074833538" lon="12.33324898639798"><ele>466.25</ele><time>2026-04-26T09:56:41Z</time></trkpt><trkpt lat="43.491717914854306" lon="12.333308028622334"><ele>464.0</ele><time>2026-04-26T09:56:42Z</time></trkpt><trkpt lat="43.491820616811864" lon="12.333409846121425"><ele>464.0</ele><time>2026-04-26T09:56:43Z</time></trkpt><trkpt lat="43.49193758574677" lon="12.333519846220524"><ele>464.0</ele><time>2026-04-26T09:56:44Z</time></trkpt><trkpt lat="43.49205244329823" lon="12.333622901091578"><ele>464.0</ele><time>2026-04-26T09:56:45Z</time></trkpt><trkpt lat="43.492172684029796" lon="12.333711170459974"><ele>464.0</ele><time>2026-04-26T09:56:46Z</time></trkpt><trkpt lat="43.49227789923841" lon="12.333828888644948"><ele>463.4</ele><time>2026-04-26T09:56:47Z</time></trkpt><trkpt lat="43.49238379320324" lon="12.333922721487504"><ele>462.79999999999995</ele><time>2026-04-26T09:56:48Z</time></trkpt><trkpt lat="43.4924575174894" lon="12.33400322275041"><ele>462.20000000000005</ele><time>2026-04-26T09:56:49Z</time></trkpt><trkpt lat="43.49254595695938" lon="12.334062288262794"><ele>461.6</ele><time>2026-04-26T09:56:50Z</time></trkpt><trkpt lat="43.49264924162751" lon="12.334117467930078"><ele>461.0</ele><time>2026-04-26T09:56:51Z</time></trkpt><trkpt lat="43.49275267716024" lon="12.33412787627261"><ele>461.0</ele><time>2026-04-26T09:56:52Z</time></trkpt><trkpt lat="43.49284882933982" lon="12.334120757853986"><ele>461.0</ele><time>2026-04-26T09:56:53Z</time></trkpt><trkpt lat="43.49293099685531" lon="12.334162888636603"><ele>461.0</ele><time>2026-04-26T09:56:54Z</time></trkpt><trkpt lat="43.49301008439564" lon="12.334181139680407"><ele>461.0</ele><time>2026-04-26T09:56:55Z</time></trkpt><trkpt lat="43.49313769743215" lon="12.333965664807009"><ele>464.0</ele><time>2026-04-26T09:56:57Z</time></trkpt><trkpt lat="43.49320194539425" lon="12.333851465231636"><ele>467.0</ele><time>2026-04-26T09:56:58Z</time></trkpt><trkpt lat="43.49328226237966" lon="12.333719868174041"><ele>470.0</ele><time>2026-04-26T09:56:59Z</time></trkpt><trkpt lat="43.49335728664873" lon="12.333598512118538"><ele>473.0</ele><time>2026-04-26T09:57:00Z</time></trkpt><trkpt lat="43.4934163421581" lon="12.333485842198945"><ele>476.0</ele><time>2026-04-26T09:57:01Z</time></trkpt><trkpt lat="43.49346418707223" lon="12.333395529326985"><ele>475.99999999999994</ele><time>2026-04-26T09:57:02Z</time></trkpt><trkpt lat="43.4935194779974" lon="12.333339583142767"><ele>476.0</ele><time>2026-04-26T09:57:03Z</time></trkpt><trkpt lat="43.49361033277412" lon="12.333392448091354"><ele>476.0</ele><time>2026-04-26T09:57:05Z</time></trkpt><trkpt lat="43.493649447994365" lon="12.333482095087641"><ele>476.0</ele><time>2026-04-26T09:57:06Z</time></trkpt><trkpt lat="43.49364117872705" lon="12.333574416892072"><ele>475.99999999999994</ele><time>2026-04-26T09:57:07Z</time></trkpt><trkpt lat="43.49360071614201" lon="12.333668303847107"><ele>476.0</ele><time>2026-04-26T09:57:08Z</time></trkpt><trkpt lat="43.49357205007759" lon="12.333783215559949"><ele>473.6</ele><time>2026-04-26T09:57:09Z</time></trkpt><trkpt lat="43.49356342496817" lon="12.333919736730182"><ele>471.20000000000005</ele><time>2026-04-26T09:57:10Z</time></trkpt><trkpt lat="43.49358063468323" lon="12.334048911232992"><ele>468.79999999999995</ele><time>2026-04-26T09:57:11Z</time></trkpt><trkpt lat="43.493610303944195" lon="12.334163148276485"><ele>466.4</ele><time>2026-04-26T09:57:12Z</time></trkpt><trkpt lat="43.49361914745375" lon="12.33426824517289"><ele>464.0</ele><time>2026-04-26T09:57:13Z</time></trkpt><trkpt lat="43.493597593731735" lon="12.33438954410617"><ele>463.99999999999994</ele><time>2026-04-26T09:57:14Z</time></trkpt><trkpt lat="43.49356821224113" lon="12.334495048088169"><ele>464.0</ele><time>2026-04-26T09:57:15Z</time></trkpt><trkpt lat="43.49355112465548" lon="12.334600952996214"><ele>464.0</ele><time>2026-04-26T09:57:16Z</time></trkpt><trkpt lat="43.493580817586526" lon="12.334755591359201"><ele>464.0</ele><time>2026-04-26T09:57:18Z</time></trkpt><trkpt lat="43.49361489635904" lon="12.334840992740547"><ele>463.99999999999994</ele><time>2026-04-26T09:57:19Z</time></trkpt><trkpt lat="43.49366964838387" lon="12.334923261962016"><ele>464.0</ele><time>2026-04-26T09:57:20Z</time></trkpt><trkpt lat="43.49374330286205" lon="12.334999305188747"><ele>466.79999999999995</ele><time>2026-04-26T09:57:21Z</time></trkpt><trkpt lat="43.49383242061479" lon="12.335071132846375"><ele>469.59999999999997</ele><time>2026-04-26T09:57:22Z</time></trkpt><trkpt lat="43.493932466709346" lon="12.335139128960403"><ele>472.4</ele><time>2026-04-26T09:57:23Z</time></trkpt><trkpt lat="43.49401915165253" lon="12.335210837668644"><ele>475.2</ele><time>2026-04-26T09:57:24Z</time></trkpt><trkpt lat="43.494073481846065" lon="12.335282529319098"><ele>478.0</ele><time>2026-04-26T09:57:25Z</time></trkpt><trkpt lat="43.4941114545626" lon="12.335367988894816"><ele>478.0</ele><time>2026-04-26T09:57:26.001Z</time></trkpt><trkpt lat="43.494143799079275" lon="12.335476397595215"><ele>477.99999999999994</ele><time>2026-04-26T09:57:27.001Z</time></trkpt><trkpt lat="43.49420004430261" lon="12.335580815365878"><ele>477.99999999999994</ele><time>2026-04-26T09:57:28.001Z</time></trkpt><trkpt lat="43.494274692614944" lon="12.335649567663927"><ele>478.0</ele><time>2026-04-26T09:57:29.001Z</time></trkpt><trkpt lat="43.49434836606647" lon="12.335719628181579"><ele>478.0</ele><time>2026-04-26T09:57:30.001Z</time></trkpt><trkpt lat="43.494435539936575" lon="12.335755279169902"><ele>476.5</ele><time>2026-04-26T09:57:31.001Z</time></trkpt><trkpt lat="43.49454646087615" lon="12.335769947426703"><ele>475.0</ele><time>2026-04-26T09:57:32.001Z</time></trkpt><trkpt lat="43.49466318353496" lon="12.335776072640583"><ele>473.5</ele><time>2026-04-26T09:57:33.001Z</time></trkpt><trkpt lat="43.4947935444083" lon="12.33578716810345"><ele>472.0</ele><time>2026-04-26T09:57:34.001Z</time></trkpt><trkpt lat="43.49490923588106" lon="12.33580872246064"><ele>472.0</ele><time>2026-04-26T09:57:35.001Z</time></trkpt><trkpt lat="43.495036674797284" lon="12.335842016342246"><ele>472.0</ele><time>2026-04-26T09:57:35.999Z</time></trkpt><trkpt lat="43.49517323896102" lon="12.33587755209076"><ele>472.0</ele><time>2026-04-26T09:57:36.999Z</time></trkpt><trkpt lat="43.49531303041822" lon="12.335922063462998"><ele>472.0</ele><time>2026-04-26T09:57:37.999Z</time></trkpt><trkpt lat="43.49545720392924" lon="12.335968486810259"><ele>474.0</ele><time>2026-04-26T09:57:38.999Z</time></trkpt><trkpt lat="43.49559882593351" lon="12.336008870301097"><ele>476.0</ele><time>2026-04-26T09:57:39.999Z</time></trkpt><trkpt lat="43.49572467848142" lon="12.336037102409994"><ele>478.0</ele><time>2026-04-26T09:57:40.999Z</time></trkpt><trkpt lat="43.49585933953004" lon="12.336075986077386"><ele>480.0</ele><time>2026-04-26T09:57:41.999Z</time></trkpt><trkpt lat="43.49598880159342" lon="12.336122621001584"><ele>480.0</ele><time>2026-04-26T09:57:42.999Z</time></trkpt><trkpt lat="43.4961139917794" lon="12.33617625551073"><ele>480.0</ele><time>2026-04-26T09:57:43.999Z</time></trkpt><trkpt lat="43.496245395248806" lon="12.336223775501848"><ele>480.0</ele><time>2026-04-26T09:57:45Z</time></trkpt><trkpt lat="43.49638004012159" lon="12.336263235709392"><ele>480.0</ele><time>2026-04-26T09:57:46Z</time></trkpt><trkpt lat="43.49650919277369" lon="12.336308621063989"><ele>478.25</ele><time>2026-04-26T09:57:47Z</time></trkpt><trkpt lat="43.496640527444846" lon="12.336361833043691"><ele>476.5</ele><time>2026-04-26T09:57:48Z</time></trkpt><trkpt lat="43.49676024422816" lon="12.33640868151684"><ele>474.75</ele><time>2026-04-26T09:57:49Z</time></trkpt><trkpt lat="43.496886869668224" lon="12.336459083497168"><ele>473.0</ele><time>2026-04-26T09:57:50Z</time></trkpt><trkpt lat="43.49700831711118" lon="12.336502522317193"><ele>474.5</ele><time>2026-04-26T09:57:51Z</time></trkpt><trkpt lat="43.49712546294736" lon="12.336544119639015"><ele>476.0</ele><time>2026-04-26T09:57:52Z</time></trkpt><trkpt lat="43.49723372978758" lon="12.336588447394297"><ele>477.5</ele><time>2026-04-26T09:57:53Z</time></trkpt><trkpt lat="43.49734471524082" lon="12.336637958658612"><ele>479.0</ele><time>2026-04-26T09:57:54Z</time></trkpt><trkpt lat="43.497457277864314" lon="12.33666885596461"><ele>479.0</ele><time>2026-04-26T09:57:55Z</time></trkpt><trkpt lat="43.497568621058065" lon="12.336671325516646"><ele>479.0</ele><time>2026-04-26T09:57:56Z</time></trkpt><trkpt lat="43.49767401625105" lon="12.336662424649944"><ele>479.0</ele><time>2026-04-26T09:57:57Z</time></trkpt><trkpt lat="43.49776791484443" lon="12.336675005761878"><ele>479.0</ele><time>2026-04-26T09:57:58Z</time></trkpt><trkpt lat="43.49785868263666" lon="12.336729113434304"><ele>479.0</ele><time>2026-04-26T09:57:59Z</time></trkpt><trkpt lat="43.49795272670155" lon="12.336806980728218"><ele>478.6</ele><time>2026-04-26T09:58:00Z</time></trkpt><trkpt lat="43.49804494226182" lon="12.336871217060859"><ele>478.2</ele><time>2026-04-26T09:58:01Z</time></trkpt><trkpt lat="43.49813774071612" lon="12.336943714185416"><ele>477.80000000000007</ele><time>2026-04-26T09:58:02Z</time></trkpt><trkpt lat="43.4982203922014" lon="12.337049497605728"><ele>477.40000000000003</ele><time>2026-04-26T09:58:03Z</time></trkpt><trkpt lat="43.49829644565068" lon="12.337172728918873"><ele>477.0</ele><time>2026-04-26T09:58:04Z</time></trkpt><trkpt lat="43.49837875677499" lon="12.33728713422659"><ele>477.0</ele><time>2026-04-26T09:58:05Z</time></trkpt><trkpt lat="43.49846456753703" lon="12.337380746055961"><ele>477.00000000000006</ele><time>2026-04-26T09:58:06Z</time></trkpt><trkpt lat="43.49855525753714" lon="12.337439497402897"><ele>477.00000000000006</ele><time>2026-04-26T09:58:07Z</time></trkpt><trkpt lat="43.49865518581559" lon="12.33747871011084"><ele>477.0</ele><time>2026-04-26T09:58:08Z</time></trkpt><trkpt lat="43.4987622974831" lon="12.337519376168755"><ele>477.0</ele><time>2026-04-26T09:58:09Z</time></trkpt><trkpt lat="43.49887239401942" lon="12.337567177845882"><ele>478.75</ele><time>2026-04-26T09:58:10Z</time></trkpt><trkpt lat="43.49898736255791" lon="12.337606801802197"><ele>480.5</ele><time>2026-04-26T09:58:11Z</time></trkpt><trkpt lat="43.499105371940644" lon="12.337637235887943"><ele>482.25</ele><time>2026-04-26T09:58:12Z</time></trkpt><trkpt lat="43.49922542472852" lon="12.337659580212982"><ele>484.0</ele><time>2026-04-26T09:58:13Z</time></trkpt><trkpt lat="43.499342349283005" lon="12.337681340415484"><ele>484.0</ele><time>2026-04-26T09:58:14Z</time></trkpt><trkpt lat="43.49944535672065" lon="12.337707395567225"><ele>484.0</ele><time>2026-04-26T09:58:15Z</time></trkpt><trkpt lat="43.49954259551858" lon="12.337734351689129"><ele>484.0</ele><time>2026-04-26T09:58:16Z</time></trkpt><trkpt lat="43.499627047854105" lon="12.337771804172307"><ele>484.0</ele><time>2026-04-26T09:58:17Z</time></trkpt><trkpt lat="43.49974796916647" lon="12.337792887690913"><ele>484.0</ele><time>2026-04-26T09:58:19Z</time></trkpt><trkpt lat="43.49984797925876" lon="12.33783493958914"><ele>484.00000000000006</ele><time>2026-04-26T09:58:21Z</time></trkpt><trkpt lat="43.49986519224148" lon="12.33792645668404"><ele>484.0</ele><time>2026-04-26T09:58:22Z</time></trkpt><trkpt lat="43.499875608245304" lon="12.338023397744605"><ele>484.0</ele><time>2026-04-26T09:58:23Z</time></trkpt><trkpt lat="43.499910241659414" lon="12.338127533375518"><ele>484.0</ele><time>2026-04-26T09:58:24Z</time></trkpt><trkpt lat="43.49995867696907" lon="12.33823970740873"><ele>484.00000000000006</ele><time>2026-04-26T09:58:25Z</time></trkpt><trkpt lat="43.500020504644674" lon="12.338346138487399"><ele>484.0</ele><time>2026-04-26T09:58:26Z</time></trkpt><trkpt lat="43.5000866135789" lon="12.33843082884137"><ele>484.00000000000006</ele><time>2026-04-26T09:58:27Z</time></trkpt><trkpt lat="43.5001558640883" lon="12.338501730271512"><ele>484.0</ele><time>2026-04-26T09:58:28Z</time></trkpt><trkpt lat="43.50023634072729" lon="12.338549641022894"><ele>484.0</ele><time>2026-04-26T09:58:29Z</time></trkpt><trkpt lat="43.50031473024848" lon="12.338595274964781"><ele>484.0</ele><time>2026-04-26T09:58:30Z</time></trkpt><trkpt lat="43.500375672565426" lon="12.33867458271508"><ele>484.00000000000006</ele><time>2026-04-26T09:58:31Z</time></trkpt><trkpt lat="43.500432429372445" lon="12.338748046148773"><ele>484.0</ele><time>2026-04-26T09:58:32Z</time></trkpt><trkpt lat="43.500499496497724" lon="12.338811234367766"><ele>484.33333333333337</ele><time>2026-04-26T09:58:33Z</time></trkpt><trkpt lat="43.5005859384276" lon="12.338914293358727"><ele>484.6666666666667</ele><time>2026-04-26T09:58:35Z</time></trkpt><trkpt lat="43.500619365545504" lon="12.338990820530427"><ele>485.0</ele><time>2026-04-26T09:58:36Z</time></trkpt><trkpt lat="43.50064665968022" lon="12.339083624432782"><ele>485.33333333333337</ele><time>2026-04-26T09:58:37Z</time></trkpt><trkpt lat="43.50066465213101" lon="12.339193063301723"><ele>485.6666666666667</ele><time>2026-04-26T09:58:38Z</time></trkpt><trkpt lat="43.50066401726172" lon="12.339310505096288"><ele>486.0</ele><time>2026-04-26T09:58:39Z</time></trkpt><trkpt lat="43.50066609259527" lon="12.33943231822109"><ele>486.0</ele><time>2026-04-26T09:58:40Z</time></trkpt><trkpt lat="43.50067065545131" lon="12.339561543741457"><ele>486.0</ele><time>2026-04-26T09:58:41Z</time></trkpt><trkpt lat="43.50069054415898" lon="12.339689421551151"><ele>486.0</ele><time>2026-04-26T09:58:42Z</time></trkpt><trkpt lat="43.50073279494574" lon="12.339807401125771"><ele>486.0</ele><time>2026-04-26T09:58:43Z</time></trkpt><trkpt lat="43.50078951190064" lon="12.33991717084613"><ele>486.0</ele><time>2026-04-26T09:58:44Z</time></trkpt><trkpt lat="43.50084570347596" lon="12.340011092116892"><ele>487.0</ele><time>2026-04-26T09:58:45Z</time></trkpt><trkpt lat="43.50090011522006" lon="12.340108605843154"><ele>488.0</ele><time>2026-04-26T09:58:46Z</time></trkpt><trkpt lat="43.500945722727316" lon="12.340219695775959"><ele>489.0</ele><time>2026-04-26T09:58:47Z</time></trkpt><trkpt lat="43.50098763855919" lon="12.340338532617654"><ele>490.0</ele><time>2026-04-26T09:58:48Z</time></trkpt><trkpt lat="43.501036638370365" lon="12.340468166285097"><ele>491.0</ele><time>2026-04-26T09:58:49.001Z</time></trkpt><trkpt lat="43.501097008686514" lon="12.340574621068154"><ele>491.6</ele><time>2026-04-26T09:58:50.001Z</time></trkpt><trkpt lat="43.5011681931276" lon="12.340664290289856"><ele>492.20000000000005</ele><time>2026-04-26T09:58:51.001Z</time></trkpt><trkpt lat="43.50124290696098" lon="12.340749312596222"><ele>492.79999999999995</ele><time>2026-04-26T09:58:52.001Z</time></trkpt><trkpt lat="43.501319426732394" lon="12.340832592325416"><ele>493.4</ele><time>2026-04-26T09:58:53.001Z</time></trkpt><trkpt lat="43.50137915462145" lon="12.340931023950533"><ele>494.0</ele><time>2026-04-26T09:58:54.001Z</time></trkpt><trkpt lat="43.5014236813001" lon="12.341060499588494"><ele>497.0</ele><time>2026-04-26T09:58:55.001Z</time></trkpt><trkpt lat="43.501460626803244" lon="12.341200708529103"><ele>500.0</ele><time>2026-04-26T09:58:56.001Z</time></trkpt><trkpt lat="43.501494448604795" lon="12.341319293745451"><ele>503.0</ele><time>2026-04-26T09:58:57.001Z</time></trkpt><trkpt lat="43.501526347444646" lon="12.341425763363118"><ele>506.0</ele><time>2026-04-26T09:58:58.001Z</time></trkpt><trkpt lat="43.50155208562966" lon="12.34154389536332"><ele>509.0</ele><time>2026-04-26T09:58:59.001Z</time></trkpt><trkpt lat="43.501579293544744" lon="12.341672915720585"><ele>509.0</ele><time>2026-04-26T09:59:00.001Z</time></trkpt><trkpt lat="43.5016087448473" lon="12.341827233686658"><ele>509.0</ele><time>2026-04-26T09:59:01.001Z</time></trkpt><trkpt lat="43.50164219707462" lon="12.341971625005593"><ele>509.0</ele><time>2026-04-26T09:59:02.001Z</time></trkpt><trkpt lat="43.50168160308211" lon="12.342118085176734"><ele>509.0</ele><time>2026-04-26T09:59:03.001Z</time></trkpt><trkpt lat="43.501716278420915" lon="12.342273295484128"><ele>507.6</ele><time>2026-04-26T09:59:04.001Z</time></trkpt><trkpt lat="43.50173460942861" lon="12.342424748623934"><ele>506.2</ele><time>2026-04-26T09:59:05.001Z</time></trkpt><trkpt lat="43.501751823014764" lon="12.342584695441298"><ele>504.80000000000007</ele><time>2026-04-26T09:59:06.001Z</time></trkpt><trkpt lat="43.50177398152449" lon="12.342729273623297"><ele>503.40000000000003</ele><time>2026-04-26T09:59:07.001Z</time></trkpt><trkpt lat="43.50180256737792" lon="12.342866909519746"><ele>502.0</ele><time>2026-04-26T09:59:08.001Z</time></trkpt><trkpt lat="43.50184480661841" lon="12.342992961229228"><ele>502.0</ele><time>2026-04-26T09:59:09.001Z</time></trkpt><trkpt lat="43.501905396680826" lon="12.343118794960638"><ele>502.00000000000006</ele><time>2026-04-26T09:59:10.001Z</time></trkpt><trkpt lat="43.50196865215472" lon="12.343239938259789"><ele>502.00000000000006</ele><time>2026-04-26T09:59:11.001Z</time></trkpt><trkpt lat="43.50202920358304" lon="12.34335706922832"><ele>502.0</ele><time>2026-04-26T09:59:12.001Z</time></trkpt><trkpt lat="43.502082792573646" lon="12.343478835025463"><ele>502.0</ele><time>2026-04-26T09:59:13.001Z</time></trkpt><trkpt lat="43.50212998770419" lon="12.343585214159054"><ele>505.0</ele><time>2026-04-26T09:59:14.001Z</time></trkpt><trkpt lat="43.50218516155248" lon="12.34370125182118"><ele>508.00000000000006</ele><time>2026-04-26T09:59:15.001Z</time></trkpt><trkpt lat="43.502239832323305" lon="12.343821065940178"><ele>511.00000000000006</ele><time>2026-04-26T09:59:16.001Z</time></trkpt><trkpt lat="43.502290651339976" lon="12.343910095672992"><ele>514.0</ele><time>2026-04-26T09:59:17.001Z</time></trkpt><trkpt lat="43.50233806164907" lon="12.344003319217338"><ele>517.0</ele><time>2026-04-26T09:59:18.001Z</time></trkpt><trkpt lat="43.5023694752023" lon="12.344110815086438"><ele>517.0</ele><time>2026-04-26T09:59:19.001Z</time></trkpt><trkpt lat="43.5023858657035" lon="12.344237194537016"><ele>517.0</ele><time>2026-04-26T09:59:20.001Z</time></trkpt><trkpt lat="43.502385858686004" lon="12.344366224544485"><ele>517.0</ele><time>2026-04-26T09:59:21.001Z</time></trkpt><trkpt lat="43.50238396199847" lon="12.344506731937146"><ele>517.0</ele><time>2026-04-26T09:59:22.001Z</time></trkpt><trkpt lat="43.50240279874368" lon="12.344633909574041"><ele>517.0</ele><time>2026-04-26T09:59:23.001Z</time></trkpt><trkpt lat="43.50241335436009" lon="12.344784574906228"><ele>516.8000000000001</ele><time>2026-04-26T09:59:24.001Z</time></trkpt><trkpt lat="43.50242058654909" lon="12.34492347125114"><ele>516.6</ele><time>2026-04-26T09:59:25.001Z</time></trkpt><trkpt lat="43.50242940845993" lon="12.345061560783149"><ele>516.4000000000001</ele><time>2026-04-26T09:59:26.001Z</time></trkpt><trkpt lat="43.50244568926177" lon="12.345200213790415"><ele>516.2</ele><time>2026-04-26T09:59:27.001Z</time></trkpt><trkpt lat="43.502470180411876" lon="12.345325881330655"><ele>516.0</ele><time>2026-04-26T09:59:28.001Z</time></trkpt><trkpt lat="43.50249627219431" lon="12.345458682342093"><ele>515.2</ele><time>2026-04-26T09:59:29.001Z</time></trkpt><trkpt lat="43.50252122987265" lon="12.345597255433827"><ele>514.4000000000001</ele><time>2026-04-26T09:59:30.001Z</time></trkpt><trkpt lat="43.502551830327754" lon="12.345730057611986"><ele>513.6</ele><time>2026-04-26T09:59:31.001Z</time></trkpt><trkpt lat="43.50259010499367" lon="12.345875587055202"><ele>512.8000000000001</ele><time>2026-04-26T09:59:32.001Z</time></trkpt><trkpt lat="43.50262962601273" lon="12.346016443350154"><ele>512.0</ele><time>2026-04-26T09:59:33.001Z</time></trkpt><trkpt lat="43.50266513477229" lon="12.346136611354087"><ele>512.0</ele><time>2026-04-26T09:59:34.001Z</time></trkpt><trkpt lat="43.50270486093646" lon="12.34622024163909"><ele>511.99999999999994</ele><time>2026-04-26T09:59:35.001Z</time></trkpt><trkpt lat="43.5027561485277" lon="12.346287504077425"><ele>512.0</ele><time>2026-04-26T09:59:36.001Z</time></trkpt><trkpt lat="43.50283136759717" lon="12.346323018403403"><ele>512.0</ele><time>2026-04-26T09:59:37.001Z</time></trkpt><trkpt lat="43.5029033914861" lon="12.34633467244655"><ele>511.99999999999994</ele><time>2026-04-26T09:59:38.001Z</time></trkpt><trkpt lat="43.50298581778342" lon="12.346376463586587"><ele>512.0</ele><time>2026-04-26T09:59:40.001Z</time></trkpt><trkpt lat="43.50301447944704" lon="12.34645897760432"><ele>512.0</ele><time>2026-04-26T09:59:41.001Z</time></trkpt><trkpt lat="43.5030462746667" lon="12.346665750400533"><ele>513.0</ele><time>2026-04-26T09:59:43Z</time></trkpt><trkpt lat="43.50307031254919" lon="12.346785382262668"><ele>514.0</ele><time>2026-04-26T09:59:44Z</time></trkpt><trkpt lat="43.5031137220134" lon="12.346905135028676"><ele>515.0</ele><time>2026-04-26T09:59:45Z</time></trkpt><trkpt lat="43.50316581298543" lon="12.347040707225187"><ele>516.0</ele><time>2026-04-26T09:59:46Z</time></trkpt><trkpt lat="43.503224161553135" lon="12.347157076575494"><ele>517.0</ele><time>2026-04-26T09:59:47Z</time></trkpt><trkpt lat="43.50327987903874" lon="12.347276594143297"><ele>517.0</ele><time>2026-04-26T09:59:48Z</time></trkpt><trkpt lat="43.50334121677344" lon="12.347414168028937"><ele>517.0</ele><time>2026-04-26T09:59:49Z</time></trkpt><trkpt lat="43.50339978565029" lon="12.347545146857305"><ele>517.0</ele><time>2026-04-26T09:59:50Z</time></trkpt><trkpt lat="43.50345139417851" lon="12.347672116180977"><ele>517.0</ele><time>2026-04-26T09:59:51Z</time></trkpt><trkpt lat="43.50350496523096" lon="12.347783115510005"><ele>517.0</ele><time>2026-04-26T09:59:52Z</time></trkpt><trkpt lat="43.50356478573604" lon="12.347891164076085"><ele>517.0</ele><time>2026-04-26T09:59:53Z</time></trkpt><trkpt lat="43.5036231484353" lon="12.347996749571827"><ele>517.0</ele><time>2026-04-26T09:59:54Z</time></trkpt><trkpt lat="43.50368380436515" lon="12.348116684184673"><ele>517.0</ele><time>2026-04-26T09:59:55Z</time></trkpt><trkpt lat="43.503743189276" lon="12.348219957672065"><ele>517.0</ele><time>2026-04-26T09:59:56Z</time></trkpt><trkpt lat="43.503813556244836" lon="12.348318747671183"><ele>517.0</ele><time>2026-04-26T09:59:57Z</time></trkpt><trkpt lat="43.503880379464746" lon="12.348436669477865"><ele>519.2</ele><time>2026-04-26T09:59:58Z</time></trkpt><trkpt lat="43.503940386622254" lon="12.348560569513868"><ele>521.4000000000001</ele><time>2026-04-26T09:59:59Z</time></trkpt><trkpt lat="43.50398950106136" lon="12.348645647833239"><ele>523.5999999999999</ele><time>2026-04-26T10:00:00Z</time></trkpt><trkpt lat="43.50402848760328" lon="12.34880351621467"><ele>525.8</ele><time>2026-04-26T10:00:01Z</time></trkpt><trkpt lat="43.50406421373306" lon="12.348922016468103"><ele>528.0</ele><time>2026-04-26T10:00:02Z</time></trkpt><trkpt lat="43.50410561061763" lon="12.349042925554473"><ele>528.0</ele><time>2026-04-26T10:00:03Z</time></trkpt><trkpt lat="43.504148200596866" lon="12.349163840852384"><ele>528.0</ele><time>2026-04-26T10:00:04Z</time></trkpt><trkpt lat="43.504171076633625" lon="12.349289228859677"><ele>528.0</ele><time>2026-04-26T10:00:05Z</time></trkpt><trkpt lat="43.504202372405445" lon="12.349432491395843"><ele>528.0</ele><time>2026-04-26T10:00:06Z</time></trkpt><trkpt lat="43.504226582934216" lon="12.349566933971655"><ele>528.0</ele><time>2026-04-26T10:00:07Z</time></trkpt><trkpt lat="43.504241251569404" lon="12.349699230251263"><ele>528.6</ele><time>2026-04-26T10:00:08Z</time></trkpt><trkpt lat="43.504247737529745" lon="12.349838082720996"><ele>529.1999999999999</ele><time>2026-04-26T10:00:09Z</time></trkpt><trkpt lat="43.5042568440465" lon="12.349971644067105"><ele>529.8</ele><time>2026-04-26T10:00:10Z</time></trkpt><trkpt lat="43.5042687409831" lon="12.350105788443646"><ele>530.4</ele><time>2026-04-26T10:00:11Z</time></trkpt><trkpt lat="43.504271875832906" lon="12.350220880124086"><ele>531.0</ele><time>2026-04-26T10:00:12Z</time></trkpt><trkpt lat="43.50428651948184" lon="12.35033514710819"><ele>531.0</ele><time>2026-04-26T10:00:13Z</time></trkpt><trkpt lat="43.50431263659582" lon="12.350427554846263"><ele>531.0</ele><time>2026-04-26T10:00:14Z</time></trkpt><trkpt lat="43.504318899940365" lon="12.350529092956876"><ele>531.0</ele><time>2026-04-26T10:00:15Z</time></trkpt><trkpt lat="43.504332145916635" lon="12.35065676628883"><ele>531.0</ele><time>2026-04-26T10:00:16Z</time></trkpt><trkpt lat="43.50434472994718" lon="12.35076289488633"><ele>531.0</ele><time>2026-04-26T10:00:17Z</time></trkpt><trkpt lat="43.50437666146734" lon="12.35088717471761"><ele>531.0</ele><time>2026-04-26T10:00:18Z</time></trkpt><trkpt lat="43.50441486319967" lon="12.350987264443852"><ele>531.6</ele><time>2026-04-26T10:00:19Z</time></trkpt><trkpt lat="43.50444936173765" lon="12.351092781224061"><ele>532.2</ele><time>2026-04-26T10:00:20Z</time></trkpt><trkpt lat="43.50448755791831" lon="12.35121156510466"><ele>532.8</ele><time>2026-04-26T10:00:21Z</time></trkpt><trkpt lat="43.50451687547969" lon="12.35133178452142"><ele>533.4</ele><time>2026-04-26T10:00:22Z</time></trkpt><trkpt lat="43.50455533280364" lon="12.351472149342834"><ele>534.0</ele><time>2026-04-26T10:00:23Z</time></trkpt><trkpt lat="43.50458694735976" lon="12.351601728185068"><ele>536.8</ele><time>2026-04-26T10:00:24.001Z</time></trkpt><trkpt lat="43.5045978950196" lon="12.351726326371718"><ele>539.5999999999999</ele><time>2026-04-26T10:00:25.001Z</time></trkpt><trkpt lat="43.504591187944314" lon="12.351860004315757"><ele>542.4</ele><time>2026-04-26T10:00:26.001Z</time></trkpt><trkpt lat="43.504597079969294" lon="12.352000928872476"><ele>545.1999999999999</ele><time>2026-04-26T10:00:27.001Z</time></trkpt><trkpt lat="43.50460907166583" lon="12.352140783709858"><ele>548.0</ele><time>2026-04-26T10:00:28.001Z</time></trkpt><trkpt lat="43.50461758104173" lon="12.352280993649506"><ele>548.0</ele><time>2026-04-26T10:00:29.001Z</time></trkpt><trkpt lat="43.50464304285808" lon="12.352425356326123"><ele>548.0</ele><time>2026-04-26T10:00:30.001Z</time></trkpt><trkpt lat="43.50465466722042" lon="12.3525379305624"><ele>548.0</ele><time>2026-04-26T10:00:31.001Z</time></trkpt><trkpt lat="43.5047025471504" lon="12.352666428354572"><ele>548.0</ele><time>2026-04-26T10:00:33.001Z</time></trkpt><trkpt lat="43.50473980620737" lon="12.352747168494817"><ele>548.0</ele><time>2026-04-26T10:00:34.001Z</time></trkpt><trkpt lat="43.50478471816667" lon="12.352810991280489"><ele>548.0</ele><time>2026-04-26T10:00:35.001Z</time></trkpt><trkpt lat="43.504844221179624" lon="12.352949827992514"><ele>548.6666666666666</ele><time>2026-04-26T10:00:37.001Z</time></trkpt><trkpt lat="43.504850461407756" lon="12.353040889073878"><ele>549.3333333333333</ele><time>2026-04-26T10:00:38.001Z</time></trkpt><trkpt lat="43.50485378534054" lon="12.35318746503876"><ele>550.0</ele><time>2026-04-26T10:00:40.001Z</time></trkpt><trkpt lat="43.50486741024286" lon="12.353274487010038"><ele>550.6666666666666</ele><time>2026-04-26T10:00:41.001Z</time></trkpt><trkpt lat="43.504879856333815" lon="12.353387241693833"><ele>551.3333333333334</ele><time>2026-04-26T10:00:42.001Z</time></trkpt><trkpt lat="43.50487054698058" lon="12.353489955691995"><ele>552.0</ele><time>2026-04-26T10:00:43.001Z</time></trkpt><trkpt lat="43.50486577291422" lon="12.353599803588706"><ele>552.0</ele><time>2026-04-26T10:00:44.001Z</time></trkpt><trkpt lat="43.50486867418648" lon="12.353725637763356"><ele>552.0</ele><time>2026-04-26T10:00:45.001Z</time></trkpt><trkpt lat="43.50486775641992" lon="12.353828834618463"><ele>552.0</ele><time>2026-04-26T10:00:46.001Z</time></trkpt><trkpt lat="43.50487127785923" lon="12.353960438442819"><ele>552.0</ele><time>2026-04-26T10:00:47.001Z</time></trkpt><trkpt lat="43.5048922129188" lon="12.35408587156073"><ele>552.0</ele><time>2026-04-26T10:00:48.001Z</time></trkpt><trkpt lat="43.50491994971483" lon="12.354184949080961"><ele>552.0</ele><time>2026-04-26T10:00:49.001Z</time></trkpt><trkpt lat="43.50494296282076" lon="12.354295022741148"><ele>551.6</ele><time>2026-04-26T10:00:50.001Z</time></trkpt><trkpt lat="43.50496740800202" lon="12.354407481824039"><ele>551.2</ele><time>2026-04-26T10:00:51.001Z</time></trkpt><trkpt lat="43.50499317651351" lon="12.354504122794975"><ele>550.8</ele><time>2026-04-26T10:00:52.001Z</time></trkpt><trkpt lat="43.50505010655946" lon="12.35458675847047"><ele>550.4</ele><time>2026-04-26T10:00:53.001Z</time></trkpt><trkpt lat="43.50514972755815" lon="12.354722593550253"><ele>550.0</ele><time>2026-04-26T10:00:55.001Z</time></trkpt><trkpt lat="43.50521330175313" lon="12.354782303833982"><ele>550.0</ele><time>2026-04-26T10:00:56.001Z</time></trkpt><trkpt lat="43.505285226130944" lon="12.354835808232696"><ele>550.0</ele><time>2026-04-26T10:00:57.001Z</time></trkpt><trkpt lat="43.505358369732" lon="12.354884105817352"><ele>550.0</ele><time>2026-04-26T10:00:58.001Z</time></trkpt><trkpt lat="43.50544939971565" lon="12.354933971428753"><ele>550.0</ele><time>2026-04-26T10:00:59.001Z</time></trkpt><trkpt lat="43.50553089842201" lon="12.354954504746722"><ele>550.0</ele><time>2026-04-26T10:01:00.001Z</time></trkpt><trkpt lat="43.50559741937761" lon="12.354958900228496"><ele>550.0</ele><time>2026-04-26T10:01:01.001Z</time></trkpt><trkpt lat="43.50566908334346" lon="12.354977032370336"><ele>552.1428571428571</ele><time>2026-04-26T10:01:02.001Z</time></trkpt><trkpt lat="43.50574116065209" lon="12.355002378438641"><ele>554.2857142857142</ele><time>2026-04-26T10:01:03.001Z</time></trkpt><trkpt lat="43.505824392941854" lon="12.355023984224852"><ele>556.4285714285713</ele><time>2026-04-26T10:01:04.001Z</time></trkpt><trkpt lat="43.505894057626406" lon="12.355046572823179"><ele>558.5714285714286</ele><time>2026-04-26T10:01:05.001Z</time></trkpt><trkpt lat="43.50595759302283" lon="12.355060558377797"><ele>560.7142857142857</ele><time>2026-04-26T10:01:06.001Z</time></trkpt><trkpt lat="43.506031227516765" lon="12.355074927689694"><ele>562.8571428571428</ele><time>2026-04-26T10:01:07.001Z</time></trkpt><trkpt lat="43.50609816874626" lon="12.355087443423372"><ele>565.0</ele><time>2026-04-26T10:01:08.001Z</time></trkpt><trkpt lat="43.50616630281589" lon="12.35511116627329"><ele>568.0</ele><time>2026-04-26T10:01:09.001Z</time></trkpt><trkpt lat="43.506248882690585" lon="12.355131760971245"><ele>571.0</ele><time>2026-04-26T10:01:10.001Z</time></trkpt><trkpt lat="43.50631216176447" lon="12.355166696559492"><ele>574.0</ele><time>2026-04-26T10:01:11.001Z</time></trkpt><trkpt lat="43.50637544763371" lon="12.35519839674401"><ele>577.0</ele><time>2026-04-26T10:01:12.001Z</time></trkpt><trkpt lat="43.50649364334411" lon="12.3552636210983"><ele>580.0</ele><time>2026-04-26T10:01:14.001Z</time></trkpt><trkpt lat="43.506601655770716" lon="12.355376733104617"><ele>580.0</ele><time>2026-04-26T10:01:16.001Z</time></trkpt><trkpt lat="43.506652909188155" lon="12.355447628223443"><ele>580.0</ele><time>2026-04-26T10:01:17.001Z</time></trkpt><trkpt lat="43.506750358584725" lon="12.355575002545466"><ele>580.0</ele><time>2026-04-26T10:01:19.001Z</time></trkpt><trkpt lat="43.50685525803234" lon="12.355669994402387"><ele>580.0</ele><time>2026-04-26T10:01:21.001Z</time></trkpt><trkpt lat="43.506926975115185" lon="12.355698735387564"><ele>580.0</ele><time>2026-04-26T10:01:22.001Z</time></trkpt><trkpt lat="43.5069831077485" lon="12.355755928401564"><ele>580.0</ele><time>2026-04-26T10:01:23.001Z</time></trkpt><trkpt lat="43.50701271107861" lon="12.355842776074141"><ele>580.0</ele><time>2026-04-26T10:01:24.001Z</time></trkpt><trkpt lat="43.50704852036827" lon="12.35593603434667"><ele>580.0</ele><time>2026-04-26T10:01:25.001Z</time></trkpt><trkpt lat="43.507138595942706" lon="12.355998256830624"><ele>580.0</ele><time>2026-04-26T10:01:26.001Z</time></trkpt><trkpt lat="43.50722001190867" lon="12.356042655489764"><ele>580.0</ele><time>2026-04-26T10:01:27.001Z</time></trkpt><trkpt lat="43.50730709660771" lon="12.356100612044681"><ele>580.0</ele><time>2026-04-26T10:01:28.001Z</time></trkpt><trkpt lat="43.50739236381901" lon="12.356149412276732"><ele>580.0</ele><time>2026-04-26T10:01:29.001Z</time></trkpt><trkpt lat="43.50748672089233" lon="12.356204521377292"><ele>580.0</ele><time>2026-04-26T10:01:30.001Z</time></trkpt><trkpt lat="43.50756931312027" lon="12.356266703349778"><ele>580.0</ele><time>2026-04-26T10:01:31.001Z</time></trkpt><trkpt lat="43.507629897906014" lon="12.356308868116493"><ele>580.0</ele><time>2026-04-26T10:01:32.001Z</time></trkpt><trkpt lat="43.507705936873684" lon="12.35634076689998"><ele>580.0</ele><time>2026-04-26T10:01:33.001Z</time></trkpt><trkpt lat="43.507762916275574" lon="12.356408052989512"><ele>580.0</ele><time>2026-04-26T10:01:34.001Z</time></trkpt><trkpt lat="43.50781219036749" lon="12.356493693978166"><ele>580.6</ele><time>2026-04-26T10:01:35.001Z</time></trkpt><trkpt lat="43.507926388170155" lon="12.356592604488167"><ele>581.2</ele><time>2026-04-26T10:01:37.001Z</time></trkpt><trkpt lat="43.507993318357286" lon="12.356617764667456"><ele>581.8</ele><time>2026-04-26T10:01:38.001Z</time></trkpt><trkpt lat="43.50805784724606" lon="12.356615362030318"><ele>582.4</ele><time>2026-04-26T10:01:39.001Z</time></trkpt><trkpt lat="43.50814331905206" lon="12.356658089585512"><ele>583.0</ele><time>2026-04-26T10:01:41.001Z</time></trkpt><trkpt lat="43.50814681931008" lon="12.356782981335371"><ele>583.0</ele><time>2026-04-26T10:01:43.001Z</time></trkpt><trkpt lat="43.508143691569906" lon="12.356949743807698"><ele>583.0</ele><time>2026-04-26T10:01:45.001Z</time></trkpt><trkpt lat="43.50816050693109" lon="12.357120196696199"><ele>583.0</ele><time>2026-04-26T10:01:47.001Z</time></trkpt><trkpt lat="43.508185063279" lon="12.357272535311258"><ele>583.0</ele><time>2026-04-26T10:01:49Z</time></trkpt><trkpt lat="43.50822308160813" lon="12.357354493524214"><ele>583.0</ele><time>2026-04-26T10:01:50Z</time></trkpt><trkpt lat="43.50826040604363" lon="12.357428961865216"><ele>583.1666666666667</ele><time>2026-04-26T10:01:51Z</time></trkpt><trkpt lat="43.50831029752854" lon="12.357510708381255"><ele>583.3333333333334</ele><time>2026-04-26T10:01:52Z</time></trkpt><trkpt lat="43.508344119409074" lon="12.357594144901311"><ele>583.5</ele><time>2026-04-26T10:01:53Z</time></trkpt><trkpt lat="43.50837530965886" lon="12.357696237027458"><ele>583.6666666666666</ele><time>2026-04-26T10:01:54Z</time></trkpt><trkpt lat="43.50842593165267" lon="12.357867343931227"><ele>583.8333333333333</ele><time>2026-04-26T10:01:56Z</time></trkpt><trkpt lat="43.50842677887599" lon="12.357972832854147"><ele>584.0</ele><time>2026-04-26T10:01:57Z</time></trkpt><trkpt lat="43.50842030489849" lon="12.358060270305119"><ele>584.5</ele><time>2026-04-26T10:01:58Z</time></trkpt><trkpt lat="43.50842202684019" lon="12.35816109477287"><ele>585.0</ele><time>2026-04-26T10:01:59Z</time></trkpt><trkpt lat="43.508453328936476" lon="12.358318823718783"><ele>585.5</ele><time>2026-04-26T10:02:01Z</time></trkpt><trkpt lat="43.50847927438071" lon="12.358408594011525"><ele>586.0</ele><time>2026-04-26T10:02:02Z</time></trkpt><trkpt lat="43.50851317753649" lon="12.35848869004159"><ele>586.5</ele><time>2026-04-26T10:02:03Z</time></trkpt><trkpt lat="43.508563711802815" lon="12.358554993817004"><ele>587.0</ele><time>2026-04-26T10:02:04Z</time></trkpt><trkpt lat="43.50861909649099" lon="12.358601085106818"><ele>587.0</ele><time>2026-04-26T10:02:05Z</time></trkpt><trkpt lat="43.50869123317709" lon="12.358615800515446"><ele>587.0</ele><time>2026-04-26T10:02:06Z</time></trkpt><trkpt lat="43.508768317801206" lon="12.358629794219937"><ele>587.0</ele><time>2026-04-26T10:02:07Z</time></trkpt><trkpt lat="43.50884568536731" lon="12.358649872658596"><ele>587.0</ele><time>2026-04-26T10:02:08Z</time></trkpt><trkpt lat="43.508932833055404" lon="12.358684140501657"><ele>587.0</ele><time>2026-04-26T10:02:09Z</time></trkpt><trkpt lat="43.509010144875326" lon="12.358721922928092"><ele>587.0</ele><time>2026-04-26T10:02:10Z</time></trkpt><trkpt lat="43.50908734363258" lon="12.358762517350533"><ele>589.4</ele><time>2026-04-26T10:02:11Z</time></trkpt><trkpt lat="43.50917589152745" lon="12.35878254694545"><ele>591.8000000000001</ele><time>2026-04-26T10:02:12Z</time></trkpt><trkpt lat="43.509253855448776" lon="12.358790064527817"><ele>594.2</ele><time>2026-04-26T10:02:13Z</time></trkpt><trkpt lat="43.509370033820545" lon="12.35887605991911"><ele>596.6</ele><time>2026-04-26T10:02:15Z</time></trkpt><trkpt lat="43.509446500903245" lon="12.358998729342568"><ele>599.0</ele><time>2026-04-26T10:02:17Z</time></trkpt><trkpt lat="43.5095374812473" lon="12.35910410976068"><ele>603.6</ele><time>2026-04-26T10:02:19Z</time></trkpt><trkpt lat="43.50965039004605" lon="12.359184898330012"><ele>608.2</ele><time>2026-04-26T10:02:21Z</time></trkpt><trkpt lat="43.50977105579182" lon="12.359263458582895"><ele>612.8000000000001</ele><time>2026-04-26T10:02:23Z</time></trkpt><trkpt lat="43.50983073379534" lon="12.359297051067555"><ele>617.4</ele><time>2026-04-26T10:02:24Z</time></trkpt><trkpt lat="43.50993989739298" lon="12.359367540524902"><ele>622.0</ele><time>2026-04-26T10:02:26Z</time></trkpt><trkpt lat="43.5099997805564" lon="12.359402942684854"><ele>622.0</ele><time>2026-04-26T10:02:27Z</time></trkpt><trkpt lat="43.510065393762666" lon="12.359465346369591"><ele>622.0</ele><time>2026-04-26T10:02:28Z</time></trkpt><trkpt lat="43.5101303203941" lon="12.359532890378377"><ele>622.0</ele><time>2026-04-26T10:02:29Z</time></trkpt><trkpt lat="43.51019621926143" lon="12.35960512733051"><ele>622.0</ele><time>2026-04-26T10:02:30Z</time></trkpt><trkpt lat="43.510236421231895" lon="12.359681012433677"><ele>622.0</ele><time>2026-04-26T10:02:31Z</time></trkpt><trkpt lat="43.51027773165958" lon="12.359778830376452"><ele>622.0</ele><time>2026-04-26T10:02:32Z</time></trkpt><trkpt lat="43.5103079570672" lon="12.359899549260048"><ele>620.6</ele><time>2026-04-26T10:02:33Z</time></trkpt><trkpt lat="43.510343645132714" lon="12.36000964463802"><ele>619.2</ele><time>2026-04-26T10:02:34Z</time></trkpt><trkpt lat="43.51038208743593" lon="12.36012664966272"><ele>617.8</ele><time>2026-04-26T10:02:35Z</time></trkpt><trkpt lat="43.510413211525695" lon="12.360245781069597"><ele>616.4</ele><time>2026-04-26T10:02:36Z</time></trkpt><trkpt lat="43.51043061454574" lon="12.360406464078931"><ele>615.0</ele><time>2026-04-26T10:02:38Z</time></trkpt><trkpt lat="43.51042308910432" lon="12.36054733455856"><ele>615.0</ele><time>2026-04-26T10:02:40Z</time></trkpt><trkpt lat="43.51048934210704" lon="12.360664821555051"><ele>615.0</ele><time>2026-04-26T10:02:42Z</time></trkpt><trkpt lat="43.51055698852042" lon="12.360789217208655"><ele>615.0</ele><time>2026-04-26T10:02:44.001Z</time></trkpt><trkpt lat="43.510576069459944" lon="12.36087896133247"><ele>615.0</ele><time>2026-04-26T10:02:45.001Z</time></trkpt><trkpt lat="43.51061087127223" lon="12.361017442958936"><ele>615.0</ele><time>2026-04-26T10:02:47.001Z</time></trkpt><trkpt lat="43.51066013134478" lon="12.361097051124634"><ele>615.0</ele><time>2026-04-26T10:02:49.001Z</time></trkpt><trkpt lat="43.510720462281235" lon="12.361122941744917"><ele>615.0</ele><time>2026-04-26T10:02:50.001Z</time></trkpt><trkpt lat="43.51078237297987" lon="12.361148339659735"><ele>615.0</ele><time>2026-04-26T10:02:51.001Z</time></trkpt><trkpt lat="43.510874187942505" lon="12.36120836022547"><ele>615.0</ele><time>2026-04-26T10:02:53.001Z</time></trkpt><trkpt lat="43.51093131901533" lon="12.361342322278423"><ele>615.0</ele><time>2026-04-26T10:02:55.001Z</time></trkpt><trkpt lat="43.511030436896284" lon="12.36142492832715"><ele>616.0</ele><time>2026-04-26T10:02:57.001Z</time></trkpt><trkpt lat="43.511086110227254" lon="12.361470984391756"><ele>617.0</ele><time>2026-04-26T10:02:58.001Z</time></trkpt><trkpt lat="43.511145258560255" lon="12.361503527304546"><ele>618.0</ele><time>2026-04-26T10:02:59.001Z</time></trkpt><trkpt lat="43.51121420071185" lon="12.361534045491053"><ele>619.0</ele><time>2026-04-26T10:03:00.001Z</time></trkpt><trkpt lat="43.51131986452932" lon="12.361630555528262"><ele>620.0</ele><time>2026-04-26T10:03:02.001Z</time></trkpt><trkpt lat="43.51141987974437" lon="12.361697889853994"><ele>621.0</ele><time>2026-04-26T10:03:04.001Z</time></trkpt><trkpt lat="43.51150735208056" lon="12.361741436921408"><ele>623.6</ele><time>2026-04-26T10:03:06.001Z</time></trkpt><trkpt lat="43.511583349938526" lon="12.361787345446839"><ele>626.2</ele><time>2026-04-26T10:03:08.001Z</time></trkpt><trkpt lat="43.51164461586948" lon="12.361837362285272"><ele>628.8</ele><time>2026-04-26T10:03:50.001Z</time></trkpt><trkpt lat="43.51170520228345" lon="12.361950550062117"><ele>631.4</ele><time>2026-04-26T10:03:52.001Z</time></trkpt><trkpt lat="43.51172537006853" lon="12.36207763422058"><ele>634.0</ele><time>2026-04-26T10:03:54Z</time></trkpt><trkpt lat="43.51175360965543" lon="12.362211828015138"><ele>634.0</ele><time>2026-04-26T10:03:56Z</time></trkpt><trkpt lat="43.511758259685" lon="12.362337444324124"><ele>634.0</ele><time>2026-04-26T10:03:58Z</time></trkpt><trkpt lat="43.51184958633468" lon="12.362315979105878"><ele>634.0</ele><time>2026-04-26T10:04:01Z</time></trkpt><trkpt lat="43.51188947911403" lon="12.362239848011273"><ele>634.0</ele><time>2026-04-26T10:04:02Z</time></trkpt><trkpt lat="43.51195084248519" lon="12.362156152888774"><ele>634.0</ele><time>2026-04-26T10:04:04Z</time></trkpt><trkpt lat="43.51201074938938" lon="12.362231258971384"><ele>634.0</ele><time>2026-04-26T10:04:06Z</time></trkpt><trkpt lat="43.51199870845855" lon="12.362320539242079"><ele>635.75</ele><time>2026-04-26T10:04:07Z</time></trkpt><trkpt lat="43.51201301314901" lon="12.362463903417778"><ele>637.5</ele><time>2026-04-26T10:04:09Z</time></trkpt><trkpt lat="43.51214822039027" lon="12.362467220374976"><ele>639.25</ele><time>2026-04-26T10:04:11Z</time></trkpt><trkpt lat="43.51227627496128" lon="12.362439708438675"><ele>641.0</ele><time>2026-04-26T10:04:13Z</time></trkpt><trkpt lat="43.5123529841993" lon="12.362394112252062"><ele>642.5</ele><time>2026-04-26T10:04:14Z</time></trkpt><trkpt lat="43.512423668180745" lon="12.362327861441775"><ele>644.0</ele><time>2026-04-26T10:04:15Z</time></trkpt><trkpt lat="43.512498440358655" lon="12.362264459727099"><ele>645.5</ele><time>2026-04-26T10:04:16Z</time></trkpt><trkpt lat="43.51257221858322" lon="12.362226312685507"><ele>647.0</ele><time>2026-04-26T10:04:17Z</time></trkpt><trkpt lat="43.51263891454032" lon="12.362187855973293"><ele>648.5</ele><time>2026-04-26T10:04:18Z</time></trkpt><trkpt lat="43.51270866235528" lon="12.362156905326513"><ele>650.0</ele><time>2026-04-26T10:04:19Z</time></trkpt><trkpt lat="43.51281763962316" lon="12.362176896878509"><ele>652.1666666666666</ele><time>2026-04-26T10:04:21Z</time></trkpt><trkpt lat="43.512894497839106" lon="12.362198899697724"><ele>654.3333333333333</ele><time>2026-04-26T10:04:22Z</time></trkpt><trkpt lat="43.51297080943589" lon="12.36219965942431"><ele>656.5</ele><time>2026-04-26T10:04:23Z</time></trkpt><trkpt lat="43.51304653965567" lon="12.362194932417596"><ele>658.6666666666666</ele><time>2026-04-26T10:04:24Z</time></trkpt><trkpt lat="43.5131091874264" lon="12.362164964285482"><ele>660.8333333333334</ele><time>2026-04-26T10:04:25Z</time></trkpt><trkpt lat="43.51322372919404" lon="12.362102655044316"><ele>663.0</ele><time>2026-04-26T10:04:27Z</time></trkpt><trkpt lat="43.51331498881267" lon="12.361985751673737"><ele>663.0</ele><time>2026-04-26T10:04:29Z</time></trkpt><trkpt lat="43.513351177693345" lon="12.361902187303105"><ele>663.0</ele><time>2026-04-26T10:04:30Z</time></trkpt><trkpt lat="43.513446608585674" lon="12.361820527095523"><ele>663.0</ele><time>2026-04-26T10:04:32Z</time></trkpt><trkpt lat="43.51352092733106" lon="12.361694724729912"><ele>663.0</ele><time>2026-04-26T10:04:34Z</time></trkpt><trkpt lat="43.51354788941467" lon="12.36154796680436"><ele>663.0</ele><time>2026-04-26T10:04:36Z</time></trkpt><trkpt lat="43.51352916066145" lon="12.361455743984106"><ele>663.0</ele><time>2026-04-26T10:04:37Z</time></trkpt><trkpt lat="43.51349874479366" lon="12.361365613683517"><ele>663.0</ele><time>2026-04-26T10:04:38Z</time></trkpt><trkpt lat="43.51344970838593" lon="12.361290846354253"><ele>663.0</ele><time>2026-04-26T10:04:39Z</time></trkpt><trkpt lat="43.51338041086321" lon="12.361169012818815"><ele>663.0</ele><time>2026-04-26T10:04:41Z</time></trkpt><trkpt lat="43.5133417342958" lon="12.361087505148623"><ele>663.0</ele><time>2026-04-26T10:04:42Z</time></trkpt><trkpt lat="43.51330308550651" lon="12.360997899084296"><ele>663.0</ele><time>2026-04-26T10:04:43Z</time></trkpt><trkpt lat="43.51324981234453" lon="12.36093729186904"><ele>665.4</ele><time>2026-04-26T10:04:44Z</time></trkpt><trkpt lat="43.5131812971721" lon="12.360885181146621"><ele>667.8</ele><time>2026-04-26T10:04:45Z</time></trkpt><trkpt lat="43.51310975953309" lon="12.36074359673983"><ele>670.2</ele><time>2026-04-26T10:04:47.001Z</time></trkpt><trkpt lat="43.513066257236126" lon="12.360658073750239"><ele>672.6</ele><time>2026-04-26T10:04:48.001Z</time></trkpt><trkpt lat="43.5130017820282" lon="12.360571996355818"><ele>675.0</ele><time>2026-04-26T10:04:49.001Z</time></trkpt><trkpt lat="43.51295779727148" lon="12.360470524855746"><ele>673.8</ele><time>2026-04-26T10:04:50.001Z</time></trkpt><trkpt lat="43.512913484287054" lon="12.360388085642153"><ele>672.6</ele><time>2026-04-26T10:04:51.001Z</time></trkpt><trkpt lat="43.51286386521446" lon="12.360315274122627"><ele>671.4000000000001</ele><time>2026-04-26T10:04:52.001Z</time></trkpt><trkpt lat="43.51280110544591" lon="12.36024533946034"><ele>670.2</ele><time>2026-04-26T10:04:53.001Z</time></trkpt><trkpt lat="43.51270167229249" lon="12.360157138058232"><ele>669.0</ele><time>2026-04-26T10:04:55.001Z</time></trkpt><trkpt lat="43.51261281188344" lon="12.360033286441316"><ele>669.0</ele><time>2026-04-26T10:04:57.001Z</time></trkpt><trkpt lat="43.51257395710482" lon="12.359957103791393"><ele>669.0</ele><time>2026-04-26T10:04:58.001Z</time></trkpt><trkpt lat="43.51254664790056" lon="12.359851216728293"><ele>669.0</ele><time>2026-04-26T10:04:59.001Z</time></trkpt><trkpt lat="43.512526393551454" lon="12.359762618656372"><ele>669.0</ele><time>2026-04-26T10:05:00.001Z</time></trkpt><trkpt lat="43.512507344560845" lon="12.359593063559863"><ele>669.0</ele><time>2026-04-26T10:05:02.001Z</time></trkpt><trkpt lat="43.51251253918178" lon="12.359475220956295"><ele>669.0</ele><time>2026-04-26T10:05:03.001Z</time></trkpt><trkpt lat="43.51251685953721" lon="12.359354320263977"><ele>670.3333333333334</ele><time>2026-04-26T10:05:04.001Z</time></trkpt><trkpt lat="43.51251857296654" lon="12.359252845755192"><ele>671.6666666666666</ele><time>2026-04-26T10:05:05.001Z</time></trkpt><trkpt lat="43.51252089170911" lon="12.359164427132153"><ele>673.0</ele><time>2026-04-26T10:05:06.001Z</time></trkpt><trkpt lat="43.51257679013249" lon="12.359056139794491"><ele>674.3333333333333</ele><time>2026-04-26T10:05:08.001Z</time></trkpt><trkpt lat="43.51269104346589" lon="12.35897187096559"><ele>675.6666666666666</ele><time>2026-04-26T10:05:10.001Z</time></trkpt><trkpt lat="43.51274842706807" lon="12.35893394652412"><ele>677.0</ele><time>2026-04-26T10:05:11.001Z</time></trkpt><trkpt lat="43.51281215651366" lon="12.358912162443875"><ele>677.8</ele><time>2026-04-26T10:05:12.001Z</time></trkpt><trkpt lat="43.51293240327661" lon="12.358922163318024"><ele>678.6</ele><time>2026-04-26T10:05:14.001Z</time></trkpt><trkpt lat="43.51304269612023" lon="12.35880159700722"><ele>679.4</ele><time>2026-04-26T10:05:16.001Z</time></trkpt><trkpt lat="43.51310212065334" lon="12.35874992496518"><ele>680.1999999999999</ele><time>2026-04-26T10:05:17.001Z</time></trkpt><trkpt lat="43.513177884432" lon="12.358709804259323"><ele>681.0</ele><time>2026-04-26T10:05:18.001Z</time></trkpt><trkpt lat="43.51326499026411" lon="12.35868033409713"><ele>681.0</ele><time>2026-04-26T10:05:19.001Z</time></trkpt><trkpt lat="43.51334448241681" lon="12.358659050846176"><ele>681.0</ele><time>2026-04-26T10:05:20.001Z</time></trkpt><trkpt lat="43.513422145804725" lon="12.358642828685076"><ele>681.0</ele><time>2026-04-26T10:05:21.001Z</time></trkpt><trkpt lat="43.51351411475845" lon="12.358617989078551"><ele>681.0</ele><time>2026-04-26T10:05:22.001Z</time></trkpt><trkpt lat="43.51360083314912" lon="12.35859659524813"><ele>681.0</ele><time>2026-04-26T10:05:23.001Z</time></trkpt><trkpt lat="43.513691241769386" lon="12.358573367761098"><ele>681.0</ele><time>2026-04-26T10:05:24.001Z</time></trkpt><trkpt lat="43.51378753408279" lon="12.358555691062724"><ele>685.1999999999999</ele><time>2026-04-26T10:05:25.001Z</time></trkpt><trkpt lat="43.51386485939225" lon="12.35852711121583"><ele>689.4</ele><time>2026-04-26T10:05:26.001Z</time></trkpt><trkpt lat="43.51393290797588" lon="12.358475004403417"><ele>693.6</ele><time>2026-04-26T10:05:27.001Z</time></trkpt><trkpt lat="43.51399350826003" lon="12.358377734670666"><ele>697.8</ele><time>2026-04-26T10:05:28.001Z</time></trkpt><trkpt lat="43.51404649484628" lon="12.358259829326247"><ele>702.0</ele><time>2026-04-26T10:05:29.001Z</time></trkpt><trkpt lat="43.51411585001666" lon="12.358150677747249"><ele>702.0</ele><time>2026-04-26T10:05:30.001Z</time></trkpt><trkpt lat="43.5141944135184" lon="12.358049270488026"><ele>702.0</ele><time>2026-04-26T10:05:31.001Z</time></trkpt><trkpt lat="43.51427789074169" lon="12.357964295383935"><ele>702.0</ele><time>2026-04-26T10:05:32.001Z</time></trkpt><trkpt lat="43.5143623366556" lon="12.35788815813129"><ele>702.0</ele><time>2026-04-26T10:05:33.001Z</time></trkpt><trkpt lat="43.514436552001165" lon="12.357816817140181"><ele>702.0</ele><time>2026-04-26T10:05:34.001Z</time></trkpt><trkpt lat="43.5144952040938" lon="12.35773228450774"><ele>700.4000000000001</ele><time>2026-04-26T10:05:35.001Z</time></trkpt><trkpt lat="43.51453327317778" lon="12.357621433717274"><ele>698.8000000000001</ele><time>2026-04-26T10:05:36.001Z</time></trkpt><trkpt lat="43.51454782416769" lon="12.357499044208712"><ele>697.2</ele><time>2026-04-26T10:05:37.001Z</time></trkpt><trkpt lat="43.51454737157679" lon="12.357385084249799"><ele>695.6</ele><time>2026-04-26T10:05:38.001Z</time></trkpt><trkpt lat="43.51462065327057" lon="12.357240638051875"><ele>694.0</ele><time>2026-04-26T10:05:40.001Z</time></trkpt><trkpt lat="43.514693796848455" lon="12.357186253900554"><ele>697.4000000000001</ele><time>2026-04-26T10:05:41.001Z</time></trkpt><trkpt lat="43.514781226575806" lon="12.357135104690434"><ele>700.8</ele><time>2026-04-26T10:05:42.001Z</time></trkpt><trkpt lat="43.51487655490339" lon="12.357115896371488"><ele>704.2</ele><time>2026-04-26T10:05:43.001Z</time></trkpt><trkpt lat="43.5149661702805" lon="12.357086076480737"><ele>707.5999999999999</ele><time>2026-04-26T10:05:44.001Z</time></trkpt><trkpt lat="43.51505873469976" lon="12.357051729307312"><ele>711.0</ele><time>2026-04-26T10:05:45.001Z</time></trkpt><trkpt lat="43.51515377424794" lon="12.357032914314116"><ele>711.0</ele><time>2026-04-26T10:05:46.001Z</time></trkpt><trkpt lat="43.51524235642085" lon="12.357018466411025"><ele>711.0</ele><time>2026-04-26T10:05:47.001Z</time></trkpt><trkpt lat="43.51532275923821" lon="12.357005508430769"><ele>711.0</ele><time>2026-04-26T10:05:48.001Z</time></trkpt><trkpt lat="43.515394661458025" lon="12.35699528030472"><ele>711.0</ele><time>2026-04-26T10:05:49.001Z</time></trkpt><trkpt lat="43.5154851180753" lon="12.357089804031059"><ele>711.0</ele><time>2026-04-26T10:05:51.001Z</time></trkpt><trkpt lat="43.51548916689324" lon="12.357189112739968"><ele>711.0</ele><time>2026-04-26T10:05:52.001Z</time></trkpt><trkpt lat="43.515468648522585" lon="12.35728624792221"><ele>712.8</ele><time>2026-04-26T10:05:53.001Z</time></trkpt><trkpt lat="43.5154162502499" lon="12.357382035082969"><ele>714.5999999999999</ele><time>2026-04-26T10:05:54.001Z</time></trkpt><trkpt lat="43.515360271566266" lon="12.357453913541008"><ele>716.4</ele><time>2026-04-26T10:05:55.001Z</time></trkpt><trkpt lat="43.51534412789848" lon="12.357571080033017"><ele>718.2</ele><time>2026-04-26T10:05:57.001Z</time></trkpt><trkpt lat="43.51544298183388" lon="12.357619700360756"><ele>720.0</ele><time>2026-04-26T10:05:59.001Z</time></trkpt><trkpt lat="43.51554300623845" lon="12.357547835080922"><ele>722.3333333333334</ele><time>2026-04-26T10:06:01Z</time></trkpt><trkpt lat="43.515650572436236" lon="12.357471897318828"><ele>724.6666666666666</ele><time>2026-04-26T10:06:03Z</time></trkpt><trkpt lat="43.515737195662396" lon="12.357394712990002"><ele>727.0</ele><time>2026-04-26T10:06:05Z</time></trkpt><trkpt lat="43.51579693594333" lon="12.357344549951156"><ele>729.3333333333333</ele><time>2026-04-26T10:06:07Z</time></trkpt><trkpt lat="43.515827946354" lon="12.357230400079091"><ele>731.6666666666666</ele><time>2026-04-26T10:06:29Z</time></trkpt><trkpt lat="43.515812721967585" lon="12.357141720889773"><ele>734.0</ele><time>2026-04-26T10:06:30Z</time></trkpt><trkpt lat="43.515776628033805" lon="12.357059445839694"><ele>734.0</ele><time>2026-04-26T10:06:31Z</time></trkpt><trkpt lat="43.5157264605745" lon="12.356982404382961"><ele>734.0</ele><time>2026-04-26T10:06:32Z</time></trkpt><trkpt lat="43.51569297521419" lon="12.356896418101922"><ele>734.0</ele><time>2026-04-26T10:06:33Z</time></trkpt><trkpt lat="43.51566944920983" lon="12.356791652623441"><ele>734.0</ele><time>2026-04-26T10:06:34Z</time></trkpt><trkpt lat="43.51564972308824" lon="12.35668566685838"><ele>734.0</ele><time>2026-04-26T10:06:35Z</time></trkpt><trkpt lat="43.515630643935836" lon="12.356581067982818"><ele>734.0</ele><time>2026-04-26T10:06:36Z</time></trkpt><trkpt lat="43.51561418608931" lon="12.356489588546093"><ele>734.0</ele><time>2026-04-26T10:06:37Z</time></trkpt><trkpt lat="43.515609734092514" lon="12.35639904618573"><ele>734.0</ele><time>2026-04-26T10:06:38Z</time></trkpt><trkpt lat="43.51560968633635" lon="12.356309594418013"><ele>734.0</ele><time>2026-04-26T10:06:39Z</time></trkpt><trkpt lat="43.51562058923109" lon="12.356220202921618"><ele>734.0</ele><time>2026-04-26T10:06:40Z</time></trkpt><trkpt lat="43.515663140129845" lon="12.356071848188442"><ele>734.0</ele><time>2026-04-26T10:06:42Z</time></trkpt><trkpt lat="43.51570451555762" lon="12.355969225245298"><ele>734.0</ele><time>2026-04-26T10:06:44Z</time></trkpt><trkpt lat="43.515753233330756" lon="12.35588254299093"><ele>733.3333333333333</ele><time>2026-04-26T10:06:46Z</time></trkpt><trkpt lat="43.515795799510826" lon="12.355810557807212"><ele>732.6666666666666</ele><time>2026-04-26T10:06:48Z</time></trkpt><trkpt lat="43.515855596138785" lon="12.355777313064696"><ele>732.0</ele><time>2026-04-26T10:06:51Z</time></trkpt><trkpt lat="43.51594458772959" lon="12.355681173478217"><ele>731.3333333333334</ele><time>2026-04-26T10:06:54Z</time></trkpt><trkpt lat="43.515984404085025" lon="12.35559596430061"><ele>730.6666666666667</ele><time>2026-04-26T10:06:55Z</time></trkpt><trkpt lat="43.51602342522748" lon="12.355506240425747"><ele>730.0</ele><time>2026-04-26T10:06:56Z</time></trkpt><trkpt lat="43.51605861904434" lon="12.35542543547749"><ele>728.3333333333334</ele><time>2026-04-26T10:06:57Z</time></trkpt><trkpt lat="43.51611203605176" lon="12.355294160553825"><ele>726.6666666666666</ele><time>2026-04-26T10:06:59Z</time></trkpt><trkpt lat="43.51643009171906" lon="12.35543348466277"><ele>725.0</ele><time>2026-04-26T10:07:00Z</time></trkpt><trkpt lat="43.51651414100226" lon="12.355405763326045"><ele>729.6</ele><time>2026-04-26T10:07:01Z</time></trkpt><trkpt lat="43.51657443138086" lon="12.355366615265872"><ele>734.2</ele><time>2026-04-26T10:07:02Z</time></trkpt><trkpt lat="43.51666791205313" lon="12.355227813267284"><ele>738.8</ele><time>2026-04-26T10:07:04Z</time></trkpt><trkpt lat="43.51670791848121" lon="12.355116924708948"><ele>743.4</ele><time>2026-04-26T10:07:05Z</time></trkpt><trkpt lat="43.51674542304418" lon="12.354982645450999"><ele>748.0</ele><time>2026-04-26T10:07:06Z</time></trkpt><trkpt lat="43.51678861142731" lon="12.354851557017598"><ele>748.0</ele><time>2026-04-26T10:07:07Z</time></trkpt><trkpt lat="43.5168415709071" lon="12.354722024362593"><ele>748.0</ele><time>2026-04-26T10:07:08Z</time></trkpt><trkpt lat="43.51688039812886" lon="12.354600311974428"><ele>748.0</ele><time>2026-04-26T10:07:09Z</time></trkpt><trkpt lat="43.51691730002847" lon="12.354511876035861"><ele>748.0</ele><time>2026-04-26T10:07:10Z</time></trkpt><trkpt lat="43.517041408811856" lon="12.354450303305294"><ele>748.0</ele><time>2026-04-26T10:07:12Z</time></trkpt><trkpt lat="43.517128606564455" lon="12.354466274705707"><ele>752.4</ele><time>2026-04-26T10:07:13Z</time></trkpt><trkpt lat="43.517229523765614" lon="12.354504896048537"><ele>756.8</ele><time>2026-04-26T10:07:14Z</time></trkpt><trkpt lat="43.517330750818275" lon="12.354542622294701"><ele>761.2</ele><time>2026-04-26T10:07:15Z</time></trkpt><trkpt lat="43.51743458782953" lon="12.354570853035693"><ele>765.6</ele><time>2026-04-26T10:07:16Z</time></trkpt><trkpt lat="43.51754063811115" lon="12.354585817414348"><ele>770.0</ele><time>2026-04-26T10:07:17Z</time></trkpt><trkpt lat="43.51764557036506" lon="12.354596632077678"><ele>770.0000000000001</ele><time>2026-04-26T10:07:18Z</time></trkpt><trkpt lat="43.517738332918384" lon="12.354587433664133"><ele>770.0</ele><time>2026-04-26T10:07:19Z</time></trkpt><trkpt lat="43.51783003182684" lon="12.354559111526418"><ele>770.0</ele><time>2026-04-26T10:07:20.001Z</time></trkpt><trkpt lat="43.51789433299474" lon="12.354516917760012"><ele>770.0</ele><time>2026-04-26T10:07:21.001Z</time></trkpt><trkpt lat="43.51794366586492" lon="12.354462778221091"><ele>770.0000000000001</ele><time>2026-04-26T10:07:22.001Z</time></trkpt><trkpt lat="43.51798295006603" lon="12.354298314884428"><ele>770.0</ele><time>2026-04-26T10:07:24.001Z</time></trkpt><trkpt lat="43.517983808774765" lon="12.354173944841936"><ele>769.0000000000001</ele><time>2026-04-26T10:07:25.001Z</time></trkpt><trkpt lat="43.51798060345436" lon="12.35404371877905"><ele>768.0</ele><time>2026-04-26T10:07:26.001Z</time></trkpt><trkpt lat="43.517986951461886" lon="12.353934223353662"><ele>767.0</ele><time>2026-04-26T10:07:27.001Z</time></trkpt><trkpt lat="43.51801591083385" lon="12.35381603306034"><ele>766.0</ele><time>2026-04-26T10:07:28.001Z</time></trkpt><trkpt lat="43.51806306567011" lon="12.353733770691225"><ele>765.0</ele><time>2026-04-26T10:07:29.001Z</time></trkpt><trkpt lat="43.518132703286014" lon="12.353683979810002"><ele>764.0</ele><time>2026-04-26T10:07:30.001Z</time></trkpt><trkpt lat="43.51821180276822" lon="12.353655363655575"><ele>766.4000000000001</ele><time>2026-04-26T10:07:31.001Z</time></trkpt><trkpt lat="43.51830783738784" lon="12.353632239056587"><ele>768.8</ele><time>2026-04-26T10:07:32.001Z</time></trkpt><trkpt lat="43.51836915197158" lon="12.353607847022467"><ele>771.2</ele><time>2026-04-26T10:07:33.001Z</time></trkpt><trkpt lat="43.518424738875055" lon="12.353490834938086"><ele>773.5999999999999</ele><time>2026-04-26T10:07:35.001Z</time></trkpt><trkpt lat="43.518360129194754" lon="12.353342103885712"><ele>776.0</ele><time>2026-04-26T10:07:37.001Z</time></trkpt><trkpt lat="43.518327757310935" lon="12.353246013681309"><ele>776.0000000000001</ele><time>2026-04-26T10:07:38.001Z</time></trkpt><trkpt lat="43.518299143661714" lon="12.353127747814726"><ele>776.0</ele><time>2026-04-26T10:07:39.001Z</time></trkpt><trkpt lat="43.51827917016689" lon="12.35300807887871"><ele>776.0</ele><time>2026-04-26T10:07:40.001Z</time></trkpt><trkpt lat="43.51825072880006" lon="12.352904103395437"><ele>776.0</ele><time>2026-04-26T10:07:41.001Z</time></trkpt><trkpt lat="43.518223769071284" lon="12.352780390327943"><ele>776.0000000000001</ele><time>2026-04-26T10:07:42.001Z</time></trkpt><trkpt lat="43.518209027114494" lon="12.352676144496225"><ele>776.0</ele><time>2026-04-26T10:07:43.001Z</time></trkpt><trkpt lat="43.51818406513542" lon="12.352573605864714"><ele>777.0000000000001</ele><time>2026-04-26T10:07:44.001Z</time></trkpt><trkpt lat="43.518143977866416" lon="12.35248710054178"><ele>778.0</ele><time>2026-04-26T10:07:45.001Z</time></trkpt><trkpt lat="43.5181104700345" lon="12.352394342187594"><ele>779.0</ele><time>2026-04-26T10:07:46.001Z</time></trkpt><trkpt lat="43.5180821564585" lon="12.352265110826423"><ele>780.0</ele><time>2026-04-26T10:07:47.001Z</time></trkpt><trkpt lat="43.51806729187012" lon="12.352146647836829"><ele>781.0000000000001</ele><time>2026-04-26T10:07:48.001Z</time></trkpt><trkpt lat="43.5180849332918" lon="12.352046047517986"><ele>782.0</ele><time>2026-04-26T10:07:49.001Z</time></trkpt><trkpt lat="43.51812884303291" lon="12.351975271714938"><ele>784.6</ele><time>2026-04-26T10:07:50.001Z</time></trkpt><trkpt lat="43.51819317268223" lon="12.351891777313554"><ele>787.2</ele><time>2026-04-26T10:07:51.001Z</time></trkpt><trkpt lat="43.51828607040166" lon="12.35180569147044"><ele>789.8</ele><time>2026-04-26T10:07:52.001Z</time></trkpt><trkpt lat="43.51838082469547" lon="12.351731990622605"><ele>792.4</ele><time>2026-04-26T10:07:53.001Z</time></trkpt><trkpt lat="43.518474029996035" lon="12.351648698943189"><ele>795.0</ele><time>2026-04-26T10:07:54.001Z</time></trkpt><trkpt lat="43.51856249445772" lon="12.351561194696007"><ele>795.0</ele><time>2026-04-26T10:07:55.001Z</time></trkpt><trkpt lat="43.51864162191767" lon="12.351473812801007"><ele>795.0</ele><time>2026-04-26T10:07:56.001Z</time></trkpt><trkpt lat="43.518716494765506" lon="12.351419865979027"><ele>795.0</ele><time>2026-04-26T10:07:57.001Z</time></trkpt><trkpt lat="43.5187977597689" lon="12.351375438773621"><ele>795.0</ele><time>2026-04-26T10:07:58.001Z</time></trkpt><trkpt lat="43.51885266586189" lon="12.351255300807281"><ele>795.0</ele><time>2026-04-26T10:08:00.001Z</time></trkpt><trkpt lat="43.51884576302274" lon="12.351093460812557"><ele>795.8</ele><time>2026-04-26T10:08:02.001Z</time></trkpt><trkpt lat="43.51888158479999" lon="12.350960904029188"><ele>796.6</ele><time>2026-04-26T10:08:04.001Z</time></trkpt><trkpt lat="43.51892211090525" lon="12.350880031174789"><ele>797.4000000000001</ele><time>2026-04-26T10:08:05.001Z</time></trkpt><trkpt lat="43.518933340256645" lon="12.350785634648236"><ele>798.2</ele><time>2026-04-26T10:08:05.998Z</time></trkpt><trkpt lat="43.51891087813711" lon="12.350675756760225"><ele>799.0</ele><time>2026-04-26T10:08:06.998Z</time></trkpt><trkpt lat="43.51889610705484" lon="12.350485993043073"><ele>797.1666666666666</ele><time>2026-04-26T10:08:08.998Z</time></trkpt><trkpt lat="43.518917112648445" lon="12.350379908654883"><ele>795.3333333333333</ele><time>2026-04-26T10:08:09.998Z</time></trkpt><trkpt lat="43.51895953695077" lon="12.350275242288317"><ele>793.5</ele><time>2026-04-26T10:08:10.998Z</time></trkpt><trkpt lat="43.51901883783623" lon="12.350202112234726"><ele>791.6666666666667</ele><time>2026-04-26T10:08:11.998Z</time></trkpt><trkpt lat="43.519081922247054" lon="12.35013518309426"><ele>789.8333333333334</ele><time>2026-04-26T10:08:12.998Z</time></trkpt><trkpt lat="43.51915099586465" lon="12.350043303710299"><ele>788.0</ele><time>2026-04-26T10:08:13.998Z</time></trkpt><trkpt lat="43.51921875375816" lon="12.349940592024435"><ele>788.0000000000001</ele><time>2026-04-26T10:08:14.998Z</time></trkpt><trkpt lat="43.51926465127137" lon="12.349838333936981"><ele>788.0</ele><time>2026-04-26T10:08:15.999Z</time></trkpt><trkpt lat="43.51930316110656" lon="12.349749121229056"><ele>788.0</ele><time>2026-04-26T10:08:16.999Z</time></trkpt><trkpt lat="43.51935194618758" lon="12.349660969040889"><ele>788.0</ele><time>2026-04-26T10:08:17.999Z</time></trkpt><trkpt lat="43.51941972702544" lon="12.34956967559249"><ele>788.0000000000001</ele><time>2026-04-26T10:08:18.999Z</time></trkpt><trkpt lat="43.51948630928847" lon="12.349474482027183"><ele>788.0</ele><time>2026-04-26T10:08:19.999Z</time></trkpt><trkpt lat="43.51955171834495" lon="12.349359632535418"><ele>788.6666666666667</ele><time>2026-04-26T10:08:20.999Z</time></trkpt><trkpt lat="43.51961169756296" lon="12.34926471186499"><ele>789.3333333333334</ele><time>2026-04-26T10:08:21.999Z</time></trkpt><trkpt lat="43.51967109576582" lon="12.349195807782603"><ele>790.0</ele><time>2026-04-26T10:08:22.999Z</time></trkpt><trkpt lat="43.5197397892058" lon="12.34914426084508"><ele>790.6666666666667</ele><time>2026-04-26T10:08:23.999Z</time></trkpt><trkpt lat="43.51984851029209" lon="12.349110713034474"><ele>791.3333333333334</ele><time>2026-04-26T10:08:25.999Z</time></trkpt><trkpt lat="43.519926585019356" lon="12.349065778539243"><ele>792.0</ele><time>2026-04-26T10:08:27.999Z</time></trkpt><trkpt lat="43.51995102889535" lon="12.348934228496724"><ele>790.0</ele><time>2026-04-26T10:08:29.999Z</time></trkpt><trkpt lat="43.5199877129642" lon="12.34886273762031"><ele>788.0</ele><time>2026-04-26T10:08:37.999Z</time></trkpt><trkpt lat="43.52003786809212" lon="12.348793360304292"><ele>786.0</ele><time>2026-04-26T10:08:41.999Z</time></trkpt><trkpt lat="43.520077627486295" lon="12.348724855398885"><ele>784.0</ele><time>2026-04-26T10:08:44Z</time></trkpt><trkpt lat="43.52012239542111" lon="12.348617614763238"><ele>782.0</ele><time>2026-04-26T10:08:46Z</time></trkpt><trkpt lat="43.520106667265345" lon="12.348480565399047"><ele>780.0</ele><time>2026-04-26T10:08:48Z</time></trkpt><trkpt lat="43.520104578820636" lon="12.34839306023642"><ele>780.0</ele><time>2026-04-26T10:08:49Z</time></trkpt><trkpt lat="43.52012847375212" lon="12.348308005378676"><ele>780.0</ele><time>2026-04-26T10:08:50Z</time></trkpt><trkpt lat="43.52016815651365" lon="12.348237933598634"><ele>780.0</ele><time>2026-04-26T10:08:51Z</time></trkpt><trkpt lat="43.5202367954999" lon="12.348174678302854"><ele>780.0</ele><time>2026-04-26T10:08:52Z</time></trkpt><trkpt lat="43.52029935071631" lon="12.34811856675518"><ele>780.0</ele><time>2026-04-26T10:08:53Z</time></trkpt><trkpt lat="43.52034817680447" lon="12.348043235229184"><ele>780.0</ele><time>2026-04-26T10:08:55Z</time></trkpt><trkpt lat="43.520409086724925" lon="12.348006348345804"><ele>780.0</ele><time>2026-04-26T10:08:58Z</time></trkpt><trkpt lat="43.52049282165068" lon="12.347927737232098"><ele>783.2</ele><time>2026-04-26T10:09:00Z</time></trkpt><trkpt lat="43.520586470516214" lon="12.347878206395272"><ele>786.4</ele><time>2026-04-26T10:09:02Z</time></trkpt><trkpt lat="43.520584162090216" lon="12.34772654166759"><ele>789.5999999999999</ele><time>2026-04-26T10:09:04Z</time></trkpt><trkpt lat="43.520550521765784" lon="12.347604409945387"><ele>792.8</ele><time>2026-04-26T10:09:05Z</time></trkpt><trkpt lat="43.520578525319095" lon="12.347441887087689"><ele>796.0</ele><time>2026-04-26T10:09:07Z</time></trkpt><trkpt lat="43.52063413655922" lon="12.347364235912845"><ele>796.0</ele><time>2026-04-26T10:09:08Z</time></trkpt><trkpt lat="43.52065284810506" lon="12.34727178119319"><ele>796.0</ele><time>2026-04-26T10:09:09Z</time></trkpt><trkpt lat="43.52063670638144" lon="12.347172968334677"><ele>796.0</ele><time>2026-04-26T10:09:10Z</time></trkpt><trkpt lat="43.52057873829651" lon="12.346999035581417"><ele>796.0</ele><time>2026-04-26T10:09:12Z</time></trkpt><trkpt lat="43.520553016530734" lon="12.346841197104009"><ele>796.0</ele><time>2026-04-26T10:09:14Z</time></trkpt><trkpt lat="43.52054485816455" lon="12.34674876989465"><ele>796.1999999999999</ele><time>2026-04-26T10:09:15Z</time></trkpt><trkpt lat="43.52057417743383" lon="12.346580483551323"><ele>796.4</ele><time>2026-04-26T10:09:17Z</time></trkpt><trkpt lat="43.5205148188709" lon="12.346440906606224"><ele>796.6</ele><time>2026-04-26T10:09:19Z</time></trkpt><trkpt lat="43.52052215131266" lon="12.346294387439334"><ele>796.8</ele><time>2026-04-26T10:09:21Z</time></trkpt><trkpt lat="43.52053807568873" lon="12.346188731563823"><ele>797.0</ele><time>2026-04-26T10:09:22Z</time></trkpt><trkpt lat="43.520519251280604" lon="12.346019991453506"><ele>797.0000000000001</ele><time>2026-04-26T10:09:24Z</time></trkpt><trkpt lat="43.520577641081935" lon="12.345902304843678"><ele>797.0</ele><time>2026-04-26T10:09:26Z</time></trkpt><trkpt lat="43.52064022943411" lon="12.345835916295245"><ele>797.0</ele><time>2026-04-26T10:09:27Z</time></trkpt><trkpt lat="43.520708848452294" lon="12.345781738500836"><ele>797.0</ele><time>2026-04-26T10:09:28Z</time></trkpt><trkpt lat="43.52079261510777" lon="12.345725019894196"><ele>797.0000000000001</ele><time>2026-04-26T10:09:29Z</time></trkpt><trkpt lat="43.520873489478156" lon="12.34566840942376"><ele>797.0</ele><time>2026-04-26T10:09:30Z</time></trkpt><trkpt lat="43.52095083289833" lon="12.345592179489415"><ele>795.6666666666667</ele><time>2026-04-26T10:09:31Z</time></trkpt><trkpt lat="43.521031081017284" lon="12.345527033243076"><ele>794.3333333333334</ele><time>2026-04-26T10:09:32Z</time></trkpt><trkpt lat="43.521098138777525" lon="12.345442226211253"><ele>793.0</ele><time>2026-04-26T10:09:33Z</time></trkpt><trkpt lat="43.52116723490167" lon="12.34536996331449"><ele>791.6666666666667</ele><time>2026-04-26T10:09:34Z</time></trkpt><trkpt lat="43.521227710000765" lon="12.345298300042533"><ele>790.3333333333334</ele><time>2026-04-26T10:09:35Z</time></trkpt><trkpt lat="43.521272208753054" lon="12.345230682896766"><ele>789.0</ele><time>2026-04-26T10:09:36Z</time></trkpt><trkpt lat="43.52133380149829" lon="12.345052161601597"><ele>789.0</ele><time>2026-04-26T10:09:38Z</time></trkpt><trkpt lat="43.521350965576886" lon="12.344925358920277"><ele>789.0</ele><time>2026-04-26T10:09:39Z</time></trkpt><trkpt lat="43.52137884578311" lon="12.344823788592958"><ele>789.0</ele><time>2026-04-26T10:09:40Z</time></trkpt><trkpt lat="43.5214089166924" lon="12.344743095073653"><ele>789.0</ele><time>2026-04-26T10:09:41.001Z</time></trkpt><trkpt lat="43.52146161775081" lon="12.34466974192039"><ele>789.0</ele><time>2026-04-26T10:09:42.001Z</time></trkpt><trkpt lat="43.52152239767712" lon="12.344642397631183"><ele>789.0</ele><time>2026-04-26T10:09:43.001Z</time></trkpt><trkpt lat="43.52159867971605" lon="12.344606695187403"><ele>789.2</ele><time>2026-04-26T10:09:45.001Z</time></trkpt><trkpt lat="43.52165283504519" lon="12.344530897783773"><ele>789.4000000000001</ele><time>2026-04-26T10:09:48.001Z</time></trkpt><trkpt lat="43.52170466084397" lon="12.34441610962274"><ele>789.6</ele><time>2026-04-26T10:09:53.001Z</time></trkpt><trkpt lat="43.521754879503355" lon="12.34424798910675"><ele>789.8</ele><time>2026-04-26T10:09:55.001Z</time></trkpt><trkpt lat="43.52174197439003" lon="12.344075540824912"><ele>790.0</ele><time>2026-04-26T10:09:57.001Z</time></trkpt><trkpt lat="43.52170419109522" lon="12.343988190533075"><ele>790.0</ele><time>2026-04-26T10:09:58.001Z</time></trkpt><trkpt lat="43.52163389621087" lon="12.343912556762621"><ele>790.0</ele><time>2026-04-26T10:09:59.001Z</time></trkpt><trkpt lat="43.52155316269242" lon="12.343852235710331"><ele>790.0</ele><time>2026-04-26T10:10:00.001Z</time></trkpt><trkpt lat="43.5214597585047" lon="12.34377202807076"><ele>790.0</ele><time>2026-04-26T10:10:01.001Z</time></trkpt><trkpt lat="43.52137720282907" lon="12.343698852885113"><ele>790.0</ele><time>2026-04-26T10:10:02.001Z</time></trkpt><trkpt lat="43.52132580985518" lon="12.3436307714701"><ele>788.8333333333333</ele><time>2026-04-26T10:10:03.001Z</time></trkpt><trkpt lat="43.5212693175676" lon="12.343559845030928"><ele>787.6666666666666</ele><time>2026-04-26T10:10:04.001Z</time></trkpt><trkpt lat="43.521220226588156" lon="12.343485402767959"><ele>786.5</ele><time>2026-04-26T10:10:05.001Z</time></trkpt><trkpt lat="43.521174014590926" lon="12.343414869598034"><ele>785.3333333333333</ele><time>2026-04-26T10:10:06.001Z</time></trkpt><trkpt lat="43.52113608264615" lon="12.34323505433965"><ele>784.1666666666666</ele><time>2026-04-26T10:10:08.001Z</time></trkpt><trkpt lat="43.521137493131796" lon="12.34314278920329"><ele>783.0</ele><time>2026-04-26T10:10:09.001Z</time></trkpt><trkpt lat="43.52109968502487" lon="12.343036020014445"><ele>782.6666666666666</ele><time>2026-04-26T10:10:10.001Z</time></trkpt><trkpt lat="43.52106523846034" lon="12.34293585854985"><ele>782.3333333333333</ele><time>2026-04-26T10:10:11.001Z</time></trkpt><trkpt lat="43.52103697017381" lon="12.342838225904881"><ele>782.0</ele><time>2026-04-26T10:10:11.999Z</time></trkpt><trkpt lat="43.521021465567486" lon="12.34273840815022"><ele>781.6666666666666</ele><time>2026-04-26T10:10:12.999Z</time></trkpt><trkpt lat="43.52101473966045" lon="12.34263745423486"><ele>781.3333333333333</ele><time>2026-04-26T10:10:13.999Z</time></trkpt><trkpt lat="43.52103738248731" lon="12.342486506488184"><ele>781.0</ele><time>2026-04-26T10:10:15.999Z</time></trkpt><trkpt lat="43.52108243385016" lon="12.34241585198409"><ele>780.9999999999999</ele><time>2026-04-26T10:10:16.999Z</time></trkpt><trkpt lat="43.521156895839916" lon="12.342336254976644"><ele>781.0</ele><time>2026-04-26T10:10:17.999Z</time></trkpt><trkpt lat="43.52122703207996" lon="12.342284190640479"><ele>781.0</ele><time>2026-04-26T10:10:18.999Z</time></trkpt><trkpt lat="43.521275380308786" lon="12.342214361841151"><ele>781.0</ele><time>2026-04-26T10:10:19.999Z</time></trkpt><trkpt lat="43.52134097814358" lon="12.342089546818091"><ele>780.9999999999999</ele><time>2026-04-26T10:10:21.999Z</time></trkpt><trkpt lat="43.52138519644664" lon="12.342016154652162"><ele>781.0</ele><time>2026-04-26T10:10:22.999Z</time></trkpt><trkpt lat="43.52143575834726" lon="12.341954374293302"><ele>782.6666666666666</ele><time>2026-04-26T10:10:23.999Z</time></trkpt><trkpt lat="43.521501825615246" lon="12.341900253468799"><ele>784.3333333333333</ele><time>2026-04-26T10:10:24.999Z</time></trkpt><trkpt lat="43.52158128875111" lon="12.341843700778288"><ele>786.0</ele><time>2026-04-26T10:10:25.999Z</time></trkpt><trkpt lat="43.52165651032053" lon="12.341757300124701"><ele>787.6666666666667</ele><time>2026-04-26T10:10:26.999Z</time></trkpt><trkpt lat="43.52171749402452" lon="12.341661959507348"><ele>789.3333333333334</ele><time>2026-04-26T10:10:27.999Z</time></trkpt><trkpt lat="43.52176854258311" lon="12.341596604670137"><ele>791.0</ele><time>2026-04-26T10:10:28.999Z</time></trkpt><trkpt lat="43.5218587219843" lon="12.341507886939597"><ele>791.0000000000001</ele><time>2026-04-26T10:10:30.999Z</time></trkpt><trkpt lat="43.52189182650917" lon="12.341398071612717"><ele>791.0</ele><time>2026-04-26T10:10:32.999Z</time></trkpt><trkpt lat="43.52183308332979" lon="12.341315084222096"><ele>791.0</ele><time>2026-04-26T10:10:33.999Z</time></trkpt><trkpt lat="43.52178748933873" lon="12.341213197495152"><ele>791.0</ele><time>2026-04-26T10:10:34.999Z</time></trkpt><trkpt lat="43.52177317446622" lon="12.341123354353757"><ele>791.0000000000001</ele><time>2026-04-26T10:10:36Z</time></trkpt><trkpt lat="43.52173926448533" lon="12.340975591233898"><ele>791.0</ele><time>2026-04-26T10:10:38Z</time></trkpt><trkpt lat="43.5216839926466" lon="12.340885347788884"><ele>791.0</ele><time>2026-04-26T10:10:39Z</time></trkpt><trkpt lat="43.52164094310105" lon="12.340818767062476"><ele>791.0</ele><time>2026-04-26T10:10:40Z</time></trkpt><trkpt lat="43.5216047109712" lon="12.34073955997616"><ele>791.0</ele><time>2026-04-26T10:10:41Z</time></trkpt><trkpt lat="43.52155591665065" lon="12.340650857456188"><ele>791.0</ele><time>2026-04-26T10:10:42Z</time></trkpt><trkpt lat="43.52150761727413" lon="12.340573185482945"><ele>791.0</ele><time>2026-04-26T10:10:43Z</time></trkpt><trkpt lat="43.52144215700355" lon="12.340520076200601"><ele>791.0</ele><time>2026-04-26T10:10:44Z</time></trkpt><trkpt lat="43.52138300818197" lon="12.340470741398677"><ele>791.0</ele><time>2026-04-26T10:10:45Z</time></trkpt><trkpt lat="43.521310084822304" lon="12.340347117240364"><ele>790.0</ele><time>2026-04-26T10:10:47Z</time></trkpt><trkpt lat="43.52124800541568" lon="12.340253923095524"><ele>789.0</ele><time>2026-04-26T10:10:49Z</time></trkpt><trkpt lat="43.521150084640176" lon="12.34027752550108"><ele>788.0</ele><time>2026-04-26T10:10:51Z</time></trkpt><trkpt lat="43.521065931127545" lon="12.340174779426448"><ele>787.0</ele><time>2026-04-26T10:10:53Z</time></trkpt><trkpt lat="43.52104184402723" lon="12.34006582527356"><ele>786.0</ele><time>2026-04-26T10:10:55Z</time></trkpt><trkpt lat="43.521002404556896" lon="12.33992968400269"><ele>786.0</ele><time>2026-04-26T10:10:57Z</time></trkpt><trkpt lat="43.52097092597913" lon="12.3398416163267"><ele>786.0</ele><time>2026-04-26T10:10:58Z</time></trkpt><trkpt lat="43.520936845079405" lon="12.339760939528999"><ele>786.0</ele><time>2026-04-26T10:10:59Z</time></trkpt><trkpt lat="43.52082157005059" lon="12.33973796959286"><ele>786.0</ele><time>2026-04-26T10:11:01Z</time></trkpt><trkpt lat="43.520732435501564" lon="12.339758657501836"><ele>786.0</ele><time>2026-04-26T10:11:02Z</time></trkpt><trkpt lat="43.520663469311934" lon="12.339752567775268"><ele>786.0</ele><time>2026-04-26T10:11:03Z</time></trkpt><trkpt lat="43.52059526568324" lon="12.339721321212007"><ele>789.5</ele><time>2026-04-26T10:11:04Z</time></trkpt><trkpt lat="43.52053650163367" lon="12.339680070149033"><ele>793.0</ele><time>2026-04-26T10:11:05Z</time></trkpt><trkpt lat="43.52048257202653" lon="12.339629448985175"><ele>796.5</ele><time>2026-04-26T10:11:06Z</time></trkpt><trkpt lat="43.5204119605434" lon="12.3394945899602"><ele>800.0</ele><time>2026-04-26T10:11:08Z</time></trkpt><trkpt lat="43.520401201596584" lon="12.33934184639758"><ele>803.5</ele><time>2026-04-26T10:11:10Z</time></trkpt><trkpt lat="43.520414547115884" lon="12.339238761288893"><ele>807.0</ele><time>2026-04-26T10:11:11Z</time></trkpt><trkpt lat="43.52041090142764" lon="12.339114732497872"><ele>807.0</ele><time>2026-04-26T10:11:12Z</time></trkpt><trkpt lat="43.520402891547725" lon="12.338992227922041"><ele>807.0</ele><time>2026-04-26T10:11:13Z</time></trkpt><trkpt lat="43.520409904632885" lon="12.33886059487419"><ele>807.0</ele><time>2026-04-26T10:11:14Z</time></trkpt><trkpt lat="43.52042155662686" lon="12.338764685442115"><ele>807.0</ele><time>2026-04-26T10:11:15Z</time></trkpt><trkpt lat="43.52041600914208" lon="12.338650768756589"><ele>807.0</ele><time>2026-04-26T10:11:16Z</time></trkpt><trkpt lat="43.52038538036889" lon="12.338523726259913"><ele>807.0</ele><time>2026-04-26T10:11:17Z</time></trkpt><trkpt lat="43.52036737430597" lon="12.338406538702055"><ele>804.6666666666666</ele><time>2026-04-26T10:11:18.001Z</time></trkpt><trkpt lat="43.520362123678446" lon="12.33828485795772"><ele>802.3333333333333</ele><time>2026-04-26T10:11:19.001Z</time></trkpt><trkpt lat="43.52035888179294" lon="12.33817855258785"><ele>800.0</ele><time>2026-04-26T10:11:20.001Z</time></trkpt><trkpt lat="43.52036805718839" lon="12.33807788926872"><ele>797.6666666666666</ele><time>2026-04-26T10:11:21.001Z</time></trkpt><trkpt lat="43.520393483632745" lon="12.337980308846788"><ele>795.3333333333333</ele><time>2026-04-26T10:11:22.001Z</time></trkpt><trkpt lat="43.52043979538927" lon="12.337870838925559"><ele>793.0</ele><time>2026-04-26T10:11:23.001Z</time></trkpt><trkpt lat="43.520473416506576" lon="12.337769040571192"><ele>793.0</ele><time>2026-04-26T10:11:24.001Z</time></trkpt><trkpt lat="43.52050457333333" lon="12.337654568208603"><ele>793.0</ele><time>2026-04-26T10:11:25.001Z</time></trkpt><trkpt lat="43.52052269985572" lon="12.33756544990923"><ele>793.0</ele><time>2026-04-26T10:11:26.001Z</time></trkpt><trkpt lat="43.52057117929032" lon="12.337422526619832"><ele>793.0</ele><time>2026-04-26T10:11:28.001Z</time></trkpt><trkpt lat="43.52060907783887" lon="12.337293005351453"><ele>793.0</ele><time>2026-04-26T10:11:30.001Z</time></trkpt><trkpt lat="43.52065036149664" lon="12.337158632970196"><ele>790.5999999999999</ele><time>2026-04-26T10:11:32.001Z</time></trkpt><trkpt lat="43.520670147492574" lon="12.336993672138675"><ele>788.1999999999999</ele><time>2026-04-26T10:11:34.001Z</time></trkpt><trkpt lat="43.520727397783965" lon="12.336860412464056"><ele>785.8</ele><time>2026-04-26T10:11:36.001Z</time></trkpt><trkpt lat="43.520832557108676" lon="12.336763931311998"><ele>783.4</ele><time>2026-04-26T10:11:38.001Z</time></trkpt><trkpt lat="43.52088519442711" lon="12.336712993082795"><ele>781.0</ele><time>2026-04-26T10:11:39.001Z</time></trkpt><trkpt lat="43.52093089604557" lon="12.336563077037521"><ele>780.9999999999999</ele><time>2026-04-26T10:11:41.001Z</time></trkpt><trkpt lat="43.520938234810856" lon="12.33645866172597"><ele>781.0</ele><time>2026-04-26T10:11:42.001Z</time></trkpt><trkpt lat="43.52094234178879" lon="12.336351607503035"><ele>781.0</ele><time>2026-04-26T10:11:43.001Z</time></trkpt><trkpt lat="43.520940792540394" lon="12.336253800670196"><ele>781.0</ele><time>2026-04-26T10:11:44.001Z</time></trkpt><trkpt lat="43.52090546876359" lon="12.336179404237527"><ele>780.9999999999999</ele><time>2026-04-26T10:11:45.001Z</time></trkpt><trkpt lat="43.520879065898875" lon="12.336089428086751"><ele>781.0</ele><time>2026-04-26T10:11:46.001Z</time></trkpt><trkpt lat="43.520900849812215" lon="12.335906213311347"><ele>780.4999999999999</ele><time>2026-04-26T10:11:48.001Z</time></trkpt><trkpt lat="43.520907420292794" lon="12.335783815366032"><ele>780.0</ele><time>2026-04-26T10:11:49.001Z</time></trkpt><trkpt lat="43.52090698341518" lon="12.33569352756154"><ele>779.5</ele><time>2026-04-26T10:11:50.001Z</time></trkpt><trkpt lat="43.520912832487376" lon="12.335549694748623"><ele>779.0</ele><time>2026-04-26T10:11:52.001Z</time></trkpt><trkpt lat="43.52094001068952" lon="12.335463935344254"><ele>778.4999999999999</ele><time>2026-04-26T10:11:53.001Z</time></trkpt><trkpt lat="43.52098908408784" lon="12.335380774276146"><ele>778.0</ele><time>2026-04-26T10:11:54.001Z</time></trkpt><trkpt lat="43.521049402524454" lon="12.335313361718251"><ele>777.9999999999999</ele><time>2026-04-26T10:11:55.001Z</time></trkpt><trkpt lat="43.521115080106505" lon="12.335261200693036"><ele>778.0</ele><time>2026-04-26T10:11:56.001Z</time></trkpt><trkpt lat="43.52118325890389" lon="12.335236293464252"><ele>778.0</ele><time>2026-04-26T10:11:57.001Z</time></trkpt><trkpt lat="43.52126196093001" lon="12.335247650033788"><ele>778.0</ele><time>2026-04-26T10:11:58.001Z</time></trkpt><trkpt lat="43.52136458234544" lon="12.335258291956888"><ele>777.9999999999999</ele><time>2026-04-26T10:11:59.001Z</time></trkpt><trkpt lat="43.5214699737297" lon="12.335277043345743"><ele>778.0</ele><time>2026-04-26T10:12:00.001Z</time></trkpt><trkpt lat="43.52157561487583" lon="12.335293256823576"><ele>777.4</ele><time>2026-04-26T10:12:01.001Z</time></trkpt><trkpt lat="43.52167589125586" lon="12.33531005159052"><ele>776.8</ele><time>2026-04-26T10:12:02.001Z</time></trkpt><trkpt lat="43.52175816946657" lon="12.33528388007267"><ele>776.2</ele><time>2026-04-26T10:12:03.001Z</time></trkpt><trkpt lat="43.521848673010545" lon="12.335223935571559"><ele>775.6</ele><time>2026-04-26T10:12:04.001Z</time></trkpt><trkpt lat="43.52193397954613" lon="12.335151368011212"><ele>775.0</ele><time>2026-04-26T10:12:05.001Z</time></trkpt><trkpt lat="43.5220152073802" lon="12.335062291641753"><ele>774.4</ele><time>2026-04-26T10:12:06.001Z</time></trkpt><trkpt lat="43.522092537027305" lon="12.334976181386937"><ele>773.8</ele><time>2026-04-26T10:12:07.001Z</time></trkpt><trkpt lat="43.52218214907506" lon="12.334888809217182"><ele>773.2</ele><time>2026-04-26T10:12:08.001Z</time></trkpt><trkpt lat="43.52227122729788" lon="12.334800275241516"><ele>772.6</ele><time>2026-04-26T10:12:09.001Z</time></trkpt><trkpt lat="43.52235462950921" lon="12.334696412739167"><ele>772.0</ele><time>2026-04-26T10:12:10.001Z</time></trkpt><trkpt lat="43.52244479007352" lon="12.33461407824176"><ele>772.0</ele><time>2026-04-26T10:12:11.001Z</time></trkpt><trkpt lat="43.52252550534393" lon="12.334539889280345"><ele>772.0</ele><time>2026-04-26T10:12:12.001Z</time></trkpt><trkpt lat="43.52260825281741" lon="12.334482920142577"><ele>772.0</ele><time>2026-04-26T10:12:13.001Z</time></trkpt><trkpt lat="43.52268325149864" lon="12.334417016458653"><ele>772.0</ele><time>2026-04-26T10:12:14.002Z</time></trkpt><trkpt lat="43.52277183381469" lon="12.334353703274601"><ele>772.0</ele><time>2026-04-26T10:12:15.002Z</time></trkpt><trkpt lat="43.52286642588798" lon="12.33426809939104"><ele>772.6</ele><time>2026-04-26T10:12:16.002Z</time></trkpt><trkpt lat="43.52295767227321" lon="12.334191567057466"><ele>773.2</ele><time>2026-04-26T10:12:17.002Z</time></trkpt><trkpt lat="43.523042750348495" lon="12.334091453676818"><ele>773.8</ele><time>2026-04-26T10:12:18Z</time></trkpt><trkpt lat="43.52311789005356" lon="12.333981199743244"><ele>774.4</ele><time>2026-04-26T10:12:19Z</time></trkpt><trkpt lat="43.523180931022054" lon="12.333875670093205"><ele>775.0</ele><time>2026-04-26T10:12:20Z</time></trkpt><trkpt lat="43.52321599240387" lon="12.333763796930823"><ele>775.0</ele><time>2026-04-26T10:12:21Z</time></trkpt><trkpt lat="43.52325974467787" lon="12.333637964888156"><ele>775.0</ele><time>2026-04-26T10:12:22Z</time></trkpt><trkpt lat="43.523300271372655" lon="12.333510539111561"><ele>775.0</ele><time>2026-04-26T10:12:23Z</time></trkpt><trkpt lat="43.52334165337535" lon="12.333402425224932"><ele>775.0</ele><time>2026-04-26T10:12:24Z</time></trkpt><trkpt lat="43.52338565044875" lon="12.333298255302914"><ele>775.0</ele><time>2026-04-26T10:12:25Z</time></trkpt><trkpt lat="43.523431839970435" lon="12.33321551422352"><ele>775.0</ele><time>2026-04-26T10:12:26Z</time></trkpt><trkpt lat="43.52348836312183" lon="12.333142667828229"><ele>775.0</ele><time>2026-04-26T10:12:27Z</time></trkpt><trkpt lat="43.52355541574602" lon="12.333056263401902"><ele>775.0</ele><time>2026-04-26T10:12:28Z</time></trkpt><trkpt lat="43.52361705853452" lon="12.332936637038465"><ele>775.0</ele><time>2026-04-26T10:12:29Z</time></trkpt><trkpt lat="43.52368072705506" lon="12.332802742769125"><ele>775.0</ele><time>2026-04-26T10:12:30Z</time></trkpt><trkpt lat="43.523742516959935" lon="12.332660357729473"><ele>775.0</ele><time>2026-04-26T10:12:31Z</time></trkpt><trkpt lat="43.523800996907504" lon="12.332528288917588"><ele>775.0</ele><time>2026-04-26T10:12:32Z</time></trkpt><trkpt lat="43.52386670328635" lon="12.33241809956504"><ele>775.0</ele><time>2026-04-26T10:12:33Z</time></trkpt><trkpt lat="43.52393286225623" lon="12.332324589662198"><ele>775.0</ele><time>2026-04-26T10:12:34Z</time></trkpt><trkpt lat="43.52400669691737" lon="12.332241593655626"><ele>775.0</ele><time>2026-04-26T10:12:35Z</time></trkpt><trkpt lat="43.52409457000911" lon="12.332178935662665"><ele>776.2</ele><time>2026-04-26T10:12:36Z</time></trkpt><trkpt lat="43.52419187900113" lon="12.332135969361403"><ele>777.4</ele><time>2026-04-26T10:12:37Z</time></trkpt><trkpt lat="43.52429211095396" lon="12.33212746141578"><ele>778.5999999999999</ele><time>2026-04-26T10:12:38Z</time></trkpt><trkpt lat="43.52439255977052" lon="12.332100559813973"><ele>779.8</ele><time>2026-04-26T10:12:39Z</time></trkpt><trkpt lat="43.52449921351471" lon="12.332089251576381"><ele>781.0</ele><time>2026-04-26T10:12:40Z</time></trkpt><trkpt lat="43.5245949826274" lon="12.332093218744838"><ele>782.8</ele><time>2026-04-26T10:12:41Z</time></trkpt><trkpt lat="43.52468284838754" lon="12.332101964655987"><ele>784.5999999999999</ele><time>2026-04-26T10:12:42Z</time></trkpt><trkpt lat="43.524769591465926" lon="12.332106881085398"><ele>786.4</ele><time>2026-04-26T10:12:43Z</time></trkpt><trkpt lat="43.52484731064461" lon="12.332100786898124"><ele>788.2</ele><time>2026-04-26T10:12:44Z</time></trkpt><trkpt lat="43.524965802958896" lon="12.331977207549972"><ele>790.0</ele><time>2026-04-26T10:12:46Z</time></trkpt><trkpt lat="43.525017050384086" lon="12.331887586581047"><ele>790.0</ele><time>2026-04-26T10:12:47Z</time></trkpt><trkpt lat="43.52506193630297" lon="12.33179199808694"><ele>790.0</ele><time>2026-04-26T10:12:48Z</time></trkpt><trkpt lat="43.52511919513063" lon="12.331685165653003"><ele>790.0</ele><time>2026-04-26T10:12:49Z</time></trkpt><trkpt lat="43.52518293224995" lon="12.331560558703913"><ele>790.0</ele><time>2026-04-26T10:12:50Z</time></trkpt><trkpt lat="43.525243163338054" lon="12.331439509210396"><ele>790.0</ele><time>2026-04-26T10:12:51Z</time></trkpt><trkpt lat="43.52528639719063" lon="12.331294426486297"><ele>790.0</ele><time>2026-04-26T10:12:52Z</time></trkpt><trkpt lat="43.52536117856679" lon="12.331165187999607"><ele>790.0</ele><time>2026-04-26T10:12:53Z</time></trkpt><trkpt lat="43.5254000187173" lon="12.331020308963883"><ele>790.0</ele><time>2026-04-26T10:12:54Z</time></trkpt><trkpt lat="43.52544609802349" lon="12.330900378672982"><ele>790.0</ele><time>2026-04-26T10:12:55Z</time></trkpt><trkpt lat="43.5254832478177" lon="12.330782479515431"><ele>790.0</ele><time>2026-04-26T10:12:56Z</time></trkpt><trkpt lat="43.52551591540888" lon="12.330667853478682"><ele>790.0</ele><time>2026-04-26T10:12:57Z</time></trkpt><trkpt lat="43.52554869826533" lon="12.330556261840135"><ele>790.0</ele><time>2026-04-26T10:12:58Z</time></trkpt><trkpt lat="43.525608032171114" lon="12.330434963570811"><ele>790.0</ele><time>2026-04-26T10:12:59Z</time></trkpt><trkpt lat="43.52567111442286" lon="12.330350612659906"><ele>790.0</ele><time>2026-04-26T10:13:00Z</time></trkpt><trkpt lat="43.52574235749722" lon="12.33025955964606"><ele>790.0</ele><time>2026-04-26T10:13:01Z</time></trkpt><trkpt lat="43.52581238720499" lon="12.330156452130224"><ele>790.0</ele><time>2026-04-26T10:13:02Z</time></trkpt><trkpt lat="43.525880596469754" lon="12.330057082849466"><ele>790.0</ele><time>2026-04-26T10:13:03.001Z</time></trkpt><trkpt lat="43.52596109701228" lon="12.32995938310359"><ele>790.0</ele><time>2026-04-26T10:13:04.001Z</time></trkpt><trkpt lat="43.52602574912439" lon="12.329877320056472"><ele>790.0</ele><time>2026-04-26T10:13:05.001Z</time></trkpt><trkpt lat="43.52608360339439" lon="12.329797210990785"><ele>790.0</ele><time>2026-04-26T10:13:06.001Z</time></trkpt><trkpt lat="43.526122589415785" lon="12.329699429825105"><ele>789.1666666666666</ele><time>2026-04-26T10:13:07.001Z</time></trkpt><trkpt lat="43.52613980195983" lon="12.329584332904581"><ele>788.3333333333333</ele><time>2026-04-26T10:13:08.001Z</time></trkpt><trkpt lat="43.52614377954516" lon="12.329472544998211"><ele>787.5</ele><time>2026-04-26T10:13:09.001Z</time></trkpt><trkpt lat="43.52616712663567" lon="12.329345921005745"><ele>786.6666666666667</ele><time>2026-04-26T10:13:10.001Z</time></trkpt><trkpt lat="43.526174783776554" lon="12.329230620579809"><ele>785.8333333333334</ele><time>2026-04-26T10:13:11.001Z</time></trkpt><trkpt lat="43.52618563564454" lon="12.329133301560837"><ele>785.0</ele><time>2026-04-26T10:13:12.001Z</time></trkpt><trkpt lat="43.52624696889808" lon="12.32907139125663"><ele>790.2</ele><time>2026-04-26T10:13:13.001Z</time></trkpt><trkpt lat="43.526310879334545" lon="12.329012361062546"><ele>795.4</ele><time>2026-04-26T10:13:14.001Z</time></trkpt><trkpt lat="43.52637759616653" lon="12.3289212638487"><ele>800.5999999999999</ele><time>2026-04-26T10:13:15.001Z</time></trkpt><trkpt lat="43.52644181487991" lon="12.32881886688004"><ele>805.8</ele><time>2026-04-26T10:13:16.001Z</time></trkpt><trkpt lat="43.52649048462588" lon="12.328692385098464"><ele>811.0</ele><time>2026-04-26T10:13:17.001Z</time></trkpt><trkpt lat="43.52654197590931" lon="12.328564840499713"><ele>810.9999999999999</ele><time>2026-04-26T10:13:18.001Z</time></trkpt><trkpt lat="43.52657478584416" lon="12.328453049382091"><ele>811.0</ele><time>2026-04-26T10:13:19.001Z</time></trkpt><trkpt lat="43.52660588838093" lon="12.328337602083238"><ele>811.0</ele><time>2026-04-26T10:13:20.001Z</time></trkpt><trkpt lat="43.526640974987394" lon="12.3282361781143"><ele>811.0</ele><time>2026-04-26T10:13:21.001Z</time></trkpt><trkpt lat="43.526690999234354" lon="12.328129627584307"><ele>810.9999999999999</ele><time>2026-04-26T10:13:22.001Z</time></trkpt><trkpt lat="43.526759731695975" lon="12.328037478999013"><ele>811.0</ele><time>2026-04-26T10:13:23.001Z</time></trkpt><trkpt lat="43.5268394168408" lon="12.327953095148596"><ele>810.1999999999999</ele><time>2026-04-26T10:13:24.001Z</time></trkpt><trkpt lat="43.52692637336384" lon="12.327877510459459"><ele>809.4</ele><time>2026-04-26T10:13:25.001Z</time></trkpt><trkpt lat="43.52703032957006" lon="12.327816247713741"><ele>808.6</ele><time>2026-04-26T10:13:26.001Z</time></trkpt><trkpt lat="43.52711808279048" lon="12.327765240594823"><ele>807.8</ele><time>2026-04-26T10:13:27.001Z</time></trkpt><trkpt lat="43.52720684242405" lon="12.327752222298939"><ele>807.0</ele><time>2026-04-26T10:13:28.001Z</time></trkpt><trkpt lat="43.527307767254825" lon="12.3277336567356"><ele>807.0</ele><time>2026-04-26T10:13:29.001Z</time></trkpt><trkpt lat="43.52740359130084" lon="12.32770905675436"><ele>807.0</ele><time>2026-04-26T10:13:30.001Z</time></trkpt><trkpt lat="43.527513760747574" lon="12.32770548012023"><ele>807.0</ele><time>2026-04-26T10:13:31.001Z</time></trkpt><trkpt lat="43.52761703956228" lon="12.327691124279736"><ele>807.0</ele><time>2026-04-26T10:13:32.001Z</time></trkpt><trkpt lat="43.52771735086377" lon="12.327679869565333"><ele>807.0</ele><time>2026-04-26T10:13:33.001Z</time></trkpt><trkpt lat="43.527802991664615" lon="12.327638323508907"><ele>806.5</ele><time>2026-04-26T10:13:34.001Z</time></trkpt><trkpt lat="43.52789598869839" lon="12.327605590845458"><ele>806.0</ele><time>2026-04-26T10:13:35.001Z</time></trkpt><trkpt lat="43.52798478939026" lon="12.327607391212256"><ele>805.5</ele><time>2026-04-26T10:13:36.001Z</time></trkpt><trkpt lat="43.52807762938263" lon="12.32763757615879"><ele>805.0</ele><time>2026-04-26T10:13:37.001Z</time></trkpt><trkpt lat="43.52816309375907" lon="12.327629990554646"><ele>804.5</ele><time>2026-04-26T10:13:38.001Z</time></trkpt><trkpt lat="43.52821693683906" lon="12.327583547740838"><ele>804.0</ele><time>2026-04-26T10:13:39.001Z</time></trkpt><trkpt lat="43.52826520758651" lon="12.327468807898935"><ele>804.0</ele><time>2026-04-26T10:13:40.001Z</time></trkpt><trkpt lat="43.52830267503514" lon="12.327335134386129"><ele>804.0</ele><time>2026-04-26T10:13:41.001Z</time></trkpt><trkpt lat="43.52834358471386" lon="12.327207466884998"><ele>804.0</ele><time>2026-04-26T10:13:42.001Z</time></trkpt><trkpt lat="43.52838433172204" lon="12.327101704719544"><ele>804.0</ele><time>2026-04-26T10:13:43.001Z</time></trkpt><trkpt lat="43.528429708766694" lon="12.326991212618404"><ele>804.0</ele><time>2026-04-26T10:13:44.001Z</time></trkpt><trkpt lat="43.52848042107499" lon="12.326910853501811"><ele>805.4000000000001</ele><time>2026-04-26T10:13:45.001Z</time></trkpt><trkpt lat="43.52854818137295" lon="12.326850466853367"><ele>806.8</ele><time>2026-04-26T10:13:46.001Z</time></trkpt><trkpt lat="43.528635417815224" lon="12.326807560125463"><ele>808.2</ele><time>2026-04-26T10:13:47.001Z</time></trkpt><trkpt lat="43.5287378944833" lon="12.326808984415933"><ele>809.5999999999999</ele><time>2026-04-26T10:13:48.001Z</time></trkpt><trkpt lat="43.528841825580095" lon="12.326795688593895"><ele>811.0</ele><time>2026-04-26T10:13:49.001Z</time></trkpt><trkpt lat="43.528930520553686" lon="12.326773742996131"><ele>812.1666666666666</ele><time>2026-04-26T10:13:50.001Z</time></trkpt><trkpt lat="43.529021051858116" lon="12.326787540504977"><ele>813.3333333333333</ele><time>2026-04-26T10:13:51.001Z</time></trkpt><trkpt lat="43.52911303794796" lon="12.326801232407753"><ele>814.5</ele><time>2026-04-26T10:13:52.001Z</time></trkpt><trkpt lat="43.52920114759941" lon="12.326834459584274"><ele>815.6666666666667</ele><time>2026-04-26T10:13:53.001Z</time></trkpt><trkpt lat="43.529290465986215" lon="12.3268616295136"><ele>816.8333333333334</ele><time>2026-04-26T10:13:54.001Z</time></trkpt><trkpt lat="43.529368234419785" lon="12.326885760034878"><ele>818.0</ele><time>2026-04-26T10:13:55.001Z</time></trkpt><trkpt lat="43.52943397242504" lon="12.326902820553679"><ele>818.0000000000001</ele><time>2026-04-26T10:13:56.001Z</time></trkpt><trkpt lat="43.529541595502934" lon="12.326845482686334"><ele>818.0</ele><time>2026-04-26T10:13:58.002Z</time></trkpt><trkpt lat="43.52958110445611" lon="12.326767254018304"><ele>818.0</ele><time>2026-04-26T10:13:59.002Z</time></trkpt><trkpt lat="43.52960362466462" lon="12.326679460896095"><ele>818.0</ele><time>2026-04-26T10:14:00.002Z</time></trkpt><trkpt lat="43.52962779549812" lon="12.326577789580636"><ele>818.0000000000001</ele><time>2026-04-26T10:14:01.002Z</time></trkpt><trkpt lat="43.529648214634754" lon="12.326491960236023"><ele>818.0</ele><time>2026-04-26T10:14:02.002Z</time></trkpt><trkpt lat="43.52969116732329" lon="12.326410358665747"><ele>814.3333333333334</ele><time>2026-04-26T10:14:03.002Z</time></trkpt><trkpt lat="43.52970596669246" lon="12.326303585497742"><ele>810.6666666666667</ele><time>2026-04-26T10:14:04.002Z</time></trkpt><trkpt lat="43.52974643192728" lon="12.326217876236882"><ele>807.0</ele><time>2026-04-26T10:14:05.002Z</time></trkpt><trkpt lat="43.52979847135161" lon="12.326133427043377"><ele>803.3333333333333</ele><time>2026-04-26T10:14:06.002Z</time></trkpt><trkpt lat="43.52984283252985" lon="12.326039697311064"><ele>799.6666666666666</ele><time>2026-04-26T10:14:07.002Z</time></trkpt><trkpt lat="43.52988989449048" lon="12.325963187651519"><ele>796.0</ele><time>2026-04-26T10:14:08.002Z</time></trkpt><trkpt lat="43.529932984368244" lon="12.325877260537753"><ele>796.0</ele><time>2026-04-26T10:14:09.002Z</time></trkpt><trkpt lat="43.529989244392844" lon="12.325777868157813"><ele>796.0</ele><time>2026-04-26T10:14:10.002Z</time></trkpt><trkpt lat="43.530066556821666" lon="12.325715837346207"><ele>796.0</ele><time>2026-04-26T10:14:11.002Z</time></trkpt><trkpt lat="43.53013710578872" lon="12.32564302164569"><ele>796.0</ele><time>2026-04-26T10:14:12.002Z</time></trkpt><trkpt lat="43.530314390838456" lon="12.325571030842841"><ele>794.3333333333333</ele><time>2026-04-26T10:14:14.002Z</time></trkpt><trkpt lat="43.53040274890812" lon="12.3255784216974"><ele>792.6666666666666</ele><time>2026-04-26T10:14:15.002Z</time></trkpt><trkpt lat="43.53047906533301" lon="12.325548810617166"><ele>791.0</ele><time>2026-04-26T10:14:16.002Z</time></trkpt><trkpt lat="43.530550961619504" lon="12.32551605215238"><ele>789.3333333333333</ele><time>2026-04-26T10:14:17.002Z</time></trkpt><trkpt lat="43.530631118617386" lon="12.325445065017622"><ele>787.6666666666666</ele><time>2026-04-26T10:14:18.002Z</time></trkpt><trkpt lat="43.53071840079539" lon="12.325361567012264"><ele>786.0</ele><time>2026-04-26T10:14:19.002Z</time></trkpt><trkpt lat="43.530790271823165" lon="12.325299951438"><ele>784.4</ele><time>2026-04-26T10:14:20.002Z</time></trkpt><trkpt lat="43.530877401331345" lon="12.325258246891934"><ele>782.8</ele><time>2026-04-26T10:14:21.002Z</time></trkpt><trkpt lat="43.5309652600195" lon="12.325235107702436"><ele>781.1999999999999</ele><time>2026-04-26T10:14:22.002Z</time></trkpt><trkpt lat="43.5310597441035" lon="12.325221107636397"><ele>779.5999999999999</ele><time>2026-04-26T10:14:23.002Z</time></trkpt><trkpt lat="43.53115918209584" lon="12.325192690404903"><ele>778.0</ele><time>2026-04-26T10:14:24Z</time></trkpt><trkpt lat="43.53125588157439" lon="12.325159882330695"><ele>777.8</ele><time>2026-04-26T10:14:25Z</time></trkpt><trkpt lat="43.531362951132024" lon="12.325126945239854"><ele>777.5999999999999</ele><time>2026-04-26T10:14:26Z</time></trkpt><trkpt lat="43.531469468368705" lon="12.325097061224225"><ele>777.4000000000001</ele><time>2026-04-26T10:14:27Z</time></trkpt><trkpt lat="43.531564487154725" lon="12.3250674921338"><ele>777.2</ele><time>2026-04-26T10:14:28Z</time></trkpt><trkpt lat="43.53165580563638" lon="12.325033878748426"><ele>777.0</ele><time>2026-04-26T10:14:29Z</time></trkpt><trkpt lat="43.53173636085818" lon="12.325001891509302"><ele>777.0</ele><time>2026-04-26T10:14:30Z</time></trkpt><trkpt lat="43.531816879802335" lon="12.324986129367712"><ele>777.0</ele><time>2026-04-26T10:14:31Z</time></trkpt><trkpt lat="43.53190141712788" lon="12.32496539324214"><ele>777.0</ele><time>2026-04-26T10:14:32Z</time></trkpt><trkpt lat="43.53200263975671" lon="12.32493305546338"><ele>777.0</ele><time>2026-04-26T10:14:33Z</time></trkpt><trkpt lat="43.53211010539498" lon="12.324922295849412"><ele>777.0</ele><time>2026-04-26T10:14:34Z</time></trkpt><trkpt lat="43.53221121133218" lon="12.324901570163043"><ele>775.8</ele><time>2026-04-26T10:14:35Z</time></trkpt><trkpt lat="43.53231265754396" lon="12.324865669275201"><ele>774.6</ele><time>2026-04-26T10:14:36Z</time></trkpt><trkpt lat="43.532413409912934" lon="12.324850148697596"><ele>773.4</ele><time>2026-04-26T10:14:37Z</time></trkpt><trkpt lat="43.532498971672226" lon="12.3248368711002"><ele>772.1999999999999</ele><time>2026-04-26T10:14:38Z</time></trkpt><trkpt lat="43.53258220290804" lon="12.324781735447084"><ele>771.0</ele><time>2026-04-26T10:14:39Z</time></trkpt><trkpt lat="43.53264710465009" lon="12.324678381613818"><ele>771.0</ele><time>2026-04-26T10:14:40Z</time></trkpt><trkpt lat="43.532697426851755" lon="12.324588314689228"><ele>771.0</ele><time>2026-04-26T10:14:41Z</time></trkpt><trkpt lat="43.532777966894166" lon="12.324513925570319"><ele>771.0</ele><time>2026-04-26T10:14:42Z</time></trkpt><trkpt lat="43.53284895425974" lon="12.3244245570308"><ele>771.0</ele><time>2026-04-26T10:14:43Z</time></trkpt><trkpt lat="43.53291539387508" lon="12.32431478673143"><ele>771.0</ele><time>2026-04-26T10:14:44Z</time></trkpt><trkpt lat="43.53296635845298" lon="12.324177148028106"><ele>776.8</ele><time>2026-04-26T10:14:45Z</time></trkpt><trkpt lat="43.5330216776099" lon="12.32406127623125"><ele>782.5999999999999</ele><time>2026-04-26T10:14:46Z</time></trkpt><trkpt lat="43.533082379020215" lon="12.323961309722884"><ele>788.4</ele><time>2026-04-26T10:14:47Z</time></trkpt><trkpt lat="43.53309013838456" lon="12.32383516684171"><ele>794.2</ele><time>2026-04-26T10:14:48Z</time></trkpt><trkpt lat="43.53305327648207" lon="12.323681392334638"><ele>800.0</ele><time>2026-04-26T10:14:49Z</time></trkpt><trkpt lat="43.53307145588282" lon="12.32357327782459"><ele>800.0</ele><time>2026-04-26T10:14:50Z</time></trkpt><trkpt lat="43.533095054197354" lon="12.32345015862766"><ele>800.0</ele><time>2026-04-26T10:14:51Z</time></trkpt><trkpt lat="43.53313505260885" lon="12.32332945188867"><ele>800.0</ele><time>2026-04-26T10:14:52Z</time></trkpt><trkpt lat="43.53309178720229" lon="12.323180675404402"><ele>800.0</ele><time>2026-04-26T10:14:53Z</time></trkpt><trkpt lat="43.533057019582756" lon="12.323049325283538"><ele>800.0</ele><time>2026-04-26T10:14:54Z</time></trkpt><trkpt lat="43.533025824671995" lon="12.32292563349919"><ele>798.2</ele><time>2026-04-26T10:14:55Z</time></trkpt><trkpt lat="43.53301318792298" lon="12.322809059287124"><ele>796.4</ele><time>2026-04-26T10:14:56Z</time></trkpt><trkpt lat="43.5330317606105" lon="12.322705843713074"><ele>794.5999999999999</ele><time>2026-04-26T10:14:57Z</time></trkpt><trkpt lat="43.533057838199774" lon="12.322592625865859"><ele>792.8</ele><time>2026-04-26T10:14:59Z</time></trkpt><trkpt lat="43.53313742443458" lon="12.322654495381192"><ele>791.0</ele><time>2026-04-26T10:15:06Z</time></trkpt><trkpt lat="43.533194694609875" lon="12.322802517960891"><ele>791.0000000000001</ele><time>2026-04-26T10:15:08Z</time></trkpt><trkpt lat="43.53323251905092" lon="12.322883011556986"><ele>791.0</ele><time>2026-04-26T10:15:09Z</time></trkpt><trkpt lat="43.533277216006475" lon="12.32296843440229"><ele>791.0</ele><time>2026-04-26T10:15:10Z</time></trkpt><trkpt lat="43.53332296662467" lon="12.3230479856465"><ele>791.0</ele><time>2026-04-26T10:15:11Z</time></trkpt><trkpt lat="43.53338094815216" lon="12.323135104706434"><ele>791.0000000000001</ele><time>2026-04-26T10:15:12Z</time></trkpt><trkpt lat="43.53343526261029" lon="12.323223852930983"><ele>791.0</ele><time>2026-04-26T10:15:13Z</time></trkpt><trkpt lat="43.533489716541695" lon="12.323313931081382"><ele>792.5000000000001</ele><time>2026-04-26T10:15:14Z</time></trkpt><trkpt lat="43.53354285411443" lon="12.323396909598614"><ele>794.0</ele><time>2026-04-26T10:15:15Z</time></trkpt><trkpt lat="43.53358613552292" lon="12.323491130990657"><ele>795.5</ele><time>2026-04-26T10:15:16Z</time></trkpt><trkpt lat="43.53363236729567" lon="12.323597750257822"><ele>797.0</ele><time>2026-04-26T10:15:17.001Z</time></trkpt><trkpt lat="43.53364878918546" lon="12.323702964046149"><ele>798.5000000000001</ele><time>2026-04-26T10:15:18.001Z</time></trkpt><trkpt lat="43.5336568502913" lon="12.323803953676885"><ele>800.0</ele><time>2026-04-26T10:15:19.001Z</time></trkpt><trkpt lat="43.53367537414484" lon="12.323901168541745"><ele>800.6666666666667</ele><time>2026-04-26T10:15:20.001Z</time></trkpt><trkpt lat="43.53371326363237" lon="12.323977804481395"><ele>801.3333333333334</ele><time>2026-04-26T10:15:21.001Z</time></trkpt><trkpt lat="43.53376572946027" lon="12.324047788537671"><ele>802.0</ele><time>2026-04-26T10:15:22.001Z</time></trkpt><trkpt lat="43.53383032225709" lon="12.324098852686978"><ele>802.6666666666667</ele><time>2026-04-26T10:15:23.001Z</time></trkpt><trkpt lat="43.5339137215589" lon="12.324122868791976"><ele>803.3333333333334</ele><time>2026-04-26T10:15:24.001Z</time></trkpt><trkpt lat="43.53400263474408" lon="12.324127609347919"><ele>804.0</ele><time>2026-04-26T10:15:25.001Z</time></trkpt><trkpt lat="43.53408988696039" lon="12.324107980981259"><ele>809.1666666666666</ele><time>2026-04-26T10:15:26.001Z</time></trkpt><trkpt lat="43.53417490530337" lon="12.324069914169414"><ele>814.3333333333333</ele><time>2026-04-26T10:15:27.001Z</time></trkpt><trkpt lat="43.53425633514747" lon="12.324040550751391"><ele>819.5</ele><time>2026-04-26T10:15:28.001Z</time></trkpt><trkpt lat="43.53435734608473" lon="12.324022563492056"><ele>824.6666666666666</ele><time>2026-04-26T10:15:29.001Z</time></trkpt><trkpt lat="43.53443224959035" lon="12.323979542110642"><ele>829.8333333333333</ele><time>2026-04-26T10:15:30.001Z</time></trkpt><trkpt lat="43.53450613635488" lon="12.323967482049989"><ele>835.0</ele><time>2026-04-26T10:15:31.001Z</time></trkpt><trkpt lat="43.534605499374734" lon="12.32394299549228"><ele>837.4</ele><time>2026-04-26T10:15:32.001Z</time></trkpt><trkpt lat="43.53470562685017" lon="12.323931383176456"><ele>839.8</ele><time>2026-04-26T10:15:33.001Z</time></trkpt><trkpt lat="43.534796616713116" lon="12.32392709647453"><ele>842.2</ele><time>2026-04-26T10:15:34.001Z</time></trkpt><trkpt lat="43.534889193876836" lon="12.323920547704311"><ele>844.6</ele><time>2026-04-26T10:15:35.001Z</time></trkpt><trkpt lat="43.534974730415954" lon="12.323922851478025"><ele>847.0</ele><time>2026-04-26T10:15:36.001Z</time></trkpt><trkpt lat="43.535059539151526" lon="12.323946782616183"><ele>847.0</ele><time>2026-04-26T10:15:37.001Z</time></trkpt><trkpt lat="43.535143882754504" lon="12.323974716122652"><ele>847.0</ele><time>2026-04-26T10:15:38.001Z</time></trkpt><trkpt lat="43.53521867625353" lon="12.323997101995088"><ele>847.0</ele><time>2026-04-26T10:15:39.001Z</time></trkpt><trkpt lat="43.53530669770509" lon="12.324049397849448"><ele>847.0</ele><time>2026-04-26T10:15:40.001Z</time></trkpt><trkpt lat="43.535396996512745" lon="12.324097772402235"><ele>847.0</ele><time>2026-04-26T10:15:41.001Z</time></trkpt><trkpt lat="43.53549390073764" lon="12.324142428206804"><ele>847.6</ele><time>2026-04-26T10:15:42.001Z</time></trkpt><trkpt lat="43.5355890941933" lon="12.324173980062486"><ele>848.2</ele><time>2026-04-26T10:15:43.001Z</time></trkpt><trkpt lat="43.5356846691743" lon="12.32418432812963"><ele>848.8</ele><time>2026-04-26T10:15:44.001Z</time></trkpt><trkpt lat="43.535784697975565" lon="12.324157292098668"><ele>849.4</ele><time>2026-04-26T10:15:45.001Z</time></trkpt><trkpt lat="43.535865960610664" lon="12.324108876156497"><ele>850.0</ele><time>2026-04-26T10:15:46.001Z</time></trkpt><trkpt lat="43.53594913837695" lon="12.324085756318336"><ele>850.0</ele><time>2026-04-26T10:15:47.001Z</time></trkpt><trkpt lat="43.536075632446114" lon="12.32405627224995"><ele>850.0</ele><time>2026-04-26T10:15:49.001Z</time></trkpt><trkpt lat="43.53616583330831" lon="12.324056764295817"><ele>850.0</ele><time>2026-04-26T10:15:50.001Z</time></trkpt><trkpt lat="43.536265312340504" lon="12.324104767128633"><ele>850.0</ele><time>2026-04-26T10:15:51.001Z</time></trkpt><trkpt lat="43.53637075233141" lon="12.324149025008252"><ele>850.0</ele><time>2026-04-26T10:15:52.001Z</time></trkpt><trkpt lat="43.53647643661881" lon="12.324185230009164"><ele>849.2</ele><time>2026-04-26T10:15:53.001Z</time></trkpt><trkpt lat="43.5365798243814" lon="12.324194227752027"><ele>848.4</ele><time>2026-04-26T10:15:54.001Z</time></trkpt><trkpt lat="43.536670224215975" lon="12.324213634521556"><ele>847.5999999999999</ele><time>2026-04-26T10:15:55.001Z</time></trkpt><trkpt lat="43.53675662740629" lon="12.324271343615406"><ele>846.8</ele><time>2026-04-26T10:15:56.001Z</time></trkpt><trkpt lat="43.53684706290548" lon="12.324302009361377"><ele>846.0</ele><time>2026-04-26T10:15:57.001Z</time></trkpt><trkpt lat="43.53693652496836" lon="12.32431785049742"><ele>846.0</ele><time>2026-04-26T10:15:58.001Z</time></trkpt><trkpt lat="43.53703331627854" lon="12.324340032156547"><ele>846.0</ele><time>2026-04-26T10:15:59.001Z</time></trkpt><trkpt lat="43.53711764522672" lon="12.324372934159852"><ele>846.0</ele><time>2026-04-26T10:16:00.001Z</time></trkpt><trkpt lat="43.53721904918037" lon="12.324386762150937"><ele>846.0</ele><time>2026-04-26T10:16:01.001Z</time></trkpt><trkpt lat="43.53730913339545" lon="12.324389485158985"><ele>846.0</ele><time>2026-04-26T10:16:02.001Z</time></trkpt><trkpt lat="43.53738284008182" lon="12.324383521561883"><ele>845.8333333333334</ele><time>2026-04-26T10:16:03.001Z</time></trkpt><trkpt lat="43.53745743665456" lon="12.324343365050847"><ele>845.6666666666667</ele><time>2026-04-26T10:16:04.001Z</time></trkpt><trkpt lat="43.53748627642925" lon="12.324220965153412"><ele>845.5</ele><time>2026-04-26T10:16:05.001Z</time></trkpt><trkpt lat="43.537532488999915" lon="12.324156556552147"><ele>845.3333333333334</ele><time>2026-04-26T10:16:06.001Z</time></trkpt><trkpt lat="43.5375639113518" lon="12.324059183536383"><ele>845.1666666666667</ele><time>2026-04-26T10:16:07.001Z</time></trkpt><trkpt lat="43.53759133865409" lon="12.323977326930049"><ele>845.0</ele><time>2026-04-26T10:16:08.002Z</time></trkpt><trkpt lat="43.537614453977795" lon="12.323887534682465"><ele>842.4</ele><time>2026-04-26T10:16:09.002Z</time></trkpt><trkpt lat="43.537645581010935" lon="12.323738445043917"><ele>839.8</ele><time>2026-04-26T10:16:11.002Z</time></trkpt><trkpt lat="43.5376776941025" lon="12.323593460565204"><ele>837.2</ele><time>2026-04-26T10:16:13.002Z</time></trkpt><trkpt lat="43.537717617594055" lon="12.323420319978942"><ele>834.6</ele><time>2026-04-26T10:16:15.002Z</time></trkpt><trkpt lat="43.537741205496545" lon="12.32332047923723"><ele>832.0</ele><time>2026-04-26T10:16:16.002Z</time></trkpt><trkpt lat="43.53776369718688" lon="12.323235358611912"><ele>832.0</ele><time>2026-04-26T10:16:17.002Z</time></trkpt><trkpt lat="43.53779044623525" lon="12.323147340848864"><ele>832.0</ele><time>2026-04-26T10:16:18.002Z</time></trkpt><trkpt lat="43.53784263851787" lon="12.322981658745276"><ele>832.0</ele><time>2026-04-26T10:16:20.002Z</time></trkpt><trkpt lat="43.537918128838825" lon="12.322803064192298"><ele>832.0</ele><time>2026-04-26T10:16:22.002Z</time></trkpt><trkpt lat="43.537954999876234" lon="12.322717945416963"><ele>832.0</ele><time>2026-04-26T10:16:23.002Z</time></trkpt><trkpt lat="43.53799431382266" lon="12.32262296102176"><ele>830.0</ele><time>2026-04-26T10:16:24.002Z</time></trkpt><trkpt lat="43.53805453661616" lon="12.32251566689788"><ele>828.0</ele><time>2026-04-26T10:16:25.002Z</time></trkpt><trkpt lat="43.53812016591427" lon="12.322396476412132"><ele>826.0</ele><time>2026-04-26T10:16:26.002Z</time></trkpt><trkpt lat="43.53818982620192" lon="12.322284417680747"><ele>824.0</ele><time>2026-04-26T10:16:27.002Z</time></trkpt><trkpt lat="43.538272808429745" lon="12.322173226023944"><ele>822.0</ele><time>2026-04-26T10:16:28.002Z</time></trkpt><trkpt lat="43.53835908259919" lon="12.322078694566601"><ele>822.0</ele><time>2026-04-26T10:16:29.002Z</time></trkpt><trkpt lat="43.53846913748379" lon="12.321998493469565"><ele>822.0</ele><time>2026-04-26T10:16:30Z</time></trkpt><trkpt lat="43.538574362510595" lon="12.321910213920242"><ele>822.0</ele><time>2026-04-26T10:16:31Z</time></trkpt><trkpt lat="43.53867001182542" lon="12.321827835868937"><ele>822.0</ele><time>2026-04-26T10:16:32Z</time></trkpt><trkpt lat="43.538757263233556" lon="12.321749762972262"><ele>821.3333333333334</ele><time>2026-04-26T10:16:33Z</time></trkpt><trkpt lat="43.53884542969238" lon="12.321667426552988"><ele>820.6666666666667</ele><time>2026-04-26T10:16:34Z</time></trkpt><trkpt lat="43.53890207817303" lon="12.321572945412221"><ele>820.0</ele><time>2026-04-26T10:16:35Z</time></trkpt><trkpt lat="43.53896495901852" lon="12.321510358341701"><ele>819.3333333333334</ele><time>2026-04-26T10:16:36Z</time></trkpt><trkpt lat="43.53897536856401" lon="12.321393074897133"><ele>818.6666666666667</ele><time>2026-04-26T10:16:37Z</time></trkpt><trkpt lat="43.53898617495725" lon="12.321271910429406"><ele>818.0</ele><time>2026-04-26T10:16:38Z</time></trkpt><trkpt lat="43.5390002324639" lon="12.321149160895697"><ele>820.6666666666667</ele><time>2026-04-26T10:16:39Z</time></trkpt><trkpt lat="43.53900638163254" lon="12.321012159671499"><ele>823.3333333333334</ele><time>2026-04-26T10:16:40Z</time></trkpt><trkpt lat="43.53901654292065" lon="12.320878637900172"><ele>826.0</ele><time>2026-04-26T10:16:41Z</time></trkpt><trkpt lat="43.53904248615966" lon="12.320762845209023"><ele>828.6666666666667</ele><time>2026-04-26T10:16:42Z</time></trkpt><trkpt lat="43.539057334114766" lon="12.320650367293217"><ele>831.3333333333334</ele><time>2026-04-26T10:16:43Z</time></trkpt><trkpt lat="43.53906694276615" lon="12.320557652202101"><ele>834.0</ele><time>2026-04-26T10:16:44Z</time></trkpt><trkpt lat="43.539079854678" lon="12.320471793128771"><ele>834.2</ele><time>2026-04-26T10:16:45Z</time></trkpt><trkpt lat="43.53908785757783" lon="12.320335468232628"><ele>834.4000000000001</ele><time>2026-04-26T10:16:47Z</time></trkpt><trkpt lat="43.539097385953866" lon="12.32018467645484"><ele>834.6</ele><time>2026-04-26T10:16:49Z</time></trkpt><trkpt lat="43.53910775111911" lon="12.320073445159752"><ele>834.8</ele><time>2026-04-26T10:16:50Z</time></trkpt><trkpt lat="43.539087280218325" lon="12.31994980318635"><ele>835.0</ele><time>2026-04-26T10:16:51Z</time></trkpt><trkpt lat="43.53905838783268" lon="12.319820352127222"><ele>834.2</ele><time>2026-04-26T10:16:52Z</time></trkpt><trkpt lat="43.53903076384806" lon="12.319694705174513"><ele>833.4</ele><time>2026-04-26T10:16:53Z</time></trkpt><trkpt lat="43.538996974184805" lon="12.319557125296145"><ele>832.5999999999999</ele><time>2026-04-26T10:16:54Z</time></trkpt><trkpt lat="43.53896457195658" lon="12.31943946987187"><ele>831.8</ele><time>2026-04-26T10:16:55Z</time></trkpt><trkpt lat="43.53891895003613" lon="12.319319065730063"><ele>831.0</ele><time>2026-04-26T10:16:56Z</time></trkpt><trkpt lat="43.53893061861025" lon="12.319201577801728"><ele>831.0</ele><time>2026-04-26T10:16:57Z</time></trkpt><trkpt lat="43.53893373642023" lon="12.319108638982373"><ele>831.0</ele><time>2026-04-26T10:16:58Z</time></trkpt><trkpt lat="43.53894107736668" lon="12.319006591929321"><ele>831.0</ele><time>2026-04-26T10:16:59Z</time></trkpt><trkpt lat="43.53895168539723" lon="12.31889866008761"><ele>831.0</ele><time>2026-04-26T10:17:00Z</time></trkpt><trkpt lat="43.538987787160046" lon="12.318794748880244"><ele>831.0</ele><time>2026-04-26T10:17:01Z</time></trkpt><trkpt lat="43.53901127492338" lon="12.31865236646994"><ele>831.0</ele><time>2026-04-26T10:17:02Z</time></trkpt><trkpt lat="43.53904448116619" lon="12.318510622015069"><ele>830.4</ele><time>2026-04-26T10:17:03Z</time></trkpt><trkpt lat="43.53908777273446" lon="12.318373937995577"><ele>829.8</ele><time>2026-04-26T10:17:04Z</time></trkpt><trkpt lat="43.53913121729522" lon="12.31823229378332"><ele>829.1999999999999</ele><time>2026-04-26T10:17:05Z</time></trkpt><trkpt lat="43.53916581276208" lon="12.318082916580325"><ele>828.5999999999999</ele><time>2026-04-26T10:17:06Z</time></trkpt><trkpt lat="43.539194765345954" lon="12.317942369977938"><ele>828.0</ele><time>2026-04-26T10:17:07Z</time></trkpt><trkpt lat="43.539227984802444" lon="12.317823128303584"><ele>828.0</ele><time>2026-04-26T10:17:08Z</time></trkpt><trkpt lat="43.53925920551981" lon="12.317710945210603"><ele>828.0</ele><time>2026-04-26T10:17:09Z</time></trkpt><trkpt lat="43.539306379865806" lon="12.31761564819996"><ele>828.0</ele><time>2026-04-26T10:17:10Z</time></trkpt><trkpt lat="43.53936513182554" lon="12.317540878582589"><ele>828.0</ele><time>2026-04-26T10:17:11Z</time></trkpt><trkpt lat="43.53943253888781" lon="12.317461212337733"><ele>828.0</ele><time>2026-04-26T10:17:12Z</time></trkpt><trkpt lat="43.539511654899016" lon="12.317402944305794"><ele>828.0</ele><time>2026-04-26T10:17:13.001Z</time></trkpt><trkpt lat="43.53959093748396" lon="12.31732050778848"><ele>826.8</ele><time>2026-04-26T10:17:14.001Z</time></trkpt><trkpt lat="43.53966915071963" lon="12.317218051813956"><ele>825.5999999999999</ele><time>2026-04-26T10:17:15.001Z</time></trkpt><trkpt lat="43.53975301136065" lon="12.317134520264357"><ele>824.4000000000001</ele><time>2026-04-26T10:17:16.001Z</time></trkpt><trkpt lat="43.53981025680621" lon="12.317031072325413"><ele>823.2</ele><time>2026-04-26T10:17:17.001Z</time></trkpt><trkpt lat="43.53987982821106" lon="12.316954355916664"><ele>822.0</ele><time>2026-04-26T10:17:18.001Z</time></trkpt><trkpt lat="43.5399435959498" lon="12.316884815947304"><ele>822.0</ele><time>2026-04-26T10:17:19.001Z</time></trkpt><trkpt lat="43.54000673734117" lon="12.316833102059535"><ele>822.0</ele><time>2026-04-26T10:17:20.001Z</time></trkpt><trkpt lat="43.54007228068346" lon="12.316764292642045"><ele>822.0</ele><time>2026-04-26T10:17:21.001Z</time></trkpt><trkpt lat="43.540159465644976" lon="12.31673048295318"><ele>822.0</ele><time>2026-04-26T10:17:22.001Z</time></trkpt><trkpt lat="43.54023878756164" lon="12.316681733989101"><ele>822.0</ele><time>2026-04-26T10:17:23.001Z</time></trkpt><trkpt lat="43.54032692965867" lon="12.316635477865342"><ele>822.0</ele><time>2026-04-26T10:17:24.001Z</time></trkpt><trkpt lat="43.5404163748015" lon="12.316583954048841"><ele>822.4000000000001</ele><time>2026-04-26T10:17:25.001Z</time></trkpt><trkpt lat="43.54050630304186" lon="12.316518253819064"><ele>822.8000000000001</ele><time>2026-04-26T10:17:26.001Z</time></trkpt><trkpt lat="43.540595996285596" lon="12.316441072853573"><ele>823.2</ele><time>2026-04-26T10:17:27.001Z</time></trkpt><trkpt lat="43.540673811145666" lon="12.316360049143304"><ele>823.6</ele><time>2026-04-26T10:17:28.001Z</time></trkpt><trkpt lat="43.540743452132205" lon="12.316269819850323"><ele>824.0</ele><time>2026-04-26T10:17:29.001Z</time></trkpt><trkpt lat="43.5408064186365" lon="12.316178347750434"><ele>826.0</ele><time>2026-04-26T10:17:30.001Z</time></trkpt><trkpt lat="43.54086599476723" lon="12.316083705122612"><ele>828.0</ele><time>2026-04-26T10:17:31.001Z</time></trkpt><trkpt lat="43.54091213515733" lon="12.315980018500717"><ele>830.0</ele><time>2026-04-26T10:17:32.001Z</time></trkpt><trkpt lat="43.54096236141652" lon="12.315883063834272"><ele>832.0</ele><time>2026-04-26T10:17:33.001Z</time></trkpt><trkpt lat="43.54100775792038" lon="12.315762731801952"><ele>834.0</ele><time>2026-04-26T10:17:34.001Z</time></trkpt><trkpt lat="43.54105561139241" lon="12.315640645824667"><ele>834.3333333333334</ele><time>2026-04-26T10:17:35.001Z</time></trkpt><trkpt lat="43.541104793442486" lon="12.315535691567806"><ele>834.6666666666667</ele><time>2026-04-26T10:17:36.001Z</time></trkpt><trkpt lat="43.541154376091804" lon="12.315459257435759"><ele>835.0</ele><time>2026-04-26T10:17:37.001Z</time></trkpt><trkpt lat="43.54124157834219" lon="12.315410906029756"><ele>835.3333333333334</ele><time>2026-04-26T10:17:38.001Z</time></trkpt><trkpt lat="43.5413134675683" lon="12.315333781474477"><ele>835.6666666666667</ele><time>2026-04-26T10:17:39.001Z</time></trkpt><trkpt lat="43.541367716669065" lon="12.315230201149651"><ele>836.0</ele><time>2026-04-26T10:17:40.001Z</time></trkpt><trkpt lat="43.54143387925351" lon="12.315133787689467"><ele>838.0000000000001</ele><time>2026-04-26T10:17:41.001Z</time></trkpt><trkpt lat="43.541502292295924" lon="12.315055074274646"><ele>840.0</ele><time>2026-04-26T10:17:42.001Z</time></trkpt><trkpt lat="43.54156384398397" lon="12.314962615617318"><ele>842.0</ele><time>2026-04-26T10:17:43.001Z</time></trkpt><trkpt lat="43.54161987908071" lon="12.314862722426746"><ele>844.0</ele><time>2026-04-26T10:17:44.001Z</time></trkpt><trkpt lat="43.541674044664646" lon="12.314778836355059"><ele>846.0000000000001</ele><time>2026-04-26T10:17:45.001Z</time></trkpt><trkpt lat="43.54174397339307" lon="12.314707959242726"><ele>848.0</ele><time>2026-04-26T10:17:46.001Z</time></trkpt><trkpt lat="43.54179977669223" lon="12.314633342259235"><ele>848.0000000000001</ele><time>2026-04-26T10:17:47.001Z</time></trkpt><trkpt lat="43.541848319237474" lon="12.31454248060402"><ele>848.0</ele><time>2026-04-26T10:17:48.001Z</time></trkpt><trkpt lat="43.541907015951445" lon="12.314470612988174"><ele>848.0</ele><time>2026-04-26T10:17:49.001Z</time></trkpt><trkpt lat="43.54196636311241" lon="12.314391136099387"><ele>848.0</ele><time>2026-04-26T10:17:50.001Z</time></trkpt><trkpt lat="43.54200954095611" lon="12.314300213073762"><ele>848.0000000000001</ele><time>2026-04-26T10:17:51.001Z</time></trkpt><trkpt lat="43.54203897470171" lon="12.314202118830343"><ele>848.0</ele><time>2026-04-26T10:17:52.001Z</time></trkpt><trkpt lat="43.54205061154419" lon="12.314093659732164"><ele>849.4285714285714</ele><time>2026-04-26T10:17:53.001Z</time></trkpt><trkpt lat="43.542072638438945" lon="12.313992332672083"><ele>850.8571428571428</ele><time>2026-04-26T10:17:54.001Z</time></trkpt><trkpt lat="43.54209505498464" lon="12.313899206385805"><ele>852.2857142857142</ele><time>2026-04-26T10:17:55.001Z</time></trkpt><trkpt lat="43.54213144288465" lon="12.313818537479705"><ele>853.7142857142858</ele><time>2026-04-26T10:17:56.001Z</time></trkpt><trkpt lat="43.54218633641927" lon="12.313742174902998"><ele>855.1428571428571</ele><time>2026-04-26T10:17:57.001Z</time></trkpt><trkpt lat="43.542238888230344" lon="12.313668471545688"><ele>856.5714285714286</ele><time>2026-04-26T10:17:58.001Z</time></trkpt><trkpt lat="43.54229605911068" lon="12.313606585528868"><ele>858.0</ele><time>2026-04-26T10:17:59.001Z</time></trkpt><trkpt lat="43.54233934807547" lon="12.31354230083303"><ele>860.2</ele><time>2026-04-26T10:18:00.002Z</time></trkpt><trkpt lat="43.54238947418285" lon="12.313394248568892"><ele>862.4</ele><time>2026-04-26T10:18:02.002Z</time></trkpt><trkpt lat="43.5424088698144" lon="12.313243749066414"><ele>864.6000000000001</ele><time>2026-04-26T10:18:04.002Z</time></trkpt><trkpt lat="43.542438649579715" lon="12.313161816655825"><ele>866.8000000000001</ele><time>2026-04-26T10:18:07.002Z</time></trkpt><trkpt lat="43.54239720335393" lon="12.31325037202028"><ele>869.0</ele><time>2026-04-26T10:18:12.002Z</time></trkpt><trkpt lat="43.542554918898716" lon="12.313333513834205"><ele>869.0</ele><time>2026-04-26T10:18:14.002Z</time></trkpt><trkpt lat="43.542337111382615" lon="12.313536843768713"><ele>869.0</ele><time>2026-04-26T10:18:16.002Z</time></trkpt><trkpt lat="43.54227130293451" lon="12.31361705311172"><ele>869.0</ele><time>2026-04-26T10:18:18.002Z</time></trkpt><trkpt lat="43.54220103071432" lon="12.31364953864572"><ele>869.0</ele><time>2026-04-26T10:18:21.002Z</time></trkpt><trkpt lat="43.542207534972256" lon="12.313538329234804"><ele>869.0</ele><time>2026-04-26T10:18:24.002Z</time></trkpt><trkpt lat="43.542233376591184" lon="12.31342872687331"><ele>869.0000000000001</ele><time>2026-04-26T10:18:26.002Z</time></trkpt><trkpt lat="43.54224216868835" lon="12.313286128315411"><ele>869.0000000000001</ele><time>2026-04-26T10:18:28.002Z</time></trkpt><trkpt lat="43.54223164495675" lon="12.313145878829259"><ele>869.0</ele><time>2026-04-26T10:18:30.002Z</time></trkpt><trkpt lat="43.542212478033754" lon="12.312998700735921"><ele>869.0</ele><time>2026-04-26T10:18:32.002Z</time></trkpt><trkpt lat="43.542173321252825" lon="12.312837070001247"><ele>869.8333333333334</ele><time>2026-04-26T10:18:34.002Z</time></trkpt><trkpt lat="43.542150816891315" lon="12.312744331104291"><ele>870.6666666666667</ele><time>2026-04-26T10:18:35.002Z</time></trkpt><trkpt lat="43.54212496154686" lon="12.3126475192929"><ele>871.5</ele><time>2026-04-26T10:18:36Z</time></trkpt><trkpt lat="43.542092999919426" lon="12.31254988864307"><ele>872.3333333333333</ele><time>2026-04-26T10:18:37Z</time></trkpt><trkpt lat="43.54205193180607" lon="12.312466238968074"><ele>873.1666666666666</ele><time>2026-04-26T10:18:38Z</time></trkpt><trkpt lat="43.54200058344587" lon="12.312324696908489"><ele>874.0</ele><time>2026-04-26T10:18:40Z</time></trkpt><trkpt lat="43.54197582378279" lon="12.312220269113196"><ele>868.4999999999999</ele><time>2026-04-26T10:18:41Z</time></trkpt><trkpt lat="43.54193738575532" lon="12.312116439819391"><ele>863.0</ele><time>2026-04-26T10:18:42Z</time></trkpt><trkpt lat="43.54190860976994" lon="12.312022596596504"><ele>857.5</ele><time>2026-04-26T10:18:43Z</time></trkpt><trkpt lat="43.541903639552274" lon="12.311919432494262"><ele>852.0</ele><time>2026-04-26T10:18:44Z</time></trkpt><trkpt lat="43.54190054038057" lon="12.311819889233414"><ele>846.4999999999999</ele><time>2026-04-26T10:18:45Z</time></trkpt><trkpt lat="43.54188507166066" lon="12.311706836049915"><ele>841.0</ele><time>2026-04-26T10:18:46Z</time></trkpt><trkpt lat="43.54186878724858" lon="12.3115989048775"><ele>840.9999999999999</ele><time>2026-04-26T10:18:47Z</time></trkpt><trkpt lat="43.541862959079765" lon="12.3114870117447"><ele>841.0</ele><time>2026-04-26T10:18:48Z</time></trkpt><trkpt lat="43.54186954471382" lon="12.311384835699032"><ele>841.0</ele><time>2026-04-26T10:18:49Z</time></trkpt><trkpt lat="43.54188543696074" lon="12.311274106312196"><ele>841.0</ele><time>2026-04-26T10:18:50Z</time></trkpt><trkpt lat="43.541903131958364" lon="12.311157360186668"><ele>840.9999999999999</ele><time>2026-04-26T10:18:51Z</time></trkpt><trkpt lat="43.54192274520366" lon="12.31104941156826"><ele>841.0</ele><time>2026-04-26T10:18:52Z</time></trkpt><trkpt lat="43.54194283137823" lon="12.310937433324142"><ele>841.1666666666666</ele><time>2026-04-26T10:18:53Z</time></trkpt><trkpt lat="43.54195419399698" lon="12.310819412930169"><ele>841.3333333333333</ele><time>2026-04-26T10:18:54Z</time></trkpt><trkpt lat="43.54195298401539" lon="12.31071467547563"><ele>841.5</ele><time>2026-04-26T10:18:55Z</time></trkpt><trkpt lat="43.541943239926155" lon="12.310591935480991"><ele>841.6666666666667</ele><time>2026-04-26T10:18:56Z</time></trkpt><trkpt lat="43.5419190162474" lon="12.310478673341628"><ele>841.8333333333334</ele><time>2026-04-26T10:18:57Z</time></trkpt><trkpt lat="43.5418861004508" lon="12.3103677443668"><ele>842.0</ele><time>2026-04-26T10:18:58Z</time></trkpt><trkpt lat="43.54184990618819" lon="12.310262465813091"><ele>843.0000000000001</ele><time>2026-04-26T10:18:59Z</time></trkpt><trkpt lat="43.54181305656846" lon="12.310184945243332"><ele>844.0</ele><time>2026-04-26T10:19:00Z</time></trkpt><trkpt lat="43.541759377101364" lon="12.310107105551182"><ele>845.0</ele><time>2026-04-26T10:19:01Z</time></trkpt><trkpt lat="43.54171210435528" lon="12.310032951170607"><ele>846.0</ele><time>2026-04-26T10:19:02Z</time></trkpt><trkpt lat="43.5416895110156" lon="12.309883774016887"><ele>847.0000000000001</ele><time>2026-04-26T10:19:04Z</time></trkpt><trkpt lat="43.541691352088016" lon="12.309790475725816"><ele>848.0</ele><time>2026-04-26T10:19:05Z</time></trkpt><trkpt lat="43.541663039013535" lon="12.309693730995328"><ele>850.0</ele><time>2026-04-26T10:19:06Z</time></trkpt><trkpt lat="43.54162016953723" lon="12.309577754823259"><ele>852.0</ele><time>2026-04-26T10:19:07Z</time></trkpt><trkpt lat="43.54159388332867" lon="12.309476170689349"><ele>854.0</ele><time>2026-04-26T10:19:08Z</time></trkpt><trkpt lat="43.54155261237907" lon="12.309312381926485"><ele>856.0</ele><time>2026-04-26T10:19:10.001Z</time></trkpt><trkpt lat="43.54151835412577" lon="12.309198675149313"><ele>858.0</ele><time>2026-04-26T10:19:11.001Z</time></trkpt><trkpt lat="43.54147569736802" lon="12.30908962213587"><ele>858.0</ele><time>2026-04-26T10:19:12.001Z</time></trkpt><trkpt lat="43.54144735987579" lon="12.308997362333715"><ele>858.0</ele><time>2026-04-26T10:19:13.001Z</time></trkpt><trkpt lat="43.54141080339179" lon="12.308920373452734"><ele>858.0</ele><time>2026-04-26T10:19:14.001Z</time></trkpt><trkpt lat="43.54137461130389" lon="12.308829403731519"><ele>858.0</ele><time>2026-04-26T10:19:15.001Z</time></trkpt><trkpt lat="43.541292275818954" lon="12.308702948276865"><ele>858.0</ele><time>2026-04-26T10:19:17.001Z</time></trkpt><trkpt lat="43.54122587430376" lon="12.308632176354942"><ele>858.0</ele><time>2026-04-26T10:19:18.001Z</time></trkpt><trkpt lat="43.54115235111129" lon="12.308571901183667"><ele>857.1428571428571</ele><time>2026-04-26T10:19:19.001Z</time></trkpt><trkpt lat="43.54110195103945" lon="12.308491383139334"><ele>856.2857142857143</ele><time>2026-04-26T10:19:20.001Z</time></trkpt><trkpt lat="43.54105526015438" lon="12.308408422239134"><ele>855.4285714285713</ele><time>2026-04-26T10:19:21.001Z</time></trkpt><trkpt lat="43.54100904751962" lon="12.308319529034927"><ele>854.5714285714286</ele><time>2026-04-26T10:19:22.001Z</time></trkpt><trkpt lat="43.540974538092094" lon="12.308221086432031"><ele>853.7142857142857</ele><time>2026-04-26T10:19:23.001Z</time></trkpt><trkpt lat="43.54095903732294" lon="12.308133696091401"><ele>852.8571428571428</ele><time>2026-04-26T10:19:24.001Z</time></trkpt><trkpt lat="43.540936221011066" lon="12.308051799727538"><ele>852.0</ele><time>2026-04-26T10:19:25.001Z</time></trkpt><trkpt lat="43.540900080628134" lon="12.307963700779279"><ele>852.0</ele><time>2026-04-26T10:19:26.001Z</time></trkpt><trkpt lat="43.54081866746612" lon="12.307832154093916"><ele>852.0</ele><time>2026-04-26T10:19:28.001Z</time></trkpt><trkpt lat="43.5407514784724" lon="12.3076690431649"><ele>852.0</ele><time>2026-04-26T10:19:30.001Z</time></trkpt><trkpt lat="43.540720812576645" lon="12.30756874222092"><ele>852.0</ele><time>2026-04-26T10:19:31.001Z</time></trkpt><trkpt lat="43.54069197351747" lon="12.307452228086916"><ele>852.0</ele><time>2026-04-26T10:19:32.001Z</time></trkpt><trkpt lat="43.54066207401773" lon="12.307358099967523"><ele>852.0</ele><time>2026-04-26T10:19:33.001Z</time></trkpt><trkpt lat="43.540652281913204" lon="12.30727048054157"><ele>852.0</ele><time>2026-04-26T10:19:34.001Z</time></trkpt><trkpt lat="43.5406333431453" lon="12.30717361943054"><ele>852.0</ele><time>2026-04-26T10:19:35.001Z</time></trkpt><trkpt lat="43.54060414502038" lon="12.307086620386341"><ele>852.0</ele><time>2026-04-26T10:19:36.001Z</time></trkpt><trkpt lat="43.54055882230294" lon="12.307014809562684"><ele>852.0</ele><time>2026-04-26T10:19:37.001Z</time></trkpt><trkpt lat="43.54048377963718" lon="12.306894727878417"><ele>852.0</ele><time>2026-04-26T10:19:39.001Z</time></trkpt><trkpt lat="43.54045407588562" lon="12.306799906472818"><ele>850.7142857142857</ele><time>2026-04-26T10:19:40.001Z</time></trkpt><trkpt lat="43.54042274407695" lon="12.306704300908411"><ele>849.4285714285714</ele><time>2026-04-26T10:19:41.001Z</time></trkpt><trkpt lat="43.54038692704002" lon="12.306616516901233"><ele>848.1428571428571</ele><time>2026-04-26T10:19:42.001Z</time></trkpt><trkpt lat="43.540351721063" lon="12.306530173576027"><ele>846.8571428571429</ele><time>2026-04-26T10:19:43.001Z</time></trkpt><trkpt lat="43.540319214350895" lon="12.306424134415092"><ele>845.5714285714286</ele><time>2026-04-26T10:19:44.001Z</time></trkpt><trkpt lat="43.540296231254" lon="12.306329746838209"><ele>844.2857142857142</ele><time>2026-04-26T10:19:45.001Z</time></trkpt><trkpt lat="43.540279841817124" lon="12.306234887005283"><ele>843.0</ele><time>2026-04-26T10:19:46.001Z</time></trkpt><trkpt lat="43.540259840646605" lon="12.30612933247487"><ele>841.6666666666666</ele><time>2026-04-26T10:19:47.001Z</time></trkpt><trkpt lat="43.540232677917786" lon="12.306013003976018"><ele>840.3333333333333</ele><time>2026-04-26T10:19:48.001Z</time></trkpt><trkpt lat="43.5402088067165" lon="12.305910931089777"><ele>839.0</ele><time>2026-04-26T10:19:49.001Z</time></trkpt><trkpt lat="43.5401706664208" lon="12.305761748395152"><ele>837.6666666666666</ele><time>2026-04-26T10:19:51.001Z</time></trkpt><trkpt lat="43.540138330690965" lon="12.305684127337923"><ele>836.3333333333333</ele><time>2026-04-26T10:19:52.001Z</time></trkpt><trkpt lat="43.54008367076399" lon="12.305596494051585"><ele>835.0</ele><time>2026-04-26T10:19:53.001Z</time></trkpt><trkpt lat="43.54003763683172" lon="12.305523886661623"><ele>833.6</ele><time>2026-04-26T10:19:54.001Z</time></trkpt><trkpt lat="43.539991062475316" lon="12.305447295780313"><ele>832.2</ele><time>2026-04-26T10:19:55.001Z</time></trkpt><trkpt lat="43.53995409021078" lon="12.305371248609447"><ele>830.8</ele><time>2026-04-26T10:19:56.001Z</time></trkpt><trkpt lat="43.53990172722023" lon="12.305273803224486"><ele>829.4</ele><time>2026-04-26T10:19:57.001Z</time></trkpt><trkpt lat="43.53986905138212" lon="12.305173749827441"><ele>828.0</ele><time>2026-04-26T10:19:58.001Z</time></trkpt><trkpt lat="43.539842259197556" lon="12.304969582768868"><ele>828.0</ele><time>2026-04-26T10:20:00.002Z</time></trkpt><trkpt lat="43.539812344391116" lon="12.304860752540408"><ele>828.0</ele><time>2026-04-26T10:20:01.002Z</time></trkpt><trkpt lat="43.53977529613842" lon="12.304768456950121"><ele>828.0</ele><time>2026-04-26T10:20:02.002Z</time></trkpt><trkpt lat="43.53973591111573" lon="12.304687657565633"><ele>828.0</ele><time>2026-04-26T10:20:03.002Z</time></trkpt><trkpt lat="43.539698207858386" lon="12.30460838155525"><ele>828.0</ele><time>2026-04-26T10:20:04.002Z</time></trkpt><trkpt lat="43.539590968801015" lon="12.304483240623735"><ele>828.0</ele><time>2026-04-26T10:20:06.002Z</time></trkpt><trkpt lat="43.53951814618563" lon="12.304398959885365"><ele>827.3333333333334</ele><time>2026-04-26T10:20:07.002Z</time></trkpt><trkpt lat="43.53946305108975" lon="12.304322948800811"><ele>826.6666666666667</ele><time>2026-04-26T10:20:08.002Z</time></trkpt><trkpt lat="43.53941867981633" lon="12.304234793532354"><ele>826.0</ele><time>2026-04-26T10:20:09.002Z</time></trkpt><trkpt lat="43.539386456825525" lon="12.304159707446194"><ele>825.3333333333334</ele><time>2026-04-26T10:20:10.002Z</time></trkpt><trkpt lat="43.53934545773462" lon="12.304089136792257"><ele>824.6666666666667</ele><time>2026-04-26T10:20:11.002Z</time></trkpt><trkpt lat="43.53928056313214" lon="12.303927810510938"><ele>824.0</ele><time>2026-04-26T10:20:13.002Z</time></trkpt><trkpt lat="43.53925724109906" lon="12.303762080991197"><ele>824.0</ele><time>2026-04-26T10:20:15.002Z</time></trkpt><trkpt lat="43.53919122059137" lon="12.303624944408377"><ele>824.0</ele><time>2026-04-26T10:20:17.002Z</time></trkpt><trkpt lat="43.539129697661885" lon="12.303483958994063"><ele>824.0</ele><time>2026-04-26T10:20:19.002Z</time></trkpt><trkpt lat="43.53909947806883" lon="12.303364401949493"><ele>824.0</ele><time>2026-04-26T10:20:21.002Z</time></trkpt><trkpt lat="43.539030778488694" lon="12.303272789031785"><ele>824.0</ele><time>2026-04-26T10:20:23.002Z</time></trkpt><trkpt lat="43.53896404079198" lon="12.303155329166062"><ele>819.4000000000001</ele><time>2026-04-26T10:20:25.002Z</time></trkpt><trkpt lat="43.5389067298796" lon="12.303051458010627"><ele>814.8</ele><time>2026-04-26T10:20:27.002Z</time></trkpt><trkpt lat="43.53884882690507" lon="12.302992874458006"><ele>810.2</ele><time>2026-04-26T10:20:29.002Z</time></trkpt><trkpt lat="43.53876558269802" lon="12.302894386773671"><ele>805.5999999999999</ele><time>2026-04-26T10:20:31.002Z</time></trkpt><trkpt lat="43.538713403124156" lon="12.302784051528318"><ele>801.0</ele><time>2026-04-26T10:20:33.002Z</time></trkpt><trkpt lat="43.53866465311594" lon="12.302683699882998"><ele>800.5</ele><time>2026-04-26T10:20:35.002Z</time></trkpt><trkpt lat="43.5386336353458" lon="12.302581860239997"><ele>800.0</ele><time>2026-04-26T10:20:37.002Z</time></trkpt><trkpt lat="43.538555925708124" lon="12.302482193649857"><ele>799.5</ele><time>2026-04-26T10:20:39.002Z</time></trkpt><trkpt lat="43.538503519927765" lon="12.302386848209409"><ele>799.0</ele><time>2026-04-26T10:20:41.002Z</time></trkpt><trkpt lat="43.53847515930339" lon="12.302301554527679"><ele>798.5</ele><time>2026-04-26T10:20:43.001Z</time></trkpt><trkpt lat="43.538417467344985" lon="12.302202104309275"><ele>798.0</ele><time>2026-04-26T10:20:45.001Z</time></trkpt><trkpt lat="43.5383802032107" lon="12.302123761283097"><ele>795.0</ele><time>2026-04-26T10:20:46.001Z</time></trkpt><trkpt lat="43.53832524653243" lon="12.302034781240891"><ele>792.0</ele><time>2026-04-26T10:20:48.001Z</time></trkpt><trkpt lat="43.53826054632549" lon="12.301934047614202"><ele>789.0</ele><time>2026-04-26T10:20:50.001Z</time></trkpt><trkpt lat="43.53815345058032" lon="12.301862620191569"><ele>786.0</ele><time>2026-04-26T10:20:52.001Z</time></trkpt><trkpt lat="43.53808550818391" lon="12.301747714221007"><ele>783.0</ele><time>2026-04-26T10:20:54.001Z</time></trkpt><trkpt lat="43.53801615618567" lon="12.301619046120697"><ele>783.0</ele><time>2026-04-26T10:20:56.001Z</time></trkpt><trkpt lat="43.53792990887865" lon="12.301497288189983"><ele>783.0</ele><time>2026-04-26T10:20:58.001Z</time></trkpt><trkpt lat="43.537842754976374" lon="12.301374300104236"><ele>783.0</ele><time>2026-04-26T10:21:00.001Z</time></trkpt><trkpt lat="43.53775561554412" lon="12.301243503579185"><ele>783.0</ele><time>2026-04-26T10:21:02.001Z</time></trkpt><trkpt lat="43.53767462273016" lon="12.301119177992987"><ele>781.6666666666666</ele><time>2026-04-26T10:21:04.001Z</time></trkpt><trkpt lat="43.537622068377594" lon="12.301042616091681"><ele>780.3333333333333</ele><time>2026-04-26T10:21:05.001Z</time></trkpt><trkpt lat="43.53757182429197" lon="12.300980392004396"><ele>779.0</ele><time>2026-04-26T10:21:06.001Z</time></trkpt><trkpt lat="43.53751383647861" lon="12.300910834328992"><ele>777.6666666666666</ele><time>2026-04-26T10:21:07.001Z</time></trkpt><trkpt lat="43.53745421051278" lon="12.300827750592628"><ele>776.3333333333333</ele><time>2026-04-26T10:21:08.001Z</time></trkpt><trkpt lat="43.53738711157601" lon="12.30075881818453"><ele>775.0</ele><time>2026-04-26T10:21:09.001Z</time></trkpt><trkpt lat="43.53732631021377" lon="12.300695947722753"><ele>774.9999999999999</ele><time>2026-04-26T10:21:10.001Z</time></trkpt><trkpt lat="43.53727153093111" lon="12.300639404036483"><ele>775.0</ele><time>2026-04-26T10:21:11.001Z</time></trkpt><trkpt lat="43.5372074040013" lon="12.30058689722041"><ele>775.0</ele><time>2026-04-26T10:21:12.001Z</time></trkpt><trkpt lat="43.53714709028279" lon="12.300544433483289"><ele>775.0</ele><time>2026-04-26T10:21:13.001Z</time></trkpt><trkpt lat="43.53708122642693" lon="12.30050355933394"><ele>775.0</ele><time>2026-04-26T10:21:14.001Z</time></trkpt><trkpt lat="43.537025939821326" lon="12.300460934300924"><ele>774.9999999999999</ele><time>2026-04-26T10:21:15.001Z</time></trkpt><trkpt lat="43.536974175598615" lon="12.300400428999062"><ele>775.0</ele><time>2026-04-26T10:21:16.001Z</time></trkpt><trkpt lat="43.53691440881285" lon="12.300334287994636"><ele>773.1666666666666</ele><time>2026-04-26T10:21:17.001Z</time></trkpt><trkpt lat="43.53685922932906" lon="12.300261348848263"><ele>771.3333333333333</ele><time>2026-04-26T10:21:19.001Z</time></trkpt><trkpt lat="43.536806976628796" lon="12.300175018703856"><ele>769.5</ele><time>2026-04-26T10:21:23.001Z</time></trkpt><trkpt lat="43.53675264715127" lon="12.30007335014691"><ele>767.6666666666666</ele><time>2026-04-26T10:21:25.001Z</time></trkpt><trkpt lat="43.53669895371447" lon="12.299982559254945"><ele>765.8333333333333</ele><time>2026-04-26T10:21:27.001Z</time></trkpt><trkpt lat="43.53665678056345" lon="12.299915094371066"><ele>764.0</ele><time>2026-04-26T10:21:29.001Z</time></trkpt><trkpt lat="43.53663008522699" lon="12.299834025951844"><ele>762.6</ele><time>2026-04-26T10:21:32.001Z</time></trkpt><trkpt lat="43.53657598252988" lon="12.299725464128153"><ele>761.2</ele><time>2026-04-26T10:21:50.001Z</time></trkpt><trkpt lat="43.536478505937886" lon="12.299675392146938"><ele>759.8000000000001</ele><time>2026-04-26T10:21:52.001Z</time></trkpt><trkpt lat="43.53637700171505" lon="12.299593195659254"><ele>758.4000000000001</ele><time>2026-04-26T10:21:54.001Z</time></trkpt><trkpt lat="43.536335026220364" lon="12.299516361338553"><ele>757.0</ele><time>2026-04-26T10:21:55.001Z</time></trkpt><trkpt lat="43.53629494060057" lon="12.299436737340606"><ele>757.0</ele><time>2026-04-26T10:21:56.001Z</time></trkpt><trkpt lat="43.53625621103483" lon="12.29934573165567"><ele>757.0</ele><time>2026-04-26T10:21:57.002Z</time></trkpt><trkpt lat="43.53620319153386" lon="12.299208077496464"><ele>757.0</ele><time>2026-04-26T10:21:59.002Z</time></trkpt><trkpt lat="43.53619325788198" lon="12.299081451678306"><ele>757.0</ele><time>2026-04-26T10:22:02.002Z</time></trkpt><trkpt lat="43.5361656062513" lon="12.298990457650492"><ele>757.0</ele><time>2026-04-26T10:22:04.002Z</time></trkpt><trkpt lat="43.53612254458223" lon="12.298885227049855"><ele>757.0</ele><time>2026-04-26T10:22:06.002Z</time></trkpt><trkpt lat="43.53609478567179" lon="12.298771160199085"><ele>755.0</ele><time>2026-04-26T10:22:08.002Z</time></trkpt><trkpt lat="43.536068935228506" lon="12.298661718672681"><ele>753.0</ele><time>2026-04-26T10:22:10.002Z</time></trkpt><trkpt lat="43.536056027275464" lon="12.298562374490732"><ele>751.0</ele><time>2026-04-26T10:22:12.002Z</time></trkpt><trkpt lat="43.536039663332815" lon="12.29847156996908"><ele>749.0</ele><time>2026-04-26T10:22:14.002Z</time></trkpt><trkpt lat="43.53600935093781" lon="12.298349706062917"><ele>747.0</ele><time>2026-04-26T10:22:16.002Z</time></trkpt><trkpt lat="43.535972654093335" lon="12.298257476028125"><ele>745.0</ele><time>2026-04-26T10:22:18.002Z</time></trkpt><trkpt lat="43.53592949957631" lon="12.298150786793906"><ele>742.0</ele><time>2026-04-26T10:22:20.002Z</time></trkpt><trkpt lat="43.53591126910403" lon="12.298062002165466"><ele>739.0</ele><time>2026-04-26T10:22:22.002Z</time></trkpt><trkpt lat="43.535885213449475" lon="12.297964444521687"><ele>736.0</ele><time>2026-04-26T10:22:24.002Z</time></trkpt><trkpt lat="43.53582902884665" lon="12.29785877029958"><ele>733.0</ele><time>2026-04-26T10:22:27.002Z</time></trkpt><trkpt lat="43.53575469258982" lon="12.297792328144393"><ele>730.0</ele><time>2026-04-26T10:22:29.002Z</time></trkpt><trkpt lat="43.53570934764066" lon="12.297701481479816"><ele>727.0</ele><time>2026-04-26T10:22:32.002Z</time></trkpt><trkpt lat="43.53563933494248" lon="12.297597098403324"><ele>727.0</ele><time>2026-04-26T10:22:34.002Z</time></trkpt><trkpt lat="43.53558266100915" lon="12.29752544598629"><ele>727.0</ele><time>2026-04-26T10:22:36.002Z</time></trkpt><trkpt lat="43.53551682509713" lon="12.297446874082869"><ele>727.0</ele><time>2026-04-26T10:22:38.002Z</time></trkpt><trkpt lat="43.535503247406226" lon="12.297356240932148"><ele>727.0</ele><time>2026-04-26T10:22:40.002Z</time></trkpt><trkpt lat="43.53550307187451" lon="12.297208819655188"><ele>727.0</ele><time>2026-04-26T10:22:42.002Z</time></trkpt><trkpt lat="43.53550626702437" lon="12.297092675429695"><ele>727.0</ele><time>2026-04-26T10:22:43.002Z</time></trkpt><trkpt lat="43.53551099940616" lon="12.296970102525208"><ele>724.3333333333334</ele><time>2026-04-26T10:22:44.002Z</time></trkpt><trkpt lat="43.535522317171704" lon="12.296847181814464"><ele>721.6666666666667</ele><time>2026-04-26T10:22:45.002Z</time></trkpt><trkpt lat="43.53552909932492" lon="12.296728347719823"><ele>719.0</ele><time>2026-04-26T10:22:46.002Z</time></trkpt><trkpt lat="43.53554008372326" lon="12.296628253551942"><ele>716.3333333333334</ele><time>2026-04-26T10:22:47.002Z</time></trkpt><trkpt lat="43.535544087712594" lon="12.296529933100812"><ele>713.6666666666666</ele><time>2026-04-26T10:22:48.001Z</time></trkpt><trkpt lat="43.53553347408162" lon="12.296427321787403"><ele>711.0</ele><time>2026-04-26T10:22:49.001Z</time></trkpt><trkpt lat="43.53551491778683" lon="12.296305669515464"><ele>710.1666666666666</ele><time>2026-04-26T10:22:50.001Z</time></trkpt><trkpt lat="43.53549982637096" lon="12.2961940532214"><ele>709.3333333333334</ele><time>2026-04-26T10:22:51.001Z</time></trkpt><trkpt lat="43.53549082297314" lon="12.296079964437913"><ele>708.5</ele><time>2026-04-26T10:22:52.001Z</time></trkpt><trkpt lat="43.5354809157912" lon="12.295963021944555"><ele>707.6666666666667</ele><time>2026-04-26T10:22:53.001Z</time></trkpt><trkpt lat="43.5354581927915" lon="12.295868369868117"><ele>706.8333333333334</ele><time>2026-04-26T10:22:54.001Z</time></trkpt><trkpt lat="43.5354259551879" lon="12.295782695836541"><ele>706.0</ele><time>2026-04-26T10:22:55.001Z</time></trkpt><trkpt lat="43.53540888782283" lon="12.295684789644865"><ele>706.1999999999999</ele><time>2026-04-26T10:22:56.001Z</time></trkpt><trkpt lat="43.535359579066" lon="12.295527006873677"><ele>706.4</ele><time>2026-04-26T10:22:58.001Z</time></trkpt><trkpt lat="43.53531716740749" lon="12.295393374387093"><ele>706.6</ele><time>2026-04-26T10:23:00.001Z</time></trkpt><trkpt lat="43.5353134630675" lon="12.29521327527384"><ele>706.8</ele><time>2026-04-26T10:23:02.001Z</time></trkpt><trkpt lat="43.53530973122475" lon="12.2951252567029"><ele>707.0</ele><time>2026-04-26T10:23:03.001Z</time></trkpt><trkpt lat="43.53527399295805" lon="12.2949789269199"><ele>707.0</ele><time>2026-04-26T10:23:05.001Z</time></trkpt><trkpt lat="43.5352362971039" lon="12.294902740621895"><ele>707.0</ele><time>2026-04-26T10:23:06.001Z</time></trkpt><trkpt lat="43.535181954491065" lon="12.294768616163442"><ele>707.0</ele><time>2026-04-26T10:23:08.001Z</time></trkpt><trkpt lat="43.53515369431391" lon="12.294619305912857"><ele>707.0</ele><time>2026-04-26T10:23:10.001Z</time></trkpt><trkpt lat="43.535116195843884" lon="12.294479820784106"><ele>707.0</ele><time>2026-04-26T10:23:12.001Z</time></trkpt><trkpt lat="43.535070340995354" lon="12.29433520180873"><ele>704.6</ele><time>2026-04-26T10:23:14.001Z</time></trkpt><trkpt lat="43.535031576899286" lon="12.294241793222373"><ele>702.2</ele><time>2026-04-26T10:23:15.001Z</time></trkpt><trkpt lat="43.53497609054589" lon="12.294113829514012"><ele>699.8</ele><time>2026-04-26T10:23:17.001Z</time></trkpt><trkpt lat="43.53493503477899" lon="12.293942103043275"><ele>697.4</ele><time>2026-04-26T10:23:19.001Z</time></trkpt><trkpt lat="43.53493462767429" lon="12.293843027648872"><ele>695.0</ele><time>2026-04-26T10:23:20.001Z</time></trkpt><trkpt lat="43.534934028218764" lon="12.293724334031852"><ele>692.6666666666666</ele><time>2026-04-26T10:23:21.001Z</time></trkpt><trkpt lat="43.534932653094565" lon="12.293618007496521"><ele>690.3333333333333</ele><time>2026-04-26T10:23:22.001Z</time></trkpt><trkpt lat="43.534928138561" lon="12.293511827303087"><ele>688.0</ele><time>2026-04-26T10:23:23.001Z</time></trkpt><trkpt lat="43.53492795093251" lon="12.293409828105851"><ele>685.6666666666666</ele><time>2026-04-26T10:23:24.001Z</time></trkpt><trkpt lat="43.53492578807638" lon="12.293319364694382"><ele>683.3333333333334</ele><time>2026-04-26T10:23:25.001Z</time></trkpt><trkpt lat="43.53490430104349" lon="12.293185745357821"><ele>681.0</ele><time>2026-04-26T10:23:26.001Z</time></trkpt><trkpt lat="43.53486926310554" lon="12.293080857488244"><ele>680.0000000000001</ele><time>2026-04-26T10:23:27.001Z</time></trkpt><trkpt lat="43.53483176864617" lon="12.29299866469414"><ele>679.0</ele><time>2026-04-26T10:23:28.001Z</time></trkpt><trkpt lat="43.534789780768534" lon="12.292911589461164"><ele>678.0</ele><time>2026-04-26T10:23:29.001Z</time></trkpt><trkpt lat="43.53474758356588" lon="12.292815622975713"><ele>677.0</ele><time>2026-04-26T10:23:30.001Z</time></trkpt><trkpt lat="43.53472951898609" lon="12.292727597969108"><ele>676.0</ele><time>2026-04-26T10:23:31.001Z</time></trkpt><trkpt lat="43.53472447958989" lon="12.292628432448723"><ele>675.0000000000001</ele><time>2026-04-26T10:23:32.001Z</time></trkpt><trkpt lat="43.5347312134365" lon="12.292532178180997"><ele>674.0</ele><time>2026-04-26T10:23:33.001Z</time></trkpt><trkpt lat="43.53472845592415" lon="12.292439794510734"><ele>674.0</ele><time>2026-04-26T10:23:34.001Z</time></trkpt><trkpt lat="43.53470069009404" lon="12.292339967866265"><ele>674.0</ele><time>2026-04-26T10:23:35.001Z</time></trkpt><trkpt lat="43.53464900192358" lon="12.292270776584106"><ele>674.0</ele><time>2026-04-26T10:23:36.001Z</time></trkpt><trkpt lat="43.53460131513669" lon="12.29220886872784"><ele>674.0</ele><time>2026-04-26T10:23:37.001Z</time></trkpt><trkpt lat="43.53456436910791" lon="12.292068492509532"><ele>674.0</ele><time>2026-04-26T10:23:39.001Z</time></trkpt><trkpt lat="43.53455512666" lon="12.291950429808402"><ele>674.0</ele><time>2026-04-26T10:23:40.001Z</time></trkpt><trkpt lat="43.53453779032708" lon="12.291826325974194"><ele>671.1666666666666</ele><time>2026-04-26T10:23:41.001Z</time></trkpt><trkpt lat="43.53450814604821" lon="12.29171858471456"><ele>668.3333333333333</ele><time>2026-04-26T10:23:42.001Z</time></trkpt><trkpt lat="43.53444732959192" lon="12.291628422806694"><ele>665.5</ele><time>2026-04-26T10:23:43.001Z</time></trkpt><trkpt lat="43.53440059261228" lon="12.29156260269749"><ele>662.6666666666666</ele><time>2026-04-26T10:23:44.001Z</time></trkpt><trkpt lat="43.53436044076959" lon="12.291482853926752"><ele>659.8333333333334</ele><time>2026-04-26T10:23:45.001Z</time></trkpt><trkpt lat="43.53432025581345" lon="12.29140391674054"><ele>657.0</ele><time>2026-04-26T10:23:46.001Z</time></trkpt><trkpt lat="43.53426605227726" lon="12.29132209844542"><ele>657.0</ele><time>2026-04-26T10:23:47.001Z</time></trkpt><trkpt lat="43.534153687094985" lon="12.291205765061564"><ele>657.0</ele><time>2026-04-26T10:23:49.001Z</time></trkpt><trkpt lat="43.53404849078831" lon="12.291098871038232"><ele>657.0</ele><time>2026-04-26T10:23:51.001Z</time></trkpt><trkpt lat="43.533994206414896" lon="12.290973722184065"><ele>657.0</ele><time>2026-04-26T10:23:53.001Z</time></trkpt><trkpt lat="43.53390495611912" lon="12.29087367475321"><ele>657.0</ele><time>2026-04-26T10:23:55.001Z</time></trkpt><trkpt lat="43.53385909203802" lon="12.290785337413233"><ele>657.0</ele><time>2026-04-26T10:23:57.001Z</time></trkpt><trkpt lat="43.53384046118591" lon="12.29061149691884"><ele>657.0</ele><time>2026-04-26T10:23:59.001Z</time></trkpt><trkpt lat="43.53383629699476" lon="12.29042948459778"><ele>657.0</ele><time>2026-04-26T10:24:01.001Z</time></trkpt><trkpt lat="43.53383673731215" lon="12.290334119808552"><ele>657.0</ele><time>2026-04-26T10:24:02.001Z</time></trkpt><trkpt lat="43.53384049256771" lon="12.29023212432031"><ele>655.5</ele><time>2026-04-26T10:24:03.001Z</time></trkpt><trkpt lat="43.533843110997736" lon="12.290130147646684"><ele>654.0</ele><time>2026-04-26T10:24:04.001Z</time></trkpt><trkpt lat="43.533851091515835" lon="12.289963688722816"><ele>652.5</ele><time>2026-04-26T10:24:06.001Z</time></trkpt><trkpt lat="43.53381952590656" lon="12.289778252824778"><ele>651.0</ele><time>2026-04-26T10:24:08.001Z</time></trkpt><trkpt lat="43.53377981184949" lon="12.289612160484785"><ele>648.4</ele><time>2026-04-26T10:24:10.001Z</time></trkpt><trkpt lat="43.53376043711468" lon="12.289513802913177"><ele>645.8</ele><time>2026-04-26T10:24:11.001Z</time></trkpt><trkpt lat="43.53374695315207" lon="12.289337086330406"><ele>643.1999999999999</ele><time>2026-04-26T10:24:13.001Z</time></trkpt><trkpt lat="43.5337418860792" lon="12.289174529619283"><ele>640.5999999999999</ele><time>2026-04-26T10:24:15.002Z</time></trkpt><trkpt lat="43.533687514372225" lon="12.289022114714745"><ele>638.0</ele><time>2026-04-26T10:24:17.002Z</time></trkpt><trkpt lat="43.53360900901663" lon="12.288908181207496"><ele>635.1999999999999</ele><time>2026-04-26T10:24:19.002Z</time></trkpt><trkpt lat="43.53351323620568" lon="12.288807308742896"><ele>632.4</ele><time>2026-04-26T10:24:21.002Z</time></trkpt><trkpt lat="43.533507639618804" lon="12.288710215699997"><ele>629.5999999999999</ele><time>2026-04-26T10:24:22.002Z</time></trkpt><trkpt lat="43.53350458603301" lon="12.288612006327902"><ele>626.8</ele><time>2026-04-26T10:24:23.002Z</time></trkpt><trkpt lat="43.5334962946846" lon="12.288518107716405"><ele>624.0</ele><time>2026-04-26T10:24:24.002Z</time></trkpt><trkpt lat="43.53344229653299" lon="12.28837181591322"><ele>624.0</ele><time>2026-04-26T10:24:26.002Z</time></trkpt><trkpt lat="43.53335136419823" lon="12.288275285603133"><ele>624.0</ele><time>2026-04-26T10:24:28.002Z</time></trkpt><trkpt lat="43.53328823451833" lon="12.288142198877614"><ele>624.0</ele><time>2026-04-26T10:24:30.002Z</time></trkpt><trkpt lat="43.533239465132716" lon="12.288022058818926"><ele>624.0</ele><time>2026-04-26T10:24:32.002Z</time></trkpt><trkpt lat="43.53319217118746" lon="12.287873068934408"><ele>624.0</ele><time>2026-04-26T10:24:34.002Z</time></trkpt><trkpt lat="43.53315212466957" lon="12.287739617799472"><ele>621.3333333333334</ele><time>2026-04-26T10:24:36.002Z</time></trkpt><trkpt lat="43.53311656361643" lon="12.287661798401578"><ele>618.6666666666666</ele><time>2026-04-26T10:24:37.002Z</time></trkpt><trkpt lat="43.533062425353634" lon="12.287555499086027"><ele>616.0</ele><time>2026-04-26T10:24:39.002Z</time></trkpt><trkpt lat="43.53301566196944" lon="12.287490229967249"><ele>613.3333333333333</ele><time>2026-04-26T10:24:41.002Z</time></trkpt><trkpt lat="43.53301038377712" lon="12.287373717554338"><ele>610.6666666666666</ele><time>2026-04-26T10:24:44.002Z</time></trkpt><trkpt lat="43.53305583389122" lon="12.287283235410111"><ele>608.0</ele><time>2026-04-26T10:24:46.002Z</time></trkpt><trkpt lat="43.533121297989055" lon="12.287274766546192"><ele>608.0</ele><time>2026-04-26T10:24:48.002Z</time></trkpt><trkpt lat="43.53323544594048" lon="12.287274396592423"><ele>608.0</ele><time>2026-04-26T10:24:50.002Z</time></trkpt><trkpt lat="43.533338520218194" lon="12.28731172299881"><ele>608.0</ele><time>2026-04-26T10:24:52.002Z</time></trkpt><trkpt lat="43.53344596188128" lon="12.287312689120142"><ele>608.0</ele><time>2026-04-26T10:24:54.001Z</time></trkpt><trkpt lat="43.533536762330144" lon="12.287331315808643"><ele>608.0</ele><time>2026-04-26T10:24:56.001Z</time></trkpt><trkpt lat="43.53360029349691" lon="12.287340701136332"><ele>608.0</ele><time>2026-04-26T10:24:57.001Z</time></trkpt><trkpt lat="43.53368324334173" lon="12.287321928969972"><ele>608.0</ele><time>2026-04-26T10:24:59.001Z</time></trkpt><trkpt lat="43.5337523891651" lon="12.287215156740913"><ele>608.0</ele><time>2026-04-26T10:25:01.001Z</time></trkpt><trkpt lat="43.533799613860474" lon="12.28708865936389"><ele>608.0</ele><time>2026-04-26T10:25:03Z</time></trkpt><trkpt lat="43.5337974439851" lon="12.28694843929979"><ele>608.0</ele><time>2026-04-26T10:25:05Z</time></trkpt><trkpt lat="43.53380317437316" lon="12.286804266718903"><ele>602.5</ele><time>2026-04-26T10:25:07Z</time></trkpt><trkpt lat="43.53386432552433" lon="12.286667855529195"><ele>597.0</ele><time>2026-04-26T10:25:09Z</time></trkpt><trkpt lat="43.53390224710313" lon="12.286596153099996"><ele>591.5</ele><time>2026-04-26T10:25:10Z</time></trkpt><trkpt lat="43.533944802745346" lon="12.28652321176065"><ele>586.0</ele><time>2026-04-26T10:25:11Z</time></trkpt><trkpt lat="43.533991658455804" lon="12.286458337176906"><ele>580.5</ele><time>2026-04-26T10:25:12Z</time></trkpt><trkpt lat="43.53404292350142" lon="12.286390357792516"><ele>575.0</ele><time>2026-04-26T10:25:14Z</time></trkpt><trkpt lat="43.53412055613393" lon="12.286401263288335"><ele>573.6666666666666</ele><time>2026-04-26T10:25:16Z</time></trkpt><trkpt lat="43.534206673192536" lon="12.28639573197048"><ele>572.3333333333333</ele><time>2026-04-26T10:25:18.001Z</time></trkpt><trkpt lat="43.53423643601788" lon="12.286267997907936"><ele>571.0</ele><time>2026-04-26T10:25:20.001Z</time></trkpt><trkpt lat="43.53418798008251" lon="12.286113401056467"><ele>569.6666666666666</ele><time>2026-04-26T10:25:22.001Z</time></trkpt><trkpt lat="43.53414983508341" lon="12.286036297643564"><ele>568.3333333333334</ele><time>2026-04-26T10:25:23.001Z</time></trkpt><trkpt lat="43.53410858111595" lon="12.285963311100154"><ele>567.0</ele><time>2026-04-26T10:25:24.001Z</time></trkpt><trkpt lat="43.534067023903894" lon="12.285893851183701"><ele>567.0</ele><time>2026-04-26T10:25:25.001Z</time></trkpt><trkpt lat="43.53399609546227" lon="12.285769305343479"><ele>567.0</ele><time>2026-04-26T10:25:27.001Z</time></trkpt><trkpt lat="43.53393896831845" lon="12.285657557589474"><ele>567.0</ele><time>2026-04-26T10:25:29.001Z</time></trkpt><trkpt lat="43.53394126172853" lon="12.285540366410666"><ele>567.0</ele><time>2026-04-26T10:25:31.001Z</time></trkpt><trkpt lat="43.53397334036428" lon="12.285381121934952"><ele>567.0</ele><time>2026-04-26T10:25:33.001Z</time></trkpt><trkpt lat="43.53397943314891" lon="12.285284435197992"><ele>563.8000000000001</ele><time>2026-04-26T10:25:34.001Z</time></trkpt><trkpt lat="43.53396990164545" lon="12.285170992137589"><ele>560.6</ele><time>2026-04-26T10:25:35.001Z</time></trkpt><trkpt lat="43.53395538247915" lon="12.285065319434679"><ele>557.4000000000001</ele><time>2026-04-26T10:25:36.001Z</time></trkpt><trkpt lat="43.53394426813215" lon="12.284977268150303"><ele>554.2</ele><time>2026-04-26T10:25:37.001Z</time></trkpt><trkpt lat="43.533953925239665" lon="12.284803552995738"><ele>551.0</ele><time>2026-04-26T10:25:39.001Z</time></trkpt><trkpt lat="43.5340170067601" lon="12.284679660919675"><ele>547.6</ele><time>2026-04-26T10:25:41.001Z</time></trkpt><trkpt lat="43.534103390099965" lon="12.284567661007074"><ele>544.2</ele><time>2026-04-26T10:25:43.001Z</time></trkpt><trkpt lat="43.53413016447876" lon="12.284425942797641"><ele>540.8</ele><time>2026-04-26T10:25:45.001Z</time></trkpt><trkpt lat="43.53409438364166" lon="12.284341893222406"><ele>537.4</ele><time>2026-04-26T10:25:46.001Z</time></trkpt><trkpt lat="43.53402379296636" lon="12.284167508367373"><ele>534.0</ele><time>2026-04-26T10:25:48.001Z</time></trkpt><trkpt lat="43.53398304065544" lon="12.284067968836235"><ele>534.0</ele><time>2026-04-26T10:25:49.001Z</time></trkpt><trkpt lat="43.53394730676664" lon="12.283967006011387"><ele>534.0</ele><time>2026-04-26T10:25:50.001Z</time></trkpt><trkpt lat="43.5339168721459" lon="12.283862452168675"><ele>534.0</ele><time>2026-04-26T10:25:51.001Z</time></trkpt><trkpt lat="43.533851429764006" lon="12.283703373083357"><ele>534.0</ele><time>2026-04-26T10:25:53.001Z</time></trkpt><trkpt lat="43.533761898138685" lon="12.283613056981867"><ele>534.0</ele><time>2026-04-26T10:25:55.001Z</time></trkpt><trkpt lat="43.533643436648596" lon="12.283547913489688"><ele>531.1666666666666</ele><time>2026-04-26T10:25:57.001Z</time></trkpt><trkpt lat="43.533575576219356" lon="12.283510675375117"><ele>528.3333333333334</ele><time>2026-04-26T10:25:58.001Z</time></trkpt><trkpt lat="43.53350779087915" lon="12.283477913304448"><ele>525.5</ele><time>2026-04-26T10:25:59.001Z</time></trkpt><trkpt lat="43.533443764310775" lon="12.283450307804337"><ele>522.6666666666667</ele><time>2026-04-26T10:26:00.001Z</time></trkpt><trkpt lat="43.53332780294832" lon="12.283392363943006"><ele>519.8333333333334</ele><time>2026-04-26T10:26:02.001Z</time></trkpt><trkpt lat="43.53321872276866" lon="12.283347915621528"><ele>517.0</ele><time>2026-04-26T10:26:04.001Z</time></trkpt><trkpt lat="43.533185707948704" lon="12.283231394234043"><ele>517.0</ele><time>2026-04-26T10:26:06.001Z</time></trkpt><trkpt lat="43.533196648597134" lon="12.28312671104453"><ele>517.0</ele><time>2026-04-26T10:26:07.001Z</time></trkpt><trkpt lat="43.53322534275598" lon="12.283044680129542"><ele>517.0</ele><time>2026-04-26T10:26:08.001Z</time></trkpt><trkpt lat="43.533273232787906" lon="12.282928031996029"><ele>517.0</ele><time>2026-04-26T10:26:10.001Z</time></trkpt><trkpt lat="43.533305082879956" lon="12.282763995796836"><ele>517.0</ele><time>2026-04-26T10:26:12.001Z</time></trkpt><trkpt lat="43.533317920503784" lon="12.282677309501134"><ele>517.0</ele><time>2026-04-26T10:26:13.001Z</time></trkpt><trkpt lat="43.53331287594164" lon="12.282533531842077"><ele>513.6</ele><time>2026-04-26T10:26:15.001Z</time></trkpt><trkpt lat="43.533330258346275" lon="12.282406383461225"><ele>510.20000000000005</ele><time>2026-04-26T10:26:17.001Z</time></trkpt><trkpt lat="43.53338306243181" lon="12.282296650506783"><ele>506.8</ele><time>2026-04-26T10:26:19.001Z</time></trkpt><trkpt lat="43.53343725066989" lon="12.282187280125582"><ele>503.4</ele><time>2026-04-26T10:26:21.001Z</time></trkpt><trkpt lat="43.53348546654439" lon="12.282070599023694"><ele>500.0</ele><time>2026-04-26T10:26:23.001Z</time></trkpt><trkpt lat="43.53355179216227" lon="12.281973685902763"><ele>496.4</ele><time>2026-04-26T10:26:25.001Z</time></trkpt><trkpt lat="43.53363676406591" lon="12.281876652733022"><ele>492.8</ele><time>2026-04-26T10:26:27.001Z</time></trkpt><trkpt lat="43.533727992359296" lon="12.281793227416593"><ele>489.20000000000005</ele><time>2026-04-26T10:26:29.001Z</time></trkpt><trkpt lat="43.533827528828795" lon="12.281727053860642"><ele>485.6</ele><time>2026-04-26T10:26:31.002Z</time></trkpt><trkpt lat="43.53391035615048" lon="12.281635364352368"><ele>482.0</ele><time>2026-04-26T10:26:33.002Z</time></trkpt><trkpt lat="43.53396525549163" lon="12.281507284705347"><ele>479.20000000000005</ele><time>2026-04-26T10:26:35.002Z</time></trkpt><trkpt lat="43.534004082946616" lon="12.281349089023868"><ele>476.40000000000003</ele><time>2026-04-26T10:26:37.002Z</time></trkpt><trkpt lat="43.53403760846017" lon="12.281227187255555"><ele>473.59999999999997</ele><time>2026-04-26T10:26:39.002Z</time></trkpt><trkpt lat="43.53411045012904" lon="12.281135147877468"><ele>470.79999999999995</ele><time>2026-04-26T10:26:41.002Z</time></trkpt><trkpt lat="43.53415433026783" lon="12.281017569071748"><ele>468.0</ele><time>2026-04-26T10:26:43.002Z</time></trkpt><trkpt lat="43.534132437633914" lon="12.280871626511104"><ele>468.0</ele><time>2026-04-26T10:26:45.002Z</time></trkpt><trkpt lat="43.53409106135702" lon="12.280783039376292"><ele>468.0</ele><time>2026-04-26T10:26:46.002Z</time></trkpt><trkpt lat="43.534053220665065" lon="12.280703972442593"><ele>468.0</ele><time>2026-04-26T10:26:47.002Z</time></trkpt><trkpt lat="43.53399308564032" lon="12.28055125383279"><ele>468.0</ele><time>2026-04-26T10:26:49.002Z</time></trkpt><trkpt lat="43.533967748626914" lon="12.280465447463392"><ele>468.0</ele><time>2026-04-26T10:26:50.002Z</time></trkpt><trkpt lat="43.533950124640214" lon="12.280382028812934"><ele>468.0</ele><time>2026-04-26T10:26:51.002Z</time></trkpt><trkpt lat="43.53391831177392" lon="12.280250404516226"><ele>468.4</ele><time>2026-04-26T10:26:53.002Z</time></trkpt><trkpt lat="43.53387877984139" lon="12.280136133683"><ele>468.79999999999995</ele><time>2026-04-26T10:26:55.002Z</time></trkpt><trkpt lat="43.53387041983222" lon="12.280014729244318"><ele>469.2</ele><time>2026-04-26T10:26:57.002Z</time></trkpt><trkpt lat="43.53377957308003" lon="12.279953790489323"><ele>469.6</ele><time>2026-04-26T10:28:08.001Z</time></trkpt><trkpt lat="43.53368820525014" lon="12.279868080449344"><ele>470.0</ele><time>2026-04-26T10:28:10.001Z</time></trkpt><trkpt lat="43.533608821971484" lon="12.279825504165025"><ele>469.99999999999994</ele><time>2026-04-26T10:28:12.001Z</time></trkpt><trkpt lat="43.5334999973252" lon="12.279805018221813"><ele>470.0</ele><time>2026-04-26T10:28:14.001Z</time></trkpt><trkpt lat="43.53340112148297" lon="12.279783394959791"><ele>470.0</ele><time>2026-04-26T10:28:16.001Z</time></trkpt><trkpt lat="43.53334032277062" lon="12.279724746184597"><ele>470.0</ele><time>2026-04-26T10:28:18.001Z</time></trkpt><trkpt lat="43.53336122335944" lon="12.279611889141032"><ele>469.99999999999994</ele><time>2026-04-26T10:28:20.001Z</time></trkpt><trkpt lat="43.533352206754344" lon="12.279504292270678"><ele>470.0</ele><time>2026-04-26T10:28:22.001Z</time></trkpt><trkpt lat="43.53327971226767" lon="12.279397461090033"><ele>469.99999999999994</ele><time>2026-04-26T10:28:24.001Z</time></trkpt><trkpt lat="43.53317764733508" lon="12.279332735291804"><ele>470.0</ele><time>2026-04-26T10:28:26.001Z</time></trkpt><trkpt lat="43.53305566786734" lon="12.279298546093338"><ele>470.0</ele><time>2026-04-26T10:28:28.001Z</time></trkpt><trkpt lat="43.53298942785593" lon="12.279272016566773"><ele>470.0</ele><time>2026-04-26T10:28:29.001Z</time></trkpt><trkpt lat="43.53292664683216" lon="12.279238370342188"><ele>469.99999999999994</ele><time>2026-04-26T10:28:30.001Z</time></trkpt><trkpt lat="43.53286485560092" lon="12.279205304730553"><ele>470.0</ele><time>2026-04-26T10:28:31.001Z</time></trkpt><trkpt lat="43.53274528496057" lon="12.279175985755161"><ele>468.16666666666663</ele><time>2026-04-26T10:28:33.001Z</time></trkpt><trkpt lat="43.53261937871426" lon="12.2792197712852"><ele>466.3333333333333</ele><time>2026-04-26T10:28:35.001Z</time></trkpt><trkpt lat="43.53254315945962" lon="12.27926614940971"><ele>464.5</ele><time>2026-04-26T10:28:36.001Z</time></trkpt><trkpt lat="43.532468682366094" lon="12.279315971599303"><ele>462.66666666666663</ele><time>2026-04-26T10:28:37.001Z</time></trkpt><trkpt lat="43.53239711355627" lon="12.27934617686264"><ele>460.8333333333333</ele><time>2026-04-26T10:28:38.001Z</time></trkpt><trkpt lat="43.532318592691695" lon="12.279351298400595"><ele>459.0</ele><time>2026-04-26T10:28:39.001Z</time></trkpt><trkpt lat="43.53224527226943" lon="12.279332272975854"><ele>459.0</ele><time>2026-04-26T10:28:40.001Z</time></trkpt><trkpt lat="43.53216809338297" lon="12.279297759912088"><ele>459.0</ele><time>2026-04-26T10:28:41.001Z</time></trkpt><trkpt lat="43.53210719398166" lon="12.27923228825888"><ele>459.0</ele><time>2026-04-26T10:28:42.001Z</time></trkpt><trkpt lat="43.532057338210144" lon="12.279154628154872"><ele>459.0</ele><time>2026-04-26T10:28:43.001Z</time></trkpt><trkpt lat="43.5320151009502" lon="12.279063321752925"><ele>459.0</ele><time>2026-04-26T10:28:44.001Z</time></trkpt><trkpt lat="43.53196485049737" lon="12.278977194445405"><ele>459.0</ele><time>2026-04-26T10:28:45.001Z</time></trkpt><trkpt lat="43.531886123853795" lon="12.278927034266843"><ele>460.0</ele><time>2026-04-26T10:28:46.001Z</time></trkpt><trkpt lat="43.531811649854156" lon="12.278859919041366"><ele>461.0</ele><time>2026-04-26T10:28:47.001Z</time></trkpt><trkpt lat="43.53175766837167" lon="12.278772954811078"><ele>462.0</ele><time>2026-04-26T10:28:48.001Z</time></trkpt><trkpt lat="43.53170367331098" lon="12.278681312038454"><ele>463.0</ele><time>2026-04-26T10:28:49.001Z</time></trkpt><trkpt lat="43.53165038121794" lon="12.278585114085686"><ele>464.0</ele><time>2026-04-26T10:28:50.001Z</time></trkpt><trkpt lat="43.5316050422242" lon="12.278500494669814"><ele>465.0</ele><time>2026-04-26T10:28:51.001Z</time></trkpt><trkpt lat="43.531561440229524" lon="12.278401709969046"><ele>465.0</ele><time>2026-04-26T10:28:52.001Z</time></trkpt><trkpt lat="43.53151648241489" lon="12.27829305144398"><ele>465.0</ele><time>2026-04-26T10:28:53.001Z</time></trkpt><trkpt lat="43.53147587783904" lon="12.278201519774411"><ele>465.0</ele><time>2026-04-26T10:28:54.001Z</time></trkpt><trkpt lat="43.5314269523626" lon="12.278132647755072"><ele>465.0</ele><time>2026-04-26T10:28:55.001Z</time></trkpt><trkpt lat="43.53135069654515" lon="12.278086807423037"><ele>465.0</ele><time>2026-04-26T10:28:56.001Z</time></trkpt><trkpt lat="43.531247343235925" lon="12.278103436482684"><ele>465.0</ele><time>2026-04-26T10:28:57.001Z</time></trkpt><trkpt lat="43.5311718872956" lon="12.27809107449624"><ele>470.8333333333333</ele><time>2026-04-26T10:28:58.001Z</time></trkpt><trkpt lat="43.5310796026568" lon="12.278118455158527"><ele>476.66666666666663</ele><time>2026-04-26T10:28:59.001Z</time></trkpt><trkpt lat="43.53100344975815" lon="12.278149045227407"><ele>482.5</ele><time>2026-04-26T10:29:00.002Z</time></trkpt><trkpt lat="43.53092464717908" lon="12.27817863333625"><ele>488.3333333333333</ele><time>2026-04-26T10:29:01.002Z</time></trkpt><trkpt lat="43.53085100042313" lon="12.278195029281404"><ele>494.16666666666663</ele><time>2026-04-26T10:29:02.002Z</time></trkpt><trkpt lat="43.530765776473714" lon="12.278201643862488"><ele>500.0</ele><time>2026-04-26T10:29:03.002Z</time></trkpt><trkpt lat="43.530682485610086" lon="12.278210822256574"><ele>499.99999999999994</ele><time>2026-04-26T10:29:04.002Z</time></trkpt><trkpt lat="43.5306044311667" lon="12.278221374899037"><ele>500.0</ele><time>2026-04-26T10:29:05.002Z</time></trkpt><trkpt lat="43.530524110567285" lon="12.278262307573383"><ele>500.0</ele><time>2026-04-26T10:29:06Z</time></trkpt><trkpt lat="43.53047858519417" lon="12.278365133635653"><ele>500.0</ele><time>2026-04-26T10:29:07Z</time></trkpt><trkpt lat="43.53042033837099" lon="12.278439103026235"><ele>499.99999999999994</ele><time>2026-04-26T10:29:08Z</time></trkpt><trkpt lat="43.53035176942656" lon="12.278446272741654"><ele>500.0</ele><time>2026-04-26T10:29:09Z</time></trkpt><trkpt lat="43.53031196828562" lon="12.2783519900461"><ele>502.16666666666663</ele><time>2026-04-26T10:29:11Z</time></trkpt><trkpt lat="43.53031691176466" lon="12.278218574968218"><ele>504.3333333333333</ele><time>2026-04-26T10:29:13Z</time></trkpt><trkpt lat="43.53034579103413" lon="12.278128160956264"><ele>506.5</ele><time>2026-04-26T10:29:14Z</time></trkpt><trkpt lat="43.530344258323815" lon="12.278024372590426"><ele>508.66666666666663</ele><time>2026-04-26T10:29:15Z</time></trkpt><trkpt lat="43.53032762198919" lon="12.277927611958228"><ele>510.8333333333333</ele><time>2026-04-26T10:29:16Z</time></trkpt><trkpt lat="43.53026869896156" lon="12.277840226318187"><ele>513.0</ele><time>2026-04-26T10:29:17Z</time></trkpt><trkpt lat="43.530174687857894" lon="12.277856605244864"><ele>513.0</ele><time>2026-04-26T10:29:18Z</time></trkpt><trkpt lat="43.53009369054951" lon="12.277900305584058"><ele>513.0</ele><time>2026-04-26T10:29:19Z</time></trkpt><trkpt lat="43.53004342576415" lon="12.278001009728339"><ele>513.0</ele><time>2026-04-26T10:29:20Z</time></trkpt><trkpt lat="43.52998686836624" lon="12.278077947415865"><ele>513.0</ele><time>2026-04-26T10:29:21Z</time></trkpt><trkpt lat="43.52993288772763" lon="12.278163566401547"><ele>513.0</ele><time>2026-04-26T10:29:22Z</time></trkpt><trkpt lat="43.52986664069553" lon="12.278227272901725"><ele>513.0</ele><time>2026-04-26T10:29:23Z</time></trkpt><trkpt lat="43.5297991813759" lon="12.27827957259488"><ele>513.0</ele><time>2026-04-26T10:29:24Z</time></trkpt><trkpt lat="43.529714829327" lon="12.278356369668941"><ele>513.0</ele><time>2026-04-26T10:29:25Z</time></trkpt><trkpt lat="43.529636756598585" lon="12.278434007183687"><ele>513.0</ele><time>2026-04-26T10:29:26Z</time></trkpt><trkpt lat="43.5295576646996" lon="12.27850294008647"><ele>513.0</ele><time>2026-04-26T10:29:27Z</time></trkpt><trkpt lat="43.529476104203376" lon="12.278543180998573"><ele>513.0</ele><time>2026-04-26T10:29:28Z</time></trkpt><trkpt lat="43.529403464305254" lon="12.278548049010329"><ele>515.3333333333334</ele><time>2026-04-26T10:29:29Z</time></trkpt><trkpt lat="43.52932730603699" lon="12.278527247243586"><ele>517.6666666666666</ele><time>2026-04-26T10:29:30Z</time></trkpt><trkpt lat="43.52924102100172" lon="12.278502375502333"><ele>520.0</ele><time>2026-04-26T10:29:31Z</time></trkpt><trkpt lat="43.5291477121534" lon="12.278478458224566"><ele>522.3333333333333</ele><time>2026-04-26T10:29:32Z</time></trkpt><trkpt lat="43.52905820491825" lon="12.278456051009966"><ele>524.6666666666666</ele><time>2026-04-26T10:29:33Z</time></trkpt><trkpt lat="43.52897435169008" lon="12.27844442016544"><ele>527.0</ele><time>2026-04-26T10:29:34Z</time></trkpt><trkpt lat="43.528907814024556" lon="12.278468336133264"><ele>527.0</ele><time>2026-04-26T10:29:35Z</time></trkpt><trkpt lat="43.52880709176425" lon="12.278535246365053"><ele>527.0</ele><time>2026-04-26T10:29:37Z</time></trkpt><trkpt lat="43.52877119319512" lon="12.278631681802636"><ele>527.0</ele><time>2026-04-26T10:29:38Z</time></trkpt><trkpt lat="43.52874315099253" lon="12.278759255369483"><ele>527.0</ele><time>2026-04-26T10:29:39Z</time></trkpt><trkpt lat="43.52871389058137" lon="12.278900985607727"><ele>527.0</ele><time>2026-04-26T10:29:40Z</time></trkpt><trkpt lat="43.52868826529593" lon="12.279042155013729"><ele>525.0</ele><time>2026-04-26T10:29:41Z</time></trkpt><trkpt lat="43.528660482593715" lon="12.279184682700166"><ele>523.0</ele><time>2026-04-26T10:29:42Z</time></trkpt><trkpt lat="43.52862416052401" lon="12.279308551515465"><ele>521.0</ele><time>2026-04-26T10:29:43Z</time></trkpt><trkpt lat="43.5285616479909" lon="12.279413952497004"><ele>519.0</ele><time>2026-04-26T10:29:44Z</time></trkpt><trkpt lat="43.52850161137095" lon="12.279520739273348"><ele>517.0</ele><time>2026-04-26T10:29:45Z</time></trkpt><trkpt lat="43.528432747902244" lon="12.279609059404619"><ele>517.0</ele><time>2026-04-26T10:29:46Z</time></trkpt><trkpt lat="43.528362485997384" lon="12.279669498372387"><ele>517.0</ele><time>2026-04-26T10:29:47Z</time></trkpt><trkpt lat="43.528281659848155" lon="12.279678273586523"><ele>517.0</ele><time>2026-04-26T10:29:48Z</time></trkpt><trkpt lat="43.5281949871926" lon="12.279657715101147"><ele>517.0</ele><time>2026-04-26T10:29:49Z</time></trkpt><trkpt lat="43.52809666044917" lon="12.279652616812253"><ele>517.0</ele><time>2026-04-26T10:29:50Z</time></trkpt><trkpt lat="43.52799506455638" lon="12.279669775804232"><ele>517.0</ele><time>2026-04-26T10:29:51Z</time></trkpt><trkpt lat="43.5278972766308" lon="12.279694496976706"><ele>517.0</ele><time>2026-04-26T10:29:52Z</time></trkpt><trkpt lat="43.52781251585419" lon="12.27974301460549"><ele>517.0</ele><time>2026-04-26T10:29:53Z</time></trkpt><trkpt lat="43.52772728685806" lon="12.279771753478443"><ele>517.0</ele><time>2026-04-26T10:29:54Z</time></trkpt><trkpt lat="43.52764874024713" lon="12.279810233273821"><ele>517.0</ele><time>2026-04-26T10:29:55Z</time></trkpt><trkpt lat="43.527577407276816" lon="12.279844546320554"><ele>517.0</ele><time>2026-04-26T10:29:56Z</time></trkpt><trkpt lat="43.52749716287223" lon="12.279865382144552"><ele>517.8000000000001</ele><time>2026-04-26T10:29:57Z</time></trkpt><trkpt lat="43.52741666665571" lon="12.279903339852966"><ele>518.6</ele><time>2026-04-26T10:29:59.001Z</time></trkpt><trkpt lat="43.52741714909893" lon="12.280003343473913"><ele>519.4000000000001</ele><time>2026-04-26T10:30:03.001Z</time></trkpt><trkpt lat="43.52753357994126" lon="12.280006816144022"><ele>520.2</ele><time>2026-04-26T10:30:04.001Z</time></trkpt><trkpt lat="43.527640359215304" lon="12.280035645285704"><ele>521.0</ele><time>2026-04-26T10:30:06.001Z</time></trkpt><trkpt lat="43.5277059606012" lon="12.28005437128383"><ele>521.0</ele><time>2026-04-26T10:30:07.001Z</time></trkpt><trkpt lat="43.52777371462582" lon="12.280059357046179"><ele>521.0</ele><time>2026-04-26T10:30:08.001Z</time></trkpt><trkpt lat="43.52786098225184" lon="12.280093885589693"><ele>521.0</ele><time>2026-04-26T10:30:09.001Z</time></trkpt><trkpt lat="43.52797236648815" lon="12.280178984649842"><ele>521.0</ele><time>2026-04-26T10:30:11.001Z</time></trkpt><trkpt lat="43.52803124196026" lon="12.280232998915306"><ele>521.0</ele><time>2026-04-26T10:30:12.001Z</time></trkpt><trkpt lat="43.52807273413183" lon="12.280299293417803"><ele>521.0</ele><time>2026-04-26T10:30:13.001Z</time></trkpt><trkpt lat="43.52812913456715" lon="12.280414495782969"><ele>522.0</ele><time>2026-04-26T10:30:15.001Z</time></trkpt><trkpt lat="43.52821049532418" lon="12.280559315142776"><ele>523.0</ele><time>2026-04-26T10:30:17.001Z</time></trkpt><trkpt lat="43.52825919996326" lon="12.28062821952653"><ele>524.0</ele><time>2026-04-26T10:30:18.001Z</time></trkpt><trkpt lat="43.52830506755919" lon="12.280700214696488"><ele>525.0</ele><time>2026-04-26T10:30:19.001Z</time></trkpt><trkpt lat="43.528362027510354" lon="12.28076413765424"><ele>526.0</ele><time>2026-04-26T10:30:20.001Z</time></trkpt><trkpt lat="43.528430655931224" lon="12.280815074199301"><ele>527.0</ele><time>2026-04-26T10:30:21.001Z</time></trkpt><trkpt lat="43.5285120365148" lon="12.280845245111484"><ele>528.3333333333333</ele><time>2026-04-26T10:30:22.001Z</time></trkpt><trkpt lat="43.52859366419933" lon="12.280869331516078"><ele>529.6666666666666</ele><time>2026-04-26T10:30:23.001Z</time></trkpt><trkpt lat="43.528670868511966" lon="12.280913892764303"><ele>531.0</ele><time>2026-04-26T10:30:24.001Z</time></trkpt><trkpt lat="43.528724051089085" lon="12.2809780390666"><ele>532.3333333333334</ele><time>2026-04-26T10:30:25.001Z</time></trkpt><trkpt lat="43.52874861979278" lon="12.281066355511982"><ele>533.6666666666667</ele><time>2026-04-26T10:30:26.001Z</time></trkpt><trkpt lat="43.5287568333975" lon="12.281176635161334"><ele>535.0</ele><time>2026-04-26T10:30:27.001Z</time></trkpt><trkpt lat="43.52876216204412" lon="12.281298743794745"><ele>537.4</ele><time>2026-04-26T10:30:28.001Z</time></trkpt><trkpt lat="43.52876837545129" lon="12.281415743155844"><ele>539.8</ele><time>2026-04-26T10:30:29.001Z</time></trkpt><trkpt lat="43.52877765619254" lon="12.281525391517887"><ele>542.2</ele><time>2026-04-26T10:30:30.001Z</time></trkpt><trkpt lat="43.52880980602252" lon="12.281715279274055"><ele>544.6</ele><time>2026-04-26T10:30:32.001Z</time></trkpt><trkpt lat="43.52878836962313" lon="12.281832051176842"><ele>547.0</ele><time>2026-04-26T10:30:33.001Z</time></trkpt><trkpt lat="43.52876423022235" lon="12.28194627744614"><ele>546.6666666666667</ele><time>2026-04-26T10:30:34.001Z</time></trkpt><trkpt lat="43.5287343154086" lon="12.28206630290111"><ele>546.3333333333334</ele><time>2026-04-26T10:30:35.001Z</time></trkpt><trkpt lat="43.5287232506246" lon="12.282160393847295"><ele>546.0</ele><time>2026-04-26T10:30:36.001Z</time></trkpt><trkpt lat="43.52872840603406" lon="12.282255690071475"><ele>545.6666666666666</ele><time>2026-04-26T10:30:37.001Z</time></trkpt><trkpt lat="43.528744932727335" lon="12.282363000678528"><ele>545.3333333333333</ele><time>2026-04-26T10:30:38.001Z</time></trkpt><trkpt lat="43.52877209013801" lon="12.282469498180246"><ele>545.0</ele><time>2026-04-26T10:30:39.001Z</time></trkpt><trkpt lat="43.52880774616386" lon="12.282581472654917"><ele>547.0</ele><time>2026-04-26T10:30:40.001Z</time></trkpt><trkpt lat="43.52882060739149" lon="12.282671232153653"><ele>549.0</ele><time>2026-04-26T10:30:41.001Z</time></trkpt><trkpt lat="43.528760806485394" lon="12.282811449669685"><ele>551.0</ele><time>2026-04-26T10:30:43.001Z</time></trkpt><trkpt lat="43.52868919356432" lon="12.282834534037114"><ele>553.0</ele><time>2026-04-26T10:30:44.001Z</time></trkpt><trkpt lat="43.52860939926782" lon="12.282818743073118"><ele>555.0</ele><time>2026-04-26T10:30:45.001Z</time></trkpt><trkpt lat="43.52852790719433" lon="12.282805361101437"><ele>557.0</ele><time>2026-04-26T10:30:46.001Z</time></trkpt><trkpt lat="43.528420285637296" lon="12.282809546077756"><ele>557.0</ele><time>2026-04-26T10:30:47.001Z</time></trkpt><trkpt lat="43.52831372073611" lon="12.282818406098205"><ele>557.0</ele><time>2026-04-26T10:30:48.001Z</time></trkpt><trkpt lat="43.52821907587087" lon="12.282838652446207"><ele>557.0</ele><time>2026-04-26T10:30:49.001Z</time></trkpt><trkpt lat="43.52812295978065" lon="12.28286255276311"><ele>557.0</ele><time>2026-04-26T10:30:50.001Z</time></trkpt><trkpt lat="43.5280347318943" lon="12.28288202122182"><ele>557.0</ele><time>2026-04-26T10:30:51.001Z</time></trkpt><trkpt lat="43.527951358569204" lon="12.282910145109232"><ele>555.2</ele><time>2026-04-26T10:30:52.001Z</time></trkpt><trkpt lat="43.52787005536142" lon="12.282939195106318"><ele>553.4000000000001</ele><time>2026-04-26T10:30:53.001Z</time></trkpt><trkpt lat="43.527772982709095" lon="12.282990130014028"><ele>551.5999999999999</ele><time>2026-04-26T10:30:54.001Z</time></trkpt><trkpt lat="43.527693833499846" lon="12.283031449509949"><ele>549.8</ele><time>2026-04-26T10:30:55.001Z</time></trkpt><trkpt lat="43.52760153273811" lon="12.283055966501031"><ele>548.0</ele><time>2026-04-26T10:30:56.001Z</time></trkpt><trkpt lat="43.527515776405274" lon="12.283046199668266"><ele>548.0</ele><time>2026-04-26T10:30:57.002Z</time></trkpt><trkpt lat="43.527437106481564" lon="12.283006756371698"><ele>548.0</ele><time>2026-04-26T10:30:58.002Z</time></trkpt><trkpt lat="43.52736363219499" lon="12.282979352736362"><ele>548.0</ele><time>2026-04-26T10:30:59.002Z</time></trkpt><trkpt lat="43.52729523085666" lon="12.28298411045407"><ele>548.0</ele><time>2026-04-26T10:31:00.002Z</time></trkpt><trkpt lat="43.52723905985316" lon="12.283024754776113"><ele>548.0</ele><time>2026-04-26T10:31:01.002Z</time></trkpt><trkpt lat="43.52719032194866" lon="12.28310263296428"><ele>548.0</ele><time>2026-04-26T10:31:02.002Z</time></trkpt><trkpt lat="43.5271525967748" lon="12.283224215237784"><ele>550.8</ele><time>2026-04-26T10:31:03.002Z</time></trkpt><trkpt lat="43.527105329745815" lon="12.283333714604447"><ele>553.5999999999999</ele><time>2026-04-26T10:31:04.002Z</time></trkpt><trkpt lat="43.52704177237737" lon="12.283410883664155"><ele>556.4000000000001</ele><time>2026-04-26T10:31:05.002Z</time></trkpt><trkpt lat="43.52695319515604" lon="12.283461377889944"><ele>559.2</ele><time>2026-04-26T10:31:06.002Z</time></trkpt><trkpt lat="43.52685711707508" lon="12.283490829689843"><ele>562.0</ele><time>2026-04-26T10:31:07.002Z</time></trkpt><trkpt lat="43.526765266748626" lon="12.283465928135719"><ele>562.0</ele><time>2026-04-26T10:31:08.002Z</time></trkpt><trkpt lat="43.52666508129942" lon="12.283471098693365"><ele>562.0</ele><time>2026-04-26T10:31:09.002Z</time></trkpt><trkpt lat="43.52659206079422" lon="12.283486339907471"><ele>562.0</ele><time>2026-04-26T10:31:10.002Z</time></trkpt><trkpt lat="43.52654652751708" lon="12.283554766623453"><ele>562.0</ele><time>2026-04-26T10:31:11.002Z</time></trkpt><trkpt lat="43.526482107051" lon="12.28362211073384"><ele>562.0</ele><time>2026-04-26T10:31:11.999Z</time></trkpt><trkpt lat="43.5264204743968" lon="12.28367963676555"><ele>562.0</ele><time>2026-04-26T10:31:12.999Z</time></trkpt><trkpt lat="43.526341520742854" lon="12.283732568333713"><ele>562.0</ele><time>2026-04-26T10:31:13.999Z</time></trkpt><trkpt lat="43.52625495218225" lon="12.283713312287752"><ele>562.0</ele><time>2026-04-26T10:31:14.999Z</time></trkpt><trkpt lat="43.52617840532362" lon="12.283690833071939"><ele>562.0</ele><time>2026-04-26T10:31:15.999Z</time></trkpt><trkpt lat="43.526085460160054" lon="12.283673129886315"><ele>562.0</ele><time>2026-04-26T10:31:16.999Z</time></trkpt><trkpt lat="43.52598456535928" lon="12.283680633579502"><ele>562.0</ele><time>2026-04-26T10:31:17.999Z</time></trkpt><trkpt lat="43.525892520026275" lon="12.283676176498622"><ele>561.8333333333334</ele><time>2026-04-26T10:31:18.999Z</time></trkpt><trkpt lat="43.5258208979341" lon="12.28369413333344"><ele>561.6666666666667</ele><time>2026-04-26T10:31:19.999Z</time></trkpt><trkpt lat="43.52573609521192" lon="12.28373266917174"><ele>561.5</ele><time>2026-04-26T10:31:20.999Z</time></trkpt><trkpt lat="43.52565721497638" lon="12.283781973301679"><ele>561.3333333333334</ele><time>2026-04-26T10:31:21.999Z</time></trkpt><trkpt lat="43.52557367305592" lon="12.283788404433286"><ele>561.1666666666666</ele><time>2026-04-26T10:31:22.999Z</time></trkpt><trkpt lat="43.525497397049804" lon="12.283784637995636"><ele>561.0</ele><time>2026-04-26T10:31:23.999Z</time></trkpt><trkpt lat="43.525434452822346" lon="12.283795942014576"><ele>561.0</ele><time>2026-04-26T10:31:24.999Z</time></trkpt><trkpt lat="43.525359006319505" lon="12.283821998805504"><ele>561.0</ele><time>2026-04-26T10:31:25.999Z</time></trkpt><trkpt lat="43.5252703986773" lon="12.283866427194281"><ele>561.0</ele><time>2026-04-26T10:31:27Z</time></trkpt><trkpt lat="43.52519912672498" lon="12.283901677263227"><ele>561.0</ele><time>2026-04-26T10:31:28Z</time></trkpt><trkpt lat="43.52511403744813" lon="12.283901223129027"><ele>561.0</ele><time>2026-04-26T10:31:29Z</time></trkpt><trkpt lat="43.52505118781996" lon="12.28392041153519"><ele>561.0</ele><time>2026-04-26T10:31:30Z</time></trkpt><trkpt lat="43.52498481966701" lon="12.283964354412731"><ele>563.6666666666666</ele><time>2026-04-26T10:31:31Z</time></trkpt><trkpt lat="43.524935451274" lon="12.284088480768999"><ele>566.3333333333334</ele><time>2026-04-26T10:31:33Z</time></trkpt><trkpt lat="43.52492396187261" lon="12.284176195229426"><ele>569.0</ele><time>2026-04-26T10:31:34Z</time></trkpt><trkpt lat="43.524908461814846" lon="12.284268193611402"><ele>571.6666666666667</ele><time>2026-04-26T10:31:35Z</time></trkpt><trkpt lat="43.524878537737145" lon="12.284350619146208"><ele>574.3333333333334</ele><time>2026-04-26T10:31:36Z</time></trkpt><trkpt lat="43.524843286617646" lon="12.284445850357491"><ele>577.0</ele><time>2026-04-26T10:31:37Z</time></trkpt><trkpt lat="43.52480724904622" lon="12.28453743004051"><ele>577.0</ele><time>2026-04-26T10:31:38Z</time></trkpt><trkpt lat="43.524763995135444" lon="12.28462017609846"><ele>577.0</ele><time>2026-04-26T10:31:39Z</time></trkpt><trkpt lat="43.52467890656044" lon="12.284668881825421"><ele>577.0</ele><time>2026-04-26T10:31:40Z</time></trkpt><trkpt lat="43.5246050812955" lon="12.28471459016047"><ele>577.0</ele><time>2026-04-26T10:31:41Z</time></trkpt><trkpt lat="43.52452412637418" lon="12.284803142810318"><ele>577.0</ele><time>2026-04-26T10:31:42Z</time></trkpt><trkpt lat="43.524438187301705" lon="12.28487000717574"><ele>577.0</ele><time>2026-04-26T10:31:43Z</time></trkpt><trkpt lat="43.524342279191266" lon="12.284912406729557"><ele>574.8333333333334</ele><time>2026-04-26T10:31:44Z</time></trkpt><trkpt lat="43.524260469992804" lon="12.284969066331175"><ele>572.6666666666667</ele><time>2026-04-26T10:31:45Z</time></trkpt><trkpt lat="43.524192027927526" lon="12.285043365938511"><ele>570.5</ele><time>2026-04-26T10:31:46Z</time></trkpt><trkpt lat="43.52411399259963" lon="12.28508542786561"><ele>568.3333333333334</ele><time>2026-04-26T10:31:47Z</time></trkpt><trkpt lat="43.52403549262953" lon="12.285120029768077"><ele>566.1666666666666</ele><time>2026-04-26T10:31:48Z</time></trkpt><trkpt lat="43.52395144684703" lon="12.285132788626406"><ele>564.0</ele><time>2026-04-26T10:31:49Z</time></trkpt><trkpt lat="43.52386735557026" lon="12.285107260768294"><ele>564.0</ele><time>2026-04-26T10:31:50Z</time></trkpt><trkpt lat="43.52378682191163" lon="12.285028059490164"><ele>564.0</ele><time>2026-04-26T10:31:51Z</time></trkpt><trkpt lat="43.523713961224814" lon="12.284932866717607"><ele>564.0</ele><time>2026-04-26T10:31:52Z</time></trkpt><trkpt lat="43.5236357378914" lon="12.284830575300912"><ele>564.0</ele><time>2026-04-26T10:31:53Z</time></trkpt><trkpt lat="43.52355455833115" lon="12.284737656389023"><ele>564.0</ele><time>2026-04-26T10:31:54Z</time></trkpt><trkpt lat="43.523469106943956" lon="12.284642781409543"><ele>562.4</ele><time>2026-04-26T10:31:55Z</time></trkpt><trkpt lat="43.523383804099176" lon="12.284548229525686"><ele>560.8</ele><time>2026-04-26T10:31:56Z</time></trkpt><trkpt lat="43.523297451285636" lon="12.28445444812234"><ele>559.2</ele><time>2026-04-26T10:31:57Z</time></trkpt><trkpt lat="43.52320965013531" lon="12.28436098895056"><ele>557.6</ele><time>2026-04-26T10:31:58Z</time></trkpt><trkpt lat="43.523122195964646" lon="12.28427405036102"><ele>556.0</ele><time>2026-04-26T10:31:59Z</time></trkpt><trkpt lat="43.52303158738042" lon="12.28419217957666"><ele>556.0</ele><time>2026-04-26T10:32:00Z</time></trkpt><trkpt lat="43.52293963509563" lon="12.284108506090867"><ele>556.0</ele><time>2026-04-26T10:32:01Z</time></trkpt><trkpt lat="43.52285348529643" lon="12.284013384193543"><ele>556.0</ele><time>2026-04-26T10:32:02Z</time></trkpt><trkpt lat="43.52276311225812" lon="12.283914721028918"><ele>556.0</ele><time>2026-04-26T10:32:03Z</time></trkpt><trkpt lat="43.52267479928748" lon="12.283810452483063"><ele>556.25</ele><time>2026-04-26T10:32:04Z</time></trkpt><trkpt lat="43.52258169984886" lon="12.28371068173648"><ele>556.5</ele><time>2026-04-26T10:32:05Z</time></trkpt><trkpt lat="43.52248861082627" lon="12.283610453547007"><ele>556.75</ele><time>2026-04-26T10:32:06Z</time></trkpt><trkpt lat="43.52239561831278" lon="12.283516930382184"><ele>557.0</ele><time>2026-04-26T10:32:07Z</time></trkpt><trkpt lat="43.522309506434176" lon="12.283421816541633"><ele>557.0</ele><time>2026-04-26T10:32:08.001Z</time></trkpt><trkpt lat="43.522223684631925" lon="12.283328040985392"><ele>557.0</ele><time>2026-04-26T10:32:09.001Z</time></trkpt><trkpt lat="43.52213634243402" lon="12.283234718452535"><ele>557.0</ele><time>2026-04-26T10:32:10.001Z</time></trkpt><trkpt lat="43.52204840867842" lon="12.283139634192505"><ele>557.0</ele><time>2026-04-26T10:32:11.001Z</time></trkpt><trkpt lat="43.521968513304664" lon="12.283046789674135"><ele>557.0</ele><time>2026-04-26T10:32:12.001Z</time></trkpt><trkpt lat="43.52189385992367" lon="12.282942326212016"><ele>556.8000000000001</ele><time>2026-04-26T10:32:13.001Z</time></trkpt><trkpt lat="43.52181211011052" lon="12.282846039048218"><ele>556.6</ele><time>2026-04-26T10:32:14.001Z</time></trkpt><trkpt lat="43.52173211936866" lon="12.282751823883444"><ele>556.4000000000001</ele><time>2026-04-26T10:32:15.001Z</time></trkpt><trkpt lat="43.52163585172524" lon="12.282650609045957"><ele>556.2</ele><time>2026-04-26T10:32:16.001Z</time></trkpt><trkpt lat="43.52155682732698" lon="12.28256206091409"><ele>556.0</ele><time>2026-04-26T10:32:17.001Z</time></trkpt><trkpt lat="43.52147678677235" lon="12.282460456631952"><ele>556.0</ele><time>2026-04-26T10:32:18.001Z</time></trkpt><trkpt lat="43.52140151238135" lon="12.28236662607524"><ele>556.0</ele><time>2026-04-26T10:32:19.001Z</time></trkpt><trkpt lat="43.52131983320022" lon="12.282279686578615"><ele>556.0</ele><time>2026-04-26T10:32:20.001Z</time></trkpt><trkpt lat="43.52124121653595" lon="12.28219641833882"><ele>556.0</ele><time>2026-04-26T10:32:21.001Z</time></trkpt><trkpt lat="43.5211548766253" lon="12.282113190218714"><ele>556.0</ele><time>2026-04-26T10:32:22.001Z</time></trkpt><trkpt lat="43.521063431564365" lon="12.282032804817188"><ele>555.25</ele><time>2026-04-26T10:32:23.001Z</time></trkpt><trkpt lat="43.52097384095652" lon="12.281960785435563"><ele>554.5</ele><time>2026-04-26T10:32:24.001Z</time></trkpt><trkpt lat="43.52087557125805" lon="12.28187724240013"><ele>553.75</ele><time>2026-04-26T10:32:25.001Z</time></trkpt><trkpt lat="43.5207826466913" lon="12.281772173782082"><ele>553.0</ele><time>2026-04-26T10:32:26.001Z</time></trkpt><trkpt lat="43.520685174556164" lon="12.2816764846376"><ele>553.0</ele><time>2026-04-26T10:32:27.001Z</time></trkpt><trkpt lat="43.52058803834183" lon="12.281591663098022"><ele>553.0</ele><time>2026-04-26T10:32:28.001Z</time></trkpt><trkpt lat="43.52050509207807" lon="12.281472965682436"><ele>553.0</ele><time>2026-04-26T10:32:29.001Z</time></trkpt><trkpt lat="43.520418377544" lon="12.281414817799508"><ele>553.0</ele><time>2026-04-26T10:32:30.001Z</time></trkpt><trkpt lat="43.52033340207003" lon="12.281344817550877"><ele>553.0</ele><time>2026-04-26T10:32:31.001Z</time></trkpt><trkpt lat="43.520265679017506" lon="12.281248177489578"><ele>552.4</ele><time>2026-04-26T10:32:32.001Z</time></trkpt><trkpt lat="43.52018919699778" lon="12.281150282011957"><ele>551.8</ele><time>2026-04-26T10:32:33.001Z</time></trkpt><trkpt lat="43.52012202272247" lon="12.281030069377385"><ele>551.2</ele><time>2026-04-26T10:32:34.001Z</time></trkpt><trkpt lat="43.520048621396796" lon="12.280933239335383"><ele>550.6</ele><time>2026-04-26T10:32:35.001Z</time></trkpt><trkpt lat="43.519964582964754" lon="12.28085919792812"><ele>550.0</ele><time>2026-04-26T10:32:36.001Z</time></trkpt><trkpt lat="43.51986069910201" lon="12.28084380063822"><ele>550.0</ele><time>2026-04-26T10:32:37.001Z</time></trkpt><trkpt lat="43.51976677814317" lon="12.280812706893244"><ele>550.0</ele><time>2026-04-26T10:32:38.001Z</time></trkpt><trkpt lat="43.5196729946196" lon="12.280779779895452"><ele>550.0</ele><time>2026-04-26T10:32:39.001Z</time></trkpt><trkpt lat="43.51957983761865" lon="12.280769263896303"><ele>550.0</ele><time>2026-04-26T10:32:40.001Z</time></trkpt><trkpt lat="43.51948643997643" lon="12.280746939304919"><ele>550.0</ele><time>2026-04-26T10:32:41.001Z</time></trkpt><trkpt lat="43.519399112518926" lon="12.280733021133702"><ele>548.3333333333334</ele><time>2026-04-26T10:32:42.001Z</time></trkpt><trkpt lat="43.51932675732831" lon="12.28072038024418"><ele>546.6666666666667</ele><time>2026-04-26T10:32:43.001Z</time></trkpt><trkpt lat="43.51924628128053" lon="12.28070632506931"><ele>545.0</ele><time>2026-04-26T10:32:44.001Z</time></trkpt><trkpt lat="43.51915647244995" lon="12.280698737429162"><ele>543.3333333333334</ele><time>2026-04-26T10:32:46.001Z</time></trkpt><trkpt lat="43.519163982130955" lon="12.280541498071175"><ele>541.6666666666666</ele><time>2026-04-26T10:32:47.001Z</time></trkpt><trkpt lat="43.5191834498002" lon="12.280445601766788"><ele>540.0</ele><time>2026-04-26T10:32:48.001Z</time></trkpt><trkpt lat="43.51918991897299" lon="12.280323935012138"><ele>540.0</ele><time>2026-04-26T10:32:49.001Z</time></trkpt><trkpt lat="43.51920121505183" lon="12.280182965443206"><ele>540.0</ele><time>2026-04-26T10:32:50.001Z</time></trkpt><trkpt lat="43.51921167171683" lon="12.280042833590409"><ele>540.0</ele><time>2026-04-26T10:32:51.001Z</time></trkpt><trkpt lat="43.519216105712864" lon="12.279910364068229"><ele>540.0</ele><time>2026-04-26T10:32:52.001Z</time></trkpt><trkpt lat="43.51921608699173" lon="12.2797830126796"><ele>540.0</ele><time>2026-04-26T10:32:53.001Z</time></trkpt><trkpt lat="43.51920702006344" lon="12.279657489169603"><ele>539.6</ele><time>2026-04-26T10:32:54.001Z</time></trkpt><trkpt lat="43.51916818950966" lon="12.27952930999337"><ele>539.2</ele><time>2026-04-26T10:32:55.001Z</time></trkpt><trkpt lat="43.51914097835678" lon="12.27940005605384"><ele>538.8</ele><time>2026-04-26T10:32:56.001Z</time></trkpt><trkpt lat="43.51909573775291" lon="12.279270755213235"><ele>538.4</ele><time>2026-04-26T10:32:57.001Z</time></trkpt><trkpt lat="43.51903457714827" lon="12.27915761825639"><ele>538.0</ele><time>2026-04-26T10:32:58.001Z</time></trkpt><trkpt lat="43.518957329634105" lon="12.279067316680191"><ele>538.0</ele><time>2026-04-26T10:32:59.001Z</time></trkpt><trkpt lat="43.518886559232875" lon="12.278955773539405"><ele>538.0</ele><time>2026-04-26T10:33:00.001Z</time></trkpt><trkpt lat="43.51883530117879" lon="12.278862699791794"><ele>538.0</ele><time>2026-04-26T10:33:01.002Z</time></trkpt><trkpt lat="43.518832048033175" lon="12.278678290444699"><ele>538.0</ele><time>2026-04-26T10:33:02.002Z</time></trkpt><trkpt lat="43.51877071807721" lon="12.278576837662996"><ele>538.0</ele><time>2026-04-26T10:33:03.002Z</time></trkpt><trkpt lat="43.51872286652732" lon="12.27847797324133"><ele>538.5</ele><time>2026-04-26T10:33:04.002Z</time></trkpt><trkpt lat="43.518696939459254" lon="12.27838584714553"><ele>539.0</ele><time>2026-04-26T10:33:05.002Z</time></trkpt><trkpt lat="43.51864889831621" lon="12.278265079152145"><ele>539.5</ele><time>2026-04-26T10:33:06.002Z</time></trkpt><trkpt lat="43.51870024677527" lon="12.278193020033394"><ele>540.0</ele><time>2026-04-26T10:33:07.002Z</time></trkpt><trkpt lat="43.51836973146534" lon="12.278185280506603"><ele>541.1666666666666</ele><time>2026-04-26T10:33:08.002Z</time></trkpt><trkpt lat="43.51830878154305" lon="12.278085958039686"><ele>542.3333333333334</ele><time>2026-04-26T10:33:09.002Z</time></trkpt><trkpt lat="43.518253216965384" lon="12.278004408463334"><ele>543.5</ele><time>2026-04-26T10:33:10.002Z</time></trkpt><trkpt lat="43.518204643101335" lon="12.277918836533368"><ele>544.6666666666667</ele><time>2026-04-26T10:33:11.002Z</time></trkpt><trkpt lat="43.51816352876472" lon="12.277824212429252"><ele>545.8333333333334</ele><time>2026-04-26T10:33:12.002Z</time></trkpt><trkpt lat="43.51813713423452" lon="12.277715319959617"><ele>547.0</ele><time>2026-04-26T10:33:13.002Z</time></trkpt><trkpt lat="43.51813500181211" lon="12.277588631736013"><ele>547.0</ele><time>2026-04-26T10:33:14.002Z</time></trkpt><trkpt lat="43.51812094696506" lon="12.277474169754147"><ele>547.0</ele><time>2026-04-26T10:33:15.002Z</time></trkpt><trkpt lat="43.51809127732442" lon="12.277339117672184"><ele>547.0</ele><time>2026-04-26T10:33:16.002Z</time></trkpt><trkpt lat="43.51805588400249" lon="12.277204984595924"><ele>547.0</ele><time>2026-04-26T10:33:17.002Z</time></trkpt><trkpt lat="43.51801796208469" lon="12.27711184141436"><ele>547.0</ele><time>2026-04-26T10:33:18Z</time></trkpt><trkpt lat="43.51798415984714" lon="12.27703622930396"><ele>547.0</ele><time>2026-04-26T10:33:19Z</time></trkpt><trkpt lat="43.517926040558834" lon="12.276884217493087"><ele>545.0</ele><time>2026-04-26T10:33:21Z</time></trkpt><trkpt lat="43.51786315271589" lon="12.276801197471048"><ele>543.0</ele><time>2026-04-26T10:33:22Z</time></trkpt><trkpt lat="43.5177944830412" lon="12.276709256835804"><ele>541.0</ele><time>2026-04-26T10:33:23Z</time></trkpt><trkpt lat="43.51772374845972" lon="12.276599662616123"><ele>539.0</ele><time>2026-04-26T10:33:24Z</time></trkpt><trkpt lat="43.51765953763407" lon="12.276510125390384"><ele>537.0</ele><time>2026-04-26T10:33:25Z</time></trkpt><trkpt lat="43.517587282549925" lon="12.276443186837337"><ele>536.8333333333334</ele><time>2026-04-26T10:33:26Z</time></trkpt><trkpt lat="43.5175224544556" lon="12.276379362173293"><ele>536.6666666666666</ele><time>2026-04-26T10:33:27Z</time></trkpt><trkpt lat="43.517449053765304" lon="12.276329402771829"><ele>536.5</ele><time>2026-04-26T10:33:28Z</time></trkpt><trkpt lat="43.5173722506735" lon="12.276279175700608"><ele>536.3333333333333</ele><time>2026-04-26T10:33:29Z</time></trkpt><trkpt lat="43.51728855915461" lon="12.276235341856804"><ele>536.1666666666666</ele><time>2026-04-26T10:33:30Z</time></trkpt><trkpt lat="43.51720920967369" lon="12.276170270099863"><ele>536.0</ele><time>2026-04-26T10:33:31Z</time></trkpt><trkpt lat="43.51712922337601" lon="12.276114639407076"><ele>535.6666666666666</ele><time>2026-04-26T10:33:32Z</time></trkpt><trkpt lat="43.51705695808237" lon="12.276045754868116"><ele>535.3333333333333</ele><time>2026-04-26T10:33:33Z</time></trkpt><trkpt lat="43.51698848338787" lon="12.275964584163601"><ele>535.0</ele><time>2026-04-26T10:33:34Z</time></trkpt><trkpt lat="43.516933627198924" lon="12.275895386386175"><ele>534.6666666666666</ele><time>2026-04-26T10:33:35Z</time></trkpt><trkpt lat="43.516861478165325" lon="12.27580990454819"><ele>534.3333333333334</ele><time>2026-04-26T10:33:36Z</time></trkpt><trkpt lat="43.51680485728214" lon="12.27575912927707"><ele>534.0</ele><time>2026-04-26T10:33:37.001Z</time></trkpt><trkpt lat="43.51675417675086" lon="12.275699301321529"><ele>534.0</ele><time>2026-04-26T10:33:38.001Z</time></trkpt><trkpt lat="43.51669723502216" lon="12.275626894497128"><ele>534.0</ele><time>2026-04-26T10:33:39.001Z</time></trkpt><trkpt lat="43.51659342614642" lon="12.275537748650667"><ele>534.0</ele><time>2026-04-26T10:33:41.001Z</time></trkpt><trkpt lat="43.51651533829694" lon="12.275392566303822"><ele>534.0</ele><time>2026-04-26T10:33:43.001Z</time></trkpt><trkpt lat="43.516436562423635" lon="12.275277283777246"><ele>534.0</ele><time>2026-04-26T10:33:45.001Z</time></trkpt><trkpt lat="43.51634216915255" lon="12.275202773668228"><ele>532.4</ele><time>2026-04-26T10:33:47.001Z</time></trkpt><trkpt lat="43.51628477095986" lon="12.275163184993493"><ele>530.8</ele><time>2026-04-26T10:33:48.001Z</time></trkpt><trkpt lat="43.51618718517144" lon="12.275088306338628"><ele>529.2</ele><time>2026-04-26T10:33:50.001Z</time></trkpt><trkpt lat="43.516129485611" lon="12.275038642071223"><ele>527.6</ele><time>2026-04-26T10:33:51.001Z</time></trkpt><trkpt lat="43.516017481755725" lon="12.274966927190015"><ele>526.0</ele><time>2026-04-26T10:33:53.001Z</time></trkpt><trkpt lat="43.515912471095774" lon="12.274874392348636"><ele>524.6</ele><time>2026-04-26T10:33:55.001Z</time></trkpt><trkpt lat="43.51582338251089" lon="12.274800791887994"><ele>523.2</ele><time>2026-04-26T10:33:57.001Z</time></trkpt><trkpt lat="43.51572149932578" lon="12.274761799391488"><ele>521.8</ele><time>2026-04-26T10:33:59.001Z</time></trkpt><trkpt lat="43.51561997331215" lon="12.27471824441155"><ele>520.4</ele><time>2026-04-26T10:34:01.001Z</time></trkpt><trkpt lat="43.5155407104439" lon="12.274621612557883"><ele>519.0</ele><time>2026-04-26T10:34:03.001Z</time></trkpt><trkpt lat="43.51545082003627" lon="12.274557098176519"><ele>516.1666666666666</ele><time>2026-04-26T10:34:05.001Z</time></trkpt><trkpt lat="43.51539305538382" lon="12.274515426939356"><ele>513.3333333333334</ele><time>2026-04-26T10:34:06.001Z</time></trkpt><trkpt lat="43.51533488900229" lon="12.274450783739104"><ele>510.5</ele><time>2026-04-26T10:34:07.001Z</time></trkpt><trkpt lat="43.515286214702975" lon="12.274388818898311"><ele>507.6666666666667</ele><time>2026-04-26T10:34:08.001Z</time></trkpt><trkpt lat="43.515184938589655" lon="12.274270056241319"><ele>504.83333333333337</ele><time>2026-04-26T10:34:10.001Z</time></trkpt><trkpt lat="43.51511446827543" lon="12.274198186402101"><ele>502.0</ele><time>2026-04-26T10:34:11.001Z</time></trkpt><trkpt lat="43.51503661902213" lon="12.274134338005812"><ele>502.00000000000006</ele><time>2026-04-26T10:34:12.001Z</time></trkpt><trkpt lat="43.5149848340532" lon="12.27406853596627"><ele>502.0</ele><time>2026-04-26T10:34:13.001Z</time></trkpt><trkpt lat="43.514935679825214" lon="12.273993529343262"><ele>502.0</ele><time>2026-04-26T10:34:14.001Z</time></trkpt><trkpt lat="43.51488555965719" lon="12.273922366380694"><ele>502.0</ele><time>2026-04-26T10:34:15.001Z</time></trkpt><trkpt lat="43.5148270721328" lon="12.27384700855023"><ele>502.00000000000006</ele><time>2026-04-26T10:34:16.001Z</time></trkpt><trkpt lat="43.51477419820562" lon="12.273780667729312"><ele>502.0</ele><time>2026-04-26T10:34:17.001Z</time></trkpt><trkpt lat="43.51469233064105" lon="12.273689211926465"><ele>500.0</ele><time>2026-04-26T10:34:19.001Z</time></trkpt><trkpt lat="43.51461236533873" lon="12.273679739064232"><ele>498.00000000000006</ele><time>2026-04-26T10:34:21.001Z</time></trkpt><trkpt lat="43.51452345761699" lon="12.273643502271325"><ele>496.00000000000006</ele><time>2026-04-26T10:34:23.001Z</time></trkpt><trkpt lat="43.51447004710792" lon="12.273537888549951"><ele>494.0</ele><time>2026-04-26T10:34:25.001Z</time></trkpt><trkpt lat="43.51441409718915" lon="12.273416447140514"><ele>492.0</ele><time>2026-04-26T10:34:27.001Z</time></trkpt><trkpt lat="43.51435672948818" lon="12.273271630005956"><ele>492.0</ele><time>2026-04-26T10:34:29.001Z</time></trkpt><trkpt lat="43.51430694899119" lon="12.273211730103492"><ele>492.00000000000006</ele><time>2026-04-26T10:34:30.001Z</time></trkpt><trkpt lat="43.51424268813515" lon="12.273160758749585"><ele>492.00000000000006</ele><time>2026-04-26T10:34:31.001Z</time></trkpt><trkpt lat="43.514144314636034" lon="12.273054027161178"><ele>492.0</ele><time>2026-04-26T10:34:33.001Z</time></trkpt><trkpt lat="43.514066818210104" lon="12.272960151181355"><ele>492.0</ele><time>2026-04-26T10:34:35.001Z</time></trkpt><trkpt lat="43.51398795693931" lon="12.272862858526592"><ele>490.40000000000003</ele><time>2026-04-26T10:34:37.002Z</time></trkpt><trkpt lat="43.51393595187101" lon="12.272800498927792"><ele>488.80000000000007</ele><time>2026-04-26T10:34:38.002Z</time></trkpt><trkpt lat="43.51384486993446" lon="12.272689822974387"><ele>487.2</ele><time>2026-04-26T10:34:40.002Z</time></trkpt><trkpt lat="43.513732430001504" lon="12.272598710311822"><ele>485.6</ele><time>2026-04-26T10:34:42.002Z</time></trkpt><trkpt lat="43.513674528504616" lon="12.272537609571438"><ele>484.0</ele><time>2026-04-26T10:34:43.002Z</time></trkpt><trkpt lat="43.5136204561695" lon="12.27247009900901"><ele>484.0</ele><time>2026-04-26T10:34:44.002Z</time></trkpt><trkpt lat="43.51356322855853" lon="12.272406397532682"><ele>484.0</ele><time>2026-04-26T10:34:45.002Z</time></trkpt><trkpt lat="43.513460061665235" lon="12.272303733453215"><ele>484.0</ele><time>2026-04-26T10:34:47.002Z</time></trkpt><trkpt lat="43.513357593298494" lon="12.272218516075458"><ele>484.0</ele><time>2026-04-26T10:34:49.002Z</time></trkpt><trkpt lat="43.513279018253336" lon="12.27212412068903"><ele>484.0</ele><time>2026-04-26T10:34:51.002Z</time></trkpt><trkpt lat="43.51322518115539" lon="12.272071363075622"><ele>482.4</ele><time>2026-04-26T10:34:52.002Z</time></trkpt><trkpt lat="43.513127310147986" lon="12.271960920699023"><ele>480.79999999999995</ele><time>2026-04-26T10:34:54.002Z</time></trkpt><trkpt lat="43.51306631620026" lon="12.271923380185513"><ele>479.20000000000005</ele><time>2026-04-26T10:34:55.002Z</time></trkpt><trkpt lat="43.51299842964796" lon="12.271882355455274"><ele>477.6</ele><time>2026-04-26T10:34:56.002Z</time></trkpt><trkpt lat="43.51288208328843" lon="12.271811707002579"><ele>476.0</ele><time>2026-04-26T10:34:58.002Z</time></trkpt><trkpt lat="43.5128301079691" lon="12.271761353355279"><ele>475.4</ele><time>2026-04-26T10:34:59.002Z</time></trkpt><trkpt lat="43.51277811866702" lon="12.271693160918774"><ele>474.8</ele><time>2026-04-26T10:35:00.002Z</time></trkpt><trkpt lat="43.51268728624655" lon="12.271571760735322"><ele>474.19999999999993</ele><time>2026-04-26T10:35:02.002Z</time></trkpt><trkpt lat="43.51261671241137" lon="12.27146048453039"><ele>473.59999999999997</ele><time>2026-04-26T10:35:04.002Z</time></trkpt><trkpt lat="43.51253568507128" lon="12.271388622238856"><ele>473.0</ele><time>2026-04-26T10:35:06.002Z</time></trkpt><trkpt lat="43.512476081739194" lon="12.271349799950732"><ele>471.4</ele><time>2026-04-26T10:35:07.002Z</time></trkpt><trkpt lat="43.512379216417074" lon="12.271261047103247"><ele>469.79999999999995</ele><time>2026-04-26T10:35:09.002Z</time></trkpt><trkpt lat="43.51232746200218" lon="12.271211546411786"><ele>468.2</ele><time>2026-04-26T10:35:10.002Z</time></trkpt><trkpt lat="43.51223783664022" lon="12.271146191556687"><ele>466.6</ele><time>2026-04-26T10:35:12.002Z</time></trkpt><trkpt lat="43.5121732465837" lon="12.271124107840064"><ele>465.0</ele><time>2026-04-26T10:35:13.002Z</time></trkpt><trkpt lat="43.51205736851778" lon="12.271097659501125"><ele>465.0</ele><time>2026-04-26T10:35:15.002Z</time></trkpt><trkpt lat="43.51196080635849" lon="12.271053822765715"><ele>465.0</ele><time>2026-04-26T10:35:17.002Z</time></trkpt><trkpt lat="43.51184423783851" lon="12.270999132224633"><ele>465.0</ele><time>2026-04-26T10:35:19.002Z</time></trkpt><trkpt lat="43.51177810805997" lon="12.270961605973755"><ele>465.0</ele><time>2026-04-26T10:35:20.002Z</time></trkpt><trkpt lat="43.51166131836488" lon="12.270885958240182"><ele>465.0</ele><time>2026-04-26T10:35:22.002Z</time></trkpt><trkpt lat="43.51156511303403" lon="12.270819456858625"><ele>465.0</ele><time>2026-04-26T10:35:24.003Z</time></trkpt><trkpt lat="43.5114720357375" lon="12.270779237821035"><ele>465.0</ele><time>2026-04-26T10:35:26.003Z</time></trkpt><trkpt lat="43.51137227916657" lon="12.270780133796992"><ele>465.0</ele><time>2026-04-26T10:35:28.003Z</time></trkpt><trkpt lat="43.51127520587553" lon="12.270752443004142"><ele>465.0</ele><time>2026-04-26T10:35:30.002Z</time></trkpt><trkpt lat="43.51116872639393" lon="12.270737858995446"><ele>465.0</ele><time>2026-04-26T10:35:32.002Z</time></trkpt><trkpt lat="43.51106731044711" lon="12.270779123843367"><ele>462.4</ele><time>2026-04-26T10:35:34.002Z</time></trkpt><trkpt lat="43.51100388534431" lon="12.270786604622753"><ele>459.8</ele><time>2026-04-26T10:35:35.002Z</time></trkpt><trkpt lat="43.510903275545346" lon="12.27078775057561"><ele>457.20000000000005</ele><time>2026-04-26T10:35:37.002Z</time></trkpt><trkpt lat="43.51080844795242" lon="12.27074727322532"><ele>454.6</ele><time>2026-04-26T10:35:39.002Z</time></trkpt><trkpt lat="43.5107237146528" lon="12.270667218953921"><ele>452.0</ele><time>2026-04-26T10:35:41.002Z</time></trkpt><trkpt lat="43.5106337784574" lon="12.270613671288553"><ele>451.6</ele><time>2026-04-26T10:35:43.002Z</time></trkpt><trkpt lat="43.51055486198356" lon="12.270541005883475"><ele>451.20000000000005</ele><time>2026-04-26T10:35:45.002Z</time></trkpt><trkpt lat="43.51045756561877" lon="12.270475509863436"><ele>450.8</ele><time>2026-04-26T10:35:47.002Z</time></trkpt><trkpt lat="43.51034891588193" lon="12.270476388695739"><ele>450.4</ele><time>2026-04-26T10:35:49.002Z</time></trkpt><trkpt lat="43.510255403507095" lon="12.270420192683364"><ele>450.0</ele><time>2026-04-26T10:35:51.002Z</time></trkpt><trkpt lat="43.510150779808974" lon="12.270365795992566"><ele>448.4</ele><time>2026-04-26T10:35:53.002Z</time></trkpt><trkpt lat="43.51005343098884" lon="12.270320707133466"><ele>446.8</ele><time>2026-04-26T10:35:55.002Z</time></trkpt><trkpt lat="43.50995020762618" lon="12.270263614333688"><ele>445.20000000000005</ele><time>2026-04-26T10:35:57.002Z</time></trkpt><trkpt lat="43.509843065114374" lon="12.270236854053168"><ele>443.6</ele><time>2026-04-26T10:35:59.002Z</time></trkpt><trkpt lat="43.50974566844393" lon="12.270196941059856"><ele>442.0</ele><time>2026-04-26T10:36:01.002Z</time></trkpt><trkpt lat="43.50963973215973" lon="12.270176468219013"><ele>440.20000000000005</ele><time>2026-04-26T10:36:03.002Z</time></trkpt><trkpt lat="43.50953391451539" lon="12.270183442113394"><ele>438.40000000000003</ele><time>2026-04-26T10:36:05.002Z</time></trkpt><trkpt lat="43.50944017121911" lon="12.27020298491053"><ele>436.59999999999997</ele><time>2026-04-26T10:36:07.002Z</time></trkpt><trkpt lat="43.509357554583964" lon="12.270185841306182"><ele>434.79999999999995</ele><time>2026-04-26T10:36:09.002Z</time></trkpt><trkpt lat="43.50926284430644" lon="12.270150616037954"><ele>433.0</ele><time>2026-04-26T10:36:11.002Z</time></trkpt><trkpt lat="43.50919501662485" lon="12.27015270083543"><ele>433.00000000000006</ele><time>2026-04-26T10:36:13.002Z</time></trkpt><trkpt lat="43.509134140989914" lon="12.270178086688748"><ele>433.0</ele><time>2026-04-26T10:36:15.002Z</time></trkpt><trkpt lat="43.5090539109972" lon="12.270229778851288"><ele>433.0</ele><time>2026-04-26T10:36:17.002Z</time></trkpt><trkpt lat="43.508970341995735" lon="12.270230320929407"><ele>433.0</ele><time>2026-04-26T10:36:19.002Z</time></trkpt><trkpt lat="43.508888857501375" lon="12.270177842386982"><ele>433.00000000000006</ele><time>2026-04-26T10:36:21.002Z</time></trkpt><trkpt lat="43.50878219859837" lon="12.27017460344081"><ele>433.0</ele><time>2026-04-26T10:36:23.002Z</time></trkpt><trkpt lat="43.508686931052445" lon="12.270180365591036"><ele>429.79999999999995</ele><time>2026-04-26T10:36:25.002Z</time></trkpt><trkpt lat="43.50862157086116" lon="12.270160920113774"><ele>426.59999999999997</ele><time>2026-04-26T10:36:26.002Z</time></trkpt><trkpt lat="43.50853308830916" lon="12.270065579672863"><ele>423.4</ele><time>2026-04-26T10:36:28.002Z</time></trkpt><trkpt lat="43.5084503250725" lon="12.269965217798395"><ele>420.20000000000005</ele><time>2026-04-26T10:36:30.002Z</time></trkpt><trkpt lat="43.50835761761604" lon="12.269903759448665"><ele>417.0</ele><time>2026-04-26T10:36:32.002Z</time></trkpt><trkpt lat="43.50825652763892" lon="12.269852072105186"><ele>417.0</ele><time>2026-04-26T10:36:34.002Z</time></trkpt><trkpt lat="43.50819652359733" lon="12.269788484578905"><ele>417.0</ele><time>2026-04-26T10:36:36.002Z</time></trkpt><trkpt lat="43.508138680395135" lon="12.269688302643884"><ele>417.0</ele><time>2026-04-26T10:36:39.002Z</time></trkpt><trkpt lat="43.5080831793077" lon="12.26963952198918"><ele>417.0</ele><time>2026-04-26T10:36:41.002Z</time></trkpt><trkpt lat="43.50802109140017" lon="12.26960671238376"><ele>417.0</ele><time>2026-04-26T10:36:43.002Z</time></trkpt><trkpt lat="43.50795728028454" lon="12.269575626564606"><ele>417.0</ele><time>2026-04-26T10:36:45.002Z</time></trkpt><trkpt lat="43.507870988196814" lon="12.269552780108071"><ele>412.0</ele><time>2026-04-26T10:36:48.002Z</time></trkpt><trkpt lat="43.507787087949865" lon="12.269514714433518"><ele>407.0</ele><time>2026-04-26T10:36:51.002Z</time></trkpt><trkpt lat="43.50771422540661" lon="12.269496571143309"><ele>402.0</ele><time>2026-04-26T10:36:54.002Z</time></trkpt><trkpt lat="43.50765156748553" lon="12.2695059940421"><ele>397.0</ele><time>2026-04-26T10:36:58.002Z</time></trkpt><trkpt lat="43.5075781326428" lon="12.26951054337412"><ele>392.0</ele><time>2026-04-26T10:37:05.002Z</time></trkpt><trkpt lat="43.507518489297766" lon="12.269570134250841"><ele>387.0</ele><time>2026-04-26T10:37:08.002Z</time></trkpt><trkpt lat="43.50745629169943" lon="12.269638211965134"><ele>387.0</ele><time>2026-04-26T10:37:11.002Z</time></trkpt><trkpt lat="43.507402682840656" lon="12.269686884252586"><ele>387.0</ele><time>2026-04-26T10:37:16.002Z</time></trkpt><trkpt lat="43.507370528350876" lon="12.269766642392057"><ele>387.0</ele><time>2026-04-26T10:37:22.002Z</time></trkpt><trkpt lat="43.50731646625954" lon="12.269864701481241"><ele>387.0</ele><time>2026-04-26T10:37:24.002Z</time></trkpt><trkpt lat="43.50724456103138" lon="12.269895067854588"><ele>387.0</ele><time>2026-04-26T10:37:26.002Z</time></trkpt><trkpt lat="43.5071998045643" lon="12.269812733529903"><ele>387.0</ele><time>2026-04-26T10:37:28.002Z</time></trkpt><trkpt lat="43.50723016089168" lon="12.269713306731935"><ele>387.0</ele><time>2026-04-26T10:37:30.003Z</time></trkpt><trkpt lat="43.50725824084849" lon="12.269621882349774"><ele>387.0</ele><time>2026-04-26T10:37:32.003Z</time></trkpt><trkpt lat="43.50729297021731" lon="12.269518349198561"><ele>387.0</ele><time>2026-04-26T10:37:34.003Z</time></trkpt><trkpt lat="43.507344878344846" lon="12.269417949653672"><ele>387.0</ele><time>2026-04-26T10:37:36.003Z</time></trkpt><trkpt lat="43.50738570488667" lon="12.269340766917507"><ele>387.0</ele><time>2026-04-26T10:37:38.002Z</time></trkpt><trkpt lat="43.50741509101069" lon="12.269262549306417"><ele>387.0</ele><time>2026-04-26T10:37:40.002Z</time></trkpt><trkpt lat="43.50745644835045" lon="12.269157185390801"><ele>387.0</ele><time>2026-04-26T10:37:43.002Z</time></trkpt><trkpt lat="43.50750815460226" lon="12.269064057276596"><ele>387.0</ele><time>2026-04-26T10:37:45.002Z</time></trkpt><trkpt lat="43.507568983114844" lon="12.268956995013902"><ele>387.0</ele><time>2026-04-26T10:37:47.002Z</time></trkpt><trkpt lat="43.5076217401999" lon="12.268876743554237"><ele>387.0</ele><time>2026-04-26T10:37:49.002Z</time></trkpt><trkpt lat="43.50763174646727" lon="12.268765115335947"><ele>387.0</ele><time>2026-04-26T10:37:51.002Z</time></trkpt><trkpt lat="43.50764491538479" lon="12.2686189820326"><ele>387.0</ele><time>2026-04-26T10:37:53.002Z</time></trkpt><trkpt lat="43.50765901369346" lon="12.268492074094278"><ele>384.6666666666667</ele><time>2026-04-26T10:37:55.002Z</time></trkpt><trkpt lat="43.50767579715748" lon="12.268388165844975"><ele>382.3333333333333</ele><time>2026-04-26T10:37:57.002Z</time></trkpt><trkpt lat="43.507694580932515" lon="12.268299739071383"><ele>380.0</ele><time>2026-04-26T10:37:59.002Z</time></trkpt><trkpt lat="43.50762512930771" lon="12.268362184438962"><ele>377.66666666666663</ele><time>2026-04-26T10:38:03.001Z</time></trkpt><trkpt lat="43.50755297956391" lon="12.268335242212505"><ele>375.3333333333333</ele><time>2026-04-26T10:38:07.001Z</time></trkpt><trkpt lat="43.507610708677234" lon="12.268167458284697"><ele>373.0</ele><time>2026-04-26T10:38:09.001Z</time></trkpt><trkpt lat="43.5076537303809" lon="12.268073448421605"><ele>371.79999999999995</ele><time>2026-04-26T10:38:10.001Z</time></trkpt><trkpt lat="43.50767531694125" lon="12.267966765352824"><ele>370.6</ele><time>2026-04-26T10:38:11.001Z</time></trkpt><trkpt lat="43.50769563663116" lon="12.267835330050614"><ele>369.4</ele><time>2026-04-26T10:38:12.001Z</time></trkpt><trkpt lat="43.50771449137675" lon="12.267712158599315"><ele>368.20000000000005</ele><time>2026-04-26T10:38:13.001Z</time></trkpt><trkpt lat="43.507733401173176" lon="12.267581578874799"><ele>367.0</ele><time>2026-04-26T10:38:14.001Z</time></trkpt><trkpt lat="43.507747356190485" lon="12.267443110987658"><ele>367.0</ele><time>2026-04-26T10:38:15.001Z</time></trkpt><trkpt lat="43.507760910431244" lon="12.267296592175075"><ele>367.0</ele><time>2026-04-26T10:38:16.001Z</time></trkpt><trkpt lat="43.50776640904586" lon="12.267145973120112"><ele>367.0</ele><time>2026-04-26T10:38:17.001Z</time></trkpt><trkpt lat="43.50776387072616" lon="12.266985051125406"><ele>367.0</ele><time>2026-04-26T10:38:18.001Z</time></trkpt><trkpt lat="43.50775767813361" lon="12.266811875873291"><ele>365.5</ele><time>2026-04-26T10:38:19.001Z</time></trkpt><trkpt lat="43.50774899622301" lon="12.266652241379672"><ele>364.0</ele><time>2026-04-26T10:38:20.001Z</time></trkpt><trkpt lat="43.5077458291079" lon="12.266486523598532"><ele>362.5</ele><time>2026-04-26T10:38:21.001Z</time></trkpt><trkpt lat="43.5077519133198" lon="12.266314098601407"><ele>361.0</ele><time>2026-04-26T10:38:22.001Z</time></trkpt><trkpt lat="43.50780361739912" lon="12.266158054131987"><ele>360.75</ele><time>2026-04-26T10:38:23.001Z</time></trkpt><trkpt lat="43.50782533556564" lon="12.265983827663446"><ele>360.5</ele><time>2026-04-26T10:38:24.001Z</time></trkpt><trkpt lat="43.507847151107086" lon="12.265808820091062"><ele>360.25</ele><time>2026-04-26T10:38:25.001Z</time></trkpt><trkpt lat="43.507856661672626" lon="12.26562739047117"><ele>360.0</ele><time>2026-04-26T10:38:26.001Z</time></trkpt><trkpt lat="43.50788286169521" lon="12.26545165566882"><ele>359.5</ele><time>2026-04-26T10:38:27.001Z</time></trkpt><trkpt lat="43.507902965898644" lon="12.265265580973084"><ele>359.0</ele><time>2026-04-26T10:38:28.001Z</time></trkpt><trkpt lat="43.507930572871864" lon="12.265082835058836"><ele>358.5</ele><time>2026-04-26T10:38:29.001Z</time></trkpt><trkpt lat="43.5079571612269" lon="12.26490557623989"><ele>358.0</ele><time>2026-04-26T10:38:30.001Z</time></trkpt><trkpt lat="43.50798397065951" lon="12.264723880276097"><ele>360.75</ele><time>2026-04-26T10:38:31.001Z</time></trkpt><trkpt lat="43.50800892899633" lon="12.264547695222483"><ele>363.5</ele><time>2026-04-26T10:38:32.001Z</time></trkpt><trkpt lat="43.5080320603309" lon="12.264381947937665"><ele>366.25</ele><time>2026-04-26T10:38:33.001Z</time></trkpt><trkpt lat="43.50805820444306" lon="12.2642235592727"><ele>369.0</ele><time>2026-04-26T10:38:34.001Z</time></trkpt><trkpt lat="43.50811840994028" lon="12.264099551193938"><ele>369.0</ele><time>2026-04-26T10:38:35.001Z</time></trkpt><trkpt lat="43.508177786661214" lon="12.263973007487623"><ele>369.0</ele><time>2026-04-26T10:38:36.001Z</time></trkpt><trkpt lat="43.508250709742754" lon="12.26383971418995"><ele>369.0</ele><time>2026-04-26T10:38:37.001Z</time></trkpt><trkpt lat="43.50831564523839" lon="12.263684955590445"><ele>369.0</ele><time>2026-04-26T10:38:38.001Z</time></trkpt><trkpt lat="43.50839060150874" lon="12.263552475687899"><ele>367.75</ele><time>2026-04-26T10:38:39.001Z</time></trkpt><trkpt lat="43.50844501640741" lon="12.26341967075413"><ele>366.5</ele><time>2026-04-26T10:38:40.001Z</time></trkpt><trkpt lat="43.50847281646935" lon="12.26327121320347"><ele>365.25</ele><time>2026-04-26T10:38:41.001Z</time></trkpt><trkpt lat="43.50847123288779" lon="12.263108931379016"><ele>364.0</ele><time>2026-04-26T10:38:42.001Z</time></trkpt><trkpt lat="43.50844414000731" lon="12.262925310406118"><ele>364.0</ele><time>2026-04-26T10:38:43.001Z</time></trkpt><trkpt lat="43.508433481871776" lon="12.262740628464568"><ele>364.0</ele><time>2026-04-26T10:38:44.001Z</time></trkpt><trkpt lat="43.50841338529572" lon="12.262547527727508"><ele>364.0</ele><time>2026-04-26T10:38:45.001Z</time></trkpt><trkpt lat="43.508404334459925" lon="12.262348046059119"><ele>364.0</ele><time>2026-04-26T10:38:46.001Z</time></trkpt><trkpt lat="43.50840773844993" lon="12.262147293802654"><ele>363.75</ele><time>2026-04-26T10:38:47.001Z</time></trkpt><trkpt lat="43.50840716783846" lon="12.261945919037036"><ele>363.5</ele><time>2026-04-26T10:38:48.001Z</time></trkpt><trkpt lat="43.50840800056219" lon="12.261754884324038"><ele>363.25</ele><time>2026-04-26T10:38:49.001Z</time></trkpt><trkpt lat="43.50839291412757" lon="12.261551243739278"><ele>363.0</ele><time>2026-04-26T10:38:50.001Z</time></trkpt><trkpt lat="43.50835899613078" lon="12.26138328630688"><ele>362.5</ele><time>2026-04-26T10:38:51.001Z</time></trkpt><trkpt lat="43.50830083196081" lon="12.26120594338267"><ele>362.0</ele><time>2026-04-26T10:38:52.001Z</time></trkpt><trkpt lat="43.50825901371368" lon="12.261044727452058"><ele>361.5</ele><time>2026-04-26T10:38:53.001Z</time></trkpt><trkpt lat="43.50822409965217" lon="12.26088706092081"><ele>361.0</ele><time>2026-04-26T10:38:54.001Z</time></trkpt><trkpt lat="43.508207844903325" lon="12.260733811135811"><ele>360.8</ele><time>2026-04-26T10:38:55.001Z</time></trkpt><trkpt lat="43.50819455070846" lon="12.260585358567633"><ele>360.6</ele><time>2026-04-26T10:38:56.001Z</time></trkpt><trkpt lat="43.5081717899248" lon="12.260454331087848"><ele>360.4</ele><time>2026-04-26T10:38:57.001Z</time></trkpt><trkpt lat="43.508129155147195" lon="12.26032831427168"><ele>360.2</ele><time>2026-04-26T10:38:58.001Z</time></trkpt><trkpt lat="43.508059852375744" lon="12.26022412908255"><ele>360.0</ele><time>2026-04-26T10:38:59.001Z</time></trkpt><trkpt lat="43.507952421794066" lon="12.260168395329464"><ele>357.5</ele><time>2026-04-26T10:39:00.001Z</time></trkpt><trkpt lat="43.507819892338276" lon="12.26022502804736"><ele>355.0</ele><time>2026-04-26T10:39:01.001Z</time></trkpt><trkpt lat="43.50769152628023" lon="12.260268143333478"><ele>352.5</ele><time>2026-04-26T10:39:02.001Z</time></trkpt><trkpt lat="43.507568718546885" lon="12.260327626744782"><ele>350.0</ele><time>2026-04-26T10:39:03.001Z</time></trkpt><trkpt lat="43.50746192227362" lon="12.2603987761803"><ele>350.0</ele><time>2026-04-26T10:39:04.001Z</time></trkpt><trkpt lat="43.50736990123117" lon="12.260483415236715"><ele>350.0</ele><time>2026-04-26T10:39:05.001Z</time></trkpt><trkpt lat="43.50726301731726" lon="12.260521043114487"><ele>350.0</ele><time>2026-04-26T10:39:06.001Z</time></trkpt><trkpt lat="43.50715917431461" lon="12.260536761601626"><ele>350.0</ele><time>2026-04-26T10:39:07.001Z</time></trkpt><trkpt lat="43.50705710920364" lon="12.260545028286812"><ele>350.0</ele><time>2026-04-26T10:39:08.001Z</time></trkpt><trkpt lat="43.506970329685586" lon="12.26052830580899"><ele>353.6</ele><time>2026-04-26T10:39:09.001Z</time></trkpt><trkpt lat="43.506895316132606" lon="12.260497140143602"><ele>357.2</ele><time>2026-04-26T10:39:10.001Z</time></trkpt><trkpt lat="43.50684800817071" lon="12.260376950787572"><ele>360.79999999999995</ele><time>2026-04-26T10:39:11.001Z</time></trkpt><trkpt lat="43.50686743100958" lon="12.26020827313228"><ele>364.4</ele><time>2026-04-26T10:39:12.001Z</time></trkpt><trkpt lat="43.50686178160183" lon="12.260038552545451"><ele>368.0</ele><time>2026-04-26T10:39:13.001Z</time></trkpt><trkpt lat="43.50684492130005" lon="12.259864860323919"><ele>365.25</ele><time>2026-04-26T10:39:14.001Z</time></trkpt><trkpt lat="43.50681603990648" lon="12.259684101138413"><ele>362.5</ele><time>2026-04-26T10:39:15.001Z</time></trkpt><trkpt lat="43.506751781235415" lon="12.25950472468685"><ele>359.75</ele><time>2026-04-26T10:39:16.001Z</time></trkpt><trkpt lat="43.50670028738457" lon="12.259350011113723"><ele>357.0</ele><time>2026-04-26T10:39:17.001Z</time></trkpt><trkpt lat="43.50663679367417" lon="12.259187344027648"><ele>357.0</ele><time>2026-04-26T10:39:18.001Z</time></trkpt><trkpt lat="43.50661317016737" lon="12.25902078230256"><ele>357.0</ele><time>2026-04-26T10:39:19.001Z</time></trkpt><trkpt lat="43.5066012299405" lon="12.25885265890968"><ele>357.0</ele><time>2026-04-26T10:39:20.001Z</time></trkpt><trkpt lat="43.50659655034616" lon="12.258669482526717"><ele>357.0</ele><time>2026-04-26T10:39:21.001Z</time></trkpt><trkpt lat="43.50660103197891" lon="12.258501545089736"><ele>355.5</ele><time>2026-04-26T10:39:22.001Z</time></trkpt><trkpt lat="43.506623763356714" lon="12.25834700188828"><ele>354.0</ele><time>2026-04-26T10:39:23.001Z</time></trkpt><trkpt lat="43.5066677651088" lon="12.258194555564218"><ele>352.5</ele><time>2026-04-26T10:39:24.001Z</time></trkpt><trkpt lat="43.506682661263184" lon="12.258027739697097"><ele>351.0</ele><time>2026-04-26T10:39:25.002Z</time></trkpt><trkpt lat="43.50667231019467" lon="12.257869707035377"><ele>350.25</ele><time>2026-04-26T10:39:26.002Z</time></trkpt><trkpt lat="43.50662898574545" lon="12.257701790868763"><ele>349.5</ele><time>2026-04-26T10:39:27.002Z</time></trkpt><trkpt lat="43.506562591625" lon="12.257546165733157"><ele>348.75</ele><time>2026-04-26T10:39:28.002Z</time></trkpt><trkpt lat="43.506497986488064" lon="12.257392913343224"><ele>348.0</ele><time>2026-04-26T10:39:29.002Z</time></trkpt><trkpt lat="43.506425364369186" lon="12.257251299229722"><ele>348.25</ele><time>2026-04-26T10:39:30.002Z</time></trkpt><trkpt lat="43.50636480849505" lon="12.257096674615084"><ele>348.5</ele><time>2026-04-26T10:39:31.002Z</time></trkpt><trkpt lat="43.506300016687945" lon="12.256938216297701"><ele>348.75</ele><time>2026-04-26T10:39:32.002Z</time></trkpt><trkpt lat="43.50622747291006" lon="12.256780046174217"><ele>349.0</ele><time>2026-04-26T10:39:33.002Z</time></trkpt><trkpt lat="43.5061496499697" lon="12.256607969117216"><ele>347.75</ele><time>2026-04-26T10:39:34.002Z</time></trkpt><trkpt lat="43.506072004287596" lon="12.2564288833087"><ele>346.5</ele><time>2026-04-26T10:39:35.002Z</time></trkpt><trkpt lat="43.50600288096995" lon="12.256274129342083"><ele>345.25</ele><time>2026-04-26T10:39:36.002Z</time></trkpt><trkpt lat="43.50593122994434" lon="12.256135461895994"><ele>344.0</ele><time>2026-04-26T10:39:37.002Z</time></trkpt><trkpt lat="43.505848071856775" lon="12.256004372448174"><ele>344.0</ele><time>2026-04-26T10:39:38.002Z</time></trkpt><trkpt lat="43.5057456268132" lon="12.255886850945556"><ele>344.0</ele><time>2026-04-26T10:39:39.002Z</time></trkpt><trkpt lat="43.5056339955769" lon="12.255781049846448"><ele>344.0</ele><time>2026-04-26T10:39:40.002Z</time></trkpt><trkpt lat="43.50552539468585" lon="12.255674507724736"><ele>344.0</ele><time>2026-04-26T10:39:41.002Z</time></trkpt><trkpt lat="43.50540735090669" lon="12.25557788801147"><ele>343.75</ele><time>2026-04-26T10:39:42.002Z</time></trkpt><trkpt lat="43.50529297841423" lon="12.255478429274996"><ele>343.5</ele><time>2026-04-26T10:39:43.002Z</time></trkpt><trkpt lat="43.50517168454845" lon="12.255372185772645"><ele>343.25</ele><time>2026-04-26T10:39:44.002Z</time></trkpt><trkpt lat="43.50504857114849" lon="12.255260588712291"><ele>343.0</ele><time>2026-04-26T10:39:45.002Z</time></trkpt><trkpt lat="43.50492361333706" lon="12.255158877244192"><ele>343.0</ele><time>2026-04-26T10:39:46.002Z</time></trkpt><trkpt lat="43.50480238287987" lon="12.255051171811806"><ele>343.0</ele><time>2026-04-26T10:39:47.002Z</time></trkpt><trkpt lat="43.50468216749834" lon="12.254950546084023"><ele>343.0</ele><time>2026-04-26T10:39:48.002Z</time></trkpt><trkpt lat="43.50456674202511" lon="12.254850259951168"><ele>343.0</ele><time>2026-04-26T10:39:49.002Z</time></trkpt><trkpt lat="43.504458423048256" lon="12.254711323464548"><ele>343.5</ele><time>2026-04-26T10:39:50.001Z</time></trkpt><trkpt lat="43.50435645208908" lon="12.254576363383453"><ele>344.0</ele><time>2026-04-26T10:39:51.001Z</time></trkpt><trkpt lat="43.504256046366564" lon="12.254436933638644"><ele>344.5</ele><time>2026-04-26T10:39:52.001Z</time></trkpt><trkpt lat="43.50418038948481" lon="12.254288215106223"><ele>345.0</ele><time>2026-04-26T10:39:53.001Z</time></trkpt><trkpt lat="43.50410033389321" lon="12.254146899526866"><ele>345.0</ele><time>2026-04-26T10:39:54.001Z</time></trkpt><trkpt lat="43.504022460662306" lon="12.254015430928632"><ele>345.0</ele><time>2026-04-26T10:39:55.001Z</time></trkpt><trkpt lat="43.50395862048622" lon="12.253874023580357"><ele>345.0</ele><time>2026-04-26T10:39:56.001Z</time></trkpt><trkpt lat="43.50387700044349" lon="12.253758111666254"><ele>345.0</ele><time>2026-04-26T10:39:57.001Z</time></trkpt><trkpt lat="43.50382194000789" lon="12.25365435015729"><ele>344.0</ele><time>2026-04-26T10:39:58.001Z</time></trkpt><trkpt lat="43.50377566725533" lon="12.25356061092554"><ele>343.0</ele><time>2026-04-26T10:39:59.001Z</time></trkpt><trkpt lat="43.503740592715516" lon="12.253487605879807"><ele>342.0</ele><time>2026-04-26T10:40:00.001Z</time></trkpt><trkpt lat="43.50369594988753" lon="12.253419869357895"><ele>341.0</ele><time>2026-04-26T10:40:03.001Z</time></trkpt><trkpt lat="43.50361252954375" lon="12.25348909127301"><ele>340.0</ele><time>2026-04-26T10:40:04.001Z</time></trkpt><trkpt lat="43.503522054380916" lon="12.253512033666045"><ele>339.0</ele><time>2026-04-26T10:40:06.001Z</time></trkpt><trkpt lat="43.50341918572099" lon="12.253416970321833"><ele>339.0</ele><time>2026-04-26T10:40:08.001Z</time></trkpt><trkpt lat="43.50335262038285" lon="12.253430186155938"><ele>339.0</ele><time>2026-04-26T10:40:15.001Z</time></trkpt><trkpt lat="43.50333190913278" lon="12.253629696365696"><ele>339.0</ele><time>2026-04-26T10:40:20.001Z</time></trkpt><trkpt lat="43.50325997465175" lon="12.253691568452474"><ele>339.0</ele><time>2026-04-26T10:40:22.001Z</time></trkpt><trkpt lat="43.50320500887265" lon="12.25374134684668"><ele>339.0</ele><time>2026-04-26T10:40:23.001Z</time></trkpt><trkpt lat="43.50315485109329" lon="12.253858555348145"><ele>340.5</ele><time>2026-04-26T10:40:25.001Z</time></trkpt><trkpt lat="43.50315309014536" lon="12.254015579879406"><ele>342.0</ele><time>2026-04-26T10:40:27.001Z</time></trkpt><trkpt lat="43.503142583771464" lon="12.254102148383234"><ele>343.5</ele><time>2026-04-26T10:40:28.001Z</time></trkpt><trkpt lat="43.50312648608775" lon="12.254207895069177"><ele>345.0</ele><time>2026-04-26T10:40:29.001Z</time></trkpt><trkpt lat="43.503092541723234" lon="12.254310481580712"><ele>346.5</ele><time>2026-04-26T10:40:30.001Z</time></trkpt><trkpt lat="43.503072300496335" lon="12.25443433538294"><ele>348.0</ele><time>2026-04-26T10:40:31.001Z</time></trkpt><trkpt lat="43.5030552482377" lon="12.254590229545451"><ele>348.0</ele><time>2026-04-26T10:40:33.001Z</time></trkpt><trkpt lat="43.50304499327766" lon="12.254686861511182"><ele>348.0</ele><time>2026-04-26T10:40:34.001Z</time></trkpt><trkpt lat="43.50302588132949" lon="12.254797572429208"><ele>348.0</ele><time>2026-04-26T10:40:35.001Z</time></trkpt><trkpt lat="43.503011944883006" lon="12.254892334804866"><ele>348.0</ele><time>2026-04-26T10:40:36.001Z</time></trkpt><trkpt lat="43.503000714492735" lon="12.255000150325817"><ele>348.0</ele><time>2026-04-26T10:40:37.001Z</time></trkpt><trkpt lat="43.50298783846631" lon="12.255099662582449"><ele>348.0</ele><time>2026-04-26T10:40:38.001Z</time></trkpt><trkpt lat="43.50295609875846" lon="12.255201242040002"><ele>349.6666666666667</ele><time>2026-04-26T10:40:39.001Z</time></trkpt><trkpt lat="43.50292675441698" lon="12.255294412294521"><ele>351.3333333333333</ele><time>2026-04-26T10:40:40.001Z</time></trkpt><trkpt lat="43.50291012539747" lon="12.255404816829856"><ele>353.0</ele><time>2026-04-26T10:40:41.001Z</time></trkpt><trkpt lat="43.50287959839499" lon="12.255575012902192"><ele>354.66666666666663</ele><time>2026-04-26T10:40:43.001Z</time></trkpt><trkpt lat="43.5028412865305" lon="12.255665078206029"><ele>356.3333333333333</ele><time>2026-04-26T10:40:44.001Z</time></trkpt><trkpt lat="43.502793512278885" lon="12.25575997078708"><ele>358.0</ele><time>2026-04-26T10:40:45.001Z</time></trkpt><trkpt lat="43.50276316076352" lon="12.25586116204656"><ele>358.5</ele><time>2026-04-26T10:40:46.001Z</time></trkpt><trkpt lat="43.50274027753037" lon="12.255955282912154"><ele>359.0</ele><time>2026-04-26T10:40:47.001Z</time></trkpt><trkpt lat="43.50271208910978" lon="12.256033932752558"><ele>359.5</ele><time>2026-04-26T10:40:48.001Z</time></trkpt><trkpt lat="43.50269132416154" lon="12.256123660000565"><ele>360.0</ele><time>2026-04-26T10:40:49.001Z</time></trkpt><trkpt lat="43.50266761232695" lon="12.2562145665988"><ele>360.5</ele><time>2026-04-26T10:40:50.001Z</time></trkpt><trkpt lat="43.5026196733159" lon="12.256288626497122"><ele>361.0</ele><time>2026-04-26T10:40:51.001Z</time></trkpt><trkpt lat="43.502567448304895" lon="12.256421749378932"><ele>361.8333333333333</ele><time>2026-04-26T10:40:53.001Z</time></trkpt><trkpt lat="43.502519235798715" lon="12.256570901158767"><ele>362.66666666666663</ele><time>2026-04-26T10:40:55.001Z</time></trkpt><trkpt lat="43.50249972644191" lon="12.256728704477794"><ele>363.5</ele><time>2026-04-26T10:40:57.001Z</time></trkpt><trkpt lat="43.50249395663497" lon="12.256835538449089"><ele>364.3333333333333</ele><time>2026-04-26T10:40:58.001Z</time></trkpt><trkpt lat="43.50249328824415" lon="12.25692826967004"><ele>365.1666666666667</ele><time>2026-04-26T10:40:59.001Z</time></trkpt><trkpt lat="43.50249584655728" lon="12.257017572391208"><ele>366.0</ele><time>2026-04-26T10:41:00.001Z</time></trkpt><trkpt lat="43.50248411657686" lon="12.257175098438232"><ele>366.6666666666667</ele><time>2026-04-26T10:41:02.001Z</time></trkpt><trkpt lat="43.502526423334686" lon="12.257324626368693"><ele>367.3333333333333</ele><time>2026-04-26T10:41:04.001Z</time></trkpt><trkpt lat="43.50256613811887" lon="12.257396495829994"><ele>368.0</ele><time>2026-04-26T10:41:05.001Z</time></trkpt><trkpt lat="43.50257253218773" lon="12.257489098966742"><ele>368.66666666666663</ele><time>2026-04-26T10:41:06.001Z</time></trkpt><trkpt lat="43.50254216140954" lon="12.257588593270647"><ele>369.3333333333333</ele><time>2026-04-26T10:41:07.001Z</time></trkpt><trkpt lat="43.50252574260734" lon="12.257685704745647"><ele>370.0</ele><time>2026-04-26T10:41:08.001Z</time></trkpt><trkpt lat="43.50251810227015" lon="12.257774901940337"><ele>370.0</ele><time>2026-04-26T10:41:09.001Z</time></trkpt><trkpt lat="43.50257881383566" lon="12.25790153028666"><ele>370.0</ele><time>2026-04-26T10:41:11.001Z</time></trkpt><trkpt lat="43.50260223150698" lon="12.258052418097579"><ele>370.0</ele><time>2026-04-26T10:41:13.001Z</time></trkpt><trkpt lat="43.5025935864267" lon="12.258231807310079"><ele>370.0</ele><time>2026-04-26T10:41:15.001Z</time></trkpt><trkpt lat="43.50257215248948" lon="12.258393066525253"><ele>371.4</ele><time>2026-04-26T10:41:17.001Z</time></trkpt><trkpt lat="43.50252351862269" lon="12.258450411852728"><ele>372.8</ele><time>2026-04-26T10:41:18.001Z</time></trkpt><trkpt lat="43.502437481797365" lon="12.258572998792433"><ele>374.20000000000005</ele><time>2026-04-26T10:41:20.001Z</time></trkpt><trkpt lat="43.50244169631616" lon="12.258753623016048"><ele>375.6</ele><time>2026-04-26T10:41:22.001Z</time></trkpt><trkpt lat="43.50246184157293" lon="12.258838414580671"><ele>377.0</ele><time>2026-04-26T10:41:23.001Z</time></trkpt><trkpt lat="43.50247251063349" lon="12.258934548932247"><ele>377.33333333333337</ele><time>2026-04-26T10:41:24.001Z</time></trkpt><trkpt lat="43.502517630758156" lon="12.259071112525426"><ele>377.6666666666667</ele><time>2026-04-26T10:41:26.001Z</time></trkpt><trkpt lat="43.50260375649047" lon="12.259188266754448"><ele>378.0</ele><time>2026-04-26T10:41:28.001Z</time></trkpt><trkpt lat="43.5026179048788" lon="12.259281695354394"><ele>378.3333333333333</ele><time>2026-04-26T10:41:29.001Z</time></trkpt><trkpt lat="43.50261427928497" lon="12.25937537375794"><ele>378.66666666666663</ele><time>2026-04-26T10:41:30.001Z</time></trkpt><trkpt lat="43.50263027453253" lon="12.259478132267327"><ele>379.0</ele><time>2026-04-26T10:41:31.001Z</time></trkpt><trkpt lat="43.50264461104684" lon="12.259599314357889"><ele>379.0</ele><time>2026-04-26T10:41:32.001Z</time></trkpt><trkpt lat="43.50264112088177" lon="12.259723511417628"><ele>379.0</ele><time>2026-04-26T10:41:33.001Z</time></trkpt><trkpt lat="43.502638592745974" lon="12.25983830424234"><ele>379.0</ele><time>2026-04-26T10:41:34.001Z</time></trkpt><trkpt lat="43.50264364970184" lon="12.25997447428618"><ele>379.0</ele><time>2026-04-26T10:41:35.001Z</time></trkpt><trkpt lat="43.50265313490854" lon="12.260089762501682"><ele>379.0</ele><time>2026-04-26T10:41:36.001Z</time></trkpt><trkpt lat="43.502663941435486" lon="12.260201574278652"><ele>379.0</ele><time>2026-04-26T10:41:37.001Z</time></trkpt><trkpt lat="43.50267480182708" lon="12.26031432943081"><ele>380.16666666666663</ele><time>2026-04-26T10:41:38.001Z</time></trkpt><trkpt lat="43.50267482884722" lon="12.26041855306716"><ele>381.3333333333333</ele><time>2026-04-26T10:41:39.001Z</time></trkpt><trkpt lat="43.50268489451714" lon="12.260592040427793"><ele>382.5</ele><time>2026-04-26T10:41:41.001Z</time></trkpt><trkpt lat="43.50268921182486" lon="12.260694208229737"><ele>383.66666666666663</ele><time>2026-04-26T10:41:42.001Z</time></trkpt><trkpt lat="43.50267310441764" lon="12.260786530256821"><ele>384.8333333333333</ele><time>2026-04-26T10:41:43.001Z</time></trkpt><trkpt lat="43.50264863932996" lon="12.260868678147064"><ele>386.0</ele><time>2026-04-26T10:41:44.001Z</time></trkpt><trkpt lat="43.502631121640086" lon="12.26095573895165"><ele>387.16666666666663</ele><time>2026-04-26T10:41:45.001Z</time></trkpt><trkpt lat="43.502627040275435" lon="12.261055129961361"><ele>388.3333333333333</ele><time>2026-04-26T10:41:46.001Z</time></trkpt><trkpt lat="43.50262686622716" lon="12.261157532659954"><ele>389.5</ele><time>2026-04-26T10:41:47.001Z</time></trkpt><trkpt lat="43.50264421386536" lon="12.261249607300423"><ele>390.66666666666663</ele><time>2026-04-26T10:41:48.001Z</time></trkpt><trkpt lat="43.502669361233835" lon="12.261338004027753"><ele>391.8333333333333</ele><time>2026-04-26T10:41:49.001Z</time></trkpt><trkpt lat="43.50269498792582" lon="12.261511153148366"><ele>393.0</ele><time>2026-04-26T10:41:51.001Z</time></trkpt><trkpt lat="43.50274626855741" lon="12.261590249645248"><ele>394.0</ele><time>2026-04-26T10:41:52.001Z</time></trkpt><trkpt lat="43.50282727473556" lon="12.2617157298301"><ele>395.0</ele><time>2026-04-26T10:41:54.001Z</time></trkpt><trkpt lat="43.502863141895695" lon="12.261803955526181"><ele>396.0</ele><time>2026-04-26T10:41:55.001Z</time></trkpt><trkpt lat="43.50292520919064" lon="12.261932132371339"><ele>397.0</ele><time>2026-04-26T10:41:57.001Z</time></trkpt><trkpt lat="43.50301640087741" lon="12.262060699079765"><ele>398.0</ele><time>2026-04-26T10:41:59.001Z</time></trkpt><trkpt lat="43.50306551515871" lon="12.262135320398563"><ele>400.3333333333333</ele><time>2026-04-26T10:42:00.001Z</time></trkpt><trkpt lat="43.50310976200999" lon="12.262217190264495"><ele>402.66666666666663</ele><time>2026-04-26T10:42:01.001Z</time></trkpt><trkpt lat="43.503152719243836" lon="12.262289678838092"><ele>405.0</ele><time>2026-04-26T10:42:02.001Z</time></trkpt><trkpt lat="43.503187829231265" lon="12.262367181545542"><ele>407.33333333333337</ele><time>2026-04-26T10:42:03.001Z</time></trkpt><trkpt lat="43.50323457785634" lon="12.262441785382151"><ele>409.6666666666667</ele><time>2026-04-26T10:42:04.001Z</time></trkpt><trkpt lat="43.50331923910289" lon="12.262554476695001"><ele>412.0</ele><time>2026-04-26T10:42:06Z</time></trkpt><trkpt lat="43.50336368648331" lon="12.262634718953148"><ele>412.1428571428571</ele><time>2026-04-26T10:42:07Z</time></trkpt><trkpt lat="43.50341209702035" lon="12.262722037144611"><ele>412.2857142857143</ele><time>2026-04-26T10:42:08Z</time></trkpt><trkpt lat="43.5034587951361" lon="12.262803954920507"><ele>412.42857142857144</ele><time>2026-04-26T10:42:09Z</time></trkpt><trkpt lat="43.50350436655185" lon="12.262867795463698"><ele>412.57142857142856</ele><time>2026-04-26T10:42:10Z</time></trkpt><trkpt lat="43.50356126888517" lon="12.26292788363993"><ele>412.7142857142857</ele><time>2026-04-26T10:42:11Z</time></trkpt><trkpt lat="43.503631264806714" lon="12.262968619462946"><ele>412.85714285714283</ele><time>2026-04-26T10:42:12Z</time></trkpt><trkpt lat="43.50369415342903" lon="12.263019515755923"><ele>413.0</ele><time>2026-04-26T10:42:13Z</time></trkpt><trkpt lat="43.50374871886335" lon="12.26307341035681"><ele>415.49999999999994</ele><time>2026-04-26T10:42:14Z</time></trkpt><trkpt lat="43.5038152068319" lon="12.263138040629048"><ele>418.0</ele><time>2026-04-26T10:42:15Z</time></trkpt><trkpt lat="43.50388574740564" lon="12.263200830204012"><ele>420.5</ele><time>2026-04-26T10:42:16Z</time></trkpt><trkpt lat="43.50396016714209" lon="12.263262907921701"><ele>423.0</ele><time>2026-04-26T10:42:17Z</time></trkpt><trkpt lat="43.50402725156485" lon="12.263314596587028"><ele>425.49999999999994</ele><time>2026-04-26T10:42:18Z</time></trkpt><trkpt lat="43.504094487271374" lon="12.263365964753135"><ele>428.0</ele><time>2026-04-26T10:42:19Z</time></trkpt><trkpt lat="43.504164722393405" lon="12.263419325773814"><ele>427.99999999999994</ele><time>2026-04-26T10:42:20Z</time></trkpt><trkpt lat="43.504227371025344" lon="12.263464380681965"><ele>428.0</ele><time>2026-04-26T10:42:21Z</time></trkpt><trkpt lat="43.50428844328181" lon="12.26352393600039"><ele>428.0</ele><time>2026-04-26T10:42:22Z</time></trkpt><trkpt lat="43.50435524007922" lon="12.263581390731847"><ele>428.0</ele><time>2026-04-26T10:42:23Z</time></trkpt><trkpt lat="43.50441818163571" lon="12.263640077935005"><ele>427.99999999999994</ele><time>2026-04-26T10:42:24Z</time></trkpt><trkpt lat="43.5044784576947" lon="12.263716973708531"><ele>428.0</ele><time>2026-04-26T10:42:25Z</time></trkpt><trkpt lat="43.504544112207796" lon="12.263790560006806"><ele>428.3333333333333</ele><time>2026-04-26T10:42:26Z</time></trkpt><trkpt lat="43.50461401798672" lon="12.263876866184724"><ele>428.66666666666663</ele><time>2026-04-26T10:42:27Z</time></trkpt><trkpt lat="43.50466478385818" lon="12.263938789025968"><ele>429.0</ele><time>2026-04-26T10:42:28Z</time></trkpt><trkpt lat="43.50470720310652" lon="12.26400527777303"><ele>429.33333333333337</ele><time>2026-04-26T10:42:29Z</time></trkpt><trkpt lat="43.50468018388032" lon="12.264166558440909"><ele>429.6666666666667</ele><time>2026-04-26T10:42:31Z</time></trkpt><trkpt lat="43.50461694580489" lon="12.264269116557916"><ele>430.0</ele><time>2026-04-26T10:42:32Z</time></trkpt><trkpt lat="43.50453356535069" lon="12.264356262298062"><ele>430.0</ele><time>2026-04-26T10:42:33Z</time></trkpt><trkpt lat="43.504446683304565" lon="12.264441367365864"><ele>430.0</ele><time>2026-04-26T10:42:34Z</time></trkpt><trkpt lat="43.504356474793966" lon="12.264507395970977"><ele>430.0</ele><time>2026-04-26T10:42:35Z</time></trkpt><trkpt lat="43.50426091278344" lon="12.264575894378801"><ele>430.0</ele><time>2026-04-26T10:42:36Z</time></trkpt><trkpt lat="43.504180326370204" lon="12.26466151935082"><ele>430.0</ele><time>2026-04-26T10:42:37Z</time></trkpt><trkpt lat="43.504114530823415" lon="12.26472182484155"><ele>430.00000000000006</ele><time>2026-04-26T10:42:38Z</time></trkpt><trkpt lat="43.504032089260924" lon="12.264779055282059"><ele>430.0</ele><time>2026-04-26T10:42:39Z</time></trkpt><trkpt lat="43.50396002075248" lon="12.264815847366332"><ele>430.0</ele><time>2026-04-26T10:42:40Z</time></trkpt><trkpt lat="43.50388879267078" lon="12.26483378591272"><ele>430.0</ele><time>2026-04-26T10:42:41Z</time></trkpt><trkpt lat="43.50381213171779" lon="12.264815112375118"><ele>430.00000000000006</ele><time>2026-04-26T10:42:42Z</time></trkpt><trkpt lat="43.503747527279515" lon="12.264752824183278"><ele>430.0</ele><time>2026-04-26T10:42:43Z</time></trkpt><trkpt lat="43.503690248870576" lon="12.264682767625551"><ele>431.4</ele><time>2026-04-26T10:42:44Z</time></trkpt><trkpt lat="43.50355388289348" lon="12.26464996154832"><ele>432.8</ele><time>2026-04-26T10:42:46Z</time></trkpt><trkpt lat="43.503454588979224" lon="12.26465540171073"><ele>434.20000000000005</ele><time>2026-04-26T10:42:47Z</time></trkpt><trkpt lat="43.503360088921305" lon="12.264624416794915"><ele>435.6</ele><time>2026-04-26T10:42:48Z</time></trkpt><trkpt lat="43.50328963060117" lon="12.264584511478894"><ele>437.0</ele><time>2026-04-26T10:42:49Z</time></trkpt><trkpt lat="43.503228669144626" lon="12.26452840418715"><ele>437.0</ele><time>2026-04-26T10:42:50Z</time></trkpt><trkpt lat="43.50318120140108" lon="12.264456319768264"><ele>437.0</ele><time>2026-04-26T10:42:51Z</time></trkpt><trkpt lat="43.50311207323962" lon="12.264398346786711"><ele>437.0</ele><time>2026-04-26T10:42:52Z</time></trkpt><trkpt lat="43.50303877437835" lon="12.264368307429777"><ele>437.0</ele><time>2026-04-26T10:42:53Z</time></trkpt><trkpt lat="43.502967519747045" lon="12.264364123149901"><ele>437.0</ele><time>2026-04-26T10:42:54Z</time></trkpt><trkpt lat="43.502889464160226" lon="12.26437654797776"><ele>437.0</ele><time>2026-04-26T10:42:55Z</time></trkpt><trkpt lat="43.502822037583144" lon="12.264371934040438"><ele>437.0</ele><time>2026-04-26T10:42:56Z</time></trkpt><trkpt lat="43.50269396622745" lon="12.264421915419048"><ele>436.8</ele><time>2026-04-26T10:42:58Z</time></trkpt><trkpt lat="43.502623190725735" lon="12.264497579830731"><ele>436.6</ele><time>2026-04-26T10:42:59Z</time></trkpt><trkpt lat="43.50256556797458" lon="12.264579214050045"><ele>436.40000000000003</ele><time>2026-04-26T10:43:00Z</time></trkpt><trkpt lat="43.5025059088345" lon="12.26466521111769"><ele>436.20000000000005</ele><time>2026-04-26T10:43:01Z</time></trkpt><trkpt lat="43.50243967973202" lon="12.26476229881117"><ele>436.0</ele><time>2026-04-26T10:43:02Z</time></trkpt><trkpt lat="43.50237380010391" lon="12.26485705573513"><ele>435.8</ele><time>2026-04-26T10:43:03Z</time></trkpt><trkpt lat="43.502310457700425" lon="12.264928975296396"><ele>435.6</ele><time>2026-04-26T10:43:04Z</time></trkpt><trkpt lat="43.502221296922265" lon="12.265007205564737"><ele>435.4</ele><time>2026-04-26T10:43:05Z</time></trkpt><trkpt lat="43.502149453334965" lon="12.265096847896846"><ele>435.2</ele><time>2026-04-26T10:43:06Z</time></trkpt><trkpt lat="43.50208841096264" lon="12.265195767770352"><ele>435.0</ele><time>2026-04-26T10:43:07Z</time></trkpt><trkpt lat="43.50205704877618" lon="12.265288728729042"><ele>434.5</ele><time>2026-04-26T10:43:08Z</time></trkpt><trkpt lat="43.50202941018388" lon="12.26540132484143"><ele>434.0</ele><time>2026-04-26T10:43:09Z</time></trkpt><trkpt lat="43.50200099658015" lon="12.265528104924543"><ele>433.5</ele><time>2026-04-26T10:43:10Z</time></trkpt><trkpt lat="43.5019780557731" lon="12.26562110102991"><ele>433.0</ele><time>2026-04-26T10:43:11Z</time></trkpt><trkpt lat="43.50196677658484" lon="12.265718005495465"><ele>432.5</ele><time>2026-04-26T10:43:12Z</time></trkpt><trkpt lat="43.50196590982422" lon="12.265821907045467"><ele>432.0</ele><time>2026-04-26T10:43:13Z</time></trkpt><trkpt lat="43.501980862408274" lon="12.265987799993981"><ele>433.40000000000003</ele><time>2026-04-26T10:43:15Z</time></trkpt><trkpt lat="43.502003625916046" lon="12.266088910608602"><ele>434.80000000000007</ele><time>2026-04-26T10:43:16Z</time></trkpt><trkpt lat="43.50201013153104" lon="12.266203863941435"><ele>436.2</ele><time>2026-04-26T10:43:17Z</time></trkpt><trkpt lat="43.50199423289448" lon="12.26631489860119"><ele>437.6</ele><time>2026-04-26T10:43:18Z</time></trkpt><trkpt lat="43.50198133492972" lon="12.266474303375652"><ele>439.0</ele><time>2026-04-26T10:43:19Z</time></trkpt><trkpt lat="43.50199614775397" lon="12.266629794850001"><ele>439.0</ele><time>2026-04-26T10:43:20Z</time></trkpt><trkpt lat="43.50200826314816" lon="12.266759704442146"><ele>439.0</ele><time>2026-04-26T10:43:21Z</time></trkpt><trkpt lat="43.501999741330444" lon="12.266868590234022"><ele>439.0</ele><time>2026-04-26T10:43:22Z</time></trkpt><trkpt lat="43.50199014013482" lon="12.266971339777552"><ele>439.0</ele><time>2026-04-26T10:43:23Z</time></trkpt><trkpt lat="43.502065859045494" lon="12.267139918491807"><ele>439.0</ele><time>2026-04-26T10:43:25Z</time></trkpt><trkpt lat="43.50214691459044" lon="12.267267771991738"><ele>440.2</ele><time>2026-04-26T10:43:26Z</time></trkpt><trkpt lat="43.502212048577746" lon="12.26740396334223"><ele>441.4</ele><time>2026-04-26T10:43:27Z</time></trkpt><trkpt lat="43.50226072913802" lon="12.267525394177307"><ele>442.6</ele><time>2026-04-26T10:43:28Z</time></trkpt><trkpt lat="43.502317084451214" lon="12.26764871523661"><ele>443.8</ele><time>2026-04-26T10:43:29Z</time></trkpt><trkpt lat="43.502363957865434" lon="12.26775562489919"><ele>445.0</ele><time>2026-04-26T10:43:30Z</time></trkpt><trkpt lat="43.50239548467065" lon="12.267848576680775"><ele>445.00000000000006</ele><time>2026-04-26T10:43:31Z</time></trkpt><trkpt lat="43.50238291078857" lon="12.26794076602086"><ele>445.0</ele><time>2026-04-26T10:43:32Z</time></trkpt><trkpt lat="43.50228288833388" lon="12.267954056397302"><ele>445.0</ele><time>2026-04-26T10:43:34Z</time></trkpt><trkpt lat="43.50223612606097" lon="12.267894954013727"><ele>445.0</ele><time>2026-04-26T10:43:35Z</time></trkpt><trkpt lat="43.5021565594338" lon="12.26780097515078"><ele>445.00000000000006</ele><time>2026-04-26T10:43:37Z</time></trkpt><trkpt lat="43.50206895048563" lon="12.267776966718966"><ele>445.0</ele><time>2026-04-26T10:43:38Z</time></trkpt><trkpt lat="43.50198547609097" lon="12.26776903130376"><ele>447.1666666666667</ele><time>2026-04-26T10:43:39Z</time></trkpt><trkpt lat="43.50193028758638" lon="12.26789669300271"><ele>449.33333333333337</ele><time>2026-04-26T10:43:41Z</time></trkpt><trkpt lat="43.50191806920213" lon="12.267990249910875"><ele>451.5</ele><time>2026-04-26T10:43:42Z</time></trkpt><trkpt lat="43.50192780529724" lon="12.268076674024181"><ele>453.66666666666663</ele><time>2026-04-26T10:43:43Z</time></trkpt><trkpt lat="43.50194830176976" lon="12.268187292548884"><ele>455.8333333333333</ele><time>2026-04-26T10:43:44Z</time></trkpt><trkpt lat="43.50194691856418" lon="12.2682961353684"><ele>458.0</ele><time>2026-04-26T10:43:45Z</time></trkpt><trkpt lat="43.50189740375785" lon="12.268349983710568"><ele>458.0</ele><time>2026-04-26T10:43:46Z</time></trkpt><trkpt lat="43.50183712924109" lon="12.268388179572645"><ele>458.0</ele><time>2026-04-26T10:43:47Z</time></trkpt><trkpt lat="43.50176815605996" lon="12.26839233339382"><ele>458.0</ele><time>2026-04-26T10:43:48Z</time></trkpt><trkpt lat="43.50170202483391" lon="12.268361681485274"><ele>458.0</ele><time>2026-04-26T10:43:49Z</time></trkpt><trkpt lat="43.50165685439052" lon="12.2682980595062"><ele>458.0</ele><time>2026-04-26T10:43:50Z</time></trkpt><trkpt lat="43.501630056532036" lon="12.26820359034655"><ele>458.0</ele><time>2026-04-26T10:43:51Z</time></trkpt><trkpt lat="43.50157576623293" lon="12.268101407757339"><ele>458.0</ele><time>2026-04-26T10:43:52Z</time></trkpt><trkpt lat="43.50151814830695" lon="12.267986041579206"><ele>457.99999999999994</ele><time>2026-04-26T10:43:53Z</time></trkpt><trkpt lat="43.5014695923906" lon="12.267896167214845"><ele>458.0</ele><time>2026-04-26T10:43:54Z</time></trkpt><trkpt lat="43.50140625165428" lon="12.26779175971318"><ele>458.0</ele><time>2026-04-26T10:43:55Z</time></trkpt><trkpt lat="43.501339639491476" lon="12.267720040228728"><ele>458.0</ele><time>2026-04-26T10:43:56Z</time></trkpt><trkpt lat="43.50125868589012" lon="12.267677094380238"><ele>457.99999999999994</ele><time>2026-04-26T10:43:57Z</time></trkpt><trkpt lat="43.50118114167419" lon="12.267664447206904"><ele>458.0</ele><time>2026-04-26T10:43:58Z</time></trkpt><trkpt lat="43.501118468018305" lon="12.267604340621922"><ele>458.49999999999994</ele><time>2026-04-26T10:43:59Z</time></trkpt><trkpt lat="43.50107110090861" lon="12.267510012044147"><ele>459.0</ele><time>2026-04-26T10:44:00Z</time></trkpt><trkpt lat="43.50103678001391" lon="12.267419651617384"><ele>459.5</ele><time>2026-04-26T10:44:01Z</time></trkpt><trkpt lat="43.500977198311006" lon="12.267338931908782"><ele>460.0</ele><time>2026-04-26T10:44:02Z</time></trkpt><trkpt lat="43.50089499862074" lon="12.267277233909372"><ele>460.49999999999994</ele><time>2026-04-26T10:44:03Z</time></trkpt><trkpt lat="43.50082471570201" lon="12.267222591685494"><ele>461.0</ele><time>2026-04-26T10:44:04Z</time></trkpt><trkpt lat="43.50076203810692" lon="12.267187845924527"><ele>461.99999999999994</ele><time>2026-04-26T10:44:05Z</time></trkpt><trkpt lat="43.50069301589099" lon="12.267149011248398"><ele>463.0</ele><time>2026-04-26T10:44:06Z</time></trkpt><trkpt lat="43.50061857903052" lon="12.26710364912059"><ele>464.0</ele><time>2026-04-26T10:44:07Z</time></trkpt><trkpt lat="43.50053508526496" lon="12.26709917265289"><ele>465.0</ele><time>2026-04-26T10:44:08Z</time></trkpt><trkpt lat="43.50044770197043" lon="12.267136353521938"><ele>465.99999999999994</ele><time>2026-04-26T10:44:09Z</time></trkpt><trkpt lat="43.5003560742408" lon="12.267175694551678"><ele>467.0</ele><time>2026-04-26T10:44:10Z</time></trkpt><trkpt lat="43.500220853050955" lon="12.267129139914758"><ele>467.0</ele><time>2026-04-26T10:44:12Z</time></trkpt><trkpt lat="43.500131887814845" lon="12.267058011482534"><ele>467.00000000000006</ele><time>2026-04-26T10:44:13Z</time></trkpt><trkpt lat="43.50005341941477" lon="12.266975902306537"><ele>467.00000000000006</ele><time>2026-04-26T10:44:14Z</time></trkpt><trkpt lat="43.49998218764526" lon="12.266876687150503"><ele>467.0</ele><time>2026-04-26T10:44:15Z</time></trkpt><trkpt lat="43.4999374050959" lon="12.266750390984587"><ele>467.0</ele><time>2026-04-26T10:44:16Z</time></trkpt><trkpt lat="43.499892210640645" lon="12.266614227629637"><ele>467.0</ele><time>2026-04-26T10:44:17Z</time></trkpt><trkpt lat="43.49984489965716" lon="12.266501826757418"><ele>467.00000000000006</ele><time>2026-04-26T10:44:18Z</time></trkpt><trkpt lat="43.49978937912097" lon="12.266399061118493"><ele>467.00000000000006</ele><time>2026-04-26T10:44:19Z</time></trkpt><trkpt lat="43.49973671594082" lon="12.266273753975604"><ele>467.0</ele><time>2026-04-26T10:44:20Z</time></trkpt><trkpt lat="43.4996965833499" lon="12.266157973869282"><ele>467.0</ele><time>2026-04-26T10:44:21Z</time></trkpt><trkpt lat="43.49964115050748" lon="12.266047364362343"><ele>468.6</ele><time>2026-04-26T10:44:22Z</time></trkpt><trkpt lat="43.499578219581785" lon="12.265956994523762"><ele>470.20000000000005</ele><time>2026-04-26T10:44:23Z</time></trkpt><trkpt lat="43.49949554604235" lon="12.265860200440208"><ele>471.8</ele><time>2026-04-26T10:44:24Z</time></trkpt><trkpt lat="43.49940674859469" lon="12.26577778350164"><ele>473.4</ele><time>2026-04-26T10:44:25Z</time></trkpt><trkpt lat="43.49932735870047" lon="12.2657064274198"><ele>475.0</ele><time>2026-04-26T10:44:26Z</time></trkpt><trkpt lat="43.49926155249533" lon="12.265624748786063"><ele>474.6</ele><time>2026-04-26T10:44:27Z</time></trkpt><trkpt lat="43.49920844052098" lon="12.265529192032036"><ele>474.2</ele><time>2026-04-26T10:44:28Z</time></trkpt><trkpt lat="43.49915256854222" lon="12.265414901375042"><ele>473.79999999999995</ele><time>2026-04-26T10:44:29Z</time></trkpt><trkpt lat="43.49908548224422" lon="12.265304294608416"><ele>473.4</ele><time>2026-04-26T10:44:30Z</time></trkpt><trkpt lat="43.49900750225217" lon="12.265179157689401"><ele>473.0</ele><time>2026-04-26T10:44:31Z</time></trkpt><trkpt lat="43.498941151555755" lon="12.265071957904468"><ele>473.0</ele><time>2026-04-26T10:44:32Z</time></trkpt><trkpt lat="43.498869237006915" lon="12.264950450808444"><ele>473.0</ele><time>2026-04-26T10:44:33Z</time></trkpt><trkpt lat="43.49879829324832" lon="12.264813592733148"><ele>473.0</ele><time>2026-04-26T10:44:34Z</time></trkpt><trkpt lat="43.498743356928905" lon="12.264674080508541"><ele>473.0</ele><time>2026-04-26T10:44:35Z</time></trkpt><trkpt lat="43.49869506020525" lon="12.264519161149988"><ele>473.59999999999997</ele><time>2026-04-26T10:44:36Z</time></trkpt><trkpt lat="43.498655425218914" lon="12.264371481579484"><ele>474.19999999999993</ele><time>2026-04-26T10:44:37Z</time></trkpt><trkpt lat="43.49862562592313" lon="12.264238848966736"><ele>474.8</ele><time>2026-04-26T10:44:38Z</time></trkpt><trkpt lat="43.498580320540356" lon="12.264129182466284"><ele>475.4</ele><time>2026-04-26T10:44:39Z</time></trkpt><trkpt lat="43.498507706920435" lon="12.264028141492327"><ele>476.0</ele><time>2026-04-26T10:44:40Z</time></trkpt><trkpt lat="43.4984294132152" lon="12.263939098845956"><ele>476.6</ele><time>2026-04-26T10:44:41Z</time></trkpt><trkpt lat="43.4983660069069" lon="12.263834471925508"><ele>477.20000000000005</ele><time>2026-04-26T10:44:42Z</time></trkpt><trkpt lat="43.498293713519026" lon="12.263732450657479"><ele>477.79999999999995</ele><time>2026-04-26T10:44:43Z</time></trkpt><trkpt lat="43.498196148005746" lon="12.263652743922385"><ele>478.4</ele><time>2026-04-26T10:44:44Z</time></trkpt><trkpt lat="43.49809461157115" lon="12.26359826058792"><ele>479.0</ele><time>2026-04-26T10:44:45Z</time></trkpt><trkpt lat="43.49799666722002" lon="12.26356368448642"><ele>479.79999999999995</ele><time>2026-04-26T10:44:46Z</time></trkpt><trkpt lat="43.497889008118385" lon="12.263548765491217"><ele>480.59999999999997</ele><time>2026-04-26T10:44:47Z</time></trkpt><trkpt lat="43.497792008919774" lon="12.26355143105869"><ele>481.4</ele><time>2026-04-26T10:44:48Z</time></trkpt><trkpt lat="43.49768538909413" lon="12.263562231257971"><ele>482.2</ele><time>2026-04-26T10:44:49Z</time></trkpt><trkpt lat="43.497591107085235" lon="12.263568490250567"><ele>483.0</ele><time>2026-04-26T10:44:50Z</time></trkpt><trkpt lat="43.49750129416203" lon="12.263574299798076"><ele>483.0</ele><time>2026-04-26T10:44:51Z</time></trkpt><trkpt lat="43.49742127833561" lon="12.263540984553917"><ele>482.99999999999994</ele><time>2026-04-26T10:44:52Z</time></trkpt><trkpt lat="43.49735101396037" lon="12.263483574326871"><ele>482.99999999999994</ele><time>2026-04-26T10:44:53Z</time></trkpt><trkpt lat="43.49724552019981" lon="12.263432457208644"><ele>483.0</ele><time>2026-04-26T10:44:54Z</time></trkpt><trkpt lat="43.49714822679664" lon="12.263421385627515"><ele>483.0</ele><time>2026-04-26T10:44:55Z</time></trkpt><trkpt lat="43.49705856129757" lon="12.26346563920635"><ele>482.3333333333333</ele><time>2026-04-26T10:44:56Z</time></trkpt><trkpt lat="43.49697520113031" lon="12.263515125356392"><ele>481.66666666666663</ele><time>2026-04-26T10:44:57Z</time></trkpt><trkpt lat="43.49689485490366" lon="12.263537962735235"><ele>481.0</ele><time>2026-04-26T10:44:58Z</time></trkpt><trkpt lat="43.496813708652006" lon="12.263536350767033"><ele>480.3333333333333</ele><time>2026-04-26T10:44:59Z</time></trkpt><trkpt lat="43.49672193901919" lon="12.26354223677856"><ele>479.66666666666663</ele><time>2026-04-26T10:45:00Z</time></trkpt><trkpt lat="43.496629832479364" lon="12.26353850911628"><ele>479.0</ele><time>2026-04-26T10:45:01Z</time></trkpt><trkpt lat="43.49654411007417" lon="12.263503420870512"><ele>478.99999999999994</ele><time>2026-04-26T10:45:02Z</time></trkpt><trkpt lat="43.496465495858864" lon="12.263456278759708"><ele>479.0</ele><time>2026-04-26T10:45:03Z</time></trkpt><trkpt lat="43.496397534283574" lon="12.263390284391273"><ele>479.0</ele><time>2026-04-26T10:45:04Z</time></trkpt><trkpt lat="43.49633869567918" lon="12.26331550931482"><ele>479.0</ele><time>2026-04-26T10:45:05Z</time></trkpt><trkpt lat="43.49629134761713" lon="12.263221428041216"><ele>478.99999999999994</ele><time>2026-04-26T10:45:06Z</time></trkpt><trkpt lat="43.49626300064259" lon="12.263086469597917"><ele>479.0</ele><time>2026-04-26T10:45:07Z</time></trkpt><trkpt lat="43.496272972575674" lon="12.262929943523"><ele>475.75</ele><time>2026-04-26T10:45:08Z</time></trkpt><trkpt lat="43.49625248650702" lon="12.262757971698303"><ele>472.5</ele><time>2026-04-26T10:45:09Z</time></trkpt><trkpt lat="43.496213521457435" lon="12.262597202923589"><ele>469.25</ele><time>2026-04-26T10:45:10Z</time></trkpt><trkpt lat="43.49615949107831" lon="12.262434136423407"><ele>466.0</ele><time>2026-04-26T10:45:11Z</time></trkpt><trkpt lat="43.496088439409405" lon="12.262302090462413"><ele>465.83333333333337</ele><time>2026-04-26T10:45:12Z</time></trkpt><trkpt lat="43.496039571111346" lon="12.262200203547255"><ele>465.6666666666667</ele><time>2026-04-26T10:45:13Z</time></trkpt><trkpt lat="43.49599748780364" lon="12.262105370935025"><ele>465.5</ele><time>2026-04-26T10:45:14Z</time></trkpt><trkpt lat="43.49595055682211" lon="12.262025804379324"><ele>465.33333333333337</ele><time>2026-04-26T10:45:15Z</time></trkpt><trkpt lat="43.49589843856506" lon="12.261966536298068"><ele>465.1666666666667</ele><time>2026-04-26T10:45:16Z</time></trkpt><trkpt lat="43.495841027632146" lon="12.261897508433833"><ele>465.0</ele><time>2026-04-26T10:45:17Z</time></trkpt><trkpt lat="43.49577124071574" lon="12.261794760052409"><ele>465.0</ele><time>2026-04-26T10:45:18Z</time></trkpt><trkpt lat="43.495704427909985" lon="12.261699645061745"><ele>465.0</ele><time>2026-04-26T10:45:19Z</time></trkpt><trkpt lat="43.49563568206895" lon="12.261617915235444"><ele>465.0</ele><time>2026-04-26T10:45:20Z</time></trkpt><trkpt lat="43.49555880013213" lon="12.261541453336067"><ele>465.0</ele><time>2026-04-26T10:45:21Z</time></trkpt><trkpt lat="43.49547774152402" lon="12.26146723336452"><ele>465.0</ele><time>2026-04-26T10:45:22Z</time></trkpt><trkpt lat="43.49539097891869" lon="12.26140564122849"><ele>463.6</ele><time>2026-04-26T10:45:23Z</time></trkpt><trkpt lat="43.49529903278686" lon="12.261362294634381"><ele>462.2</ele><time>2026-04-26T10:45:24Z</time></trkpt><trkpt lat="43.49521425379303" lon="12.261309408214624"><ele>460.79999999999995</ele><time>2026-04-26T10:45:25Z</time></trkpt><trkpt lat="43.495151554652345" lon="12.261264747751138"><ele>459.4</ele><time>2026-04-26T10:45:26Z</time></trkpt><trkpt lat="43.49511189606177" lon="12.261106597476711"><ele>458.0</ele><time>2026-04-26T10:45:28Z</time></trkpt><trkpt lat="43.49512170155941" lon="12.261005038388562"><ele>458.0</ele><time>2026-04-26T10:45:29Z</time></trkpt><trkpt lat="43.49507344463719" lon="12.260826063490086"><ele>457.99999999999994</ele><time>2026-04-26T10:45:31Z</time></trkpt><trkpt lat="43.495004955567886" lon="12.26074768652025"><ele>457.99999999999994</ele><time>2026-04-26T10:45:32Z</time></trkpt><trkpt lat="43.49491927536615" lon="12.260655017806247"><ele>458.0</ele><time>2026-04-26T10:45:33Z</time></trkpt><trkpt lat="43.494835783671604" lon="12.260558203829966"><ele>458.0</ele><time>2026-04-26T10:45:34Z</time></trkpt><trkpt lat="43.49474800209502" lon="12.260456687621092"><ele>455.0</ele><time>2026-04-26T10:45:35Z</time></trkpt><trkpt lat="43.49465598751379" lon="12.260352211441512"><ele>452.0</ele><time>2026-04-26T10:45:36Z</time></trkpt><trkpt lat="43.49456088347779" lon="12.260248512206331"><ele>449.0</ele><time>2026-04-26T10:45:37Z</time></trkpt><trkpt lat="43.49447548232499" lon="12.260143414941185"><ele>446.0</ele><time>2026-04-26T10:45:38Z</time></trkpt><trkpt lat="43.49440220929953" lon="12.260049422635612"><ele>446.0</ele><time>2026-04-26T10:45:39Z</time></trkpt><trkpt lat="43.49434786253461" lon="12.25995713243615"><ele>446.0</ele><time>2026-04-26T10:45:40Z</time></trkpt><trkpt lat="43.49432491490642" lon="12.259812699698179"><ele>446.0</ele><time>2026-04-26T10:45:41Z</time></trkpt><trkpt lat="43.49430001406344" lon="12.259664306218351"><ele>446.0</ele><time>2026-04-26T10:45:42Z</time></trkpt><trkpt lat="43.49424089539949" lon="12.259534421899922"><ele>446.0</ele><time>2026-04-26T10:45:43Z</time></trkpt><trkpt lat="43.494147243822624" lon="12.259453267065682"><ele>445.75</ele><time>2026-04-26T10:45:44Z</time></trkpt><trkpt lat="43.494027917850616" lon="12.259438671152031"><ele>445.5</ele><time>2026-04-26T10:45:45Z</time></trkpt><trkpt lat="43.493915561139005" lon="12.259407237700358"><ele>445.25</ele><time>2026-04-26T10:45:46Z</time></trkpt><trkpt lat="43.493796985340666" lon="12.259391552864084"><ele>445.0</ele><time>2026-04-26T10:45:47Z</time></trkpt><trkpt lat="43.49366820321005" lon="12.259375890736044"><ele>445.0</ele><time>2026-04-26T10:45:48Z</time></trkpt><trkpt lat="43.49354557356164" lon="12.259365314656822"><ele>445.0</ele><time>2026-04-26T10:45:49Z</time></trkpt><trkpt lat="43.49343906476968" lon="12.25934576340206"><ele>445.0</ele><time>2026-04-26T10:45:50Z</time></trkpt><trkpt lat="43.493361090653416" lon="12.259306779905689"><ele>445.0</ele><time>2026-04-26T10:45:51Z</time></trkpt><trkpt lat="43.493291345644685" lon="12.259275026632"><ele>445.0</ele><time>2026-04-26T10:45:52Z</time></trkpt><trkpt lat="43.493201880310046" lon="12.259235290926755"><ele>445.0</ele><time>2026-04-26T10:45:53Z</time></trkpt><trkpt lat="43.49307220905252" lon="12.259321380952391"><ele>445.0</ele><time>2026-04-26T10:45:54Z</time></trkpt><trkpt lat="43.49295592443358" lon="12.259253191088876"><ele>445.0</ele><time>2026-04-26T10:45:55Z</time></trkpt><trkpt lat="43.49283267065621" lon="12.259195999465334"><ele>445.0</ele><time>2026-04-26T10:45:56Z</time></trkpt><trkpt lat="43.49271283726456" lon="12.259152228543622"><ele>442.5</ele><time>2026-04-26T10:45:57Z</time></trkpt><trkpt lat="43.49259153441468" lon="12.259135531472552"><ele>440.0</ele><time>2026-04-26T10:45:58Z</time></trkpt><trkpt lat="43.49245916644356" lon="12.259164950938212"><ele>437.5</ele><time>2026-04-26T10:45:59Z</time></trkpt><trkpt lat="43.49231049066063" lon="12.25919289618334"><ele>435.0</ele><time>2026-04-26T10:46:00Z</time></trkpt><trkpt lat="43.49215879179557" lon="12.25922891058111"><ele>433.0</ele><time>2026-04-26T10:46:01Z</time></trkpt><trkpt lat="43.49201783554698" lon="12.259252030915617"><ele>431.0</ele><time>2026-04-26T10:46:02Z</time></trkpt><trkpt lat="43.491877395970135" lon="12.259263141005734"><ele>429.0</ele><time>2026-04-26T10:46:03Z</time></trkpt><trkpt lat="43.49173311594177" lon="12.259286939699486"><ele>427.0</ele><time>2026-04-26T10:46:04Z</time></trkpt><trkpt lat="43.491602148278474" lon="12.259320619230182"><ele>427.0</ele><time>2026-04-26T10:46:05Z</time></trkpt><trkpt lat="43.491466929289146" lon="12.259370421528716"><ele>427.0</ele><time>2026-04-26T10:46:06Z</time></trkpt><trkpt lat="43.49132798694683" lon="12.259417861698239"><ele>427.0</ele><time>2026-04-26T10:46:07Z</time></trkpt><trkpt lat="43.49119101131434" lon="12.259489113333506"><ele>427.0</ele><time>2026-04-26T10:46:08Z</time></trkpt><trkpt lat="43.49105669674978" lon="12.259554929499274"><ele>427.75</ele><time>2026-04-26T10:46:09Z</time></trkpt><trkpt lat="43.490916078850034" lon="12.259621501444183"><ele>428.5</ele><time>2026-04-26T10:46:10Z</time></trkpt><trkpt lat="43.49078381677801" lon="12.259687927221675"><ele>429.25</ele><time>2026-04-26T10:46:11Z</time></trkpt><trkpt lat="43.49065910685081" lon="12.259750464814067"><ele>430.0</ele><time>2026-04-26T10:46:12Z</time></trkpt><trkpt lat="43.490534037654015" lon="12.259811396994808"><ele>432.75</ele><time>2026-04-26T10:46:13Z</time></trkpt><trkpt lat="43.490404789106556" lon="12.259873094208077"><ele>435.5</ele><time>2026-04-26T10:46:14Z</time></trkpt><trkpt lat="43.49028128190182" lon="12.25993421323632"><ele>438.25</ele><time>2026-04-26T10:46:15Z</time></trkpt><trkpt lat="43.490166883825594" lon="12.259982842136367"><ele>441.0</ele><time>2026-04-26T10:46:16Z</time></trkpt><trkpt lat="43.49004716173099" lon="12.260033788293647"><ele>441.0</ele><time>2026-04-26T10:46:17Z</time></trkpt><trkpt lat="43.489922405956115" lon="12.260110767200404"><ele>441.0</ele><time>2026-04-26T10:46:18Z</time></trkpt><trkpt lat="43.48979636049914" lon="12.260206516456877"><ele>441.0</ele><time>2026-04-26T10:46:19Z</time></trkpt><trkpt lat="43.48969140392681" lon="12.26030517769337"><ele>441.0</ele><time>2026-04-26T10:46:20Z</time></trkpt><trkpt lat="43.48959279469736" lon="12.260394454963919"><ele>440.25</ele><time>2026-04-26T10:46:21Z</time></trkpt><trkpt lat="43.48949382979999" lon="12.260466762308786"><ele>439.5</ele><time>2026-04-26T10:46:22Z</time></trkpt><trkpt lat="43.489388768323366" lon="12.26050752098375"><ele>438.75</ele><time>2026-04-26T10:46:23Z</time></trkpt><trkpt lat="43.48927357135846" lon="12.260510354426286"><ele>438.0</ele><time>2026-04-26T10:46:24Z</time></trkpt><trkpt lat="43.48915346562168" lon="12.260491278527521"><ele>438.0</ele><time>2026-04-26T10:46:25Z</time></trkpt><trkpt lat="43.48902305273187" lon="12.26049014501393"><ele>438.0</ele><time>2026-04-26T10:46:26Z</time></trkpt><trkpt lat="43.48889458337478" lon="12.26052016256177"><ele>438.0</ele><time>2026-04-26T10:46:27Z</time></trkpt><trkpt lat="43.48876720494157" lon="12.260543475522798"><ele>438.0</ele><time>2026-04-26T10:46:28Z</time></trkpt><trkpt lat="43.488638052082955" lon="12.260590241361447"><ele>435.0</ele><time>2026-04-26T10:46:29Z</time></trkpt><trkpt lat="43.48850111138259" lon="12.260601816718495"><ele>432.0</ele><time>2026-04-26T10:46:30Z</time></trkpt><trkpt lat="43.488392556766506" lon="12.260612686835843"><ele>429.0</ele><time>2026-04-26T10:46:31Z</time></trkpt><trkpt lat="43.4882655227602" lon="12.260603706152592"><ele>426.0</ele><time>2026-04-26T10:46:32Z</time></trkpt><trkpt lat="43.48813279946115" lon="12.260592434803874"><ele>426.0</ele><time>2026-04-26T10:46:33Z</time></trkpt><trkpt lat="43.488016758357105" lon="12.260579133643404"><ele>426.0</ele><time>2026-04-26T10:46:34Z</time></trkpt><trkpt lat="43.48788805346826" lon="12.260589169148995"><ele>426.0</ele><time>2026-04-26T10:46:35Z</time></trkpt><trkpt lat="43.487761090231054" lon="12.26060198056887"><ele>426.0</ele><time>2026-04-26T10:46:36Z</time></trkpt><trkpt lat="43.48764220513385" lon="12.260623408294627"><ele>427.0</ele><time>2026-04-26T10:46:37Z</time></trkpt><trkpt lat="43.48752481168315" lon="12.260652591909556"><ele>428.0</ele><time>2026-04-26T10:46:38Z</time></trkpt><trkpt lat="43.487408535576485" lon="12.260671512002881"><ele>429.0</ele><time>2026-04-26T10:46:39Z</time></trkpt><trkpt lat="43.48729720844454" lon="12.260662059673125"><ele>430.0</ele><time>2026-04-26T10:46:40Z</time></trkpt><trkpt lat="43.48718493236807" lon="12.260608332718835"><ele>427.2</ele><time>2026-04-26T10:46:41Z</time></trkpt><trkpt lat="43.487062052732185" lon="12.260557123138057"><ele>424.4</ele><time>2026-04-26T10:46:42Z</time></trkpt><trkpt lat="43.486949894074975" lon="12.260508784663086"><ele>421.6</ele><time>2026-04-26T10:46:43Z</time></trkpt><trkpt lat="43.48685259847414" lon="12.260461062415486"><ele>418.8</ele><time>2026-04-26T10:46:44Z</time></trkpt><trkpt lat="43.486762494312785" lon="12.260401633209312"><ele>416.0</ele><time>2026-04-26T10:46:45Z</time></trkpt><trkpt lat="43.48669155643125" lon="12.260346332898115"><ele>416.0</ele><time>2026-04-26T10:46:46Z</time></trkpt><trkpt lat="43.48663583645553" lon="12.260285500391452"><ele>416.0</ele><time>2026-04-26T10:46:47Z</time></trkpt><trkpt lat="43.486624330424284" lon="12.260163626326394"><ele>416.0</ele><time>2026-04-26T10:46:49Z</time></trkpt><trkpt lat="43.48670816453254" lon="12.260093555913285"><ele>416.0</ele><time>2026-04-26T10:46:51Z</time></trkpt><trkpt lat="43.48684098612677" lon="12.260141975786256"><ele>416.0</ele><time>2026-04-26T10:46:53Z</time></trkpt><trkpt lat="43.486931575802174" lon="12.260194132599329"><ele>416.0</ele><time>2026-04-26T10:46:54Z</time></trkpt><trkpt lat="43.48704914974627" lon="12.260243050995081"><ele>416.0</ele><time>2026-04-26T10:46:55Z</time></trkpt><trkpt lat="43.48717527590352" lon="12.260274299462445"><ele>416.0</ele><time>2026-04-26T10:46:56Z</time></trkpt><trkpt lat="43.487298597642386" lon="12.260251980716268"><ele>416.0</ele><time>2026-04-26T10:46:57Z</time></trkpt><trkpt lat="43.487404303266686" lon="12.260232965442272"><ele>415.4</ele><time>2026-04-26T10:46:58Z</time></trkpt><trkpt lat="43.48750286436768" lon="12.260187592668998"><ele>414.8</ele><time>2026-04-26T10:46:59Z</time></trkpt><trkpt lat="43.487595003785415" lon="12.260155389429693"><ele>414.2</ele><time>2026-04-26T10:47:00Z</time></trkpt><trkpt lat="43.4876833087033" lon="12.260093196308324"><ele>413.59999999999997</ele><time>2026-04-26T10:47:01Z</time></trkpt><trkpt lat="43.487779525030945" lon="12.260009296090116"><ele>413.0</ele><time>2026-04-26T10:47:02Z</time></trkpt><trkpt lat="43.48786853348961" lon="12.259900892289378"><ele>412.99999999999994</ele><time>2026-04-26T10:47:03Z</time></trkpt><trkpt lat="43.487926669673605" lon="12.259798993584097"><ele>413.0</ele><time>2026-04-26T10:47:04Z</time></trkpt><trkpt lat="43.48795525267358" lon="12.259702496291546"><ele>413.0</ele><time>2026-04-26T10:47:05Z</time></trkpt><trkpt lat="43.48796939265203" lon="12.259615401678737"><ele>413.0</ele><time>2026-04-26T10:47:06Z</time></trkpt><trkpt lat="43.48796715024893" lon="12.259495291189433"><ele>412.99999999999994</ele><time>2026-04-26T10:47:08Z</time></trkpt><trkpt lat="43.487925114628794" lon="12.259384525715458"><ele>413.0</ele><time>2026-04-26T10:47:10Z</time></trkpt><trkpt lat="43.48788328244272" lon="12.259317299003738"><ele>413.0</ele><time>2026-04-26T10:47:13Z</time></trkpt><trkpt lat="43.48779093773376" lon="12.2594541569184"><ele>413.0</ele><time>2026-04-26T10:47:14Z</time></trkpt><trkpt lat="43.48776252530035" lon="12.259596350065031"><ele>413.0</ele><time>2026-04-26T10:47:16Z</time></trkpt><trkpt lat="43.487704142535634" lon="12.2596992212992"><ele>413.0</ele><time>2026-04-26T10:47:53Z</time></trkpt><trkpt lat="43.487626858022686" lon="12.259805921566727"><ele>413.0</ele><time>2026-04-26T10:47:55Z</time></trkpt><trkpt lat="43.48755832819542" lon="12.259856686611114"><ele>413.0</ele><time>2026-04-26T10:47:56Z</time></trkpt><trkpt lat="43.48748852741999" lon="12.259895317922185"><ele>413.0</ele><time>2026-04-26T10:47:57Z</time></trkpt><trkpt lat="43.48741354132694" lon="12.259934399018046"><ele>413.0</ele><time>2026-04-26T10:47:58Z</time></trkpt><trkpt lat="43.48731829422797" lon="12.259961916734184"><ele>413.0</ele><time>2026-04-26T10:47:59Z</time></trkpt><trkpt lat="43.48721888868214" lon="12.25997727415483"><ele>413.0</ele><time>2026-04-26T10:48:00Z</time></trkpt><trkpt lat="43.48711724788173" lon="12.25994783443631"><ele>413.59999999999997</ele><time>2026-04-26T10:48:01Z</time></trkpt><trkpt lat="43.48702075697243" lon="12.259906418172097"><ele>414.2</ele><time>2026-04-26T10:48:02Z</time></trkpt><trkpt lat="43.48692522623579" lon="12.259826331504277"><ele>414.8</ele><time>2026-04-26T10:48:03Z</time></trkpt><trkpt lat="43.48681643405116" lon="12.259749471568307"><ele>415.4</ele><time>2026-04-26T10:48:04Z</time></trkpt><trkpt lat="43.48673663729523" lon="12.259706416906825"><ele>416.0</ele><time>2026-04-26T10:48:05Z</time></trkpt><trkpt lat="43.48664765422906" lon="12.259626449031282"><ele>413.20000000000005</ele><time>2026-04-26T10:48:06Z</time></trkpt><trkpt lat="43.486559636764405" lon="12.259577837769205"><ele>410.40000000000003</ele><time>2026-04-26T10:48:07Z</time></trkpt><trkpt lat="43.48645598647238" lon="12.259551742938497"><ele>407.6</ele><time>2026-04-26T10:48:08Z</time></trkpt><trkpt lat="43.48636253786537" lon="12.259512116479373"><ele>404.8</ele><time>2026-04-26T10:48:09Z</time></trkpt><trkpt lat="43.48625481592268" lon="12.259493111999326"><ele>402.0</ele><time>2026-04-26T10:48:10Z</time></trkpt><trkpt lat="43.486150669643315" lon="12.259484541406534"><ele>402.0</ele><time>2026-04-26T10:48:11Z</time></trkpt><trkpt lat="43.48606832745134" lon="12.259500883429629"><ele>402.0</ele><time>2026-04-26T10:48:12Z</time></trkpt><trkpt lat="43.48596307900358" lon="12.259474510534265"><ele>402.0</ele><time>2026-04-26T10:48:13Z</time></trkpt><trkpt lat="43.485857812223955" lon="12.259451435689744"><ele>402.0</ele><time>2026-04-26T10:48:14Z</time></trkpt><trkpt lat="43.48575093786507" lon="12.25944694071884"><ele>402.0</ele><time>2026-04-26T10:48:15Z</time></trkpt><trkpt lat="43.485652526081516" lon="12.259449832224522"><ele>402.0</ele><time>2026-04-26T10:48:16Z</time></trkpt><trkpt lat="43.48555166057873" lon="12.259469285641291"><ele>402.0</ele><time>2026-04-26T10:48:17Z</time></trkpt><trkpt lat="43.485459265702836" lon="12.25948907932135"><ele>402.0</ele><time>2026-04-26T10:48:18Z</time></trkpt><trkpt lat="43.485369195490705" lon="12.25947370698841"><ele>402.0</ele><time>2026-04-26T10:48:21Z</time></trkpt><trkpt lat="43.485323900177995" lon="12.259405169706833"><ele>402.0</ele><time>2026-04-26T10:48:22Z</time></trkpt><trkpt lat="43.4852656009202" lon="12.259364461324576"><ele>402.0</ele><time>2026-04-26T10:48:23Z</time></trkpt><trkpt lat="43.48519920198288" lon="12.259339234568472"><ele>401.20000000000005</ele><time>2026-04-26T10:48:24Z</time></trkpt><trkpt lat="43.485088576291574" lon="12.259243673130266"><ele>400.4</ele><time>2026-04-26T10:48:26Z</time></trkpt><trkpt lat="43.48497128389687" lon="12.259179123105037"><ele>399.6</ele><time>2026-04-26T10:48:28Z</time></trkpt><trkpt lat="43.484869335289176" lon="12.259102880805136"><ele>398.79999999999995</ele><time>2026-04-26T10:48:30Z</time></trkpt><trkpt lat="43.48480571489582" lon="12.259074092420875"><ele>398.0</ele><time>2026-04-26T10:48:31Z</time></trkpt><trkpt lat="43.48473622320036" lon="12.259064268718806"><ele>397.99999999999994</ele><time>2026-04-26T10:48:32Z</time></trkpt><trkpt lat="43.48467311733365" lon="12.259062831845322"><ele>398.0</ele><time>2026-04-26T10:48:33Z</time></trkpt><trkpt lat="43.48461013582373" lon="12.259078040681915"><ele>398.0</ele><time>2026-04-26T10:48:34Z</time></trkpt><trkpt lat="43.4845415582628" lon="12.259125137296744"><ele>398.0</ele><time>2026-04-26T10:48:35Z</time></trkpt><trkpt lat="43.484476927384385" lon="12.259186637177422"><ele>398.0</ele><time>2026-04-26T10:48:36Z</time></trkpt><trkpt lat="43.48442252926564" lon="12.25926525603563"><ele>397.99999999999994</ele><time>2026-04-26T10:48:37Z</time></trkpt><trkpt lat="43.48435247832118" lon="12.259337575182021"><ele>398.0</ele><time>2026-04-26T10:48:38Z</time></trkpt><trkpt lat="43.484296221893835" lon="12.25939626353853"><ele>395.66666666666663</ele><time>2026-04-26T10:48:39Z</time></trkpt><trkpt lat="43.48422921431062" lon="12.25946436512375"><ele>393.3333333333333</ele><time>2026-04-26T10:48:40Z</time></trkpt><trkpt lat="43.48417967035559" lon="12.259524361000441"><ele>391.0</ele><time>2026-04-26T10:48:41Z</time></trkpt><trkpt lat="43.48409664880133" lon="12.259605403082883"><ele>388.66666666666663</ele><time>2026-04-26T10:48:43Z</time></trkpt><trkpt lat="43.48400381099887" lon="12.259608864607921"><ele>386.3333333333333</ele><time>2026-04-26T10:48:45Z</time></trkpt><trkpt lat="43.483925101576176" lon="12.259618248815057"><ele>384.0</ele><time>2026-04-26T10:48:47Z</time></trkpt><trkpt lat="43.48389872415938" lon="12.259434947497404"><ele>384.0</ele><time>2026-04-26T10:48:48Z</time></trkpt><trkpt lat="43.483853589052146" lon="12.259335921472289"><ele>384.0</ele><time>2026-04-26T10:48:49Z</time></trkpt><trkpt lat="43.48381206425621" lon="12.259230164223327"><ele>384.0</ele><time>2026-04-26T10:48:50Z</time></trkpt><trkpt lat="43.483770358373626" lon="12.259118131844952"><ele>384.0</ele><time>2026-04-26T10:48:51Z</time></trkpt><trkpt lat="43.48372929923252" lon="12.259017375270961"><ele>384.0</ele><time>2026-04-26T10:48:52Z</time></trkpt><trkpt lat="43.48368883049881" lon="12.258932087886073"><ele>384.0</ele><time>2026-04-26T10:48:53Z</time></trkpt><trkpt lat="43.48361884315971" lon="12.258816463728778"><ele>379.2</ele><time>2026-04-26T10:48:54Z</time></trkpt><trkpt lat="43.48355203279235" lon="12.258727648351805"><ele>374.4</ele><time>2026-04-26T10:48:55Z</time></trkpt><trkpt lat="43.48350573865284" lon="12.258613562084149"><ele>369.6</ele><time>2026-04-26T10:48:56Z</time></trkpt><trkpt lat="43.48344297648697" lon="12.258501581704307"><ele>364.8</ele><time>2026-04-26T10:48:57Z</time></trkpt><trkpt lat="43.483379337492636" lon="12.258385845601781"><ele>360.0</ele><time>2026-04-26T10:48:58Z</time></trkpt><trkpt lat="43.48330521461628" lon="12.258275730372672"><ele>360.0</ele><time>2026-04-26T10:48:59Z</time></trkpt><trkpt lat="43.48323383061965" lon="12.258154804891493"><ele>360.0</ele><time>2026-04-26T10:49:00Z</time></trkpt><trkpt lat="43.48316441157751" lon="12.25803143648756"><ele>360.0</ele><time>2026-04-26T10:49:01Z</time></trkpt><trkpt lat="43.48309969514355" lon="12.257910683584987"><ele>360.0</ele><time>2026-04-26T10:49:02Z</time></trkpt><trkpt lat="43.4830374651405" lon="12.257802406619955"><ele>360.0</ele><time>2026-04-26T10:49:03Z</time></trkpt><trkpt lat="43.48298295894854" lon="12.257704784037799"><ele>357.8333333333333</ele><time>2026-04-26T10:49:04Z</time></trkpt><trkpt lat="43.482927052835116" lon="12.257609814705518"><ele>355.6666666666667</ele><time>2026-04-26T10:49:05Z</time></trkpt><trkpt lat="43.48288367979296" lon="12.25752183945927"><ele>353.5</ele><time>2026-04-26T10:49:06Z</time></trkpt><trkpt lat="43.482831844691944" lon="12.25744848470142"><ele>351.33333333333337</ele><time>2026-04-26T10:49:07Z</time></trkpt><trkpt lat="43.482768399473514" lon="12.257385373126267"><ele>349.1666666666667</ele><time>2026-04-26T10:49:08Z</time></trkpt><trkpt lat="43.48269615741522" lon="12.257333022216313"><ele>347.0</ele><time>2026-04-26T10:49:09Z</time></trkpt><trkpt lat="43.48262040445554" lon="12.257365953411126"><ele>347.0</ele><time>2026-04-26T10:49:10Z</time></trkpt><trkpt lat="43.48254601243448" lon="12.257403203577137"><ele>347.0</ele><time>2026-04-26T10:49:11Z</time></trkpt><trkpt lat="43.482468341720214" lon="12.257479681683124"><ele>347.0</ele><time>2026-04-26T10:49:12Z</time></trkpt><trkpt lat="43.48239462467448" lon="12.257564641173392"><ele>347.0</ele><time>2026-04-26T10:49:13Z</time></trkpt><trkpt lat="43.48230819038423" lon="12.257606998300918"><ele>347.0</ele><time>2026-04-26T10:49:14Z</time></trkpt><trkpt lat="43.48225229573776" lon="12.257704511104517"><ele>347.0</ele><time>2026-04-26T10:49:15Z</time></trkpt><trkpt lat="43.482190672057" lon="12.257765912628575"><ele>347.0</ele><time>2026-04-26T10:49:16Z</time></trkpt><trkpt lat="43.482124397218854" lon="12.257844594139359"><ele>347.0</ele><time>2026-04-26T10:49:17Z</time></trkpt><trkpt lat="43.482054037088034" lon="12.2579365059355"><ele>347.0</ele><time>2026-04-26T10:49:18Z</time></trkpt><trkpt lat="43.481985247571046" lon="12.258024368328352"><ele>347.0</ele><time>2026-04-26T10:49:19Z</time></trkpt><trkpt lat="43.48192276769618" lon="12.258112388125479"><ele>347.0</ele><time>2026-04-26T10:49:20Z</time></trkpt><trkpt lat="43.48186297479853" lon="12.258188657379634"><ele>345.83333333333337</ele><time>2026-04-26T10:49:21Z</time></trkpt><trkpt lat="43.48180939367526" lon="12.258254785720885"><ele>344.6666666666667</ele><time>2026-04-26T10:49:22Z</time></trkpt><trkpt lat="43.481756187323434" lon="12.258324034909272"><ele>343.5</ele><time>2026-04-26T10:49:23Z</time></trkpt><trkpt lat="43.48171335937823" lon="12.258389048306839"><ele>342.3333333333333</ele><time>2026-04-26T10:49:24Z</time></trkpt><trkpt lat="43.481614417789515" lon="12.258465601501536"><ele>341.16666666666663</ele><time>2026-04-26T10:49:26Z</time></trkpt><trkpt lat="43.48151857241554" lon="12.258537541600704"><ele>340.0</ele><time>2026-04-26T10:49:28Z</time></trkpt><trkpt lat="43.48145746277823" lon="12.258506725777824"><ele>340.0</ele><time>2026-04-26T10:49:29Z</time></trkpt><trkpt lat="43.481399248402816" lon="12.258363097243102"><ele>340.0</ele><time>2026-04-26T10:49:31Z</time></trkpt><trkpt lat="43.48133220367853" lon="12.258243145327357"><ele>340.0</ele><time>2026-04-26T10:49:33Z</time></trkpt><trkpt lat="43.48126667953378" lon="12.258112369796569"><ele>340.0</ele><time>2026-04-26T10:49:35Z</time></trkpt><trkpt lat="43.48122061670362" lon="12.258019136841193"><ele>340.0</ele><time>2026-04-26T10:49:37Z</time></trkpt><trkpt lat="43.481093500840785" lon="12.258080765201038"><ele>337.8</ele><time>2026-04-26T10:49:39Z</time></trkpt><trkpt lat="43.48099703201812" lon="12.25818559104114"><ele>335.6</ele><time>2026-04-26T10:49:41Z</time></trkpt><trkpt lat="43.480886855409395" lon="12.25816423342108"><ele>333.4</ele><time>2026-04-26T10:49:43Z</time></trkpt><trkpt lat="43.48083431983113" lon="12.258103926406926"><ele>331.2</ele><time>2026-04-26T10:49:44Z</time></trkpt><trkpt lat="43.48070889413077" lon="12.258131969903959"><ele>329.0</ele><time>2026-04-26T10:49:46Z</time></trkpt><trkpt lat="43.48064653157773" lon="12.258188779221927"><ele>329.0</ele><time>2026-04-26T10:49:47Z</time></trkpt><trkpt lat="43.4805728239664" lon="12.25827295828451"><ele>329.0</ele><time>2026-04-26T10:49:48Z</time></trkpt><trkpt lat="43.48049847134013" lon="12.258376171988196"><ele>329.0</ele><time>2026-04-26T10:49:49Z</time></trkpt><trkpt lat="43.48042282885183" lon="12.258474958261273"><ele>329.0</ele><time>2026-04-26T10:49:50Z</time></trkpt><trkpt lat="43.480347354140214" lon="12.258562678080555"><ele>329.0</ele><time>2026-04-26T10:49:51Z</time></trkpt><trkpt lat="43.480265163431994" lon="12.25866071994344"><ele>327.75</ele><time>2026-04-26T10:49:52Z</time></trkpt><trkpt lat="43.480181510215616" lon="12.258761450227775"><ele>326.5</ele><time>2026-04-26T10:49:53Z</time></trkpt><trkpt lat="43.48009192180512" lon="12.258869324543866"><ele>325.25</ele><time>2026-04-26T10:49:54Z</time></trkpt><trkpt lat="43.48000834277506" lon="12.258967529387807"><ele>324.0</ele><time>2026-04-26T10:49:55Z</time></trkpt><trkpt lat="43.47991982751016" lon="12.259063791939088"><ele>323.6</ele><time>2026-04-26T10:49:56Z</time></trkpt><trkpt lat="43.47983352087317" lon="12.25916417815341"><ele>323.2</ele><time>2026-04-26T10:49:57Z</time></trkpt><trkpt lat="43.4797386541707" lon="12.259243567709499"><ele>322.8</ele><time>2026-04-26T10:49:58Z</time></trkpt><trkpt lat="43.47965562276941" lon="12.259341469139809"><ele>322.40000000000003</ele><time>2026-04-26T10:49:59Z</time></trkpt><trkpt lat="43.479572771320335" lon="12.259441062204978"><ele>322.0</ele><time>2026-04-26T10:50:00Z</time></trkpt><trkpt lat="43.47949658908901" lon="12.259558615073477"><ele>320.20000000000005</ele><time>2026-04-26T10:50:01Z</time></trkpt><trkpt lat="43.47941473124581" lon="12.25965106875612"><ele>318.40000000000003</ele><time>2026-04-26T10:50:02Z</time></trkpt><trkpt lat="43.47932363982749" lon="12.259732318850066"><ele>316.6</ele><time>2026-04-26T10:50:03Z</time></trkpt><trkpt lat="43.479240433626416" lon="12.259829046706939"><ele>314.8</ele><time>2026-04-26T10:50:04Z</time></trkpt><trkpt lat="43.479153288198226" lon="12.259933755314655"><ele>313.0</ele><time>2026-04-26T10:50:05Z</time></trkpt><trkpt lat="43.47906557769474" lon="12.26003978219619"><ele>313.0</ele><time>2026-04-26T10:50:05.999Z</time></trkpt><trkpt lat="43.478982591189634" lon="12.26014009858582"><ele>313.0</ele><time>2026-04-26T10:50:06.999Z</time></trkpt><trkpt lat="43.478902018180406" lon="12.260233685691766"><ele>313.0</ele><time>2026-04-26T10:50:07.999Z</time></trkpt><trkpt lat="43.47882806758314" lon="12.260309564735842"><ele>313.0</ele><time>2026-04-26T10:50:08.999Z</time></trkpt><trkpt lat="43.4787557931235" lon="12.26036592681072"><ele>313.0</ele><time>2026-04-26T10:50:09.999Z</time></trkpt><trkpt lat="43.478671553757344" lon="12.260417847632748"><ele>313.0</ele><time>2026-04-26T10:50:10.999Z</time></trkpt><trkpt lat="43.47858426469574" lon="12.26045884143518"><ele>313.0</ele><time>2026-04-26T10:50:11.999Z</time></trkpt><trkpt lat="43.478474984868846" lon="12.260515593372128"><ele>313.0</ele><time>2026-04-26T10:50:12.999Z</time></trkpt><trkpt lat="43.47836271602684" lon="12.260537379549122"><ele>313.0</ele><time>2026-04-26T10:50:13.999Z</time></trkpt><trkpt lat="43.4782480477712" lon="12.260558450607814"><ele>313.0</ele><time>2026-04-26T10:50:14.999Z</time></trkpt><trkpt lat="43.47813108630566" lon="12.260580646837516"><ele>313.0</ele><time>2026-04-26T10:50:15.999Z</time></trkpt><trkpt lat="43.47800757211446" lon="12.260596402778559"><ele>313.0</ele><time>2026-04-26T10:50:16.999Z</time></trkpt><trkpt lat="43.47788813736351" lon="12.260613004334804"><ele>313.0</ele><time>2026-04-26T10:50:17.999Z</time></trkpt><trkpt lat="43.477785022117345" lon="12.260642097397055"><ele>313.0</ele><time>2026-04-26T10:50:18.999Z</time></trkpt><trkpt lat="43.47768915162299" lon="12.260662675649332"><ele>313.0</ele><time>2026-04-26T10:50:19.999Z</time></trkpt><trkpt lat="43.477595979591335" lon="12.260703430157125"><ele>315.2</ele><time>2026-04-26T10:50:20.999Z</time></trkpt><trkpt lat="43.47749920934609" lon="12.260761489697167"><ele>317.4</ele><time>2026-04-26T10:50:21.999Z</time></trkpt><trkpt lat="43.47740662974705" lon="12.260819894568549"><ele>319.59999999999997</ele><time>2026-04-26T10:50:22.999Z</time></trkpt><trkpt lat="43.47729421387174" lon="12.260841166772922"><ele>321.8</ele><time>2026-04-26T10:50:23.999Z</time></trkpt><trkpt lat="43.47720612184401" lon="12.260870075882393"><ele>324.0</ele><time>2026-04-26T10:50:24.999Z</time></trkpt><trkpt lat="43.47713335674425" lon="12.26090988397205"><ele>324.0</ele><time>2026-04-26T10:50:25.999Z</time></trkpt><trkpt lat="43.47705737964452" lon="12.26093445769309"><ele>324.0</ele><time>2026-04-26T10:50:27.999Z</time></trkpt><trkpt lat="43.47711310631183" lon="12.260998856529827"><ele>324.0</ele><time>2026-04-26T10:50:31Z</time></trkpt><trkpt lat="43.477182648865224" lon="12.2609908934249"><ele>324.0</ele><time>2026-04-26T10:50:32Z</time></trkpt><trkpt lat="43.477262158200155" lon="12.260990046234543"><ele>324.0</ele><time>2026-04-26T10:50:33Z</time></trkpt><trkpt lat="43.4773322834856" lon="12.260999932398326"><ele>324.0</ele><time>2026-04-26T10:50:34Z</time></trkpt><trkpt lat="43.47742548070026" lon="12.261019970470807"><ele>324.0</ele><time>2026-04-26T10:50:35Z</time></trkpt><trkpt lat="43.4775204004507" lon="12.261072943224443"><ele>324.0</ele><time>2026-04-26T10:50:36Z</time></trkpt><trkpt lat="43.4776187934993" lon="12.26113741963598"><ele>324.0</ele><time>2026-04-26T10:50:37Z</time></trkpt><trkpt lat="43.47771777649802" lon="12.261183925637399"><ele>324.0</ele><time>2026-04-26T10:50:38Z</time></trkpt><trkpt lat="43.477806505052335" lon="12.261234269110833"><ele>324.0</ele><time>2026-04-26T10:50:39Z</time></trkpt><trkpt lat="43.47789153017067" lon="12.261272233759746"><ele>323.7142857142857</ele><time>2026-04-26T10:50:40Z</time></trkpt><trkpt lat="43.477981511112176" lon="12.26131584252917"><ele>323.42857142857144</ele><time>2026-04-26T10:50:41Z</time></trkpt><trkpt lat="43.47804606535515" lon="12.261349712832738"><ele>323.1428571428571</ele><time>2026-04-26T10:50:42Z</time></trkpt><trkpt lat="43.47812057229578" lon="12.261379022419462"><ele>322.8571428571429</ele><time>2026-04-26T10:50:43Z</time></trkpt><trkpt lat="43.47817822068642" lon="12.261418518257274"><ele>322.57142857142856</ele><time>2026-04-26T10:50:44Z</time></trkpt><trkpt lat="43.47819814911058" lon="12.261509756412933"><ele>322.2857142857143</ele><time>2026-04-26T10:50:45Z</time></trkpt><trkpt lat="43.4781813290056" lon="12.26160695074852"><ele>322.0</ele><time>2026-04-26T10:50:46Z</time></trkpt><trkpt lat="43.478211250013324" lon="12.261683479134517"><ele>324.66666666666663</ele><time>2026-04-26T10:50:47Z</time></trkpt><trkpt lat="43.47832081462636" lon="12.261748034701622"><ele>327.3333333333333</ele><time>2026-04-26T10:50:49Z</time></trkpt><trkpt lat="43.478384378328" lon="12.261721261629424"><ele>330.0</ele><time>2026-04-26T10:50:50Z</time></trkpt><trkpt lat="43.47847597701403" lon="12.261741740049953"><ele>332.6666666666667</ele><time>2026-04-26T10:50:51Z</time></trkpt><trkpt lat="43.47855082891973" lon="12.26177237144641"><ele>335.33333333333337</ele><time>2026-04-26T10:50:52Z</time></trkpt><trkpt lat="43.47863967778055" lon="12.261784254585978"><ele>338.0</ele><time>2026-04-26T10:50:53Z</time></trkpt><trkpt lat="43.478730755668565" lon="12.261828170423746"><ele>336.33333333333337</ele><time>2026-04-26T10:50:54Z</time></trkpt><trkpt lat="43.47881421939409" lon="12.261885241507118"><ele>334.6666666666667</ele><time>2026-04-26T10:50:55Z</time></trkpt><trkpt lat="43.47888123359538" lon="12.261907910573182"><ele>333.0</ele><time>2026-04-26T10:50:56Z</time></trkpt><trkpt lat="43.4789435937093" lon="12.261968273866186"><ele>331.3333333333333</ele><time>2026-04-26T10:50:57Z</time></trkpt><trkpt lat="43.47904488164175" lon="12.262043479603685"><ele>329.66666666666663</ele><time>2026-04-26T10:50:59Z</time></trkpt><trkpt lat="43.479111523442945" lon="12.262088920073083"><ele>328.0</ele><time>2026-04-26T10:51:00Z</time></trkpt><trkpt lat="43.479198546480205" lon="12.262145414500308"><ele>328.0</ele><time>2026-04-26T10:51:01Z</time></trkpt><trkpt lat="43.47924995294209" lon="12.262199814930842"><ele>328.0</ele><time>2026-04-26T10:51:02Z</time></trkpt><trkpt lat="43.479046510704954" lon="12.262614136305517"><ele>328.0</ele><time>2026-04-26T10:51:04Z</time></trkpt><trkpt lat="43.47897559744899" lon="12.26265126025825"><ele>331.79999999999995</ele><time>2026-04-26T10:51:05Z</time></trkpt><trkpt lat="43.47890251442321" lon="12.262702163373909"><ele>335.6</ele><time>2026-04-26T10:51:06Z</time></trkpt><trkpt lat="43.47883593512759" lon="12.262772031587899"><ele>339.4</ele><time>2026-04-26T10:51:07Z</time></trkpt><trkpt lat="43.478764137718976" lon="12.262854933052974"><ele>343.20000000000005</ele><time>2026-04-26T10:51:08Z</time></trkpt><trkpt lat="43.478685599864974" lon="12.262935727818821"><ele>347.0</ele><time>2026-04-26T10:51:09Z</time></trkpt><trkpt lat="43.478612032034725" lon="12.263013194457908"><ele>348.0</ele><time>2026-04-26T10:51:10Z</time></trkpt><trkpt lat="43.47850290034648" lon="12.26310136004543"><ele>349.0</ele><time>2026-04-26T10:51:12Z</time></trkpt><trkpt lat="43.47841715691262" lon="12.26313527778067"><ele>350.0</ele><time>2026-04-26T10:51:13Z</time></trkpt><trkpt lat="43.47831994151488" lon="12.263168141963257"><ele>351.0</ele><time>2026-04-26T10:51:14Z</time></trkpt><trkpt lat="43.478229466252635" lon="12.263207837846288"><ele>352.0</ele><time>2026-04-26T10:51:15Z</time></trkpt><trkpt lat="43.478138920828044" lon="12.263238596519232"><ele>355.8</ele><time>2026-04-26T10:51:16Z</time></trkpt><trkpt lat="43.47804095725536" lon="12.263264295466048"><ele>359.6</ele><time>2026-04-26T10:51:17Z</time></trkpt><trkpt lat="43.477944736689956" lon="12.263297475152676"><ele>363.40000000000003</ele><time>2026-04-26T10:51:18Z</time></trkpt><trkpt lat="43.47784897928087" lon="12.26330418567431"><ele>367.20000000000005</ele><time>2026-04-26T10:51:19Z</time></trkpt><trkpt lat="43.477761742687434" lon="12.263347378790852"><ele>371.0</ele><time>2026-04-26T10:51:20Z</time></trkpt><trkpt lat="43.47767451645124" lon="12.263354430968525"><ele>371.20000000000005</ele><time>2026-04-26T10:51:21Z</time></trkpt><trkpt lat="43.477577540733" lon="12.263362113178259"><ele>371.40000000000003</ele><time>2026-04-26T10:51:22Z</time></trkpt><trkpt lat="43.47747141006283" lon="12.263377574204332"><ele>371.6</ele><time>2026-04-26T10:51:23Z</time></trkpt><trkpt lat="43.47736576473996" lon="12.263376467180223"><ele>371.8</ele><time>2026-04-26T10:51:24Z</time></trkpt><trkpt lat="43.47726603504673" lon="12.263363171774586"><ele>372.0</ele><time>2026-04-26T10:51:25Z</time></trkpt><trkpt lat="43.4771732456842" lon="12.263328307154461"><ele>371.6</ele><time>2026-04-26T10:51:26Z</time></trkpt><trkpt lat="43.47708836425315" lon="12.263275747537904"><ele>371.20000000000005</ele><time>2026-04-26T10:51:27Z</time></trkpt><trkpt lat="43.477002151561024" lon="12.26320135929192"><ele>370.8</ele><time>2026-04-26T10:51:28Z</time></trkpt><trkpt lat="43.47691631712707" lon="12.26315077162487"><ele>370.4</ele><time>2026-04-26T10:51:29Z</time></trkpt><trkpt lat="43.476823016167806" lon="12.263115742982219"><ele>370.0</ele><time>2026-04-26T10:51:30Z</time></trkpt><trkpt lat="43.47673188696458" lon="12.263074958419448"><ele>365.2</ele><time>2026-04-26T10:51:31Z</time></trkpt><trkpt lat="43.47663306378532" lon="12.26304947828792"><ele>360.4</ele><time>2026-04-26T10:51:32Z</time></trkpt><trkpt lat="43.47653200398808" lon="12.26302865933949"><ele>355.6</ele><time>2026-04-26T10:51:33Z</time></trkpt><trkpt lat="43.47643575804781" lon="12.263018391547586"><ele>350.8</ele><time>2026-04-26T10:51:34Z</time></trkpt><trkpt lat="43.47634466114392" lon="12.263012856176923"><ele>346.0</ele><time>2026-04-26T10:51:35Z</time></trkpt><trkpt lat="43.47625205788241" lon="12.263008775361103"><ele>345.3333333333333</ele><time>2026-04-26T10:51:36Z</time></trkpt><trkpt lat="43.47617709511314" lon="12.262989376753236"><ele>344.66666666666663</ele><time>2026-04-26T10:51:37Z</time></trkpt><trkpt lat="43.47611242976357" lon="12.262978541819884"><ele>344.0</ele><time>2026-04-26T10:51:38Z</time></trkpt><trkpt lat="43.47599602393168" lon="12.262966390681132"><ele>343.3333333333333</ele><time>2026-04-26T10:51:40Z</time></trkpt><trkpt lat="43.47591967476098" lon="12.26285616243145"><ele>342.6666666666667</ele><time>2026-04-26T10:51:42Z</time></trkpt><trkpt lat="43.47592068983972" lon="12.26274978317184"><ele>342.0</ele><time>2026-04-26T10:51:43Z</time></trkpt><trkpt lat="43.4759072400821" lon="12.262650757772647"><ele>342.0</ele><time>2026-04-26T10:51:44Z</time></trkpt><trkpt lat="43.47586712602924" lon="12.262577927911664"><ele>342.0</ele><time>2026-04-26T10:51:45Z</time></trkpt><trkpt lat="43.47576291123293" lon="12.262555872408642"><ele>342.0</ele><time>2026-04-26T10:51:46Z</time></trkpt><trkpt lat="43.47566145728008" lon="12.262685115514826"><ele>342.0</ele><time>2026-04-26T10:51:47Z</time></trkpt><trkpt lat="43.475554196484595" lon="12.262729961760435"><ele>342.0</ele><time>2026-04-26T10:51:48Z</time></trkpt><trkpt lat="43.47544139318914" lon="12.262793710925445"><ele>340.0</ele><time>2026-04-26T10:51:49Z</time></trkpt><trkpt lat="43.475323565636664" lon="12.262859791560293"><ele>338.0</ele><time>2026-04-26T10:51:50Z</time></trkpt><trkpt lat="43.4752109485197" lon="12.2629423058472"><ele>336.0</ele><time>2026-04-26T10:51:51Z</time></trkpt><trkpt lat="43.475104993839906" lon="12.262991739257622"><ele>334.0</ele><time>2026-04-26T10:51:52Z</time></trkpt><trkpt lat="43.47501235314401" lon="12.263031606139123"><ele>334.0</ele><time>2026-04-26T10:51:53Z</time></trkpt><trkpt lat="43.47493936773591" lon="12.263050207271416"><ele>334.0</ele><time>2026-04-26T10:51:54Z</time></trkpt><trkpt lat="43.47484435203028" lon="12.263052780668142"><ele>334.0</ele><time>2026-04-26T10:51:56Z</time></trkpt><trkpt lat="43.474769508337" lon="12.263113083676355"><ele>334.0</ele><time>2026-04-26T10:51:59Z</time></trkpt><trkpt lat="43.47476060770107" lon="12.263266679841559"><ele>334.0</ele><time>2026-04-26T10:52:01Z</time></trkpt><trkpt lat="43.47468369562656" lon="12.263404278315331"><ele>334.3333333333333</ele><time>2026-04-26T10:52:03Z</time></trkpt><trkpt lat="43.47461057394087" lon="12.26346095795355"><ele>334.66666666666663</ele><time>2026-04-26T10:52:04Z</time></trkpt><trkpt lat="43.474538667246" lon="12.263516269552136"><ele>335.0</ele><time>2026-04-26T10:52:05Z</time></trkpt><trkpt lat="43.474466643060985" lon="12.263583004560052"><ele>335.3333333333333</ele><time>2026-04-26T10:52:06Z</time></trkpt><trkpt lat="43.47440288759714" lon="12.26366138940318"><ele>335.6666666666667</ele><time>2026-04-26T10:52:07Z</time></trkpt><trkpt lat="43.47432613922254" lon="12.263739853361866"><ele>336.0</ele><time>2026-04-26T10:52:08Z</time></trkpt><trkpt lat="43.474253701032" lon="12.263814239516353"><ele>336.0</ele><time>2026-04-26T10:52:09Z</time></trkpt><trkpt lat="43.47417994363861" lon="12.263865063874617"><ele>336.0</ele><time>2026-04-26T10:52:10Z</time></trkpt><trkpt lat="43.47413465862651" lon="12.263936093737103"><ele>336.0</ele><time>2026-04-26T10:52:11Z</time></trkpt><trkpt lat="43.4740473878302" lon="12.264027180091997"><ele>336.0</ele><time>2026-04-26T10:52:13Z</time></trkpt><trkpt lat="43.47399847703927" lon="12.264101358806391"><ele>336.0</ele><time>2026-04-26T10:52:17Z</time></trkpt><trkpt lat="43.47399303647701" lon="12.264206806645058"><ele>336.0</ele><time>2026-04-26T10:52:19Z</time></trkpt><trkpt lat="43.473932461997066" lon="12.264178668554504"><ele>338.0</ele><time>2026-04-26T10:52:21Z</time></trkpt><trkpt lat="43.47395494094809" lon="12.264270869255373"><ele>338.0</ele><time>2026-04-26T10:52:25Z</time></trkpt></trkseg></trk></gpx>